<?xml version="1.0" encoding="UTF-8" standalone="no" ?>
<gpx xmlns="http://www.topografix.com/GPX/1/1" xmlns:xsi="http://www.w3.org/2001/XMLSchema-instance" xsi:schemaLocation="http://www.topografix.com/GPX/1/1 http://www.topografix.com/GPX/1/1/gpx.xsd" version="1.1" creator="VisuGPX - https://www.visugpx.com">
  <metadata>
    <name>GTA-VTT - Jour 5</name>
    <desc><![CDATA[La 5ieme étape de la GTA (Grenoble-Nice) réalisée en 10j, juillet 2010.]]></desc>
  </metadata>
  <trk>
    <name><![CDATA[GTA VTT - Jour 5]]></name>
    <trkseg>
      <trkpt lat="44.58553" lon="5.93462">
        <ele>1298</ele>
        <time>2010-07-17T07:45:15Z</time>
      </trkpt>
      <trkpt lat="44.58527" lon="5.93452">
        <ele>1310</ele>
        <time>2010-07-17T07:45:40Z</time>
      </trkpt>
      <trkpt lat="44.58505" lon="5.93444">
        <ele>1308</ele>
        <time>2010-07-17T07:45:48Z</time>
      </trkpt>
      <trkpt lat="44.58483" lon="5.93434">
        <ele>1310</ele>
        <time>2010-07-17T07:45:55Z</time>
      </trkpt>
      <trkpt lat="44.58461" lon="5.93412">
        <ele>1311</ele>
        <time>2010-07-17T07:46:02Z</time>
      </trkpt>
      <trkpt lat="44.58444" lon="5.93384">
        <ele>1311</ele>
        <time>2010-07-17T07:46:09Z</time>
      </trkpt>
      <trkpt lat="44.58428" lon="5.93354">
        <ele>1311</ele>
        <time>2010-07-17T07:46:16Z</time>
      </trkpt>
      <trkpt lat="44.58406" lon="5.93339">
        <ele>1311</ele>
        <time>2010-07-17T07:46:24Z</time>
      </trkpt>
      <trkpt lat="44.58386" lon="5.93363">
        <ele>1306</ele>
        <time>2010-07-17T07:46:31Z</time>
      </trkpt>
      <trkpt lat="44.5836" lon="5.93382">
        <ele>1302</ele>
        <time>2010-07-17T07:46:39Z</time>
      </trkpt>
      <trkpt lat="44.58335" lon="5.93385">
        <ele>1302</ele>
        <time>2010-07-17T07:46:46Z</time>
      </trkpt>
      <trkpt lat="44.58313" lon="5.93377">
        <ele>1303</ele>
        <time>2010-07-17T07:46:53Z</time>
      </trkpt>
      <trkpt lat="44.58286" lon="5.93391">
        <ele>1304</ele>
        <time>2010-07-17T07:47:00Z</time>
      </trkpt>
      <trkpt lat="44.5826" lon="5.93409">
        <ele>1304</ele>
        <time>2010-07-17T07:47:07Z</time>
      </trkpt>
      <trkpt lat="44.58237" lon="5.93422">
        <ele>1304</ele>
        <time>2010-07-17T07:47:14Z</time>
      </trkpt>
      <trkpt lat="44.58213" lon="5.93405">
        <ele>1306</ele>
        <time>2010-07-17T07:47:21Z</time>
      </trkpt>
      <trkpt lat="44.58186" lon="5.93396">
        <ele>1307</ele>
        <time>2010-07-17T07:47:29Z</time>
      </trkpt>
      <trkpt lat="44.5816" lon="5.93407">
        <ele>1307</ele>
        <time>2010-07-17T07:47:36Z</time>
      </trkpt>
      <trkpt lat="44.58132" lon="5.93414">
        <ele>1306</ele>
        <time>2010-07-17T07:47:43Z</time>
      </trkpt>
      <trkpt lat="44.58119" lon="5.93414">
        <ele>1306</ele>
        <time>2010-07-17T07:47:50Z</time>
      </trkpt>
      <trkpt lat="44.58106" lon="5.93407">
        <ele>1306</ele>
        <time>2010-07-17T07:47:57Z</time>
      </trkpt>
      <trkpt lat="44.58079" lon="5.93406">
        <ele>1306</ele>
        <time>2010-07-17T07:48:04Z</time>
      </trkpt>
      <trkpt lat="44.58038" lon="5.93403">
        <ele>1306</ele>
        <time>2010-07-17T07:48:11Z</time>
      </trkpt>
      <trkpt lat="44.57998" lon="5.93367">
        <ele>1306</ele>
        <time>2010-07-17T07:48:18Z</time>
      </trkpt>
      <trkpt lat="44.57954" lon="5.93347">
        <ele>1306</ele>
        <time>2010-07-17T07:48:25Z</time>
      </trkpt>
      <trkpt lat="44.57907" lon="5.93381">
        <ele>1301</ele>
        <time>2010-07-17T07:48:32Z</time>
      </trkpt>
      <trkpt lat="44.57864" lon="5.93427">
        <ele>1297</ele>
        <time>2010-07-17T07:48:39Z</time>
      </trkpt>
      <trkpt lat="44.57844" lon="5.93493">
        <ele>1294</ele>
        <time>2010-07-17T07:48:46Z</time>
      </trkpt>
      <trkpt lat="44.5782" lon="5.93549">
        <ele>1290</ele>
        <time>2010-07-17T07:48:53Z</time>
      </trkpt>
      <trkpt lat="44.57801" lon="5.93612">
        <ele>1286</ele>
        <time>2010-07-17T07:49:00Z</time>
      </trkpt>
      <trkpt lat="44.57769" lon="5.93642">
        <ele>1283</ele>
        <time>2010-07-17T07:49:07Z</time>
      </trkpt>
      <trkpt lat="44.57721" lon="5.93631">
        <ele>1283</ele>
        <time>2010-07-17T07:49:14Z</time>
      </trkpt>
      <trkpt lat="44.57663" lon="5.93628">
        <ele>1283</ele>
        <time>2010-07-17T07:49:21Z</time>
      </trkpt>
      <trkpt lat="44.57605" lon="5.93623">
        <ele>1280</ele>
        <time>2010-07-17T07:49:28Z</time>
      </trkpt>
      <trkpt lat="44.57547" lon="5.93631">
        <ele>1275</ele>
        <time>2010-07-17T07:49:35Z</time>
      </trkpt>
      <trkpt lat="44.57542" lon="5.93614">
        <ele>1273</ele>
        <time>2010-07-17T07:49:42Z</time>
      </trkpt>
      <trkpt lat="44.5757" lon="5.93601">
        <ele>1273</ele>
        <time>2010-07-17T07:49:49Z</time>
      </trkpt>
      <trkpt lat="44.57605" lon="5.93565">
        <ele>1271</ele>
        <time>2010-07-17T07:49:56Z</time>
      </trkpt>
      <trkpt lat="44.57612" lon="5.93509">
        <ele>1270</ele>
        <time>2010-07-17T07:50:03Z</time>
      </trkpt>
      <trkpt lat="44.57563" lon="5.93518">
        <ele>1265</ele>
        <time>2010-07-17T07:50:10Z</time>
      </trkpt>
      <trkpt lat="44.57503" lon="5.93525">
        <ele>1258</ele>
        <time>2010-07-17T07:50:17Z</time>
      </trkpt>
      <trkpt lat="44.57451" lon="5.93565">
        <ele>1251</ele>
        <time>2010-07-17T07:50:24Z</time>
      </trkpt>
      <trkpt lat="44.57411" lon="5.93508">
        <ele>1245</ele>
        <time>2010-07-17T07:50:31Z</time>
      </trkpt>
      <trkpt lat="44.57426" lon="5.93435">
        <ele>1245</ele>
        <time>2010-07-17T07:50:38Z</time>
      </trkpt>
      <trkpt lat="44.57442" lon="5.93372">
        <ele>1245</ele>
        <time>2010-07-17T07:50:45Z</time>
      </trkpt>
      <trkpt lat="44.57438" lon="5.93295">
        <ele>1245</ele>
        <time>2010-07-17T07:50:52Z</time>
      </trkpt>
      <trkpt lat="44.5741" lon="5.93263">
        <ele>1242</ele>
        <time>2010-07-17T07:50:59Z</time>
      </trkpt>
      <trkpt lat="44.57363" lon="5.93295">
        <ele>1235</ele>
        <time>2010-07-17T07:51:06Z</time>
      </trkpt>
      <trkpt lat="44.57347" lon="5.93387">
        <ele>1228</ele>
        <time>2010-07-17T07:51:13Z</time>
      </trkpt>
      <trkpt lat="44.57332" lon="5.93487">
        <ele>1221</ele>
        <time>2010-07-17T07:51:20Z</time>
      </trkpt>
      <trkpt lat="44.5729" lon="5.93577">
        <ele>1214</ele>
        <time>2010-07-17T07:51:27Z</time>
      </trkpt>
      <trkpt lat="44.57256" lon="5.93677">
        <ele>1207</ele>
        <time>2010-07-17T07:51:34Z</time>
      </trkpt>
      <trkpt lat="44.57239" lon="5.93758">
        <ele>1200</ele>
        <time>2010-07-17T07:51:41Z</time>
      </trkpt>
      <trkpt lat="44.5728" lon="5.93815">
        <ele>1193</ele>
        <time>2010-07-17T07:51:48Z</time>
      </trkpt>
      <trkpt lat="44.57311" lon="5.93837">
        <ele>1186</ele>
        <time>2010-07-17T07:51:55Z</time>
      </trkpt>
      <trkpt lat="44.57262" lon="5.93867">
        <ele>1179</ele>
        <time>2010-07-17T07:52:02Z</time>
      </trkpt>
      <trkpt lat="44.57199" lon="5.93872">
        <ele>1172</ele>
        <time>2010-07-17T07:52:09Z</time>
      </trkpt>
      <trkpt lat="44.57131" lon="5.93886">
        <ele>1165</ele>
        <time>2010-07-17T07:52:16Z</time>
      </trkpt>
      <trkpt lat="44.57079" lon="5.93935">
        <ele>1158</ele>
        <time>2010-07-17T07:52:23Z</time>
      </trkpt>
      <trkpt lat="44.57063" lon="5.94025">
        <ele>1151</ele>
        <time>2010-07-17T07:52:30Z</time>
      </trkpt>
      <trkpt lat="44.57055" lon="5.94129">
        <ele>1145</ele>
        <time>2010-07-17T07:52:37Z</time>
      </trkpt>
      <trkpt lat="44.57043" lon="5.94233">
        <ele>1139</ele>
        <time>2010-07-17T07:52:44Z</time>
      </trkpt>
      <trkpt lat="44.57043" lon="5.9432">
        <ele>1133</ele>
        <time>2010-07-17T07:52:51Z</time>
      </trkpt>
      <trkpt lat="44.57061" lon="5.94397">
        <ele>1127</ele>
        <time>2010-07-17T07:52:58Z</time>
      </trkpt>
      <trkpt lat="44.57073" lon="5.94476">
        <ele>1120</ele>
        <time>2010-07-17T07:53:05Z</time>
      </trkpt>
      <trkpt lat="44.57076" lon="5.945">
        <ele>1115</ele>
        <time>2010-07-17T07:53:15Z</time>
      </trkpt>
      <trkpt lat="44.57076" lon="5.94497">
        <ele>1115</ele>
        <time>2010-07-17T07:53:25Z</time>
      </trkpt>
      <trkpt lat="44.57074" lon="5.94494">
        <ele>1115</ele>
        <time>2010-07-17T07:53:34Z</time>
      </trkpt>
      <trkpt lat="44.57073" lon="5.94493">
        <ele>1115</ele>
        <time>2010-07-17T07:53:41Z</time>
      </trkpt>
      <trkpt lat="44.57072" lon="5.94493">
        <ele>1117</ele>
        <time>2010-07-17T07:54:09Z</time>
      </trkpt>
      <trkpt lat="44.57073" lon="5.94495">
        <ele>1117</ele>
        <time>2010-07-17T07:54:56Z</time>
      </trkpt>
      <trkpt lat="44.57073" lon="5.94496">
        <ele>1117</ele>
        <time>2010-07-17T07:55:12Z</time>
      </trkpt>
      <trkpt lat="44.57072" lon="5.94498">
        <ele>1117</ele>
        <time>2010-07-17T07:55:24Z</time>
      </trkpt>
      <trkpt lat="44.57072" lon="5.94501">
        <ele>1117</ele>
        <time>2010-07-17T07:55:41Z</time>
      </trkpt>
      <trkpt lat="44.57075" lon="5.94548">
        <ele>1117</ele>
        <time>2010-07-17T07:55:48Z</time>
      </trkpt>
      <trkpt lat="44.57104" lon="5.94601">
        <ele>1115</ele>
        <time>2010-07-17T07:55:55Z</time>
      </trkpt>
      <trkpt lat="44.57116" lon="5.94666">
        <ele>1112</ele>
        <time>2010-07-17T07:56:02Z</time>
      </trkpt>
      <trkpt lat="44.57112" lon="5.94741">
        <ele>1105</ele>
        <time>2010-07-17T07:56:09Z</time>
      </trkpt>
      <trkpt lat="44.57103" lon="5.94818">
        <ele>1098</ele>
        <time>2010-07-17T07:56:16Z</time>
      </trkpt>
      <trkpt lat="44.57111" lon="5.94901">
        <ele>1091</ele>
        <time>2010-07-17T07:56:23Z</time>
      </trkpt>
      <trkpt lat="44.57075" lon="5.94862">
        <ele>1084</ele>
        <time>2010-07-17T07:56:30Z</time>
      </trkpt>
      <trkpt lat="44.57036" lon="5.94811">
        <ele>1077</ele>
        <time>2010-07-17T07:56:37Z</time>
      </trkpt>
      <trkpt lat="44.56997" lon="5.94847">
        <ele>1070</ele>
        <time>2010-07-17T07:56:44Z</time>
      </trkpt>
      <trkpt lat="44.56957" lon="5.94927">
        <ele>1060</ele>
        <time>2010-07-17T07:56:51Z</time>
      </trkpt>
      <trkpt lat="44.56935" lon="5.94963">
        <ele>1052</ele>
        <time>2010-07-17T07:56:58Z</time>
      </trkpt>
      <trkpt lat="44.56942" lon="5.94982">
        <ele>1046</ele>
        <time>2010-07-17T07:57:06Z</time>
      </trkpt>
      <trkpt lat="44.56945" lon="5.9499">
        <ele>1046</ele>
        <time>2010-07-17T07:57:13Z</time>
      </trkpt>
      <trkpt lat="44.5695" lon="5.95005">
        <ele>1046</ele>
        <time>2010-07-17T07:57:21Z</time>
      </trkpt>
      <trkpt lat="44.56967" lon="5.95036">
        <ele>1046</ele>
        <time>2010-07-17T07:57:29Z</time>
      </trkpt>
      <trkpt lat="44.56979" lon="5.95049">
        <ele>1047</ele>
        <time>2010-07-17T07:57:36Z</time>
      </trkpt>
      <trkpt lat="44.56989" lon="5.95061">
        <ele>1049</ele>
        <time>2010-07-17T07:57:43Z</time>
      </trkpt>
      <trkpt lat="44.57001" lon="5.95071">
        <ele>1051</ele>
        <time>2010-07-17T07:57:50Z</time>
      </trkpt>
      <trkpt lat="44.57014" lon="5.95081">
        <ele>1052</ele>
        <time>2010-07-17T07:57:57Z</time>
      </trkpt>
      <trkpt lat="44.57021" lon="5.95097">
        <ele>1054</ele>
        <time>2010-07-17T07:58:04Z</time>
      </trkpt>
      <trkpt lat="44.57025" lon="5.95116">
        <ele>1056</ele>
        <time>2010-07-17T07:58:11Z</time>
      </trkpt>
      <trkpt lat="44.57029" lon="5.95136">
        <ele>1058</ele>
        <time>2010-07-17T07:58:18Z</time>
      </trkpt>
      <trkpt lat="44.57035" lon="5.95154">
        <ele>1059</ele>
        <time>2010-07-17T07:58:25Z</time>
      </trkpt>
      <trkpt lat="44.5704" lon="5.9517">
        <ele>1061</ele>
        <time>2010-07-17T07:58:32Z</time>
      </trkpt>
      <trkpt lat="44.5705" lon="5.95187">
        <ele>1062</ele>
        <time>2010-07-17T07:58:39Z</time>
      </trkpt>
      <trkpt lat="44.5706" lon="5.95201">
        <ele>1063</ele>
        <time>2010-07-17T07:58:46Z</time>
      </trkpt>
      <trkpt lat="44.5707" lon="5.95216">
        <ele>1064</ele>
        <time>2010-07-17T07:58:53Z</time>
      </trkpt>
      <trkpt lat="44.5708" lon="5.95231">
        <ele>1065</ele>
        <time>2010-07-17T07:59:00Z</time>
      </trkpt>
      <trkpt lat="44.5709" lon="5.95248">
        <ele>1066</ele>
        <time>2010-07-17T07:59:07Z</time>
      </trkpt>
      <trkpt lat="44.57098" lon="5.95265">
        <ele>1068</ele>
        <time>2010-07-17T07:59:14Z</time>
      </trkpt>
      <trkpt lat="44.57104" lon="5.95285">
        <ele>1069</ele>
        <time>2010-07-17T07:59:21Z</time>
      </trkpt>
      <trkpt lat="44.57109" lon="5.95305">
        <ele>1069</ele>
        <time>2010-07-17T07:59:28Z</time>
      </trkpt>
      <trkpt lat="44.57111" lon="5.95325">
        <ele>1069</ele>
        <time>2010-07-17T07:59:35Z</time>
      </trkpt>
      <trkpt lat="44.57114" lon="5.95343">
        <ele>1070</ele>
        <time>2010-07-17T07:59:42Z</time>
      </trkpt>
      <trkpt lat="44.57114" lon="5.95363">
        <ele>1071</ele>
        <time>2010-07-17T07:59:49Z</time>
      </trkpt>
      <trkpt lat="44.57116" lon="5.95382">
        <ele>1073</ele>
        <time>2010-07-17T07:59:56Z</time>
      </trkpt>
      <trkpt lat="44.57118" lon="5.95402">
        <ele>1074</ele>
        <time>2010-07-17T08:00:03Z</time>
      </trkpt>
      <trkpt lat="44.5712" lon="5.95422">
        <ele>1075</ele>
        <time>2010-07-17T08:00:10Z</time>
      </trkpt>
      <trkpt lat="44.57123" lon="5.95442">
        <ele>1076</ele>
        <time>2010-07-17T08:00:17Z</time>
      </trkpt>
      <trkpt lat="44.57128" lon="5.9546">
        <ele>1078</ele>
        <time>2010-07-17T08:00:24Z</time>
      </trkpt>
      <trkpt lat="44.57134" lon="5.95478">
        <ele>1078</ele>
        <time>2010-07-17T08:00:31Z</time>
      </trkpt>
      <trkpt lat="44.57143" lon="5.95494">
        <ele>1079</ele>
        <time>2010-07-17T08:00:38Z</time>
      </trkpt>
      <trkpt lat="44.5715" lon="5.9551">
        <ele>1080</ele>
        <time>2010-07-17T08:00:45Z</time>
      </trkpt>
      <trkpt lat="44.57159" lon="5.95528">
        <ele>1081</ele>
        <time>2010-07-17T08:00:52Z</time>
      </trkpt>
      <trkpt lat="44.57167" lon="5.95545">
        <ele>1082</ele>
        <time>2010-07-17T08:00:59Z</time>
      </trkpt>
      <trkpt lat="44.57175" lon="5.95563">
        <ele>1083</ele>
        <time>2010-07-17T08:01:06Z</time>
      </trkpt>
      <trkpt lat="44.57183" lon="5.9558">
        <ele>1085</ele>
        <time>2010-07-17T08:01:13Z</time>
      </trkpt>
      <trkpt lat="44.57192" lon="5.95597">
        <ele>1086</ele>
        <time>2010-07-17T08:01:20Z</time>
      </trkpt>
      <trkpt lat="44.572" lon="5.95614">
        <ele>1088</ele>
        <time>2010-07-17T08:01:27Z</time>
      </trkpt>
      <trkpt lat="44.57208" lon="5.95632">
        <ele>1089</ele>
        <time>2010-07-17T08:01:34Z</time>
      </trkpt>
      <trkpt lat="44.57218" lon="5.95649">
        <ele>1090</ele>
        <time>2010-07-17T08:01:41Z</time>
      </trkpt>
      <trkpt lat="44.5723" lon="5.95673">
        <ele>1092</ele>
        <time>2010-07-17T08:01:48Z</time>
      </trkpt>
      <trkpt lat="44.57241" lon="5.95694">
        <ele>1093</ele>
        <time>2010-07-17T08:01:55Z</time>
      </trkpt>
      <trkpt lat="44.57252" lon="5.95718">
        <ele>1094</ele>
        <time>2010-07-17T08:02:02Z</time>
      </trkpt>
      <trkpt lat="44.57256" lon="5.95745">
        <ele>1094</ele>
        <time>2010-07-17T08:02:09Z</time>
      </trkpt>
      <trkpt lat="44.57251" lon="5.95766">
        <ele>1094</ele>
        <time>2010-07-17T08:02:16Z</time>
      </trkpt>
      <trkpt lat="44.57244" lon="5.95787">
        <ele>1097</ele>
        <time>2010-07-17T08:02:24Z</time>
      </trkpt>
      <trkpt lat="44.57238" lon="5.95806">
        <ele>1099</ele>
        <time>2010-07-17T08:02:31Z</time>
      </trkpt>
      <trkpt lat="44.57235" lon="5.95826">
        <ele>1100</ele>
        <time>2010-07-17T08:02:38Z</time>
      </trkpt>
      <trkpt lat="44.57232" lon="5.95846">
        <ele>1100</ele>
        <time>2010-07-17T08:02:45Z</time>
      </trkpt>
      <trkpt lat="44.57228" lon="5.95867">
        <ele>1100</ele>
        <time>2010-07-17T08:02:52Z</time>
      </trkpt>
      <trkpt lat="44.57222" lon="5.95886">
        <ele>1101</ele>
        <time>2010-07-17T08:02:59Z</time>
      </trkpt>
      <trkpt lat="44.57219" lon="5.95906">
        <ele>1103</ele>
        <time>2010-07-17T08:03:06Z</time>
      </trkpt>
      <trkpt lat="44.57221" lon="5.95928">
        <ele>1105</ele>
        <time>2010-07-17T08:03:13Z</time>
      </trkpt>
      <trkpt lat="44.57233" lon="5.95947">
        <ele>1106</ele>
        <time>2010-07-17T08:03:20Z</time>
      </trkpt>
      <trkpt lat="44.57249" lon="5.95964">
        <ele>1107</ele>
        <time>2010-07-17T08:03:27Z</time>
      </trkpt>
      <trkpt lat="44.57272" lon="5.95979">
        <ele>1107</ele>
        <time>2010-07-17T08:03:34Z</time>
      </trkpt>
      <trkpt lat="44.57293" lon="5.95997">
        <ele>1107</ele>
        <time>2010-07-17T08:03:41Z</time>
      </trkpt>
      <trkpt lat="44.57306" lon="5.96022">
        <ele>1108</ele>
        <time>2010-07-17T08:03:48Z</time>
      </trkpt>
      <trkpt lat="44.57317" lon="5.96045">
        <ele>1109</ele>
        <time>2010-07-17T08:03:55Z</time>
      </trkpt>
      <trkpt lat="44.57331" lon="5.96065">
        <ele>1111</ele>
        <time>2010-07-17T08:04:02Z</time>
      </trkpt>
      <trkpt lat="44.57346" lon="5.96084">
        <ele>1113</ele>
        <time>2010-07-17T08:04:09Z</time>
      </trkpt>
      <trkpt lat="44.57365" lon="5.96103">
        <ele>1114</ele>
        <time>2010-07-17T08:04:16Z</time>
      </trkpt>
      <trkpt lat="44.57392" lon="5.96125">
        <ele>1115</ele>
        <time>2010-07-17T08:04:24Z</time>
      </trkpt>
      <trkpt lat="44.57422" lon="5.96125">
        <ele>1115</ele>
        <time>2010-07-17T08:04:31Z</time>
      </trkpt>
      <trkpt lat="44.57448" lon="5.96109">
        <ele>1115</ele>
        <time>2010-07-17T08:04:38Z</time>
      </trkpt>
      <trkpt lat="44.57467" lon="5.96087">
        <ele>1115</ele>
        <time>2010-07-17T08:04:45Z</time>
      </trkpt>
      <trkpt lat="44.57495" lon="5.96054">
        <ele>1115</ele>
        <time>2010-07-17T08:04:52Z</time>
      </trkpt>
      <trkpt lat="44.57538" lon="5.96045">
        <ele>1112</ele>
        <time>2010-07-17T08:04:59Z</time>
      </trkpt>
      <trkpt lat="44.5758" lon="5.96046">
        <ele>1110</ele>
        <time>2010-07-17T08:05:06Z</time>
      </trkpt>
      <trkpt lat="44.57586" lon="5.96092">
        <ele>1110</ele>
        <time>2010-07-17T08:05:13Z</time>
      </trkpt>
      <trkpt lat="44.57585" lon="5.96136">
        <ele>1110</ele>
        <time>2010-07-17T08:05:20Z</time>
      </trkpt>
      <trkpt lat="44.57583" lon="5.96158">
        <ele>1111</ele>
        <time>2010-07-17T08:05:27Z</time>
      </trkpt>
      <trkpt lat="44.57584" lon="5.96174">
        <ele>1114</ele>
        <time>2010-07-17T08:05:34Z</time>
      </trkpt>
      <trkpt lat="44.57595" lon="5.96193">
        <ele>1115</ele>
        <time>2010-07-17T08:05:41Z</time>
      </trkpt>
      <trkpt lat="44.57616" lon="5.96209">
        <ele>1116</ele>
        <time>2010-07-17T08:05:48Z</time>
      </trkpt>
      <trkpt lat="44.57639" lon="5.96217">
        <ele>1116</ele>
        <time>2010-07-17T08:05:55Z</time>
      </trkpt>
      <trkpt lat="44.57655" lon="5.96215">
        <ele>1116</ele>
        <time>2010-07-17T08:06:02Z</time>
      </trkpt>
      <trkpt lat="44.57667" lon="5.96208">
        <ele>1116</ele>
        <time>2010-07-17T08:06:09Z</time>
      </trkpt>
      <trkpt lat="44.57676" lon="5.96201">
        <ele>1116</ele>
        <time>2010-07-17T08:06:16Z</time>
      </trkpt>
      <trkpt lat="44.57688" lon="5.96194">
        <ele>1118</ele>
        <time>2010-07-17T08:06:24Z</time>
      </trkpt>
      <trkpt lat="44.57698" lon="5.96189">
        <ele>1118</ele>
        <time>2010-07-17T08:06:31Z</time>
      </trkpt>
      <trkpt lat="44.5771" lon="5.96187">
        <ele>1120</ele>
        <time>2010-07-17T08:06:38Z</time>
      </trkpt>
      <trkpt lat="44.57719" lon="5.96187">
        <ele>1122</ele>
        <time>2010-07-17T08:06:45Z</time>
      </trkpt>
      <trkpt lat="44.57729" lon="5.96192">
        <ele>1124</ele>
        <time>2010-07-17T08:06:53Z</time>
      </trkpt>
      <trkpt lat="44.57741" lon="5.96208">
        <ele>1125</ele>
        <time>2010-07-17T08:07:04Z</time>
      </trkpt>
      <trkpt lat="44.57726" lon="5.96267">
        <ele>1125</ele>
        <time>2010-07-17T08:07:13Z</time>
      </trkpt>
      <trkpt lat="44.57711" lon="5.96292">
        <ele>1128</ele>
        <time>2010-07-17T08:07:30Z</time>
      </trkpt>
      <trkpt lat="44.5771" lon="5.96293">
        <ele>1128</ele>
        <time>2010-07-17T08:07:46Z</time>
      </trkpt>
      <trkpt lat="44.57707" lon="5.96296">
        <ele>1130</ele>
        <time>2010-07-17T08:08:09Z</time>
      </trkpt>
      <trkpt lat="44.57696" lon="5.96306">
        <ele>1130</ele>
        <time>2010-07-17T08:08:16Z</time>
      </trkpt>
      <trkpt lat="44.57687" lon="5.96357">
        <ele>1130</ele>
        <time>2010-07-17T08:08:25Z</time>
      </trkpt>
      <trkpt lat="44.57713" lon="5.96446">
        <ele>1129</ele>
        <time>2010-07-17T08:08:33Z</time>
      </trkpt>
      <trkpt lat="44.5773" lon="5.96492">
        <ele>1127</ele>
        <time>2010-07-17T08:08:40Z</time>
      </trkpt>
      <trkpt lat="44.5774" lon="5.96532">
        <ele>1127</ele>
        <time>2010-07-17T08:08:51Z</time>
      </trkpt>
      <trkpt lat="44.57752" lon="5.96561">
        <ele>1127</ele>
        <time>2010-07-17T08:08:59Z</time>
      </trkpt>
      <trkpt lat="44.57774" lon="5.9659">
        <ele>1127</ele>
        <time>2010-07-17T08:09:10Z</time>
      </trkpt>
      <trkpt lat="44.57791" lon="5.96633">
        <ele>1127</ele>
        <time>2010-07-17T08:09:18Z</time>
      </trkpt>
      <trkpt lat="44.57797" lon="5.96656">
        <ele>1127</ele>
        <time>2010-07-17T08:09:25Z</time>
      </trkpt>
      <trkpt lat="44.57802" lon="5.96679">
        <ele>1127</ele>
        <time>2010-07-17T08:09:32Z</time>
      </trkpt>
      <trkpt lat="44.57804" lon="5.96703">
        <ele>1127</ele>
        <time>2010-07-17T08:09:39Z</time>
      </trkpt>
      <trkpt lat="44.57801" lon="5.96719">
        <ele>1128</ele>
        <time>2010-07-17T08:09:46Z</time>
      </trkpt>
      <trkpt lat="44.57802" lon="5.96725">
        <ele>1129</ele>
        <time>2010-07-17T08:10:00Z</time>
      </trkpt>
      <trkpt lat="44.57797" lon="5.96721">
        <ele>1130</ele>
        <time>2010-07-17T08:10:12Z</time>
      </trkpt>
      <trkpt lat="44.57788" lon="5.96706">
        <ele>1132</ele>
        <time>2010-07-17T08:10:20Z</time>
      </trkpt>
      <trkpt lat="44.57773" lon="5.96691">
        <ele>1133</ele>
        <time>2010-07-17T08:10:28Z</time>
      </trkpt>
      <trkpt lat="44.57762" lon="5.96685">
        <ele>1133</ele>
        <time>2010-07-17T08:10:40Z</time>
      </trkpt>
      <trkpt lat="44.5775" lon="5.96686">
        <ele>1133</ele>
        <time>2010-07-17T08:10:48Z</time>
      </trkpt>
      <trkpt lat="44.5774" lon="5.96689">
        <ele>1133</ele>
        <time>2010-07-17T08:11:00Z</time>
      </trkpt>
      <trkpt lat="44.57723" lon="5.96696">
        <ele>1135</ele>
        <time>2010-07-17T08:11:08Z</time>
      </trkpt>
      <trkpt lat="44.57711" lon="5.96701">
        <ele>1137</ele>
        <time>2010-07-17T08:11:15Z</time>
      </trkpt>
      <trkpt lat="44.57699" lon="5.96702">
        <ele>1139</ele>
        <time>2010-07-17T08:11:22Z</time>
      </trkpt>
      <trkpt lat="44.57682" lon="5.96703">
        <ele>1140</ele>
        <time>2010-07-17T08:11:33Z</time>
      </trkpt>
      <trkpt lat="44.57664" lon="5.96703">
        <ele>1141</ele>
        <time>2010-07-17T08:11:41Z</time>
      </trkpt>
      <trkpt lat="44.57658" lon="5.96705">
        <ele>1143</ele>
        <time>2010-07-17T08:11:48Z</time>
      </trkpt>
      <trkpt lat="44.57642" lon="5.96714">
        <ele>1147</ele>
        <time>2010-07-17T08:11:56Z</time>
      </trkpt>
      <trkpt lat="44.57632" lon="5.96721">
        <ele>1150</ele>
        <time>2010-07-17T08:12:03Z</time>
      </trkpt>
      <trkpt lat="44.57622" lon="5.96727">
        <ele>1153</ele>
        <time>2010-07-17T08:12:10Z</time>
      </trkpt>
      <trkpt lat="44.57607" lon="5.96731">
        <ele>1154</ele>
        <time>2010-07-17T08:12:18Z</time>
      </trkpt>
      <trkpt lat="44.576" lon="5.96729">
        <ele>1154</ele>
        <time>2010-07-17T08:12:25Z</time>
      </trkpt>
      <trkpt lat="44.57582" lon="5.96742">
        <ele>1155</ele>
        <time>2010-07-17T08:12:34Z</time>
      </trkpt>
      <trkpt lat="44.5756" lon="5.96756">
        <ele>1156</ele>
        <time>2010-07-17T08:12:42Z</time>
      </trkpt>
      <trkpt lat="44.57544" lon="5.96764">
        <ele>1156</ele>
        <time>2010-07-17T08:12:49Z</time>
      </trkpt>
      <trkpt lat="44.57528" lon="5.96773">
        <ele>1156</ele>
        <time>2010-07-17T08:12:56Z</time>
      </trkpt>
      <trkpt lat="44.57513" lon="5.96789">
        <ele>1156</ele>
        <time>2010-07-17T08:13:04Z</time>
      </trkpt>
      <trkpt lat="44.57502" lon="5.96803">
        <ele>1156</ele>
        <time>2010-07-17T08:13:11Z</time>
      </trkpt>
      <trkpt lat="44.57507" lon="5.96815">
        <ele>1156</ele>
        <time>2010-07-17T08:13:19Z</time>
      </trkpt>
      <trkpt lat="44.5751" lon="5.96819">
        <ele>1156</ele>
        <time>2010-07-17T08:13:26Z</time>
      </trkpt>
      <trkpt lat="44.57521" lon="5.96835">
        <ele>1156</ele>
        <time>2010-07-17T08:13:34Z</time>
      </trkpt>
      <trkpt lat="44.57528" lon="5.96846">
        <ele>1157</ele>
        <time>2010-07-17T08:13:41Z</time>
      </trkpt>
      <trkpt lat="44.57536" lon="5.96856">
        <ele>1159</ele>
        <time>2010-07-17T08:13:48Z</time>
      </trkpt>
      <trkpt lat="44.57545" lon="5.96867">
        <ele>1161</ele>
        <time>2010-07-17T08:13:55Z</time>
      </trkpt>
      <trkpt lat="44.57556" lon="5.96876">
        <ele>1162</ele>
        <time>2010-07-17T08:14:02Z</time>
      </trkpt>
      <trkpt lat="44.57569" lon="5.96887">
        <ele>1163</ele>
        <time>2010-07-17T08:14:09Z</time>
      </trkpt>
      <trkpt lat="44.57587" lon="5.96909">
        <ele>1163</ele>
        <time>2010-07-17T08:14:20Z</time>
      </trkpt>
      <trkpt lat="44.57611" lon="5.96942">
        <ele>1164</ele>
        <time>2010-07-17T08:14:28Z</time>
      </trkpt>
      <trkpt lat="44.57629" lon="5.96967">
        <ele>1164</ele>
        <time>2010-07-17T08:14:35Z</time>
      </trkpt>
      <trkpt lat="44.57643" lon="5.96996">
        <ele>1164</ele>
        <time>2010-07-17T08:14:42Z</time>
      </trkpt>
      <trkpt lat="44.57656" lon="5.97023">
        <ele>1164</ele>
        <time>2010-07-17T08:14:49Z</time>
      </trkpt>
      <trkpt lat="44.57665" lon="5.97059">
        <ele>1165</ele>
        <time>2010-07-17T08:14:56Z</time>
      </trkpt>
      <trkpt lat="44.57674" lon="5.97091">
        <ele>1165</ele>
        <time>2010-07-17T08:15:03Z</time>
      </trkpt>
      <trkpt lat="44.57684" lon="5.97125">
        <ele>1166</ele>
        <time>2010-07-17T08:15:10Z</time>
      </trkpt>
      <trkpt lat="44.57694" lon="5.97164">
        <ele>1166</ele>
        <time>2010-07-17T08:15:17Z</time>
      </trkpt>
      <trkpt lat="44.57702" lon="5.97205">
        <ele>1166</ele>
        <time>2010-07-17T08:15:24Z</time>
      </trkpt>
      <trkpt lat="44.57716" lon="5.97257">
        <ele>1166</ele>
        <time>2010-07-17T08:15:31Z</time>
      </trkpt>
      <trkpt lat="44.57721" lon="5.9733">
        <ele>1162</ele>
        <time>2010-07-17T08:15:38Z</time>
      </trkpt>
      <trkpt lat="44.57727" lon="5.9739">
        <ele>1160</ele>
        <time>2010-07-17T08:15:45Z</time>
      </trkpt>
      <trkpt lat="44.57734" lon="5.97428">
        <ele>1160</ele>
        <time>2010-07-17T08:15:52Z</time>
      </trkpt>
      <trkpt lat="44.57739" lon="5.97473">
        <ele>1159</ele>
        <time>2010-07-17T08:16:00Z</time>
      </trkpt>
      <trkpt lat="44.57751" lon="5.97513">
        <ele>1159</ele>
        <time>2010-07-17T08:16:07Z</time>
      </trkpt>
      <trkpt lat="44.57764" lon="5.97551">
        <ele>1159</ele>
        <time>2010-07-17T08:16:14Z</time>
      </trkpt>
      <trkpt lat="44.57779" lon="5.97593">
        <ele>1159</ele>
        <time>2010-07-17T08:16:22Z</time>
      </trkpt>
      <trkpt lat="44.57799" lon="5.97633">
        <ele>1159</ele>
        <time>2010-07-17T08:16:29Z</time>
      </trkpt>
      <trkpt lat="44.57815" lon="5.97683">
        <ele>1159</ele>
        <time>2010-07-17T08:16:37Z</time>
      </trkpt>
      <trkpt lat="44.5783" lon="5.97727">
        <ele>1159</ele>
        <time>2010-07-17T08:16:44Z</time>
      </trkpt>
      <trkpt lat="44.57859" lon="5.9776">
        <ele>1159</ele>
        <time>2010-07-17T08:16:51Z</time>
      </trkpt>
      <trkpt lat="44.57874" lon="5.97776">
        <ele>1159</ele>
        <time>2010-07-17T08:16:58Z</time>
      </trkpt>
      <trkpt lat="44.57885" lon="5.97802">
        <ele>1159</ele>
        <time>2010-07-17T08:17:05Z</time>
      </trkpt>
      <trkpt lat="44.57888" lon="5.97845">
        <ele>1159</ele>
        <time>2010-07-17T08:17:13Z</time>
      </trkpt>
      <trkpt lat="44.57892" lon="5.97893">
        <ele>1159</ele>
        <time>2010-07-17T08:17:20Z</time>
      </trkpt>
      <trkpt lat="44.5789" lon="5.97944">
        <ele>1158</ele>
        <time>2010-07-17T08:17:27Z</time>
      </trkpt>
      <trkpt lat="44.57891" lon="5.97998">
        <ele>1158</ele>
        <time>2010-07-17T08:17:35Z</time>
      </trkpt>
      <trkpt lat="44.57895" lon="5.98051">
        <ele>1158</ele>
        <time>2010-07-17T08:17:42Z</time>
      </trkpt>
      <trkpt lat="44.579" lon="5.98093">
        <ele>1158</ele>
        <time>2010-07-17T08:17:49Z</time>
      </trkpt>
      <trkpt lat="44.57904" lon="5.98132">
        <ele>1158</ele>
        <time>2010-07-17T08:17:56Z</time>
      </trkpt>
      <trkpt lat="44.57912" lon="5.98171">
        <ele>1158</ele>
        <time>2010-07-17T08:18:03Z</time>
      </trkpt>
      <trkpt lat="44.57926" lon="5.98206">
        <ele>1160</ele>
        <time>2010-07-17T08:18:10Z</time>
      </trkpt>
      <trkpt lat="44.57945" lon="5.98235">
        <ele>1162</ele>
        <time>2010-07-17T08:18:17Z</time>
      </trkpt>
      <trkpt lat="44.57959" lon="5.98265">
        <ele>1163</ele>
        <time>2010-07-17T08:18:25Z</time>
      </trkpt>
      <trkpt lat="44.57974" lon="5.98314">
        <ele>1163</ele>
        <time>2010-07-17T08:18:32Z</time>
      </trkpt>
      <trkpt lat="44.58003" lon="5.98397">
        <ele>1161</ele>
        <time>2010-07-17T08:18:39Z</time>
      </trkpt>
      <trkpt lat="44.58049" lon="5.98479">
        <ele>1154</ele>
        <time>2010-07-17T08:18:46Z</time>
      </trkpt>
      <trkpt lat="44.58086" lon="5.98558">
        <ele>1147</ele>
        <time>2010-07-17T08:18:54Z</time>
      </trkpt>
      <trkpt lat="44.58059" lon="5.98647">
        <ele>1134</ele>
        <time>2010-07-17T08:19:01Z</time>
      </trkpt>
      <trkpt lat="44.5806" lon="5.98665">
        <ele>1126</ele>
        <time>2010-07-17T08:19:09Z</time>
      </trkpt>
      <trkpt lat="44.58075" lon="5.98655">
        <ele>1122</ele>
        <time>2010-07-17T08:19:16Z</time>
      </trkpt>
      <trkpt lat="44.58106" lon="5.98631">
        <ele>1121</ele>
        <time>2010-07-17T08:19:23Z</time>
      </trkpt>
      <trkpt lat="44.58137" lon="5.98656">
        <ele>1120</ele>
        <time>2010-07-17T08:19:31Z</time>
      </trkpt>
      <trkpt lat="44.58136" lon="5.98703">
        <ele>1117</ele>
        <time>2010-07-17T08:19:38Z</time>
      </trkpt>
      <trkpt lat="44.58179" lon="5.98737">
        <ele>1108</ele>
        <time>2010-07-17T08:19:47Z</time>
      </trkpt>
      <trkpt lat="44.58197" lon="5.98761">
        <ele>1105</ele>
        <time>2010-07-17T08:19:56Z</time>
      </trkpt>
      <trkpt lat="44.5819" lon="5.98812">
        <ele>1105</ele>
        <time>2010-07-17T08:20:05Z</time>
      </trkpt>
      <trkpt lat="44.58177" lon="5.98829">
        <ele>1104</ele>
        <time>2010-07-17T08:20:14Z</time>
      </trkpt>
      <trkpt lat="44.58165" lon="5.9885">
        <ele>1104</ele>
        <time>2010-07-17T08:20:23Z</time>
      </trkpt>
      <trkpt lat="44.58173" lon="5.98897">
        <ele>1100</ele>
        <time>2010-07-17T08:20:32Z</time>
      </trkpt>
      <trkpt lat="44.58189" lon="5.98988">
        <ele>1097</ele>
        <time>2010-07-17T08:20:40Z</time>
      </trkpt>
      <trkpt lat="44.58194" lon="5.99009">
        <ele>1094</ele>
        <time>2010-07-17T08:20:47Z</time>
      </trkpt>
      <trkpt lat="44.58181" lon="5.99068">
        <ele>1088</ele>
        <time>2010-07-17T08:20:58Z</time>
      </trkpt>
      <trkpt lat="44.58198" lon="5.99063">
        <ele>1085</ele>
        <time>2010-07-17T08:21:05Z</time>
      </trkpt>
      <trkpt lat="44.58233" lon="5.99064">
        <ele>1082</ele>
        <time>2010-07-17T08:21:13Z</time>
      </trkpt>
      <trkpt lat="44.58247" lon="5.99114">
        <ele>1076</ele>
        <time>2010-07-17T08:21:23Z</time>
      </trkpt>
      <trkpt lat="44.5827" lon="5.9916">
        <ele>1069</ele>
        <time>2010-07-17T08:21:33Z</time>
      </trkpt>
      <trkpt lat="44.58269" lon="5.99208">
        <ele>1063</ele>
        <time>2010-07-17T08:21:41Z</time>
      </trkpt>
      <trkpt lat="44.58281" lon="5.99251">
        <ele>1059</ele>
        <time>2010-07-17T08:21:50Z</time>
      </trkpt>
      <trkpt lat="44.58307" lon="5.99277">
        <ele>1055</ele>
        <time>2010-07-17T08:21:58Z</time>
      </trkpt>
      <trkpt lat="44.58299" lon="5.99324">
        <ele>1048</ele>
        <time>2010-07-17T08:22:07Z</time>
      </trkpt>
      <trkpt lat="44.58295" lon="5.99335">
        <ele>1043</ele>
        <time>2010-07-17T08:22:16Z</time>
      </trkpt>
      <trkpt lat="44.58261" lon="5.99359">
        <ele>1037</ele>
        <time>2010-07-17T08:22:25Z</time>
      </trkpt>
      <trkpt lat="44.5823" lon="5.994">
        <ele>1033</ele>
        <time>2010-07-17T08:22:33Z</time>
      </trkpt>
      <trkpt lat="44.58202" lon="5.99416">
        <ele>1029</ele>
        <time>2010-07-17T08:22:43Z</time>
      </trkpt>
      <trkpt lat="44.5816" lon="5.99421">
        <ele>1025</ele>
        <time>2010-07-17T08:22:51Z</time>
      </trkpt>
      <trkpt lat="44.58133" lon="5.99424">
        <ele>1021</ele>
        <time>2010-07-17T08:22:58Z</time>
      </trkpt>
      <trkpt lat="44.58127" lon="5.99428">
        <ele>1019</ele>
        <time>2010-07-17T08:23:06Z</time>
      </trkpt>
      <trkpt lat="44.58088" lon="5.99423">
        <ele>1016</ele>
        <time>2010-07-17T08:23:13Z</time>
      </trkpt>
      <trkpt lat="44.58046" lon="5.99401">
        <ele>1012</ele>
        <time>2010-07-17T08:23:20Z</time>
      </trkpt>
      <trkpt lat="44.58035" lon="5.9938">
        <ele>1008</ele>
        <time>2010-07-17T08:23:27Z</time>
      </trkpt>
      <trkpt lat="44.58034" lon="5.99357">
        <ele>1006</ele>
        <time>2010-07-17T08:23:35Z</time>
      </trkpt>
      <trkpt lat="44.58011" lon="5.99333">
        <ele>1006</ele>
        <time>2010-07-17T08:23:42Z</time>
      </trkpt>
      <trkpt lat="44.57985" lon="5.9933">
        <ele>1006</ele>
        <time>2010-07-17T08:23:50Z</time>
      </trkpt>
      <trkpt lat="44.5796" lon="5.99332">
        <ele>1006</ele>
        <time>2010-07-17T08:24:01Z</time>
      </trkpt>
      <trkpt lat="44.57953" lon="5.99331">
        <ele>1006</ele>
        <time>2010-07-17T08:24:08Z</time>
      </trkpt>
      <trkpt lat="44.57936" lon="5.99325">
        <ele>1006</ele>
        <time>2010-07-17T08:24:15Z</time>
      </trkpt>
      <trkpt lat="44.57919" lon="5.99316">
        <ele>1006</ele>
        <time>2010-07-17T08:24:22Z</time>
      </trkpt>
      <trkpt lat="44.57908" lon="5.99312">
        <ele>1006</ele>
        <time>2010-07-17T08:24:30Z</time>
      </trkpt>
      <trkpt lat="44.57895" lon="5.99302">
        <ele>1006</ele>
        <time>2010-07-17T08:24:37Z</time>
      </trkpt>
      <trkpt lat="44.57889" lon="5.993">
        <ele>1006</ele>
        <time>2010-07-17T08:24:44Z</time>
      </trkpt>
      <trkpt lat="44.57884" lon="5.99297">
        <ele>1006</ele>
        <time>2010-07-17T08:24:52Z</time>
      </trkpt>
      <trkpt lat="44.57881" lon="5.99294">
        <ele>1006</ele>
        <time>2010-07-17T08:25:00Z</time>
      </trkpt>
      <trkpt lat="44.57877" lon="5.99296">
        <ele>1006</ele>
        <time>2010-07-17T08:25:07Z</time>
      </trkpt>
      <trkpt lat="44.57866" lon="5.993">
        <ele>1004</ele>
        <time>2010-07-17T08:25:15Z</time>
      </trkpt>
      <trkpt lat="44.57846" lon="5.99263">
        <ele>1003</ele>
        <time>2010-07-17T08:25:23Z</time>
      </trkpt>
      <trkpt lat="44.57841" lon="5.99215">
        <ele>1003</ele>
        <time>2010-07-17T08:25:35Z</time>
      </trkpt>
      <trkpt lat="44.57814" lon="5.99175">
        <ele>1003</ele>
        <time>2010-07-17T08:25:42Z</time>
      </trkpt>
      <trkpt lat="44.57802" lon="5.99168">
        <ele>1003</ele>
        <time>2010-07-17T08:25:50Z</time>
      </trkpt>
      <trkpt lat="44.57796" lon="5.9916">
        <ele>1003</ele>
        <time>2010-07-17T08:25:57Z</time>
      </trkpt>
      <trkpt lat="44.57779" lon="5.99149">
        <ele>1002</ele>
        <time>2010-07-17T08:26:04Z</time>
      </trkpt>
      <trkpt lat="44.5776" lon="5.99132">
        <ele>999</ele>
        <time>2010-07-17T08:26:12Z</time>
      </trkpt>
      <trkpt lat="44.57742" lon="5.99097">
        <ele>997</ele>
        <time>2010-07-17T08:26:20Z</time>
      </trkpt>
      <trkpt lat="44.57716" lon="5.99069">
        <ele>996</ele>
        <time>2010-07-17T08:26:28Z</time>
      </trkpt>
      <trkpt lat="44.57707" lon="5.9908">
        <ele>996</ele>
        <time>2010-07-17T08:26:40Z</time>
      </trkpt>
      <trkpt lat="44.57695" lon="5.9909">
        <ele>996</ele>
        <time>2010-07-17T08:26:47Z</time>
      </trkpt>
      <trkpt lat="44.57692" lon="5.99091">
        <ele>996</ele>
        <time>2010-07-17T08:26:55Z</time>
      </trkpt>
      <trkpt lat="44.5769" lon="5.99089">
        <ele>996</ele>
        <time>2010-07-17T08:27:04Z</time>
      </trkpt>
      <trkpt lat="44.57691" lon="5.9909">
        <ele>996</ele>
        <time>2010-07-17T08:27:22Z</time>
      </trkpt>
      <trkpt lat="44.5769" lon="5.99092">
        <ele>996</ele>
        <time>2010-07-17T08:27:30Z</time>
      </trkpt>
      <trkpt lat="44.57687" lon="5.99094">
        <ele>996</ele>
        <time>2010-07-17T08:27:37Z</time>
      </trkpt>
      <trkpt lat="44.57684" lon="5.99095">
        <ele>993</ele>
        <time>2010-07-17T08:27:51Z</time>
      </trkpt>
      <trkpt lat="44.57685" lon="5.99094">
        <ele>991</ele>
        <time>2010-07-17T08:27:59Z</time>
      </trkpt>
      <trkpt lat="44.57686" lon="5.99093">
        <ele>991</ele>
        <time>2010-07-17T08:28:08Z</time>
      </trkpt>
      <trkpt lat="44.57687" lon="5.99093">
        <ele>991</ele>
        <time>2010-07-17T08:28:16Z</time>
      </trkpt>
      <trkpt lat="44.57689" lon="5.99093">
        <ele>991</ele>
        <time>2010-07-17T08:28:24Z</time>
      </trkpt>
      <trkpt lat="44.57685" lon="5.99087">
        <ele>992</ele>
        <time>2010-07-17T08:28:32Z</time>
      </trkpt>
      <trkpt lat="44.57677" lon="5.99073">
        <ele>998</ele>
        <time>2010-07-17T08:28:39Z</time>
      </trkpt>
      <trkpt lat="44.57666" lon="5.99063">
        <ele>998</ele>
        <time>2010-07-17T08:28:46Z</time>
      </trkpt>
      <trkpt lat="44.57652" lon="5.99056">
        <ele>998</ele>
        <time>2010-07-17T08:28:53Z</time>
      </trkpt>
      <trkpt lat="44.57637" lon="5.99052">
        <ele>998</ele>
        <time>2010-07-17T08:29:00Z</time>
      </trkpt>
      <trkpt lat="44.57615" lon="5.99049">
        <ele>998</ele>
        <time>2010-07-17T08:29:07Z</time>
      </trkpt>
      <trkpt lat="44.57596" lon="5.99035">
        <ele>998</ele>
        <time>2010-07-17T08:29:14Z</time>
      </trkpt>
      <trkpt lat="44.57572" lon="5.99026">
        <ele>1000</ele>
        <time>2010-07-17T08:29:21Z</time>
      </trkpt>
      <trkpt lat="44.57548" lon="5.99025">
        <ele>1005</ele>
        <time>2010-07-17T08:29:28Z</time>
      </trkpt>
      <trkpt lat="44.57532" lon="5.99031">
        <ele>1008</ele>
        <time>2010-07-17T08:29:36Z</time>
      </trkpt>
      <trkpt lat="44.57522" lon="5.99038">
        <ele>1009</ele>
        <time>2010-07-17T08:29:43Z</time>
      </trkpt>
      <trkpt lat="44.57513" lon="5.99042">
        <ele>1009</ele>
        <time>2010-07-17T08:29:51Z</time>
      </trkpt>
      <trkpt lat="44.57504" lon="5.99045">
        <ele>1009</ele>
        <time>2010-07-17T08:29:58Z</time>
      </trkpt>
      <trkpt lat="44.57493" lon="5.99046">
        <ele>1009</ele>
        <time>2010-07-17T08:30:05Z</time>
      </trkpt>
      <trkpt lat="44.57483" lon="5.99048">
        <ele>1009</ele>
        <time>2010-07-17T08:30:12Z</time>
      </trkpt>
      <trkpt lat="44.57473" lon="5.99056">
        <ele>1011</ele>
        <time>2010-07-17T08:30:19Z</time>
      </trkpt>
      <trkpt lat="44.57468" lon="5.99067">
        <ele>1011</ele>
        <time>2010-07-17T08:30:26Z</time>
      </trkpt>
      <trkpt lat="44.57463" lon="5.99079">
        <ele>1011</ele>
        <time>2010-07-17T08:30:33Z</time>
      </trkpt>
      <trkpt lat="44.57454" lon="5.99081">
        <ele>1011</ele>
        <time>2010-07-17T08:30:40Z</time>
      </trkpt>
      <trkpt lat="44.57441" lon="5.99077">
        <ele>1014</ele>
        <time>2010-07-17T08:30:48Z</time>
      </trkpt>
      <trkpt lat="44.57434" lon="5.99067">
        <ele>1019</ele>
        <time>2010-07-17T08:30:56Z</time>
      </trkpt>
      <trkpt lat="44.57428" lon="5.99059">
        <ele>1020</ele>
        <time>2010-07-17T08:31:03Z</time>
      </trkpt>
      <trkpt lat="44.57419" lon="5.99053">
        <ele>1024</ele>
        <time>2010-07-17T08:31:10Z</time>
      </trkpt>
      <trkpt lat="44.57406" lon="5.99047">
        <ele>1027</ele>
        <time>2010-07-17T08:31:17Z</time>
      </trkpt>
      <trkpt lat="44.57393" lon="5.99046">
        <ele>1027</ele>
        <time>2010-07-17T08:31:24Z</time>
      </trkpt>
      <trkpt lat="44.5738" lon="5.9905">
        <ele>1027</ele>
        <time>2010-07-17T08:31:31Z</time>
      </trkpt>
      <trkpt lat="44.57371" lon="5.99058">
        <ele>1027</ele>
        <time>2010-07-17T08:31:38Z</time>
      </trkpt>
      <trkpt lat="44.57365" lon="5.99069">
        <ele>1027</ele>
        <time>2010-07-17T08:31:45Z</time>
      </trkpt>
      <trkpt lat="44.57358" lon="5.99078">
        <ele>1027</ele>
        <time>2010-07-17T08:31:53Z</time>
      </trkpt>
      <trkpt lat="44.57351" lon="5.99086">
        <ele>1027</ele>
        <time>2010-07-17T08:32:00Z</time>
      </trkpt>
      <trkpt lat="44.57347" lon="5.99098">
        <ele>1027</ele>
        <time>2010-07-17T08:32:07Z</time>
      </trkpt>
      <trkpt lat="44.57342" lon="5.99107">
        <ele>1027</ele>
        <time>2010-07-17T08:32:14Z</time>
      </trkpt>
      <trkpt lat="44.57333" lon="5.99115">
        <ele>1030</ele>
        <time>2010-07-17T08:32:21Z</time>
      </trkpt>
      <trkpt lat="44.57323" lon="5.991">
        <ele>1031</ele>
        <time>2010-07-17T08:32:28Z</time>
      </trkpt>
      <trkpt lat="44.57307" lon="5.99082">
        <ele>1031</ele>
        <time>2010-07-17T08:32:35Z</time>
      </trkpt>
      <trkpt lat="44.57303" lon="5.99066">
        <ele>1034</ele>
        <time>2010-07-17T08:32:42Z</time>
      </trkpt>
      <trkpt lat="44.57304" lon="5.99053">
        <ele>1039</ele>
        <time>2010-07-17T08:32:49Z</time>
      </trkpt>
      <trkpt lat="44.57306" lon="5.99043">
        <ele>1043</ele>
        <time>2010-07-17T08:32:56Z</time>
      </trkpt>
      <trkpt lat="44.57303" lon="5.99032">
        <ele>1043</ele>
        <time>2010-07-17T08:33:03Z</time>
      </trkpt>
      <trkpt lat="44.57297" lon="5.99025">
        <ele>1043</ele>
        <time>2010-07-17T08:33:11Z</time>
      </trkpt>
      <trkpt lat="44.57288" lon="5.99022">
        <ele>1043</ele>
        <time>2010-07-17T08:33:18Z</time>
      </trkpt>
      <trkpt lat="44.57279" lon="5.99021">
        <ele>1043</ele>
        <time>2010-07-17T08:33:25Z</time>
      </trkpt>
      <trkpt lat="44.57266" lon="5.99022">
        <ele>1043</ele>
        <time>2010-07-17T08:33:32Z</time>
      </trkpt>
      <trkpt lat="44.57251" lon="5.99023">
        <ele>1044</ele>
        <time>2010-07-17T08:33:39Z</time>
      </trkpt>
      <trkpt lat="44.57235" lon="5.99016">
        <ele>1046</ele>
        <time>2010-07-17T08:33:46Z</time>
      </trkpt>
      <trkpt lat="44.57212" lon="5.99014">
        <ele>1047</ele>
        <time>2010-07-17T08:33:53Z</time>
      </trkpt>
      <trkpt lat="44.57196" lon="5.99014">
        <ele>1047</ele>
        <time>2010-07-17T08:34:00Z</time>
      </trkpt>
      <trkpt lat="44.57175" lon="5.99017">
        <ele>1047</ele>
        <time>2010-07-17T08:34:07Z</time>
      </trkpt>
      <trkpt lat="44.57163" lon="5.99018">
        <ele>1048</ele>
        <time>2010-07-17T08:34:14Z</time>
      </trkpt>
      <trkpt lat="44.57151" lon="5.99026">
        <ele>1049</ele>
        <time>2010-07-17T08:34:21Z</time>
      </trkpt>
      <trkpt lat="44.57143" lon="5.99035">
        <ele>1051</ele>
        <time>2010-07-17T08:34:28Z</time>
      </trkpt>
      <trkpt lat="44.57136" lon="5.99044">
        <ele>1053</ele>
        <time>2010-07-17T08:34:35Z</time>
      </trkpt>
      <trkpt lat="44.57128" lon="5.99049">
        <ele>1053</ele>
        <time>2010-07-17T08:34:42Z</time>
      </trkpt>
      <trkpt lat="44.57119" lon="5.99055">
        <ele>1054</ele>
        <time>2010-07-17T08:34:49Z</time>
      </trkpt>
      <trkpt lat="44.57113" lon="5.99059">
        <ele>1054</ele>
        <time>2010-07-17T08:34:56Z</time>
      </trkpt>
      <trkpt lat="44.57101" lon="5.99059">
        <ele>1058</ele>
        <time>2010-07-17T08:35:03Z</time>
      </trkpt>
      <trkpt lat="44.57095" lon="5.99047">
        <ele>1058</ele>
        <time>2010-07-17T08:35:10Z</time>
      </trkpt>
      <trkpt lat="44.57094" lon="5.99035">
        <ele>1063</ele>
        <time>2010-07-17T08:35:17Z</time>
      </trkpt>
      <trkpt lat="44.57091" lon="5.99017">
        <ele>1067</ele>
        <time>2010-07-17T08:35:24Z</time>
      </trkpt>
      <trkpt lat="44.57087" lon="5.98996">
        <ele>1069</ele>
        <time>2010-07-17T08:35:31Z</time>
      </trkpt>
      <trkpt lat="44.57085" lon="5.98982">
        <ele>1073</ele>
        <time>2010-07-17T08:35:38Z</time>
      </trkpt>
      <trkpt lat="44.57079" lon="5.98973">
        <ele>1074</ele>
        <time>2010-07-17T08:35:45Z</time>
      </trkpt>
      <trkpt lat="44.57077" lon="5.98966">
        <ele>1074</ele>
        <time>2010-07-17T08:35:53Z</time>
      </trkpt>
      <trkpt lat="44.57072" lon="5.98962">
        <ele>1073</ele>
        <time>2010-07-17T08:36:01Z</time>
      </trkpt>
      <trkpt lat="44.57069" lon="5.98956">
        <ele>1072</ele>
        <time>2010-07-17T08:36:09Z</time>
      </trkpt>
      <trkpt lat="44.57065" lon="5.98952">
        <ele>1072</ele>
        <time>2010-07-17T08:36:17Z</time>
      </trkpt>
      <trkpt lat="44.57061" lon="5.98946">
        <ele>1072</ele>
        <time>2010-07-17T08:36:24Z</time>
      </trkpt>
      <trkpt lat="44.57059" lon="5.98941">
        <ele>1072</ele>
        <time>2010-07-17T08:36:32Z</time>
      </trkpt>
      <trkpt lat="44.57057" lon="5.98938">
        <ele>1072</ele>
        <time>2010-07-17T08:36:40Z</time>
      </trkpt>
      <trkpt lat="44.57053" lon="5.98932">
        <ele>1072</ele>
        <time>2010-07-17T08:36:47Z</time>
      </trkpt>
      <trkpt lat="44.57047" lon="5.98926">
        <ele>1072</ele>
        <time>2010-07-17T08:36:54Z</time>
      </trkpt>
      <trkpt lat="44.57042" lon="5.98924">
        <ele>1072</ele>
        <time>2010-07-17T08:37:01Z</time>
      </trkpt>
      <trkpt lat="44.57043" lon="5.98921">
        <ele>1074</ele>
        <time>2010-07-17T08:37:08Z</time>
      </trkpt>
      <trkpt lat="44.57045" lon="5.98913">
        <ele>1075</ele>
        <time>2010-07-17T08:37:17Z</time>
      </trkpt>
      <trkpt lat="44.57048" lon="5.98905">
        <ele>1078</ele>
        <time>2010-07-17T08:37:25Z</time>
      </trkpt>
      <trkpt lat="44.57048" lon="5.98892">
        <ele>1079</ele>
        <time>2010-07-17T08:37:32Z</time>
      </trkpt>
      <trkpt lat="44.57043" lon="5.98889">
        <ele>1084</ele>
        <time>2010-07-17T08:37:39Z</time>
      </trkpt>
      <trkpt lat="44.57036" lon="5.98888">
        <ele>1086</ele>
        <time>2010-07-17T08:37:48Z</time>
      </trkpt>
      <trkpt lat="44.57034" lon="5.98882">
        <ele>1086</ele>
        <time>2010-07-17T08:37:56Z</time>
      </trkpt>
      <trkpt lat="44.57028" lon="5.98874">
        <ele>1086</ele>
        <time>2010-07-17T08:38:03Z</time>
      </trkpt>
      <trkpt lat="44.57024" lon="5.98865">
        <ele>1087</ele>
        <time>2010-07-17T08:38:11Z</time>
      </trkpt>
      <trkpt lat="44.57021" lon="5.98854">
        <ele>1087</ele>
        <time>2010-07-17T08:38:18Z</time>
      </trkpt>
      <trkpt lat="44.57017" lon="5.98843">
        <ele>1087</ele>
        <time>2010-07-17T08:38:25Z</time>
      </trkpt>
      <trkpt lat="44.57013" lon="5.98833">
        <ele>1088</ele>
        <time>2010-07-17T08:38:33Z</time>
      </trkpt>
      <trkpt lat="44.57007" lon="5.98828">
        <ele>1090</ele>
        <time>2010-07-17T08:38:40Z</time>
      </trkpt>
      <trkpt lat="44.56998" lon="5.9882">
        <ele>1095</ele>
        <time>2010-07-17T08:38:47Z</time>
      </trkpt>
      <trkpt lat="44.5699" lon="5.98815">
        <ele>1096</ele>
        <time>2010-07-17T08:38:54Z</time>
      </trkpt>
      <trkpt lat="44.56984" lon="5.98807">
        <ele>1099</ele>
        <time>2010-07-17T08:39:01Z</time>
      </trkpt>
      <trkpt lat="44.56977" lon="5.98798">
        <ele>1100</ele>
        <time>2010-07-17T08:39:08Z</time>
      </trkpt>
      <trkpt lat="44.56971" lon="5.98791">
        <ele>1100</ele>
        <time>2010-07-17T08:39:16Z</time>
      </trkpt>
      <trkpt lat="44.56963" lon="5.98785">
        <ele>1100</ele>
        <time>2010-07-17T08:39:23Z</time>
      </trkpt>
      <trkpt lat="44.56954" lon="5.98782">
        <ele>1100</ele>
        <time>2010-07-17T08:39:30Z</time>
      </trkpt>
      <trkpt lat="44.56948" lon="5.9878">
        <ele>1098</ele>
        <time>2010-07-17T08:39:38Z</time>
      </trkpt>
      <trkpt lat="44.56942" lon="5.98779">
        <ele>1098</ele>
        <time>2010-07-17T08:39:45Z</time>
      </trkpt>
      <trkpt lat="44.56935" lon="5.98778">
        <ele>1096</ele>
        <time>2010-07-17T08:39:53Z</time>
      </trkpt>
      <trkpt lat="44.56929" lon="5.98771">
        <ele>1096</ele>
        <time>2010-07-17T08:40:00Z</time>
      </trkpt>
      <trkpt lat="44.56924" lon="5.98767">
        <ele>1096</ele>
        <time>2010-07-17T08:40:13Z</time>
      </trkpt>
      <trkpt lat="44.56916" lon="5.98765">
        <ele>1098</ele>
        <time>2010-07-17T08:40:20Z</time>
      </trkpt>
      <trkpt lat="44.56906" lon="5.9876">
        <ele>1101</ele>
        <time>2010-07-17T08:40:27Z</time>
      </trkpt>
      <trkpt lat="44.56898" lon="5.98759">
        <ele>1102</ele>
        <time>2010-07-17T08:40:34Z</time>
      </trkpt>
      <trkpt lat="44.56891" lon="5.98756">
        <ele>1102</ele>
        <time>2010-07-17T08:40:43Z</time>
      </trkpt>
      <trkpt lat="44.56884" lon="5.98755">
        <ele>1105</ele>
        <time>2010-07-17T08:40:52Z</time>
      </trkpt>
      <trkpt lat="44.56877" lon="5.98752">
        <ele>1108</ele>
        <time>2010-07-17T08:40:59Z</time>
      </trkpt>
      <trkpt lat="44.56866" lon="5.98751">
        <ele>1110</ele>
        <time>2010-07-17T08:41:07Z</time>
      </trkpt>
      <trkpt lat="44.56853" lon="5.98752">
        <ele>1114</ele>
        <time>2010-07-17T08:41:14Z</time>
      </trkpt>
      <trkpt lat="44.56834" lon="5.98756">
        <ele>1114</ele>
        <time>2010-07-17T08:41:21Z</time>
      </trkpt>
      <trkpt lat="44.56813" lon="5.98761">
        <ele>1114</ele>
        <time>2010-07-17T08:41:28Z</time>
      </trkpt>
      <trkpt lat="44.56792" lon="5.98764">
        <ele>1117</ele>
        <time>2010-07-17T08:41:35Z</time>
      </trkpt>
      <trkpt lat="44.56772" lon="5.98764">
        <ele>1119</ele>
        <time>2010-07-17T08:41:42Z</time>
      </trkpt>
      <trkpt lat="44.56754" lon="5.98765">
        <ele>1121</ele>
        <time>2010-07-17T08:41:49Z</time>
      </trkpt>
      <trkpt lat="44.56737" lon="5.98768">
        <ele>1121</ele>
        <time>2010-07-17T08:41:56Z</time>
      </trkpt>
      <trkpt lat="44.56721" lon="5.98771">
        <ele>1122</ele>
        <time>2010-07-17T08:42:03Z</time>
      </trkpt>
      <trkpt lat="44.56704" lon="5.98774">
        <ele>1122</ele>
        <time>2010-07-17T08:42:10Z</time>
      </trkpt>
      <trkpt lat="44.56681" lon="5.98775">
        <ele>1122</ele>
        <time>2010-07-17T08:42:17Z</time>
      </trkpt>
      <trkpt lat="44.56658" lon="5.98772">
        <ele>1122</ele>
        <time>2010-07-17T08:42:24Z</time>
      </trkpt>
      <trkpt lat="44.5664" lon="5.98764">
        <ele>1122</ele>
        <time>2010-07-17T08:42:31Z</time>
      </trkpt>
      <trkpt lat="44.56626" lon="5.98756">
        <ele>1122</ele>
        <time>2010-07-17T08:42:38Z</time>
      </trkpt>
      <trkpt lat="44.56613" lon="5.98749">
        <ele>1122</ele>
        <time>2010-07-17T08:42:45Z</time>
      </trkpt>
      <trkpt lat="44.56599" lon="5.98744">
        <ele>1122</ele>
        <time>2010-07-17T08:42:52Z</time>
      </trkpt>
      <trkpt lat="44.56589" lon="5.98755">
        <ele>1123</ele>
        <time>2010-07-17T08:42:59Z</time>
      </trkpt>
      <trkpt lat="44.56581" lon="5.98774">
        <ele>1125</ele>
        <time>2010-07-17T08:43:06Z</time>
      </trkpt>
      <trkpt lat="44.56573" lon="5.98794">
        <ele>1125</ele>
        <time>2010-07-17T08:43:13Z</time>
      </trkpt>
      <trkpt lat="44.56567" lon="5.98814">
        <ele>1125</ele>
        <time>2010-07-17T08:43:20Z</time>
      </trkpt>
      <trkpt lat="44.5656" lon="5.98832">
        <ele>1126</ele>
        <time>2010-07-17T08:43:27Z</time>
      </trkpt>
      <trkpt lat="44.56553" lon="5.98849">
        <ele>1126</ele>
        <time>2010-07-17T08:43:34Z</time>
      </trkpt>
      <trkpt lat="44.56546" lon="5.98866">
        <ele>1128</ele>
        <time>2010-07-17T08:43:41Z</time>
      </trkpt>
      <trkpt lat="44.56538" lon="5.98881">
        <ele>1131</ele>
        <time>2010-07-17T08:43:48Z</time>
      </trkpt>
      <trkpt lat="44.56533" lon="5.98897">
        <ele>1133</ele>
        <time>2010-07-17T08:43:55Z</time>
      </trkpt>
      <trkpt lat="44.56524" lon="5.98911">
        <ele>1135</ele>
        <time>2010-07-17T08:44:02Z</time>
      </trkpt>
      <trkpt lat="44.56517" lon="5.98927">
        <ele>1135</ele>
        <time>2010-07-17T08:44:09Z</time>
      </trkpt>
      <trkpt lat="44.56512" lon="5.9894">
        <ele>1135</ele>
        <time>2010-07-17T08:44:16Z</time>
      </trkpt>
      <trkpt lat="44.56507" lon="5.98955">
        <ele>1135</ele>
        <time>2010-07-17T08:44:23Z</time>
      </trkpt>
      <trkpt lat="44.56503" lon="5.9897">
        <ele>1135</ele>
        <time>2010-07-17T08:44:30Z</time>
      </trkpt>
      <trkpt lat="44.56499" lon="5.98982">
        <ele>1135</ele>
        <time>2010-07-17T08:44:37Z</time>
      </trkpt>
      <trkpt lat="44.56494" lon="5.98996">
        <ele>1135</ele>
        <time>2010-07-17T08:44:44Z</time>
      </trkpt>
      <trkpt lat="44.5649" lon="5.9901">
        <ele>1135</ele>
        <time>2010-07-17T08:44:51Z</time>
      </trkpt>
      <trkpt lat="44.56486" lon="5.99022">
        <ele>1135</ele>
        <time>2010-07-17T08:44:58Z</time>
      </trkpt>
      <trkpt lat="44.56481" lon="5.99034">
        <ele>1138</ele>
        <time>2010-07-17T08:45:05Z</time>
      </trkpt>
      <trkpt lat="44.56475" lon="5.99045">
        <ele>1142</ele>
        <time>2010-07-17T08:45:12Z</time>
      </trkpt>
      <trkpt lat="44.56469" lon="5.99056">
        <ele>1144</ele>
        <time>2010-07-17T08:45:19Z</time>
      </trkpt>
      <trkpt lat="44.56465" lon="5.99067">
        <ele>1145</ele>
        <time>2010-07-17T08:45:26Z</time>
      </trkpt>
      <trkpt lat="44.56461" lon="5.99079">
        <ele>1146</ele>
        <time>2010-07-17T08:45:33Z</time>
      </trkpt>
      <trkpt lat="44.56456" lon="5.99092">
        <ele>1149</ele>
        <time>2010-07-17T08:45:41Z</time>
      </trkpt>
      <trkpt lat="44.56454" lon="5.99105">
        <ele>1151</ele>
        <time>2010-07-17T08:45:48Z</time>
      </trkpt>
      <trkpt lat="44.56452" lon="5.9912">
        <ele>1152</ele>
        <time>2010-07-17T08:45:55Z</time>
      </trkpt>
      <trkpt lat="44.56448" lon="5.99141">
        <ele>1153</ele>
        <time>2010-07-17T08:46:02Z</time>
      </trkpt>
      <trkpt lat="44.56444" lon="5.99166">
        <ele>1153</ele>
        <time>2010-07-17T08:46:09Z</time>
      </trkpt>
      <trkpt lat="44.56435" lon="5.99193">
        <ele>1153</ele>
        <time>2010-07-17T08:46:16Z</time>
      </trkpt>
      <trkpt lat="44.56424" lon="5.99216">
        <ele>1153</ele>
        <time>2010-07-17T08:46:23Z</time>
      </trkpt>
      <trkpt lat="44.56414" lon="5.99236">
        <ele>1153</ele>
        <time>2010-07-17T08:46:30Z</time>
      </trkpt>
      <trkpt lat="44.56405" lon="5.99258">
        <ele>1154</ele>
        <time>2010-07-17T08:46:37Z</time>
      </trkpt>
      <trkpt lat="44.56395" lon="5.99286">
        <ele>1156</ele>
        <time>2010-07-17T08:46:44Z</time>
      </trkpt>
      <trkpt lat="44.5639" lon="5.99318">
        <ele>1156</ele>
        <time>2010-07-17T08:46:51Z</time>
      </trkpt>
      <trkpt lat="44.56384" lon="5.99346">
        <ele>1156</ele>
        <time>2010-07-17T08:46:58Z</time>
      </trkpt>
      <trkpt lat="44.56373" lon="5.99376">
        <ele>1157</ele>
        <time>2010-07-17T08:47:05Z</time>
      </trkpt>
      <trkpt lat="44.56362" lon="5.99404">
        <ele>1159</ele>
        <time>2010-07-17T08:47:12Z</time>
      </trkpt>
      <trkpt lat="44.56352" lon="5.99428">
        <ele>1160</ele>
        <time>2010-07-17T08:47:19Z</time>
      </trkpt>
      <trkpt lat="44.5634" lon="5.99454">
        <ele>1160</ele>
        <time>2010-07-17T08:47:27Z</time>
      </trkpt>
      <trkpt lat="44.56331" lon="5.99479">
        <ele>1160</ele>
        <time>2010-07-17T08:47:34Z</time>
      </trkpt>
      <trkpt lat="44.56324" lon="5.99508">
        <ele>1162</ele>
        <time>2010-07-17T08:47:41Z</time>
      </trkpt>
      <trkpt lat="44.56324" lon="5.99546">
        <ele>1162</ele>
        <time>2010-07-17T08:47:48Z</time>
      </trkpt>
      <trkpt lat="44.56321" lon="5.99583">
        <ele>1162</ele>
        <time>2010-07-17T08:47:55Z</time>
      </trkpt>
      <trkpt lat="44.56317" lon="5.99615">
        <ele>1162</ele>
        <time>2010-07-17T08:48:02Z</time>
      </trkpt>
      <trkpt lat="44.56319" lon="5.99645">
        <ele>1163</ele>
        <time>2010-07-17T08:48:09Z</time>
      </trkpt>
      <trkpt lat="44.56318" lon="5.99684">
        <ele>1165</ele>
        <time>2010-07-17T08:48:17Z</time>
      </trkpt>
      <trkpt lat="44.56316" lon="5.99723">
        <ele>1167</ele>
        <time>2010-07-17T08:48:24Z</time>
      </trkpt>
      <trkpt lat="44.56311" lon="5.9976">
        <ele>1168</ele>
        <time>2010-07-17T08:48:31Z</time>
      </trkpt>
      <trkpt lat="44.56306" lon="5.99799">
        <ele>1169</ele>
        <time>2010-07-17T08:48:39Z</time>
      </trkpt>
      <trkpt lat="44.56298" lon="5.99839">
        <ele>1169</ele>
        <time>2010-07-17T08:48:47Z</time>
      </trkpt>
      <trkpt lat="44.56289" lon="5.99871">
        <ele>1169</ele>
        <time>2010-07-17T08:48:54Z</time>
      </trkpt>
      <trkpt lat="44.56274" lon="5.999">
        <ele>1170</ele>
        <time>2010-07-17T08:49:01Z</time>
      </trkpt>
      <trkpt lat="44.56262" lon="5.99932">
        <ele>1171</ele>
        <time>2010-07-17T08:49:08Z</time>
      </trkpt>
      <trkpt lat="44.56247" lon="5.99962">
        <ele>1171</ele>
        <time>2010-07-17T08:49:15Z</time>
      </trkpt>
      <trkpt lat="44.56231" lon="5.99998">
        <ele>1171</ele>
        <time>2010-07-17T08:49:23Z</time>
      </trkpt>
      <trkpt lat="44.56221" lon="6.00031">
        <ele>1171</ele>
        <time>2010-07-17T08:49:30Z</time>
      </trkpt>
      <trkpt lat="44.56217" lon="6.00064">
        <ele>1173</ele>
        <time>2010-07-17T08:49:37Z</time>
      </trkpt>
      <trkpt lat="44.56216" lon="6.00092">
        <ele>1174</ele>
        <time>2010-07-17T08:49:44Z</time>
      </trkpt>
      <trkpt lat="44.56214" lon="6.00123">
        <ele>1175</ele>
        <time>2010-07-17T08:49:52Z</time>
      </trkpt>
      <trkpt lat="44.56212" lon="6.00152">
        <ele>1176</ele>
        <time>2010-07-17T08:49:59Z</time>
      </trkpt>
      <trkpt lat="44.56208" lon="6.00195">
        <ele>1177</ele>
        <time>2010-07-17T08:50:07Z</time>
      </trkpt>
      <trkpt lat="44.56202" lon="6.00236">
        <ele>1177</ele>
        <time>2010-07-17T08:50:14Z</time>
      </trkpt>
      <trkpt lat="44.56195" lon="6.00277">
        <ele>1177</ele>
        <time>2010-07-17T08:50:21Z</time>
      </trkpt>
      <trkpt lat="44.56186" lon="6.00317">
        <ele>1177</ele>
        <time>2010-07-17T08:50:28Z</time>
      </trkpt>
      <trkpt lat="44.56173" lon="6.00357">
        <ele>1177</ele>
        <time>2010-07-17T08:50:35Z</time>
      </trkpt>
      <trkpt lat="44.56164" lon="6.00406">
        <ele>1177</ele>
        <time>2010-07-17T08:50:43Z</time>
      </trkpt>
      <trkpt lat="44.56165" lon="6.00445">
        <ele>1177</ele>
        <time>2010-07-17T08:50:50Z</time>
      </trkpt>
      <trkpt lat="44.56136" lon="6.00479">
        <ele>1177</ele>
        <time>2010-07-17T08:50:58Z</time>
      </trkpt>
      <trkpt lat="44.56096" lon="6.00519">
        <ele>1176</ele>
        <time>2010-07-17T08:51:05Z</time>
      </trkpt>
      <trkpt lat="44.5607" lon="6.00593">
        <ele>1174</ele>
        <time>2010-07-17T08:51:13Z</time>
      </trkpt>
      <trkpt lat="44.5605" lon="6.00661">
        <ele>1172</ele>
        <time>2010-07-17T08:51:20Z</time>
      </trkpt>
      <trkpt lat="44.56029" lon="6.00743">
        <ele>1168</ele>
        <time>2010-07-17T08:51:28Z</time>
      </trkpt>
      <trkpt lat="44.56022" lon="6.00811">
        <ele>1164</ele>
        <time>2010-07-17T08:51:35Z</time>
      </trkpt>
      <trkpt lat="44.56022" lon="6.0088">
        <ele>1163</ele>
        <time>2010-07-17T08:51:43Z</time>
      </trkpt>
      <trkpt lat="44.56023" lon="6.00938">
        <ele>1163</ele>
        <time>2010-07-17T08:51:50Z</time>
      </trkpt>
      <trkpt lat="44.56027" lon="6.01">
        <ele>1164</ele>
        <time>2010-07-17T08:51:58Z</time>
      </trkpt>
      <trkpt lat="44.56033" lon="6.01053">
        <ele>1165</ele>
        <time>2010-07-17T08:52:05Z</time>
      </trkpt>
      <trkpt lat="44.56044" lon="6.0112">
        <ele>1166</ele>
        <time>2010-07-17T08:52:13Z</time>
      </trkpt>
      <trkpt lat="44.56054" lon="6.01183">
        <ele>1166</ele>
        <time>2010-07-17T08:52:20Z</time>
      </trkpt>
      <trkpt lat="44.56056" lon="6.0126">
        <ele>1166</ele>
        <time>2010-07-17T08:52:27Z</time>
      </trkpt>
      <trkpt lat="44.56049" lon="6.01352">
        <ele>1166</ele>
        <time>2010-07-17T08:52:34Z</time>
      </trkpt>
      <trkpt lat="44.56036" lon="6.01462">
        <ele>1163</ele>
        <time>2010-07-17T08:52:46Z</time>
      </trkpt>
      <trkpt lat="44.56026" lon="6.01567">
        <ele>1160</ele>
        <time>2010-07-17T08:52:53Z</time>
      </trkpt>
      <trkpt lat="44.56008" lon="6.01674">
        <ele>1156</ele>
        <time>2010-07-17T08:53:00Z</time>
      </trkpt>
      <trkpt lat="44.55989" lon="6.01759">
        <ele>1150</ele>
        <time>2010-07-17T08:53:07Z</time>
      </trkpt>
      <trkpt lat="44.55984" lon="6.01829">
        <ele>1142</ele>
        <time>2010-07-17T08:53:15Z</time>
      </trkpt>
      <trkpt lat="44.55988" lon="6.01898">
        <ele>1138</ele>
        <time>2010-07-17T08:53:23Z</time>
      </trkpt>
      <trkpt lat="44.56001" lon="6.01991">
        <ele>1135</ele>
        <time>2010-07-17T08:53:30Z</time>
      </trkpt>
      <trkpt lat="44.56007" lon="6.02048">
        <ele>1135</ele>
        <time>2010-07-17T08:53:37Z</time>
      </trkpt>
      <trkpt lat="44.56018" lon="6.02103">
        <ele>1135</ele>
        <time>2010-07-17T08:53:44Z</time>
      </trkpt>
      <trkpt lat="44.56031" lon="6.02157">
        <ele>1135</ele>
        <time>2010-07-17T08:53:51Z</time>
      </trkpt>
      <trkpt lat="44.56049" lon="6.02208">
        <ele>1136</ele>
        <time>2010-07-17T08:53:58Z</time>
      </trkpt>
      <trkpt lat="44.56067" lon="6.02259">
        <ele>1139</ele>
        <time>2010-07-17T08:54:05Z</time>
      </trkpt>
      <trkpt lat="44.56087" lon="6.02309">
        <ele>1139</ele>
        <time>2010-07-17T08:54:12Z</time>
      </trkpt>
      <trkpt lat="44.56107" lon="6.0236">
        <ele>1139</ele>
        <time>2010-07-17T08:54:19Z</time>
      </trkpt>
      <trkpt lat="44.56128" lon="6.02406">
        <ele>1139</ele>
        <time>2010-07-17T08:54:26Z</time>
      </trkpt>
      <trkpt lat="44.56153" lon="6.02448">
        <ele>1140</ele>
        <time>2010-07-17T08:54:33Z</time>
      </trkpt>
      <trkpt lat="44.56173" lon="6.02496">
        <ele>1141</ele>
        <time>2010-07-17T08:54:40Z</time>
      </trkpt>
      <trkpt lat="44.56192" lon="6.02543">
        <ele>1141</ele>
        <time>2010-07-17T08:54:47Z</time>
      </trkpt>
      <trkpt lat="44.56217" lon="6.02585">
        <ele>1141</ele>
        <time>2010-07-17T08:54:54Z</time>
      </trkpt>
      <trkpt lat="44.56247" lon="6.02621">
        <ele>1141</ele>
        <time>2010-07-17T08:55:01Z</time>
      </trkpt>
      <trkpt lat="44.56283" lon="6.02617">
        <ele>1143</ele>
        <time>2010-07-17T08:55:08Z</time>
      </trkpt>
      <trkpt lat="44.5631" lon="6.0265">
        <ele>1145</ele>
        <time>2010-07-17T08:55:15Z</time>
      </trkpt>
      <trkpt lat="44.56322" lon="6.02701">
        <ele>1145</ele>
        <time>2010-07-17T08:55:22Z</time>
      </trkpt>
      <trkpt lat="44.56341" lon="6.02741">
        <ele>1145</ele>
        <time>2010-07-17T08:55:29Z</time>
      </trkpt>
      <trkpt lat="44.56371" lon="6.02773">
        <ele>1145</ele>
        <time>2010-07-17T08:55:36Z</time>
      </trkpt>
      <trkpt lat="44.564" lon="6.0281">
        <ele>1146</ele>
        <time>2010-07-17T08:55:43Z</time>
      </trkpt>
      <trkpt lat="44.56432" lon="6.02844">
        <ele>1146</ele>
        <time>2010-07-17T08:55:50Z</time>
      </trkpt>
      <trkpt lat="44.56465" lon="6.02877">
        <ele>1146</ele>
        <time>2010-07-17T08:55:57Z</time>
      </trkpt>
      <trkpt lat="44.56498" lon="6.02896">
        <ele>1146</ele>
        <time>2010-07-17T08:56:04Z</time>
      </trkpt>
      <trkpt lat="44.5653" lon="6.02914">
        <ele>1144</ele>
        <time>2010-07-17T08:56:11Z</time>
      </trkpt>
      <trkpt lat="44.56555" lon="6.02928">
        <ele>1144</ele>
        <time>2010-07-17T08:56:18Z</time>
      </trkpt>
      <trkpt lat="44.56579" lon="6.0296">
        <ele>1144</ele>
        <time>2010-07-17T08:56:25Z</time>
      </trkpt>
      <trkpt lat="44.56607" lon="6.02989">
        <ele>1144</ele>
        <time>2010-07-17T08:56:32Z</time>
      </trkpt>
      <trkpt lat="44.56626" lon="6.03002">
        <ele>1144</ele>
        <time>2010-07-17T08:56:39Z</time>
      </trkpt>
      <trkpt lat="44.56636" lon="6.03003">
        <ele>1145</ele>
        <time>2010-07-17T08:56:46Z</time>
      </trkpt>
      <trkpt lat="44.56648" lon="6.03023">
        <ele>1145</ele>
        <time>2010-07-17T08:56:53Z</time>
      </trkpt>
      <trkpt lat="44.56654" lon="6.0303">
        <ele>1145</ele>
        <time>2010-07-17T08:57:04Z</time>
      </trkpt>
      <trkpt lat="44.56655" lon="6.03029">
        <ele>1142</ele>
        <time>2010-07-17T08:57:46Z</time>
      </trkpt>
      <trkpt lat="44.56661" lon="6.03032">
        <ele>1143</ele>
        <time>2010-07-17T08:57:53Z</time>
      </trkpt>
      <trkpt lat="44.56681" lon="6.03039">
        <ele>1143</ele>
        <time>2010-07-17T08:58:00Z</time>
      </trkpt>
      <trkpt lat="44.56701" lon="6.03057">
        <ele>1143</ele>
        <time>2010-07-17T08:58:07Z</time>
      </trkpt>
      <trkpt lat="44.56723" lon="6.03086">
        <ele>1143</ele>
        <time>2010-07-17T08:58:14Z</time>
      </trkpt>
      <trkpt lat="44.56747" lon="6.03116">
        <ele>1143</ele>
        <time>2010-07-17T08:58:21Z</time>
      </trkpt>
      <trkpt lat="44.56775" lon="6.03139">
        <ele>1144</ele>
        <time>2010-07-17T08:58:28Z</time>
      </trkpt>
      <trkpt lat="44.56795" lon="6.03158">
        <ele>1144</ele>
        <time>2010-07-17T08:58:35Z</time>
      </trkpt>
      <trkpt lat="44.56802" lon="6.03164">
        <ele>1142</ele>
        <time>2010-07-17T08:58:44Z</time>
      </trkpt>
      <trkpt lat="44.56807" lon="6.03164">
        <ele>1142</ele>
        <time>2010-07-17T08:58:54Z</time>
      </trkpt>
      <trkpt lat="44.5681" lon="6.03165">
        <ele>1144</ele>
        <time>2010-07-17T08:59:01Z</time>
      </trkpt>
      <trkpt lat="44.56809" lon="6.03168">
        <ele>1149</ele>
        <time>2010-07-17T08:59:10Z</time>
      </trkpt>
      <trkpt lat="44.5681" lon="6.03171">
        <ele>1160</ele>
        <time>2010-07-17T08:59:21Z</time>
      </trkpt>
      <trkpt lat="44.5681" lon="6.03169">
        <ele>1162</ele>
        <time>2010-07-17T08:59:30Z</time>
      </trkpt>
      <trkpt lat="44.56821" lon="6.03185">
        <ele>1162</ele>
        <time>2010-07-17T08:59:37Z</time>
      </trkpt>
      <trkpt lat="44.56833" lon="6.03195">
        <ele>1156</ele>
        <time>2010-07-17T08:59:45Z</time>
      </trkpt>
      <trkpt lat="44.56839" lon="6.03203">
        <ele>1148</ele>
        <time>2010-07-17T08:59:52Z</time>
      </trkpt>
      <trkpt lat="44.56836" lon="6.03205">
        <ele>1140</ele>
        <time>2010-07-17T08:59:59Z</time>
      </trkpt>
      <trkpt lat="44.56836" lon="6.03206">
        <ele>1142</ele>
        <time>2010-07-17T09:00:06Z</time>
      </trkpt>
      <trkpt lat="44.56838" lon="6.03208">
        <ele>1144</ele>
        <time>2010-07-17T09:00:17Z</time>
      </trkpt>
      <trkpt lat="44.5684" lon="6.03223">
        <ele>1144</ele>
        <time>2010-07-17T09:00:25Z</time>
      </trkpt>
      <trkpt lat="44.56845" lon="6.03258">
        <ele>1144</ele>
        <time>2010-07-17T09:00:32Z</time>
      </trkpt>
      <trkpt lat="44.56873" lon="6.033">
        <ele>1144</ele>
        <time>2010-07-17T09:00:41Z</time>
      </trkpt>
      <trkpt lat="44.5692" lon="6.03351">
        <ele>1144</ele>
        <time>2010-07-17T09:00:48Z</time>
      </trkpt>
      <trkpt lat="44.56953" lon="6.0338">
        <ele>1144</ele>
        <time>2010-07-17T09:00:55Z</time>
      </trkpt>
      <trkpt lat="44.56982" lon="6.03419">
        <ele>1144</ele>
        <time>2010-07-17T09:01:02Z</time>
      </trkpt>
      <trkpt lat="44.57016" lon="6.03447">
        <ele>1144</ele>
        <time>2010-07-17T09:01:09Z</time>
      </trkpt>
      <trkpt lat="44.5704" lon="6.03493">
        <ele>1144</ele>
        <time>2010-07-17T09:01:16Z</time>
      </trkpt>
      <trkpt lat="44.57064" lon="6.0354">
        <ele>1144</ele>
        <time>2010-07-17T09:01:23Z</time>
      </trkpt>
      <trkpt lat="44.57102" lon="6.03559">
        <ele>1144</ele>
        <time>2010-07-17T09:01:30Z</time>
      </trkpt>
      <trkpt lat="44.57138" lon="6.03552">
        <ele>1144</ele>
        <time>2010-07-17T09:01:37Z</time>
      </trkpt>
      <trkpt lat="44.57175" lon="6.03525">
        <ele>1144</ele>
        <time>2010-07-17T09:01:44Z</time>
      </trkpt>
      <trkpt lat="44.57209" lon="6.03514">
        <ele>1144</ele>
        <time>2010-07-17T09:01:51Z</time>
      </trkpt>
      <trkpt lat="44.57227" lon="6.0355">
        <ele>1144</ele>
        <time>2010-07-17T09:01:58Z</time>
      </trkpt>
      <trkpt lat="44.57238" lon="6.03597">
        <ele>1144</ele>
        <time>2010-07-17T09:02:05Z</time>
      </trkpt>
      <trkpt lat="44.57271" lon="6.03623">
        <ele>1144</ele>
        <time>2010-07-17T09:02:12Z</time>
      </trkpt>
      <trkpt lat="44.57295" lon="6.03663">
        <ele>1143</ele>
        <time>2010-07-17T09:02:19Z</time>
      </trkpt>
      <trkpt lat="44.57309" lon="6.03706">
        <ele>1143</ele>
        <time>2010-07-17T09:02:26Z</time>
      </trkpt>
      <trkpt lat="44.57272" lon="6.03722">
        <ele>1143</ele>
        <time>2010-07-17T09:02:33Z</time>
      </trkpt>
      <trkpt lat="44.57241" lon="6.03755">
        <ele>1143</ele>
        <time>2010-07-17T09:02:40Z</time>
      </trkpt>
      <trkpt lat="44.57209" lon="6.03783">
        <ele>1143</ele>
        <time>2010-07-17T09:02:47Z</time>
      </trkpt>
      <trkpt lat="44.57227" lon="6.03825">
        <ele>1139</ele>
        <time>2010-07-17T09:02:54Z</time>
      </trkpt>
      <trkpt lat="44.5726" lon="6.03853">
        <ele>1138</ele>
        <time>2010-07-17T09:03:01Z</time>
      </trkpt>
      <trkpt lat="44.57291" lon="6.03886">
        <ele>1138</ele>
        <time>2010-07-17T09:03:08Z</time>
      </trkpt>
      <trkpt lat="44.57319" lon="6.03925">
        <ele>1138</ele>
        <time>2010-07-17T09:03:15Z</time>
      </trkpt>
      <trkpt lat="44.57349" lon="6.03961">
        <ele>1138</ele>
        <time>2010-07-17T09:03:22Z</time>
      </trkpt>
      <trkpt lat="44.57369" lon="6.04005">
        <ele>1138</ele>
        <time>2010-07-17T09:03:29Z</time>
      </trkpt>
      <trkpt lat="44.5739" lon="6.04058">
        <ele>1138</ele>
        <time>2010-07-17T09:03:41Z</time>
      </trkpt>
      <trkpt lat="44.57412" lon="6.04104">
        <ele>1138</ele>
        <time>2010-07-17T09:03:49Z</time>
      </trkpt>
      <trkpt lat="44.57435" lon="6.04161">
        <ele>1138</ele>
        <time>2010-07-17T09:03:56Z</time>
      </trkpt>
      <trkpt lat="44.57475" lon="6.04228">
        <ele>1138</ele>
        <time>2010-07-17T09:04:04Z</time>
      </trkpt>
      <trkpt lat="44.57503" lon="6.04282">
        <ele>1138</ele>
        <time>2010-07-17T09:04:11Z</time>
      </trkpt>
      <trkpt lat="44.57521" lon="6.04333">
        <ele>1138</ele>
        <time>2010-07-17T09:04:18Z</time>
      </trkpt>
      <trkpt lat="44.57535" lon="6.04389">
        <ele>1138</ele>
        <time>2010-07-17T09:04:25Z</time>
      </trkpt>
      <trkpt lat="44.57561" lon="6.04434">
        <ele>1138</ele>
        <time>2010-07-17T09:04:32Z</time>
      </trkpt>
      <trkpt lat="44.57587" lon="6.04481">
        <ele>1139</ele>
        <time>2010-07-17T09:04:39Z</time>
      </trkpt>
      <trkpt lat="44.57609" lon="6.04523">
        <ele>1139</ele>
        <time>2010-07-17T09:04:46Z</time>
      </trkpt>
      <trkpt lat="44.57613" lon="6.04531">
        <ele>1139</ele>
        <time>2010-07-17T09:04:54Z</time>
      </trkpt>
      <trkpt lat="44.57615" lon="6.04532">
        <ele>1139</ele>
        <time>2010-07-17T09:05:01Z</time>
      </trkpt>
      <trkpt lat="44.57626" lon="6.0454">
        <ele>1139</ele>
        <time>2010-07-17T09:05:08Z</time>
      </trkpt>
      <trkpt lat="44.57638" lon="6.04558">
        <ele>1139</ele>
        <time>2010-07-17T09:05:15Z</time>
      </trkpt>
      <trkpt lat="44.57647" lon="6.04567">
        <ele>1139</ele>
        <time>2010-07-17T09:05:22Z</time>
      </trkpt>
      <trkpt lat="44.57663" lon="6.04577">
        <ele>1140</ele>
        <time>2010-07-17T09:05:29Z</time>
      </trkpt>
      <trkpt lat="44.57684" lon="6.0461">
        <ele>1140</ele>
        <time>2010-07-17T09:05:36Z</time>
      </trkpt>
      <trkpt lat="44.57699" lon="6.04658">
        <ele>1142</ele>
        <time>2010-07-17T09:05:43Z</time>
      </trkpt>
      <trkpt lat="44.57731" lon="6.04684">
        <ele>1142</ele>
        <time>2010-07-17T09:05:50Z</time>
      </trkpt>
      <trkpt lat="44.5777" lon="6.04696">
        <ele>1142</ele>
        <time>2010-07-17T09:05:57Z</time>
      </trkpt>
      <trkpt lat="44.57803" lon="6.04713">
        <ele>1142</ele>
        <time>2010-07-17T09:06:04Z</time>
      </trkpt>
      <trkpt lat="44.57831" lon="6.04745">
        <ele>1142</ele>
        <time>2010-07-17T09:06:11Z</time>
      </trkpt>
      <trkpt lat="44.57859" lon="6.04781">
        <ele>1142</ele>
        <time>2010-07-17T09:06:18Z</time>
      </trkpt>
      <trkpt lat="44.57892" lon="6.04816">
        <ele>1142</ele>
        <time>2010-07-17T09:06:25Z</time>
      </trkpt>
      <trkpt lat="44.57919" lon="6.04866">
        <ele>1142</ele>
        <time>2010-07-17T09:06:32Z</time>
      </trkpt>
      <trkpt lat="44.57941" lon="6.04918">
        <ele>1141</ele>
        <time>2010-07-17T09:06:39Z</time>
      </trkpt>
      <trkpt lat="44.57971" lon="6.04958">
        <ele>1141</ele>
        <time>2010-07-17T09:06:46Z</time>
      </trkpt>
      <trkpt lat="44.57995" lon="6.04993">
        <ele>1141</ele>
        <time>2010-07-17T09:06:53Z</time>
      </trkpt>
      <trkpt lat="44.58015" lon="6.05032">
        <ele>1141</ele>
        <time>2010-07-17T09:07:00Z</time>
      </trkpt>
      <trkpt lat="44.58044" lon="6.05062">
        <ele>1141</ele>
        <time>2010-07-17T09:07:07Z</time>
      </trkpt>
      <trkpt lat="44.58069" lon="6.05104">
        <ele>1141</ele>
        <time>2010-07-17T09:07:14Z</time>
      </trkpt>
      <trkpt lat="44.58099" lon="6.05135">
        <ele>1142</ele>
        <time>2010-07-17T09:07:21Z</time>
      </trkpt>
      <trkpt lat="44.58128" lon="6.05176">
        <ele>1144</ele>
        <time>2010-07-17T09:07:28Z</time>
      </trkpt>
      <trkpt lat="44.58156" lon="6.05216">
        <ele>1144</ele>
        <time>2010-07-17T09:07:35Z</time>
      </trkpt>
      <trkpt lat="44.58185" lon="6.05262">
        <ele>1146</ele>
        <time>2010-07-17T09:07:42Z</time>
      </trkpt>
      <trkpt lat="44.58215" lon="6.05307">
        <ele>1146</ele>
        <time>2010-07-17T09:07:49Z</time>
      </trkpt>
      <trkpt lat="44.58242" lon="6.05355">
        <ele>1147</ele>
        <time>2010-07-17T09:07:56Z</time>
      </trkpt>
      <trkpt lat="44.58272" lon="6.05393">
        <ele>1147</ele>
        <time>2010-07-17T09:08:03Z</time>
      </trkpt>
      <trkpt lat="44.58298" lon="6.05438">
        <ele>1147</ele>
        <time>2010-07-17T09:08:10Z</time>
      </trkpt>
      <trkpt lat="44.58318" lon="6.05493">
        <ele>1145</ele>
        <time>2010-07-17T09:08:17Z</time>
      </trkpt>
      <trkpt lat="44.5834" lon="6.05545">
        <ele>1145</ele>
        <time>2010-07-17T09:08:24Z</time>
      </trkpt>
      <trkpt lat="44.58367" lon="6.05592">
        <ele>1145</ele>
        <time>2010-07-17T09:08:31Z</time>
      </trkpt>
      <trkpt lat="44.58395" lon="6.05629">
        <ele>1146</ele>
        <time>2010-07-17T09:08:38Z</time>
      </trkpt>
      <trkpt lat="44.58412" lon="6.05662">
        <ele>1147</ele>
        <time>2010-07-17T09:08:45Z</time>
      </trkpt>
      <trkpt lat="44.58437" lon="6.05697">
        <ele>1147</ele>
        <time>2010-07-17T09:08:52Z</time>
      </trkpt>
      <trkpt lat="44.58463" lon="6.05739">
        <ele>1147</ele>
        <time>2010-07-17T09:08:59Z</time>
      </trkpt>
      <trkpt lat="44.58493" lon="6.05781">
        <ele>1147</ele>
        <time>2010-07-17T09:09:06Z</time>
      </trkpt>
      <trkpt lat="44.58528" lon="6.058">
        <ele>1145</ele>
        <time>2010-07-17T09:09:13Z</time>
      </trkpt>
      <trkpt lat="44.58562" lon="6.05796">
        <ele>1145</ele>
        <time>2010-07-17T09:09:20Z</time>
      </trkpt>
      <trkpt lat="44.58583" lon="6.05843">
        <ele>1146</ele>
        <time>2010-07-17T09:09:27Z</time>
      </trkpt>
      <trkpt lat="44.58597" lon="6.05891">
        <ele>1146</ele>
        <time>2010-07-17T09:09:34Z</time>
      </trkpt>
      <trkpt lat="44.58626" lon="6.05922">
        <ele>1146</ele>
        <time>2010-07-17T09:09:41Z</time>
      </trkpt>
      <trkpt lat="44.58657" lon="6.05957">
        <ele>1146</ele>
        <time>2010-07-17T09:09:48Z</time>
      </trkpt>
      <trkpt lat="44.58678" lon="6.06003">
        <ele>1146</ele>
        <time>2010-07-17T09:09:55Z</time>
      </trkpt>
      <trkpt lat="44.58702" lon="6.06046">
        <ele>1146</ele>
        <time>2010-07-17T09:10:02Z</time>
      </trkpt>
      <trkpt lat="44.58741" lon="6.06072">
        <ele>1146</ele>
        <time>2010-07-17T09:10:09Z</time>
      </trkpt>
      <trkpt lat="44.58774" lon="6.06104">
        <ele>1146</ele>
        <time>2010-07-17T09:10:16Z</time>
      </trkpt>
      <trkpt lat="44.5879" lon="6.06155">
        <ele>1145</ele>
        <time>2010-07-17T09:10:23Z</time>
      </trkpt>
      <trkpt lat="44.58807" lon="6.06203">
        <ele>1145</ele>
        <time>2010-07-17T09:10:30Z</time>
      </trkpt>
      <trkpt lat="44.58826" lon="6.06249">
        <ele>1145</ele>
        <time>2010-07-17T09:10:37Z</time>
      </trkpt>
      <trkpt lat="44.58837" lon="6.06284">
        <ele>1145</ele>
        <time>2010-07-17T09:10:44Z</time>
      </trkpt>
      <trkpt lat="44.58845" lon="6.06318">
        <ele>1144</ele>
        <time>2010-07-17T09:10:51Z</time>
      </trkpt>
      <trkpt lat="44.58862" lon="6.06349">
        <ele>1143</ele>
        <time>2010-07-17T09:10:58Z</time>
      </trkpt>
      <trkpt lat="44.58884" lon="6.06384">
        <ele>1143</ele>
        <time>2010-07-17T09:11:05Z</time>
      </trkpt>
      <trkpt lat="44.58904" lon="6.0642">
        <ele>1143</ele>
        <time>2010-07-17T09:11:12Z</time>
      </trkpt>
      <trkpt lat="44.58915" lon="6.06468">
        <ele>1143</ele>
        <time>2010-07-17T09:11:19Z</time>
      </trkpt>
      <trkpt lat="44.58941" lon="6.06509">
        <ele>1143</ele>
        <time>2010-07-17T09:11:26Z</time>
      </trkpt>
      <trkpt lat="44.58972" lon="6.06539">
        <ele>1143</ele>
        <time>2010-07-17T09:11:33Z</time>
      </trkpt>
      <trkpt lat="44.59009" lon="6.06529">
        <ele>1143</ele>
        <time>2010-07-17T09:11:40Z</time>
      </trkpt>
      <trkpt lat="44.5905" lon="6.06501">
        <ele>1143</ele>
        <time>2010-07-17T09:11:47Z</time>
      </trkpt>
      <trkpt lat="44.59079" lon="6.06468">
        <ele>1143</ele>
        <time>2010-07-17T09:11:54Z</time>
      </trkpt>
      <trkpt lat="44.59106" lon="6.06445">
        <ele>1143</ele>
        <time>2010-07-17T09:12:01Z</time>
      </trkpt>
      <trkpt lat="44.59121" lon="6.06447">
        <ele>1143</ele>
        <time>2010-07-17T09:12:08Z</time>
      </trkpt>
      <trkpt lat="44.59131" lon="6.06445">
        <ele>1143</ele>
        <time>2010-07-17T09:12:15Z</time>
      </trkpt>
      <trkpt lat="44.59139" lon="6.06453">
        <ele>1145</ele>
        <time>2010-07-17T09:12:23Z</time>
      </trkpt>
      <trkpt lat="44.59147" lon="6.0646">
        <ele>1148</ele>
        <time>2010-07-17T09:12:30Z</time>
      </trkpt>
      <trkpt lat="44.59156" lon="6.06465">
        <ele>1149</ele>
        <time>2010-07-17T09:12:37Z</time>
      </trkpt>
      <trkpt lat="44.59161" lon="6.06483">
        <ele>1149</ele>
        <time>2010-07-17T09:12:44Z</time>
      </trkpt>
      <trkpt lat="44.59167" lon="6.0651">
        <ele>1149</ele>
        <time>2010-07-17T09:12:51Z</time>
      </trkpt>
      <trkpt lat="44.59183" lon="6.0653">
        <ele>1149</ele>
        <time>2010-07-17T09:12:58Z</time>
      </trkpt>
      <trkpt lat="44.59186" lon="6.06571">
        <ele>1149</ele>
        <time>2010-07-17T09:13:05Z</time>
      </trkpt>
      <trkpt lat="44.59184" lon="6.06631">
        <ele>1149</ele>
        <time>2010-07-17T09:13:12Z</time>
      </trkpt>
      <trkpt lat="44.59185" lon="6.0669">
        <ele>1147</ele>
        <time>2010-07-17T09:13:19Z</time>
      </trkpt>
      <trkpt lat="44.59192" lon="6.06737">
        <ele>1145</ele>
        <time>2010-07-17T09:13:26Z</time>
      </trkpt>
      <trkpt lat="44.59191" lon="6.06739">
        <ele>1142</ele>
        <time>2010-07-17T09:13:35Z</time>
      </trkpt>
      <trkpt lat="44.59192" lon="6.06741">
        <ele>1141</ele>
        <time>2010-07-17T09:13:42Z</time>
      </trkpt>
      <trkpt lat="44.59193" lon="6.06743">
        <ele>1141</ele>
        <time>2010-07-17T09:13:52Z</time>
      </trkpt>
      <trkpt lat="44.59196" lon="6.06744">
        <ele>1141</ele>
        <time>2010-07-17T09:13:59Z</time>
      </trkpt>
      <trkpt lat="44.59197" lon="6.06744">
        <ele>1141</ele>
        <time>2010-07-17T09:14:09Z</time>
      </trkpt>
      <trkpt lat="44.592" lon="6.06744">
        <ele>1142</ele>
        <time>2010-07-17T09:14:16Z</time>
      </trkpt>
      <trkpt lat="44.59203" lon="6.06745">
        <ele>1148</ele>
        <time>2010-07-17T09:14:29Z</time>
      </trkpt>
      <trkpt lat="44.59202" lon="6.06744">
        <ele>1150</ele>
        <time>2010-07-17T09:14:53Z</time>
      </trkpt>
      <trkpt lat="44.592" lon="6.06743">
        <ele>1142</ele>
        <time>2010-07-17T09:15:02Z</time>
      </trkpt>
      <trkpt lat="44.592" lon="6.06741">
        <ele>1134</ele>
        <time>2010-07-17T09:15:12Z</time>
      </trkpt>
      <trkpt lat="44.59198" lon="6.06741">
        <ele>1134</ele>
        <time>2010-07-17T09:15:31Z</time>
      </trkpt>
      <trkpt lat="44.59197" lon="6.06743">
        <ele>1134</ele>
        <time>2010-07-17T09:15:43Z</time>
      </trkpt>
      <trkpt lat="44.59201" lon="6.06775">
        <ele>1134</ele>
        <time>2010-07-17T09:15:50Z</time>
      </trkpt>
      <trkpt lat="44.59207" lon="6.06826">
        <ele>1134</ele>
        <time>2010-07-17T09:15:57Z</time>
      </trkpt>
      <trkpt lat="44.59232" lon="6.06845">
        <ele>1134</ele>
        <time>2010-07-17T09:16:04Z</time>
      </trkpt>
      <trkpt lat="44.59262" lon="6.06845">
        <ele>1135</ele>
        <time>2010-07-17T09:16:11Z</time>
      </trkpt>
      <trkpt lat="44.59284" lon="6.06837">
        <ele>1137</ele>
        <time>2010-07-17T09:16:18Z</time>
      </trkpt>
      <trkpt lat="44.59311" lon="6.06835">
        <ele>1143</ele>
        <time>2010-07-17T09:16:25Z</time>
      </trkpt>
      <trkpt lat="44.59343" lon="6.06849">
        <ele>1149</ele>
        <time>2010-07-17T09:16:32Z</time>
      </trkpt>
      <trkpt lat="44.59358" lon="6.06864">
        <ele>1156</ele>
        <time>2010-07-17T09:16:39Z</time>
      </trkpt>
      <trkpt lat="44.59333" lon="6.06894">
        <ele>1159</ele>
        <time>2010-07-17T09:16:46Z</time>
      </trkpt>
      <trkpt lat="44.59319" lon="6.06929">
        <ele>1159</ele>
        <time>2010-07-17T09:16:53Z</time>
      </trkpt>
      <trkpt lat="44.59357" lon="6.06944">
        <ele>1156</ele>
        <time>2010-07-17T09:17:00Z</time>
      </trkpt>
      <trkpt lat="44.59389" lon="6.06945">
        <ele>1153</ele>
        <time>2010-07-17T09:17:07Z</time>
      </trkpt>
      <trkpt lat="44.59417" lon="6.06949">
        <ele>1151</ele>
        <time>2010-07-17T09:17:14Z</time>
      </trkpt>
      <trkpt lat="44.59444" lon="6.06964">
        <ele>1149</ele>
        <time>2010-07-17T09:17:21Z</time>
      </trkpt>
      <trkpt lat="44.59473" lon="6.06972">
        <ele>1147</ele>
        <time>2010-07-17T09:17:28Z</time>
      </trkpt>
      <trkpt lat="44.59473" lon="6.06995">
        <ele>1146</ele>
        <time>2010-07-17T09:17:35Z</time>
      </trkpt>
      <trkpt lat="44.59445" lon="6.0702">
        <ele>1146</ele>
        <time>2010-07-17T09:17:42Z</time>
      </trkpt>
      <trkpt lat="44.59424" lon="6.07058">
        <ele>1145</ele>
        <time>2010-07-17T09:17:49Z</time>
      </trkpt>
      <trkpt lat="44.59404" lon="6.07103">
        <ele>1144</ele>
        <time>2010-07-17T09:17:56Z</time>
      </trkpt>
      <trkpt lat="44.59388" lon="6.07156">
        <ele>1142</ele>
        <time>2010-07-17T09:18:03Z</time>
      </trkpt>
      <trkpt lat="44.59375" lon="6.07204">
        <ele>1141</ele>
        <time>2010-07-17T09:18:10Z</time>
      </trkpt>
      <trkpt lat="44.59395" lon="6.07252">
        <ele>1140</ele>
        <time>2010-07-17T09:18:17Z</time>
      </trkpt>
      <trkpt lat="44.59415" lon="6.07295">
        <ele>1140</ele>
        <time>2010-07-17T09:18:24Z</time>
      </trkpt>
      <trkpt lat="44.5945" lon="6.07311">
        <ele>1140</ele>
        <time>2010-07-17T09:18:31Z</time>
      </trkpt>
      <trkpt lat="44.59488" lon="6.07326">
        <ele>1140</ele>
        <time>2010-07-17T09:18:38Z</time>
      </trkpt>
      <trkpt lat="44.59527" lon="6.07334">
        <ele>1140</ele>
        <time>2010-07-17T09:18:45Z</time>
      </trkpt>
      <trkpt lat="44.59558" lon="6.07355">
        <ele>1141</ele>
        <time>2010-07-17T09:18:52Z</time>
      </trkpt>
      <trkpt lat="44.59589" lon="6.07384">
        <ele>1144</ele>
        <time>2010-07-17T09:18:59Z</time>
      </trkpt>
      <trkpt lat="44.59625" lon="6.07396">
        <ele>1145</ele>
        <time>2010-07-17T09:19:06Z</time>
      </trkpt>
      <trkpt lat="44.59663" lon="6.07396">
        <ele>1145</ele>
        <time>2010-07-17T09:19:13Z</time>
      </trkpt>
      <trkpt lat="44.59699" lon="6.07409">
        <ele>1145</ele>
        <time>2010-07-17T09:19:20Z</time>
      </trkpt>
      <trkpt lat="44.59735" lon="6.07414">
        <ele>1145</ele>
        <time>2010-07-17T09:19:27Z</time>
      </trkpt>
      <trkpt lat="44.59758" lon="6.07414">
        <ele>1145</ele>
        <time>2010-07-17T09:19:34Z</time>
      </trkpt>
      <trkpt lat="44.59789" lon="6.07405">
        <ele>1145</ele>
        <time>2010-07-17T09:19:41Z</time>
      </trkpt>
      <trkpt lat="44.59815" lon="6.0741">
        <ele>1145</ele>
        <time>2010-07-17T09:19:48Z</time>
      </trkpt>
      <trkpt lat="44.59818" lon="6.07446">
        <ele>1145</ele>
        <time>2010-07-17T09:19:55Z</time>
      </trkpt>
      <trkpt lat="44.59815" lon="6.07485">
        <ele>1145</ele>
        <time>2010-07-17T09:20:02Z</time>
      </trkpt>
      <trkpt lat="44.5983" lon="6.07524">
        <ele>1145</ele>
        <time>2010-07-17T09:20:09Z</time>
      </trkpt>
      <trkpt lat="44.59852" lon="6.07565">
        <ele>1145</ele>
        <time>2010-07-17T09:20:16Z</time>
      </trkpt>
      <trkpt lat="44.59859" lon="6.07608">
        <ele>1145</ele>
        <time>2010-07-17T09:20:23Z</time>
      </trkpt>
      <trkpt lat="44.59855" lon="6.07659">
        <ele>1143</ele>
        <time>2010-07-17T09:20:30Z</time>
      </trkpt>
      <trkpt lat="44.5987" lon="6.07707">
        <ele>1143</ele>
        <time>2010-07-17T09:20:37Z</time>
      </trkpt>
      <trkpt lat="44.59894" lon="6.0775">
        <ele>1143</ele>
        <time>2010-07-17T09:20:44Z</time>
      </trkpt>
      <trkpt lat="44.59921" lon="6.07783">
        <ele>1143</ele>
        <time>2010-07-17T09:20:51Z</time>
      </trkpt>
      <trkpt lat="44.59954" lon="6.07779">
        <ele>1145</ele>
        <time>2010-07-17T09:20:58Z</time>
      </trkpt>
      <trkpt lat="44.59978" lon="6.07764">
        <ele>1147</ele>
        <time>2010-07-17T09:21:05Z</time>
      </trkpt>
      <trkpt lat="44.60008" lon="6.07755">
        <ele>1149</ele>
        <time>2010-07-17T09:21:12Z</time>
      </trkpt>
      <trkpt lat="44.60049" lon="6.07757">
        <ele>1155</ele>
        <time>2010-07-17T09:21:19Z</time>
      </trkpt>
      <trkpt lat="44.60085" lon="6.07784">
        <ele>1154</ele>
        <time>2010-07-17T09:21:26Z</time>
      </trkpt>
      <trkpt lat="44.6007" lon="6.07813">
        <ele>1149</ele>
        <time>2010-07-17T09:21:33Z</time>
      </trkpt>
      <trkpt lat="44.6003" lon="6.07829">
        <ele>1144</ele>
        <time>2010-07-17T09:21:40Z</time>
      </trkpt>
      <trkpt lat="44.59999" lon="6.07868">
        <ele>1141</ele>
        <time>2010-07-17T09:21:47Z</time>
      </trkpt>
      <trkpt lat="44.59968" lon="6.07893">
        <ele>1141</ele>
        <time>2010-07-17T09:21:54Z</time>
      </trkpt>
      <trkpt lat="44.5993" lon="6.07919">
        <ele>1141</ele>
        <time>2010-07-17T09:22:01Z</time>
      </trkpt>
      <trkpt lat="44.59901" lon="6.07951">
        <ele>1141</ele>
        <time>2010-07-17T09:22:08Z</time>
      </trkpt>
      <trkpt lat="44.59893" lon="6.08008">
        <ele>1138</ele>
        <time>2010-07-17T09:22:15Z</time>
      </trkpt>
      <trkpt lat="44.59882" lon="6.08061">
        <ele>1138</ele>
        <time>2010-07-17T09:22:22Z</time>
      </trkpt>
      <trkpt lat="44.59853" lon="6.08103">
        <ele>1138</ele>
        <time>2010-07-17T09:22:29Z</time>
      </trkpt>
      <trkpt lat="44.59824" lon="6.08142">
        <ele>1138</ele>
        <time>2010-07-17T09:22:36Z</time>
      </trkpt>
      <trkpt lat="44.59806" lon="6.08194">
        <ele>1138</ele>
        <time>2010-07-17T09:22:43Z</time>
      </trkpt>
      <trkpt lat="44.59801" lon="6.08247">
        <ele>1138</ele>
        <time>2010-07-17T09:22:50Z</time>
      </trkpt>
      <trkpt lat="44.59798" lon="6.08293">
        <ele>1138</ele>
        <time>2010-07-17T09:22:57Z</time>
      </trkpt>
      <trkpt lat="44.598" lon="6.08325">
        <ele>1136</ele>
        <time>2010-07-17T09:23:04Z</time>
      </trkpt>
      <trkpt lat="44.59797" lon="6.08343">
        <ele>1136</ele>
        <time>2010-07-17T09:23:11Z</time>
      </trkpt>
      <trkpt lat="44.59791" lon="6.08366">
        <ele>1135</ele>
        <time>2010-07-17T09:23:18Z</time>
      </trkpt>
      <trkpt lat="44.59788" lon="6.08399">
        <ele>1135</ele>
        <time>2010-07-17T09:23:25Z</time>
      </trkpt>
      <trkpt lat="44.59784" lon="6.08439">
        <ele>1135</ele>
        <time>2010-07-17T09:23:32Z</time>
      </trkpt>
      <trkpt lat="44.59783" lon="6.08484">
        <ele>1136</ele>
        <time>2010-07-17T09:23:39Z</time>
      </trkpt>
      <trkpt lat="44.59785" lon="6.08528">
        <ele>1137</ele>
        <time>2010-07-17T09:23:46Z</time>
      </trkpt>
      <trkpt lat="44.59796" lon="6.08573">
        <ele>1138</ele>
        <time>2010-07-17T09:23:53Z</time>
      </trkpt>
      <trkpt lat="44.59799" lon="6.08614">
        <ele>1138</ele>
        <time>2010-07-17T09:24:00Z</time>
      </trkpt>
      <trkpt lat="44.59794" lon="6.08661">
        <ele>1139</ele>
        <time>2010-07-17T09:24:07Z</time>
      </trkpt>
      <trkpt lat="44.59779" lon="6.08706">
        <ele>1139</ele>
        <time>2010-07-17T09:24:14Z</time>
      </trkpt>
      <trkpt lat="44.59766" lon="6.08758">
        <ele>1138</ele>
        <time>2010-07-17T09:24:21Z</time>
      </trkpt>
      <trkpt lat="44.59755" lon="6.08812">
        <ele>1136</ele>
        <time>2010-07-17T09:24:28Z</time>
      </trkpt>
      <trkpt lat="44.59748" lon="6.08866">
        <ele>1136</ele>
        <time>2010-07-17T09:24:35Z</time>
      </trkpt>
      <trkpt lat="44.59743" lon="6.08924">
        <ele>1131</ele>
        <time>2010-07-17T09:24:42Z</time>
      </trkpt>
      <trkpt lat="44.59741" lon="6.08981">
        <ele>1131</ele>
        <time>2010-07-17T09:24:49Z</time>
      </trkpt>
      <trkpt lat="44.59743" lon="6.09039">
        <ele>1131</ele>
        <time>2010-07-17T09:24:56Z</time>
      </trkpt>
      <trkpt lat="44.59747" lon="6.09095">
        <ele>1131</ele>
        <time>2010-07-17T09:25:03Z</time>
      </trkpt>
      <trkpt lat="44.59752" lon="6.09153">
        <ele>1131</ele>
        <time>2010-07-17T09:25:10Z</time>
      </trkpt>
      <trkpt lat="44.59754" lon="6.09211">
        <ele>1131</ele>
        <time>2010-07-17T09:25:17Z</time>
      </trkpt>
      <trkpt lat="44.59757" lon="6.09272">
        <ele>1132</ele>
        <time>2010-07-17T09:25:24Z</time>
      </trkpt>
      <trkpt lat="44.59774" lon="6.09327">
        <ele>1136</ele>
        <time>2010-07-17T09:25:31Z</time>
      </trkpt>
      <trkpt lat="44.59797" lon="6.09372">
        <ele>1138</ele>
        <time>2010-07-17T09:25:38Z</time>
      </trkpt>
      <trkpt lat="44.59817" lon="6.0938">
        <ele>1140</ele>
        <time>2010-07-17T09:25:45Z</time>
      </trkpt>
      <trkpt lat="44.59835" lon="6.09387">
        <ele>1140</ele>
        <time>2010-07-17T09:25:56Z</time>
      </trkpt>
      <trkpt lat="44.59861" lon="6.09395">
        <ele>1140</ele>
        <time>2010-07-17T09:26:04Z</time>
      </trkpt>
      <trkpt lat="44.59894" lon="6.09392">
        <ele>1138</ele>
        <time>2010-07-17T09:26:11Z</time>
      </trkpt>
      <trkpt lat="44.59933" lon="6.09388">
        <ele>1138</ele>
        <time>2010-07-17T09:26:18Z</time>
      </trkpt>
      <trkpt lat="44.59955" lon="6.09403">
        <ele>1141</ele>
        <time>2010-07-17T09:26:26Z</time>
      </trkpt>
      <trkpt lat="44.59985" lon="6.09455">
        <ele>1144</ele>
        <time>2010-07-17T09:26:34Z</time>
      </trkpt>
      <trkpt lat="44.60023" lon="6.09489">
        <ele>1150</ele>
        <time>2010-07-17T09:26:41Z</time>
      </trkpt>
      <trkpt lat="44.6005" lon="6.09478">
        <ele>1146</ele>
        <time>2010-07-17T09:26:48Z</time>
      </trkpt>
      <trkpt lat="44.60067" lon="6.09489">
        <ele>1144</ele>
        <time>2010-07-17T09:26:55Z</time>
      </trkpt>
      <trkpt lat="44.60084" lon="6.09502">
        <ele>1137</ele>
        <time>2010-07-17T09:27:02Z</time>
      </trkpt>
      <trkpt lat="44.60093" lon="6.0955">
        <ele>1136</ele>
        <time>2010-07-17T09:27:09Z</time>
      </trkpt>
      <trkpt lat="44.60094" lon="6.09586">
        <ele>1132</ele>
        <time>2010-07-17T09:27:16Z</time>
      </trkpt>
      <trkpt lat="44.60074" lon="6.0961">
        <ele>1132</ele>
        <time>2010-07-17T09:27:23Z</time>
      </trkpt>
      <trkpt lat="44.60046" lon="6.09624">
        <ele>1132</ele>
        <time>2010-07-17T09:27:30Z</time>
      </trkpt>
      <trkpt lat="44.6002" lon="6.09663">
        <ele>1135</ele>
        <time>2010-07-17T09:27:37Z</time>
      </trkpt>
      <trkpt lat="44.5998" lon="6.09694">
        <ele>1136</ele>
        <time>2010-07-17T09:27:44Z</time>
      </trkpt>
      <trkpt lat="44.5994" lon="6.09731">
        <ele>1136</ele>
        <time>2010-07-17T09:27:52Z</time>
      </trkpt>
      <trkpt lat="44.59906" lon="6.09759">
        <ele>1136</ele>
        <time>2010-07-17T09:27:59Z</time>
      </trkpt>
      <trkpt lat="44.59873" lon="6.09792">
        <ele>1136</ele>
        <time>2010-07-17T09:28:06Z</time>
      </trkpt>
      <trkpt lat="44.59843" lon="6.09845">
        <ele>1136</ele>
        <time>2010-07-17T09:28:14Z</time>
      </trkpt>
      <trkpt lat="44.59833" lon="6.09902">
        <ele>1136</ele>
        <time>2010-07-17T09:28:22Z</time>
      </trkpt>
      <trkpt lat="44.59838" lon="6.09964">
        <ele>1136</ele>
        <time>2010-07-17T09:28:30Z</time>
      </trkpt>
      <trkpt lat="44.59861" lon="6.10019">
        <ele>1137</ele>
        <time>2010-07-17T09:28:38Z</time>
      </trkpt>
      <trkpt lat="44.59882" lon="6.10061">
        <ele>1139</ele>
        <time>2010-07-17T09:28:45Z</time>
      </trkpt>
      <trkpt lat="44.59883" lon="6.10094">
        <ele>1139</ele>
        <time>2010-07-17T09:28:52Z</time>
      </trkpt>
      <trkpt lat="44.59877" lon="6.10107">
        <ele>1139</ele>
        <time>2010-07-17T09:28:59Z</time>
      </trkpt>
      <trkpt lat="44.59879" lon="6.10106">
        <ele>1139</ele>
        <time>2010-07-17T09:29:08Z</time>
      </trkpt>
      <trkpt lat="44.59877" lon="6.10111">
        <ele>1138</ele>
        <time>2010-07-17T09:29:16Z</time>
      </trkpt>
      <trkpt lat="44.59869" lon="6.10141">
        <ele>1136</ele>
        <time>2010-07-17T09:29:23Z</time>
      </trkpt>
      <trkpt lat="44.59872" lon="6.10171">
        <ele>1136</ele>
        <time>2010-07-17T09:29:30Z</time>
      </trkpt>
      <trkpt lat="44.59886" lon="6.10219">
        <ele>1141</ele>
        <time>2010-07-17T09:29:38Z</time>
      </trkpt>
      <trkpt lat="44.59899" lon="6.10258">
        <ele>1144</ele>
        <time>2010-07-17T09:29:45Z</time>
      </trkpt>
      <trkpt lat="44.59909" lon="6.10298">
        <ele>1146</ele>
        <time>2010-07-17T09:29:52Z</time>
      </trkpt>
      <trkpt lat="44.59918" lon="6.10342">
        <ele>1149</ele>
        <time>2010-07-17T09:29:59Z</time>
      </trkpt>
      <trkpt lat="44.59924" lon="6.10386">
        <ele>1152</ele>
        <time>2010-07-17T09:30:06Z</time>
      </trkpt>
      <trkpt lat="44.59919" lon="6.10433">
        <ele>1153</ele>
        <time>2010-07-17T09:30:13Z</time>
      </trkpt>
      <trkpt lat="44.59917" lon="6.10485">
        <ele>1153</ele>
        <time>2010-07-17T09:30:20Z</time>
      </trkpt>
      <trkpt lat="44.59916" lon="6.10535">
        <ele>1153</ele>
        <time>2010-07-17T09:30:27Z</time>
      </trkpt>
      <trkpt lat="44.5991" lon="6.10585">
        <ele>1156</ele>
        <time>2010-07-17T09:30:34Z</time>
      </trkpt>
      <trkpt lat="44.59916" lon="6.10636">
        <ele>1158</ele>
        <time>2010-07-17T09:30:41Z</time>
      </trkpt>
      <trkpt lat="44.59933" lon="6.10686">
        <ele>1158</ele>
        <time>2010-07-17T09:30:48Z</time>
      </trkpt>
      <trkpt lat="44.59949" lon="6.10734">
        <ele>1158</ele>
        <time>2010-07-17T09:30:55Z</time>
      </trkpt>
      <trkpt lat="44.59964" lon="6.10781">
        <ele>1158</ele>
        <time>2010-07-17T09:31:02Z</time>
      </trkpt>
      <trkpt lat="44.59986" lon="6.10808">
        <ele>1158</ele>
        <time>2010-07-17T09:31:14Z</time>
      </trkpt>
      <trkpt lat="44.59988" lon="6.10815">
        <ele>1156</ele>
        <time>2010-07-17T09:31:22Z</time>
      </trkpt>
      <trkpt lat="44.59988" lon="6.10817">
        <ele>1152</ele>
        <time>2010-07-17T09:31:30Z</time>
      </trkpt>
      <trkpt lat="44.59988" lon="6.10819">
        <ele>1149</ele>
        <time>2010-07-17T09:31:40Z</time>
      </trkpt>
      <trkpt lat="44.59987" lon="6.10819">
        <ele>1149</ele>
        <time>2010-07-17T09:31:48Z</time>
      </trkpt>
      <trkpt lat="44.59986" lon="6.1082">
        <ele>1149</ele>
        <time>2010-07-17T09:31:55Z</time>
      </trkpt>
      <trkpt lat="44.59993" lon="6.10828">
        <ele>1149</ele>
        <time>2010-07-17T09:32:03Z</time>
      </trkpt>
      <trkpt lat="44.60006" lon="6.10841">
        <ele>1149</ele>
        <time>2010-07-17T09:32:10Z</time>
      </trkpt>
      <trkpt lat="44.60022" lon="6.1087">
        <ele>1149</ele>
        <time>2010-07-17T09:32:17Z</time>
      </trkpt>
      <trkpt lat="44.6004" lon="6.10906">
        <ele>1149</ele>
        <time>2010-07-17T09:32:24Z</time>
      </trkpt>
      <trkpt lat="44.60058" lon="6.10943">
        <ele>1149</ele>
        <time>2010-07-17T09:32:31Z</time>
      </trkpt>
      <trkpt lat="44.60078" lon="6.10985">
        <ele>1152</ele>
        <time>2010-07-17T09:32:39Z</time>
      </trkpt>
      <trkpt lat="44.60093" lon="6.11026">
        <ele>1154</ele>
        <time>2010-07-17T09:32:46Z</time>
      </trkpt>
      <trkpt lat="44.6011" lon="6.11061">
        <ele>1155</ele>
        <time>2010-07-17T09:32:53Z</time>
      </trkpt>
      <trkpt lat="44.60141" lon="6.11064">
        <ele>1152</ele>
        <time>2010-07-17T09:33:00Z</time>
      </trkpt>
      <trkpt lat="44.60178" lon="6.11062">
        <ele>1149</ele>
        <time>2010-07-17T09:33:07Z</time>
      </trkpt>
      <trkpt lat="44.6021" lon="6.11061">
        <ele>1145</ele>
        <time>2010-07-17T09:33:14Z</time>
      </trkpt>
      <trkpt lat="44.60243" lon="6.11064">
        <ele>1145</ele>
        <time>2010-07-17T09:33:21Z</time>
      </trkpt>
      <trkpt lat="44.60232" lon="6.11097">
        <ele>1144</ele>
        <time>2010-07-17T09:33:28Z</time>
      </trkpt>
      <trkpt lat="44.60195" lon="6.11125">
        <ele>1142</ele>
        <time>2010-07-17T09:33:35Z</time>
      </trkpt>
      <trkpt lat="44.60172" lon="6.11146">
        <ele>1141</ele>
        <time>2010-07-17T09:33:42Z</time>
      </trkpt>
      <trkpt lat="44.60144" lon="6.11171">
        <ele>1141</ele>
        <time>2010-07-17T09:33:49Z</time>
      </trkpt>
      <trkpt lat="44.60126" lon="6.11213">
        <ele>1141</ele>
        <time>2010-07-17T09:33:56Z</time>
      </trkpt>
      <trkpt lat="44.60133" lon="6.11264">
        <ele>1141</ele>
        <time>2010-07-17T09:34:03Z</time>
      </trkpt>
      <trkpt lat="44.60147" lon="6.11309">
        <ele>1141</ele>
        <time>2010-07-17T09:34:10Z</time>
      </trkpt>
      <trkpt lat="44.60162" lon="6.11358">
        <ele>1141</ele>
        <time>2010-07-17T09:34:17Z</time>
      </trkpt>
      <trkpt lat="44.60166" lon="6.11414">
        <ele>1141</ele>
        <time>2010-07-17T09:34:24Z</time>
      </trkpt>
      <trkpt lat="44.60183" lon="6.11461">
        <ele>1141</ele>
        <time>2010-07-17T09:34:31Z</time>
      </trkpt>
      <trkpt lat="44.60184" lon="6.11516">
        <ele>1141</ele>
        <time>2010-07-17T09:34:38Z</time>
      </trkpt>
      <trkpt lat="44.60185" lon="6.1157">
        <ele>1143</ele>
        <time>2010-07-17T09:34:45Z</time>
      </trkpt>
      <trkpt lat="44.60192" lon="6.1162">
        <ele>1143</ele>
        <time>2010-07-17T09:34:52Z</time>
      </trkpt>
      <trkpt lat="44.60204" lon="6.11655">
        <ele>1143</ele>
        <time>2010-07-17T09:34:59Z</time>
      </trkpt>
      <trkpt lat="44.60212" lon="6.11676">
        <ele>1143</ele>
        <time>2010-07-17T09:35:06Z</time>
      </trkpt>
      <trkpt lat="44.60226" lon="6.11714">
        <ele>1143</ele>
        <time>2010-07-17T09:35:13Z</time>
      </trkpt>
      <trkpt lat="44.6024" lon="6.11755">
        <ele>1143</ele>
        <time>2010-07-17T09:35:20Z</time>
      </trkpt>
      <trkpt lat="44.60256" lon="6.11798">
        <ele>1145</ele>
        <time>2010-07-17T09:35:27Z</time>
      </trkpt>
      <trkpt lat="44.60273" lon="6.11842">
        <ele>1145</ele>
        <time>2010-07-17T09:35:34Z</time>
      </trkpt>
      <trkpt lat="44.60293" lon="6.11875">
        <ele>1145</ele>
        <time>2010-07-17T09:35:42Z</time>
      </trkpt>
      <trkpt lat="44.60319" lon="6.11908">
        <ele>1145</ele>
        <time>2010-07-17T09:35:49Z</time>
      </trkpt>
      <trkpt lat="44.60333" lon="6.11956">
        <ele>1145</ele>
        <time>2010-07-17T09:35:56Z</time>
      </trkpt>
      <trkpt lat="44.6031" lon="6.1194">
        <ele>1144</ele>
        <time>2010-07-17T09:36:03Z</time>
      </trkpt>
      <trkpt lat="44.6028" lon="6.11917">
        <ele>1138</ele>
        <time>2010-07-17T09:36:10Z</time>
      </trkpt>
      <trkpt lat="44.60249" lon="6.119">
        <ele>1133</ele>
        <time>2010-07-17T09:36:17Z</time>
      </trkpt>
      <trkpt lat="44.60228" lon="6.11891">
        <ele>1133</ele>
        <time>2010-07-17T09:36:24Z</time>
      </trkpt>
      <trkpt lat="44.60212" lon="6.1187">
        <ele>1133</ele>
        <time>2010-07-17T09:36:40Z</time>
      </trkpt>
      <trkpt lat="44.60214" lon="6.11872">
        <ele>1133</ele>
        <time>2010-07-17T09:36:59Z</time>
      </trkpt>
      <trkpt lat="44.60212" lon="6.11872">
        <ele>1133</ele>
        <time>2010-07-17T09:37:08Z</time>
      </trkpt>
      <trkpt lat="44.60212" lon="6.1187">
        <ele>1132</ele>
        <time>2010-07-17T09:37:22Z</time>
      </trkpt>
      <trkpt lat="44.60204" lon="6.11852">
        <ele>1132</ele>
        <time>2010-07-17T09:37:29Z</time>
      </trkpt>
      <trkpt lat="44.60185" lon="6.11808">
        <ele>1132</ele>
        <time>2010-07-17T09:37:36Z</time>
      </trkpt>
      <trkpt lat="44.60151" lon="6.11725">
        <ele>1132</ele>
        <time>2010-07-17T09:37:43Z</time>
      </trkpt>
      <trkpt lat="44.60118" lon="6.11642">
        <ele>1127</ele>
        <time>2010-07-17T09:37:50Z</time>
      </trkpt>
      <trkpt lat="44.60088" lon="6.11577">
        <ele>1123</ele>
        <time>2010-07-17T09:37:57Z</time>
      </trkpt>
      <trkpt lat="44.60051" lon="6.11509">
        <ele>1118</ele>
        <time>2010-07-17T09:38:04Z</time>
      </trkpt>
      <trkpt lat="44.60013" lon="6.11442">
        <ele>1112</ele>
        <time>2010-07-17T09:38:11Z</time>
      </trkpt>
      <trkpt lat="44.59977" lon="6.11377">
        <ele>1107</ele>
        <time>2010-07-17T09:38:18Z</time>
      </trkpt>
      <trkpt lat="44.59933" lon="6.11313">
        <ele>1105</ele>
        <time>2010-07-17T09:38:25Z</time>
      </trkpt>
      <trkpt lat="44.59873" lon="6.11278">
        <ele>1099</ele>
        <time>2010-07-17T09:38:32Z</time>
      </trkpt>
      <trkpt lat="44.59804" lon="6.11276">
        <ele>1094</ele>
        <time>2010-07-17T09:38:39Z</time>
      </trkpt>
      <trkpt lat="44.59735" lon="6.11248">
        <ele>1089</ele>
        <time>2010-07-17T09:38:46Z</time>
      </trkpt>
      <trkpt lat="44.59697" lon="6.1118">
        <ele>1085</ele>
        <time>2010-07-17T09:38:53Z</time>
      </trkpt>
      <trkpt lat="44.59674" lon="6.11096">
        <ele>1082</ele>
        <time>2010-07-17T09:39:00Z</time>
      </trkpt>
      <trkpt lat="44.5965" lon="6.11009">
        <ele>1079</ele>
        <time>2010-07-17T09:39:07Z</time>
      </trkpt>
      <trkpt lat="44.5963" lon="6.10924">
        <ele>1074</ele>
        <time>2010-07-17T09:39:14Z</time>
      </trkpt>
      <trkpt lat="44.59623" lon="6.10892">
        <ele>1070</ele>
        <time>2010-07-17T09:39:21Z</time>
      </trkpt>
      <trkpt lat="44.59616" lon="6.10861">
        <ele>1070</ele>
        <time>2010-07-17T09:39:28Z</time>
      </trkpt>
      <trkpt lat="44.59605" lon="6.10812">
        <ele>1070</ele>
        <time>2010-07-17T09:39:35Z</time>
      </trkpt>
      <trkpt lat="44.59593" lon="6.10747">
        <ele>1070</ele>
        <time>2010-07-17T09:39:42Z</time>
      </trkpt>
      <trkpt lat="44.59583" lon="6.10676">
        <ele>1067</ele>
        <time>2010-07-17T09:39:49Z</time>
      </trkpt>
      <trkpt lat="44.59573" lon="6.10599">
        <ele>1063</ele>
        <time>2010-07-17T09:39:56Z</time>
      </trkpt>
      <trkpt lat="44.59561" lon="6.10517">
        <ele>1058</ele>
        <time>2010-07-17T09:40:03Z</time>
      </trkpt>
      <trkpt lat="44.59541" lon="6.10432">
        <ele>1053</ele>
        <time>2010-07-17T09:40:10Z</time>
      </trkpt>
      <trkpt lat="44.59511" lon="6.10369">
        <ele>1048</ele>
        <time>2010-07-17T09:40:17Z</time>
      </trkpt>
      <trkpt lat="44.59465" lon="6.10316">
        <ele>1043</ele>
        <time>2010-07-17T09:40:24Z</time>
      </trkpt>
      <trkpt lat="44.59412" lon="6.10255">
        <ele>1040</ele>
        <time>2010-07-17T09:40:31Z</time>
      </trkpt>
      <trkpt lat="44.59378" lon="6.1018">
        <ele>1039</ele>
        <time>2010-07-17T09:40:38Z</time>
      </trkpt>
      <trkpt lat="44.59379" lon="6.10125">
        <ele>1035</ele>
        <time>2010-07-17T09:40:45Z</time>
      </trkpt>
      <trkpt lat="44.59381" lon="6.10067">
        <ele>1030</ele>
        <time>2010-07-17T09:40:52Z</time>
      </trkpt>
      <trkpt lat="44.59382" lon="6.09991">
        <ele>1025</ele>
        <time>2010-07-17T09:40:59Z</time>
      </trkpt>
      <trkpt lat="44.59359" lon="6.09929">
        <ele>1020</ele>
        <time>2010-07-17T09:41:06Z</time>
      </trkpt>
      <trkpt lat="44.59327" lon="6.09873">
        <ele>1020</ele>
        <time>2010-07-17T09:41:13Z</time>
      </trkpt>
      <trkpt lat="44.59298" lon="6.09823">
        <ele>1020</ele>
        <time>2010-07-17T09:41:20Z</time>
      </trkpt>
      <trkpt lat="44.59275" lon="6.09794">
        <ele>1020</ele>
        <time>2010-07-17T09:41:27Z</time>
      </trkpt>
      <trkpt lat="44.59235" lon="6.09779">
        <ele>1020</ele>
        <time>2010-07-17T09:41:34Z</time>
      </trkpt>
      <trkpt lat="44.59191" lon="6.09777">
        <ele>1023</ele>
        <time>2010-07-17T09:41:41Z</time>
      </trkpt>
      <trkpt lat="44.59137" lon="6.09776">
        <ele>1023</ele>
        <time>2010-07-17T09:41:48Z</time>
      </trkpt>
      <trkpt lat="44.59078" lon="6.09772">
        <ele>1024</ele>
        <time>2010-07-17T09:41:55Z</time>
      </trkpt>
      <trkpt lat="44.59014" lon="6.09768">
        <ele>1024</ele>
        <time>2010-07-17T09:42:02Z</time>
      </trkpt>
      <trkpt lat="44.58955" lon="6.09762">
        <ele>1024</ele>
        <time>2010-07-17T09:42:09Z</time>
      </trkpt>
      <trkpt lat="44.58901" lon="6.09743">
        <ele>1021</ele>
        <time>2010-07-17T09:42:16Z</time>
      </trkpt>
      <trkpt lat="44.58856" lon="6.09677">
        <ele>1014</ele>
        <time>2010-07-17T09:42:23Z</time>
      </trkpt>
      <trkpt lat="44.58825" lon="6.09601">
        <ele>1007</ele>
        <time>2010-07-17T09:42:30Z</time>
      </trkpt>
      <trkpt lat="44.58787" lon="6.09532">
        <ele>995</ele>
        <time>2010-07-17T09:42:37Z</time>
      </trkpt>
      <trkpt lat="44.58755" lon="6.09488">
        <ele>986</ele>
        <time>2010-07-17T09:42:47Z</time>
      </trkpt>
      <trkpt lat="44.58714" lon="6.09439">
        <ele>980</ele>
        <time>2010-07-17T09:42:54Z</time>
      </trkpt>
      <trkpt lat="44.58631" lon="6.09346">
        <ele>975</ele>
        <time>2010-07-17T09:43:01Z</time>
      </trkpt>
      <trkpt lat="44.58605" lon="6.09312">
        <ele>972</ele>
        <time>2010-07-17T09:43:09Z</time>
      </trkpt>
      <trkpt lat="44.58562" lon="6.0925">
        <ele>969</ele>
        <time>2010-07-17T09:43:16Z</time>
      </trkpt>
      <trkpt lat="44.58528" lon="6.09183">
        <ele>966</ele>
        <time>2010-07-17T09:43:23Z</time>
      </trkpt>
      <trkpt lat="44.58508" lon="6.09152">
        <ele>963</ele>
        <time>2010-07-17T09:43:30Z</time>
      </trkpt>
      <trkpt lat="44.58514" lon="6.09161">
        <ele>960</ele>
        <time>2010-07-17T09:43:38Z</time>
      </trkpt>
      <trkpt lat="44.58517" lon="6.0917">
        <ele>959</ele>
        <time>2010-07-17T09:43:47Z</time>
      </trkpt>
      <trkpt lat="44.58508" lon="6.09143">
        <ele>959</ele>
        <time>2010-07-17T09:43:54Z</time>
      </trkpt>
      <trkpt lat="44.58501" lon="6.09128">
        <ele>959</ele>
        <time>2010-07-17T09:44:01Z</time>
      </trkpt>
      <trkpt lat="44.5848" lon="6.09068">
        <ele>958</ele>
        <time>2010-07-17T09:44:09Z</time>
      </trkpt>
      <trkpt lat="44.58457" lon="6.08997">
        <ele>957</ele>
        <time>2010-07-17T09:44:16Z</time>
      </trkpt>
      <trkpt lat="44.5843" lon="6.08916">
        <ele>955</ele>
        <time>2010-07-17T09:44:23Z</time>
      </trkpt>
      <trkpt lat="44.58385" lon="6.08774">
        <ele>951</ele>
        <time>2010-07-17T09:44:30Z</time>
      </trkpt>
      <trkpt lat="44.58349" lon="6.0866">
        <ele>941</ele>
        <time>2010-07-17T09:44:38Z</time>
      </trkpt>
      <trkpt lat="44.58319" lon="6.08574">
        <ele>934</ele>
        <time>2010-07-17T09:44:45Z</time>
      </trkpt>
      <trkpt lat="44.5827" lon="6.08496">
        <ele>926</ele>
        <time>2010-07-17T09:44:53Z</time>
      </trkpt>
      <trkpt lat="44.58207" lon="6.08436">
        <ele>920</ele>
        <time>2010-07-17T09:45:00Z</time>
      </trkpt>
      <trkpt lat="44.58144" lon="6.08381">
        <ele>916</ele>
        <time>2010-07-17T09:45:07Z</time>
      </trkpt>
      <trkpt lat="44.58086" lon="6.08328">
        <ele>909</ele>
        <time>2010-07-17T09:45:14Z</time>
      </trkpt>
      <trkpt lat="44.58039" lon="6.08287">
        <ele>902</ele>
        <time>2010-07-17T09:45:21Z</time>
      </trkpt>
      <trkpt lat="44.57997" lon="6.08246">
        <ele>895</ele>
        <time>2010-07-17T09:45:28Z</time>
      </trkpt>
      <trkpt lat="44.57967" lon="6.08218">
        <ele>893</ele>
        <time>2010-07-17T09:45:35Z</time>
      </trkpt>
      <trkpt lat="44.57947" lon="6.08215">
        <ele>893</ele>
        <time>2010-07-17T09:45:46Z</time>
      </trkpt>
      <trkpt lat="44.57906" lon="6.08218">
        <ele>892</ele>
        <time>2010-07-17T09:45:53Z</time>
      </trkpt>
      <trkpt lat="44.5785" lon="6.08225">
        <ele>889</ele>
        <time>2010-07-17T09:46:00Z</time>
      </trkpt>
      <trkpt lat="44.57784" lon="6.08317">
        <ele>884</ele>
        <time>2010-07-17T09:46:09Z</time>
      </trkpt>
      <trkpt lat="44.57717" lon="6.08379">
        <ele>878</ele>
        <time>2010-07-17T09:46:16Z</time>
      </trkpt>
      <trkpt lat="44.57681" lon="6.08327">
        <ele>870</ele>
        <time>2010-07-17T09:46:25Z</time>
      </trkpt>
      <trkpt lat="44.57556" lon="6.08251">
        <ele>861</ele>
        <time>2010-07-17T09:46:32Z</time>
      </trkpt>
      <trkpt lat="44.57516" lon="6.08298">
        <ele>849</ele>
        <time>2010-07-17T09:46:42Z</time>
      </trkpt>
      <trkpt lat="44.57438" lon="6.08245">
        <ele>838</ele>
        <time>2010-07-17T09:46:51Z</time>
      </trkpt>
      <trkpt lat="44.57378" lon="6.08277">
        <ele>827</ele>
        <time>2010-07-17T09:47:01Z</time>
      </trkpt>
      <trkpt lat="44.57334" lon="6.08314">
        <ele>818</ele>
        <time>2010-07-17T09:47:10Z</time>
      </trkpt>
      <trkpt lat="44.57301" lon="6.08231">
        <ele>813</ele>
        <time>2010-07-17T09:47:18Z</time>
      </trkpt>
      <trkpt lat="44.57295" lon="6.08212">
        <ele>808</ele>
        <time>2010-07-17T09:47:28Z</time>
      </trkpt>
      <trkpt lat="44.57291" lon="6.08212">
        <ele>804</ele>
        <time>2010-07-17T09:47:39Z</time>
      </trkpt>
      <trkpt lat="44.57282" lon="6.08234">
        <ele>801</ele>
        <time>2010-07-17T09:47:47Z</time>
      </trkpt>
      <trkpt lat="44.57234" lon="6.08289">
        <ele>797</ele>
        <time>2010-07-17T09:47:55Z</time>
      </trkpt>
      <trkpt lat="44.57116" lon="6.08302">
        <ele>793</ele>
        <time>2010-07-17T09:48:02Z</time>
      </trkpt>
      <trkpt lat="44.57043" lon="6.08309">
        <ele>785</ele>
        <time>2010-07-17T09:48:10Z</time>
      </trkpt>
      <trkpt lat="44.57015" lon="6.0831">
        <ele>778</ele>
        <time>2010-07-17T09:48:18Z</time>
      </trkpt>
      <trkpt lat="44.56982" lon="6.08314">
        <ele>776</ele>
        <time>2010-07-17T09:48:25Z</time>
      </trkpt>
      <trkpt lat="44.56938" lon="6.08318">
        <ele>776</ele>
        <time>2010-07-17T09:48:32Z</time>
      </trkpt>
      <trkpt lat="44.56885" lon="6.08324">
        <ele>776</ele>
        <time>2010-07-17T09:48:39Z</time>
      </trkpt>
      <trkpt lat="44.5682" lon="6.08331">
        <ele>774</ele>
        <time>2010-07-17T09:48:46Z</time>
      </trkpt>
      <trkpt lat="44.56761" lon="6.0834">
        <ele>773</ele>
        <time>2010-07-17T09:48:53Z</time>
      </trkpt>
      <trkpt lat="44.56727" lon="6.08344">
        <ele>773</ele>
        <time>2010-07-17T09:49:00Z</time>
      </trkpt>
      <trkpt lat="44.56674" lon="6.08348">
        <ele>771</ele>
        <time>2010-07-17T09:49:07Z</time>
      </trkpt>
      <trkpt lat="44.56612" lon="6.08357">
        <ele>767</ele>
        <time>2010-07-17T09:49:14Z</time>
      </trkpt>
      <trkpt lat="44.56547" lon="6.08366">
        <ele>765</ele>
        <time>2010-07-17T09:49:21Z</time>
      </trkpt>
      <trkpt lat="44.56486" lon="6.08371">
        <ele>759</ele>
        <time>2010-07-17T09:49:28Z</time>
      </trkpt>
      <trkpt lat="44.56441" lon="6.08375">
        <ele>758</ele>
        <time>2010-07-17T09:49:35Z</time>
      </trkpt>
      <trkpt lat="44.56413" lon="6.08378">
        <ele>757</ele>
        <time>2010-07-17T09:49:42Z</time>
      </trkpt>
      <trkpt lat="44.56392" lon="6.08382">
        <ele>757</ele>
        <time>2010-07-17T09:49:49Z</time>
      </trkpt>
      <trkpt lat="44.56377" lon="6.084">
        <ele>757</ele>
        <time>2010-07-17T09:49:56Z</time>
      </trkpt>
      <trkpt lat="44.56404" lon="6.08404">
        <ele>756</ele>
        <time>2010-07-17T09:50:03Z</time>
      </trkpt>
      <trkpt lat="44.56421" lon="6.08406">
        <ele>756</ele>
        <time>2010-07-17T09:50:10Z</time>
      </trkpt>
      <trkpt lat="44.56435" lon="6.08418">
        <ele>756</ele>
        <time>2010-07-17T09:50:17Z</time>
      </trkpt>
      <trkpt lat="44.56439" lon="6.0842">
        <ele>770</ele>
        <time>2010-07-17T09:50:24Z</time>
      </trkpt>
      <trkpt lat="44.56435" lon="6.08414">
        <ele>769</ele>
        <time>2010-07-17T09:50:32Z</time>
      </trkpt>
      <trkpt lat="44.56424" lon="6.08405">
        <ele>767</ele>
        <time>2010-07-17T09:50:40Z</time>
      </trkpt>
      <trkpt lat="44.56397" lon="6.08381">
        <ele>762</ele>
        <time>2010-07-17T09:50:51Z</time>
      </trkpt>
      <trkpt lat="44.56376" lon="6.0838">
        <ele>761</ele>
        <time>2010-07-17T09:50:59Z</time>
      </trkpt>
      <trkpt lat="44.56348" lon="6.08392">
        <ele>761</ele>
        <time>2010-07-17T09:51:08Z</time>
      </trkpt>
      <trkpt lat="44.56333" lon="6.084">
        <ele>761</ele>
        <time>2010-07-17T09:51:15Z</time>
      </trkpt>
      <trkpt lat="44.56332" lon="6.08401">
        <ele>761</ele>
        <time>2010-07-17T09:51:24Z</time>
      </trkpt>
      <trkpt lat="44.56337" lon="6.08397">
        <ele>761</ele>
        <time>2010-07-17T09:51:31Z</time>
      </trkpt>
      <trkpt lat="44.56346" lon="6.08388">
        <ele>760</ele>
        <time>2010-07-17T09:51:39Z</time>
      </trkpt>
      <trkpt lat="44.56347" lon="6.08391">
        <ele>759</ele>
        <time>2010-07-17T09:51:46Z</time>
      </trkpt>
      <trkpt lat="44.56335" lon="6.08377">
        <ele>759</ele>
        <time>2010-07-17T09:51:53Z</time>
      </trkpt>
      <trkpt lat="44.5633" lon="6.08371">
        <ele>752</ele>
        <time>2010-07-17T09:52:01Z</time>
      </trkpt>
      <trkpt lat="44.56335" lon="6.08368">
        <ele>748</ele>
        <time>2010-07-17T09:52:11Z</time>
      </trkpt>
      <trkpt lat="44.56333" lon="6.08371">
        <ele>748</ele>
        <time>2010-07-17T09:52:21Z</time>
      </trkpt>
      <trkpt lat="44.56332" lon="6.08375">
        <ele>748</ele>
        <time>2010-07-17T09:52:29Z</time>
      </trkpt>
      <trkpt lat="44.5633" lon="6.08379">
        <ele>751</ele>
        <time>2010-07-17T09:52:38Z</time>
      </trkpt>
      <trkpt lat="44.56331" lon="6.08375">
        <ele>751</ele>
        <time>2010-07-17T09:52:45Z</time>
      </trkpt>
      <trkpt lat="44.56334" lon="6.08373">
        <ele>747</ele>
        <time>2010-07-17T09:52:55Z</time>
      </trkpt>
      <trkpt lat="44.56335" lon="6.08372">
        <ele>746</ele>
        <time>2010-07-17T09:53:16Z</time>
      </trkpt>
      <trkpt lat="44.56335" lon="6.08373">
        <ele>746</ele>
        <time>2010-07-17T09:53:28Z</time>
      </trkpt>
      <trkpt lat="44.56332" lon="6.08377">
        <ele>746</ele>
        <time>2010-07-17T09:53:36Z</time>
      </trkpt>
      <trkpt lat="44.56319" lon="6.08382">
        <ele>746</ele>
        <time>2010-07-17T09:53:43Z</time>
      </trkpt>
      <trkpt lat="44.56297" lon="6.08386">
        <ele>746</ele>
        <time>2010-07-17T09:53:50Z</time>
      </trkpt>
      <trkpt lat="44.56263" lon="6.08393">
        <ele>749</ele>
        <time>2010-07-17T09:53:57Z</time>
      </trkpt>
      <trkpt lat="44.56227" lon="6.08401">
        <ele>756</ele>
        <time>2010-07-17T09:54:04Z</time>
      </trkpt>
      <trkpt lat="44.56209" lon="6.08388">
        <ele>763</ele>
        <time>2010-07-17T09:54:11Z</time>
      </trkpt>
      <trkpt lat="44.56187" lon="6.08352">
        <ele>764</ele>
        <time>2010-07-17T09:54:18Z</time>
      </trkpt>
      <trkpt lat="44.56166" lon="6.08312">
        <ele>764</ele>
        <time>2010-07-17T09:54:25Z</time>
      </trkpt>
      <trkpt lat="44.56153" lon="6.08268">
        <ele>764</ele>
        <time>2010-07-17T09:54:32Z</time>
      </trkpt>
      <trkpt lat="44.56142" lon="6.08221">
        <ele>757</ele>
        <time>2010-07-17T09:54:39Z</time>
      </trkpt>
      <trkpt lat="44.56145" lon="6.08183">
        <ele>749</ele>
        <time>2010-07-17T09:54:46Z</time>
      </trkpt>
      <trkpt lat="44.56142" lon="6.08149">
        <ele>742</ele>
        <time>2010-07-17T09:54:53Z</time>
      </trkpt>
      <trkpt lat="44.56129" lon="6.08112">
        <ele>742</ele>
        <time>2010-07-17T09:55:00Z</time>
      </trkpt>
      <trkpt lat="44.56115" lon="6.08076">
        <ele>742</ele>
        <time>2010-07-17T09:55:07Z</time>
      </trkpt>
      <trkpt lat="44.56105" lon="6.08039">
        <ele>741</ele>
        <time>2010-07-17T09:55:14Z</time>
      </trkpt>
      <trkpt lat="44.56111" lon="6.0802">
        <ele>740</ele>
        <time>2010-07-17T09:55:21Z</time>
      </trkpt>
      <trkpt lat="44.56118" lon="6.0799">
        <ele>741</ele>
        <time>2010-07-17T09:55:28Z</time>
      </trkpt>
      <trkpt lat="44.56118" lon="6.07959">
        <ele>746</ele>
        <time>2010-07-17T09:55:35Z</time>
      </trkpt>
      <trkpt lat="44.56111" lon="6.07923">
        <ele>747</ele>
        <time>2010-07-17T09:55:42Z</time>
      </trkpt>
      <trkpt lat="44.56101" lon="6.07887">
        <ele>748</ele>
        <time>2010-07-17T09:55:49Z</time>
      </trkpt>
      <trkpt lat="44.56091" lon="6.07852">
        <ele>749</ele>
        <time>2010-07-17T09:55:56Z</time>
      </trkpt>
      <trkpt lat="44.56081" lon="6.07816">
        <ele>749</ele>
        <time>2010-07-17T09:56:03Z</time>
      </trkpt>
      <trkpt lat="44.5607" lon="6.07782">
        <ele>749</ele>
        <time>2010-07-17T09:56:10Z</time>
      </trkpt>
      <trkpt lat="44.56062" lon="6.07748">
        <ele>749</ele>
        <time>2010-07-17T09:56:17Z</time>
      </trkpt>
      <trkpt lat="44.56051" lon="6.07738">
        <ele>749</ele>
        <time>2010-07-17T09:56:24Z</time>
      </trkpt>
      <trkpt lat="44.56051" lon="6.07741">
        <ele>750</ele>
        <time>2010-07-17T09:56:33Z</time>
      </trkpt>
      <trkpt lat="44.56049" lon="6.07738">
        <ele>750</ele>
        <time>2010-07-17T09:56:46Z</time>
      </trkpt>
      <trkpt lat="44.56055" lon="6.07735">
        <ele>750</ele>
        <time>2010-07-17T09:56:53Z</time>
      </trkpt>
      <trkpt lat="44.56056" lon="6.07733">
        <ele>752</ele>
        <time>2010-07-17T09:57:01Z</time>
      </trkpt>
      <trkpt lat="44.56054" lon="6.07732">
        <ele>753</ele>
        <time>2010-07-17T09:57:08Z</time>
      </trkpt>
      <trkpt lat="44.56048" lon="6.07731">
        <ele>753</ele>
        <time>2010-07-17T09:57:16Z</time>
      </trkpt>
      <trkpt lat="44.56048" lon="6.07732">
        <ele>750</ele>
        <time>2010-07-17T09:57:25Z</time>
      </trkpt>
      <trkpt lat="44.56049" lon="6.07732">
        <ele>747</ele>
        <time>2010-07-17T09:57:37Z</time>
      </trkpt>
      <trkpt lat="44.56048" lon="6.07728">
        <ele>750</ele>
        <time>2010-07-17T09:57:46Z</time>
      </trkpt>
      <trkpt lat="44.56047" lon="6.07725">
        <ele>759</ele>
        <time>2010-07-17T09:58:03Z</time>
      </trkpt>
      <trkpt lat="44.5605" lon="6.0773">
        <ele>759</ele>
        <time>2010-07-17T09:58:10Z</time>
      </trkpt>
      <trkpt lat="44.5605" lon="6.07732">
        <ele>759</ele>
        <time>2010-07-17T09:58:18Z</time>
      </trkpt>
      <trkpt lat="44.56048" lon="6.07733">
        <ele>758</ele>
        <time>2010-07-17T09:58:28Z</time>
      </trkpt>
      <trkpt lat="44.56049" lon="6.07734">
        <ele>755</ele>
        <time>2010-07-17T09:58:42Z</time>
      </trkpt>
      <trkpt lat="44.56052" lon="6.07736">
        <ele>754</ele>
        <time>2010-07-17T09:58:49Z</time>
      </trkpt>
      <trkpt lat="44.56054" lon="6.07734">
        <ele>752</ele>
        <time>2010-07-17T09:58:56Z</time>
      </trkpt>
      <trkpt lat="44.56057" lon="6.07732">
        <ele>756</ele>
        <time>2010-07-17T09:59:04Z</time>
      </trkpt>
      <trkpt lat="44.56058" lon="6.0773">
        <ele>761</ele>
        <time>2010-07-17T09:59:15Z</time>
      </trkpt>
      <trkpt lat="44.56057" lon="6.07732">
        <ele>762</ele>
        <time>2010-07-17T09:59:30Z</time>
      </trkpt>
      <trkpt lat="44.56046" lon="6.07721">
        <ele>762</ele>
        <time>2010-07-17T09:59:38Z</time>
      </trkpt>
      <trkpt lat="44.56012" lon="6.07738">
        <ele>760</ele>
        <time>2010-07-17T09:59:45Z</time>
      </trkpt>
      <trkpt lat="44.55974" lon="6.07742">
        <ele>756</ele>
        <time>2010-07-17T09:59:53Z</time>
      </trkpt>
      <trkpt lat="44.55961" lon="6.07728">
        <ele>751</ele>
        <time>2010-07-17T10:00:03Z</time>
      </trkpt>
      <trkpt lat="44.55946" lon="6.07705">
        <ele>748</ele>
        <time>2010-07-17T10:00:10Z</time>
      </trkpt>
      <trkpt lat="44.55941" lon="6.0768">
        <ele>748</ele>
        <time>2010-07-17T10:00:18Z</time>
      </trkpt>
      <trkpt lat="44.55918" lon="6.07669">
        <ele>745</ele>
        <time>2010-07-17T10:00:25Z</time>
      </trkpt>
      <trkpt lat="44.55897" lon="6.07653">
        <ele>745</ele>
        <time>2010-07-17T10:00:32Z</time>
      </trkpt>
      <trkpt lat="44.55876" lon="6.07622">
        <ele>748</ele>
        <time>2010-07-17T10:00:39Z</time>
      </trkpt>
      <trkpt lat="44.55846" lon="6.07583">
        <ele>750</ele>
        <time>2010-07-17T10:00:51Z</time>
      </trkpt>
      <trkpt lat="44.55811" lon="6.07555">
        <ele>749</ele>
        <time>2010-07-17T10:00:58Z</time>
      </trkpt>
      <trkpt lat="44.55788" lon="6.07522">
        <ele>749</ele>
        <time>2010-07-17T10:01:05Z</time>
      </trkpt>
      <trkpt lat="44.55759" lon="6.07489">
        <ele>749</ele>
        <time>2010-07-17T10:01:16Z</time>
      </trkpt>
      <trkpt lat="44.55737" lon="6.07492">
        <ele>749</ele>
        <time>2010-07-17T10:01:25Z</time>
      </trkpt>
      <trkpt lat="44.55695" lon="6.07565">
        <ele>747</ele>
        <time>2010-07-17T10:01:36Z</time>
      </trkpt>
      <trkpt lat="44.55665" lon="6.07627">
        <ele>743</ele>
        <time>2010-07-17T10:01:44Z</time>
      </trkpt>
      <trkpt lat="44.55649" lon="6.07654">
        <ele>739</ele>
        <time>2010-07-17T10:01:51Z</time>
      </trkpt>
      <trkpt lat="44.55652" lon="6.07692">
        <ele>738</ele>
        <time>2010-07-17T10:02:00Z</time>
      </trkpt>
      <trkpt lat="44.55663" lon="6.0771">
        <ele>738</ele>
        <time>2010-07-17T10:02:07Z</time>
      </trkpt>
      <trkpt lat="44.55671" lon="6.07693">
        <ele>741</ele>
        <time>2010-07-17T10:02:14Z</time>
      </trkpt>
      <trkpt lat="44.55668" lon="6.0767">
        <ele>744</ele>
        <time>2010-07-17T10:02:21Z</time>
      </trkpt>
      <trkpt lat="44.55651" lon="6.07646">
        <ele>744</ele>
        <time>2010-07-17T10:02:29Z</time>
      </trkpt>
      <trkpt lat="44.5562" lon="6.07619">
        <ele>744</ele>
        <time>2010-07-17T10:02:39Z</time>
      </trkpt>
      <trkpt lat="44.55585" lon="6.07572">
        <ele>744</ele>
        <time>2010-07-17T10:02:47Z</time>
      </trkpt>
      <trkpt lat="44.55555" lon="6.07544">
        <ele>744</ele>
        <time>2010-07-17T10:02:54Z</time>
      </trkpt>
      <trkpt lat="44.55526" lon="6.07507">
        <ele>744</ele>
        <time>2010-07-17T10:03:05Z</time>
      </trkpt>
      <trkpt lat="44.55488" lon="6.07453">
        <ele>742</ele>
        <time>2010-07-17T10:03:13Z</time>
      </trkpt>
      <trkpt lat="44.55461" lon="6.07417">
        <ele>738</ele>
        <time>2010-07-17T10:03:24Z</time>
      </trkpt>
      <trkpt lat="44.55428" lon="6.07378">
        <ele>738</ele>
        <time>2010-07-17T10:03:31Z</time>
      </trkpt>
      <trkpt lat="44.55388" lon="6.07348">
        <ele>742</ele>
        <time>2010-07-17T10:03:43Z</time>
      </trkpt>
      <trkpt lat="44.55352" lon="6.07312">
        <ele>751</ele>
        <time>2010-07-17T10:03:52Z</time>
      </trkpt>
      <trkpt lat="44.55351" lon="6.07288">
        <ele>755</ele>
        <time>2010-07-17T10:04:01Z</time>
      </trkpt>
      <trkpt lat="44.55363" lon="6.07295">
        <ele>753</ele>
        <time>2010-07-17T10:04:08Z</time>
      </trkpt>
      <trkpt lat="44.55381" lon="6.07317">
        <ele>748</ele>
        <time>2010-07-17T10:04:19Z</time>
      </trkpt>
      <trkpt lat="44.55399" lon="6.07333">
        <ele>743</ele>
        <time>2010-07-17T10:04:28Z</time>
      </trkpt>
      <trkpt lat="44.554" lon="6.07338">
        <ele>742</ele>
        <time>2010-07-17T10:04:35Z</time>
      </trkpt>
      <trkpt lat="44.55394" lon="6.07349">
        <ele>742</ele>
        <time>2010-07-17T10:04:43Z</time>
      </trkpt>
      <trkpt lat="44.55385" lon="6.07367">
        <ele>757</ele>
        <time>2010-07-17T10:04:51Z</time>
      </trkpt>
      <trkpt lat="44.55374" lon="6.07355">
        <ele>760</ele>
        <time>2010-07-17T10:04:58Z</time>
      </trkpt>
      <trkpt lat="44.55368" lon="6.07333">
        <ele>764</ele>
        <time>2010-07-17T10:05:05Z</time>
      </trkpt>
      <trkpt lat="44.55358" lon="6.07314">
        <ele>764</ele>
        <time>2010-07-17T10:05:13Z</time>
      </trkpt>
      <trkpt lat="44.55333" lon="6.07269">
        <ele>760</ele>
        <time>2010-07-17T10:05:24Z</time>
      </trkpt>
      <trkpt lat="44.55313" lon="6.07241">
        <ele>753</ele>
        <time>2010-07-17T10:05:31Z</time>
      </trkpt>
      <trkpt lat="44.55292" lon="6.07215">
        <ele>749</ele>
        <time>2010-07-17T10:05:38Z</time>
      </trkpt>
      <trkpt lat="44.55271" lon="6.07185">
        <ele>745</ele>
        <time>2010-07-17T10:05:49Z</time>
      </trkpt>
      <trkpt lat="44.55238" lon="6.07144">
        <ele>740</ele>
        <time>2010-07-17T10:05:58Z</time>
      </trkpt>
      <trkpt lat="44.55205" lon="6.07102">
        <ele>740</ele>
        <time>2010-07-17T10:06:09Z</time>
      </trkpt>
      <trkpt lat="44.55174" lon="6.07063">
        <ele>740</ele>
        <time>2010-07-17T10:06:16Z</time>
      </trkpt>
      <trkpt lat="44.55144" lon="6.0703">
        <ele>740</ele>
        <time>2010-07-17T10:06:23Z</time>
      </trkpt>
      <trkpt lat="44.55111" lon="6.06989">
        <ele>740</ele>
        <time>2010-07-17T10:06:34Z</time>
      </trkpt>
      <trkpt lat="44.55076" lon="6.06946">
        <ele>740</ele>
        <time>2010-07-17T10:06:42Z</time>
      </trkpt>
      <trkpt lat="44.5504" lon="6.06905">
        <ele>740</ele>
        <time>2010-07-17T10:06:53Z</time>
      </trkpt>
      <trkpt lat="44.55004" lon="6.06856">
        <ele>740</ele>
        <time>2010-07-17T10:07:01Z</time>
      </trkpt>
      <trkpt lat="44.54979" lon="6.06824">
        <ele>740</ele>
        <time>2010-07-17T10:07:12Z</time>
      </trkpt>
      <trkpt lat="44.53275" lon="6.04306">
        <ele>755</ele>
        <time>2010-07-17T10:07:21Z</time>
      </trkpt>
      <trkpt lat="44.53253" lon="6.04238">
        <ele>753</ele>
        <time>2010-07-17T10:07:28Z</time>
      </trkpt>
      <trkpt lat="44.53236" lon="6.04163">
        <ele>753</ele>
        <time>2010-07-17T10:07:35Z</time>
      </trkpt>
      <trkpt lat="44.53218" lon="6.04094">
        <ele>753</ele>
        <time>2010-07-17T10:07:42Z</time>
      </trkpt>
      <trkpt lat="44.53196" lon="6.04036">
        <ele>753</ele>
        <time>2010-07-17T10:07:49Z</time>
      </trkpt>
      <trkpt lat="44.53173" lon="6.03994">
        <ele>753</ele>
        <time>2010-07-17T10:07:56Z</time>
      </trkpt>
      <trkpt lat="44.53151" lon="6.03971">
        <ele>753</ele>
        <time>2010-07-17T10:08:03Z</time>
      </trkpt>
      <trkpt lat="44.5314" lon="6.03966">
        <ele>753</ele>
        <time>2010-07-17T10:08:10Z</time>
      </trkpt>
      <trkpt lat="44.53127" lon="6.03962">
        <ele>753</ele>
        <time>2010-07-17T10:08:20Z</time>
      </trkpt>
      <trkpt lat="44.53115" lon="6.03957">
        <ele>755</ele>
        <time>2010-07-17T10:08:27Z</time>
      </trkpt>
      <trkpt lat="44.53105" lon="6.03949">
        <ele>756</ele>
        <time>2010-07-17T10:08:34Z</time>
      </trkpt>
      <trkpt lat="44.53089" lon="6.03933">
        <ele>756</ele>
        <time>2010-07-17T10:08:41Z</time>
      </trkpt>
      <trkpt lat="44.53076" lon="6.03916">
        <ele>758</ele>
        <time>2010-07-17T10:08:48Z</time>
      </trkpt>
      <trkpt lat="44.53057" lon="6.03889">
        <ele>762</ele>
        <time>2010-07-17T10:08:59Z</time>
      </trkpt>
      <trkpt lat="44.53052" lon="6.03885">
        <ele>768</ele>
        <time>2010-07-17T10:09:09Z</time>
      </trkpt>
      <trkpt lat="44.53047" lon="6.03882">
        <ele>768</ele>
        <time>2010-07-17T10:09:17Z</time>
      </trkpt>
      <trkpt lat="44.53044" lon="6.03881">
        <ele>768</ele>
        <time>2010-07-17T10:09:25Z</time>
      </trkpt>
      <trkpt lat="44.53043" lon="6.03882">
        <ele>768</ele>
        <time>2010-07-17T10:09:34Z</time>
      </trkpt>
      <trkpt lat="44.53044" lon="6.0388">
        <ele>768</ele>
        <time>2010-07-17T10:09:44Z</time>
      </trkpt>
      <trkpt lat="44.5305" lon="6.0388">
        <ele>768</ele>
        <time>2010-07-17T10:09:58Z</time>
      </trkpt>
      <trkpt lat="44.5305" lon="6.03878">
        <ele>769</ele>
        <time>2010-07-17T10:10:06Z</time>
      </trkpt>
      <trkpt lat="44.53051" lon="6.03881">
        <ele>771</ele>
        <time>2010-07-17T10:10:16Z</time>
      </trkpt>
      <trkpt lat="44.53044" lon="6.03879">
        <ele>771</ele>
        <time>2010-07-17T10:10:23Z</time>
      </trkpt>
      <trkpt lat="44.53029" lon="6.03864">
        <ele>771</ele>
        <time>2010-07-17T10:10:31Z</time>
      </trkpt>
      <trkpt lat="44.53011" lon="6.03843">
        <ele>771</ele>
        <time>2010-07-17T10:10:43Z</time>
      </trkpt>
      <trkpt lat="44.52994" lon="6.0382">
        <ele>771</ele>
        <time>2010-07-17T10:10:50Z</time>
      </trkpt>
      <trkpt lat="44.52979" lon="6.03802">
        <ele>774</ele>
        <time>2010-07-17T10:10:58Z</time>
      </trkpt>
      <trkpt lat="44.52966" lon="6.03785">
        <ele>776</ele>
        <time>2010-07-17T10:11:05Z</time>
      </trkpt>
      <trkpt lat="44.52951" lon="6.03766">
        <ele>777</ele>
        <time>2010-07-17T10:11:13Z</time>
      </trkpt>
      <trkpt lat="44.52937" lon="6.03752">
        <ele>778</ele>
        <time>2010-07-17T10:11:20Z</time>
      </trkpt>
      <trkpt lat="44.52921" lon="6.03735">
        <ele>780</ele>
        <time>2010-07-17T10:11:28Z</time>
      </trkpt>
      <trkpt lat="44.52906" lon="6.03719">
        <ele>780</ele>
        <time>2010-07-17T10:11:35Z</time>
      </trkpt>
      <trkpt lat="44.52894" lon="6.03695">
        <ele>780</ele>
        <time>2010-07-17T10:11:43Z</time>
      </trkpt>
      <trkpt lat="44.52893" lon="6.03672">
        <ele>780</ele>
        <time>2010-07-17T10:11:50Z</time>
      </trkpt>
      <trkpt lat="44.52898" lon="6.03647">
        <ele>780</ele>
        <time>2010-07-17T10:11:58Z</time>
      </trkpt>
      <trkpt lat="44.5291" lon="6.03625">
        <ele>780</ele>
        <time>2010-07-17T10:12:09Z</time>
      </trkpt>
      <trkpt lat="44.52919" lon="6.03595">
        <ele>780</ele>
        <time>2010-07-17T10:12:17Z</time>
      </trkpt>
      <trkpt lat="44.52923" lon="6.03596">
        <ele>780</ele>
        <time>2010-07-17T10:12:25Z</time>
      </trkpt>
      <trkpt lat="44.52917" lon="6.03583">
        <ele>780</ele>
        <time>2010-07-17T10:12:32Z</time>
      </trkpt>
      <trkpt lat="44.52914" lon="6.03564">
        <ele>780</ele>
        <time>2010-07-17T10:12:39Z</time>
      </trkpt>
      <trkpt lat="44.52902" lon="6.03535">
        <ele>780</ele>
        <time>2010-07-17T10:12:51Z</time>
      </trkpt>
      <trkpt lat="44.52895" lon="6.03513">
        <ele>782</ele>
        <time>2010-07-17T10:12:59Z</time>
      </trkpt>
      <trkpt lat="44.52884" lon="6.03492">
        <ele>784</ele>
        <time>2010-07-17T10:13:09Z</time>
      </trkpt>
      <trkpt lat="44.52883" lon="6.03469">
        <ele>785</ele>
        <time>2010-07-17T10:13:16Z</time>
      </trkpt>
      <trkpt lat="44.52892" lon="6.03449">
        <ele>785</ele>
        <time>2010-07-17T10:13:24Z</time>
      </trkpt>
      <trkpt lat="44.52902" lon="6.03428">
        <ele>785</ele>
        <time>2010-07-17T10:13:31Z</time>
      </trkpt>
      <trkpt lat="44.52912" lon="6.03411">
        <ele>785</ele>
        <time>2010-07-17T10:13:38Z</time>
      </trkpt>
      <trkpt lat="44.52925" lon="6.03399">
        <ele>785</ele>
        <time>2010-07-17T10:13:45Z</time>
      </trkpt>
      <trkpt lat="44.52942" lon="6.0339">
        <ele>787</ele>
        <time>2010-07-17T10:13:53Z</time>
      </trkpt>
      <trkpt lat="44.52957" lon="6.03386">
        <ele>789</ele>
        <time>2010-07-17T10:14:00Z</time>
      </trkpt>
      <trkpt lat="44.52975" lon="6.03381">
        <ele>792</ele>
        <time>2010-07-17T10:14:08Z</time>
      </trkpt>
      <trkpt lat="44.5299" lon="6.03382">
        <ele>794</ele>
        <time>2010-07-17T10:14:15Z</time>
      </trkpt>
      <trkpt lat="44.53009" lon="6.03387">
        <ele>795</ele>
        <time>2010-07-17T10:14:23Z</time>
      </trkpt>
      <trkpt lat="44.53024" lon="6.03393">
        <ele>797</ele>
        <time>2010-07-17T10:14:30Z</time>
      </trkpt>
      <trkpt lat="44.53041" lon="6.03398">
        <ele>799</ele>
        <time>2010-07-17T10:14:38Z</time>
      </trkpt>
      <trkpt lat="44.53056" lon="6.03402">
        <ele>801</ele>
        <time>2010-07-17T10:14:45Z</time>
      </trkpt>
      <trkpt lat="44.53074" lon="6.03405">
        <ele>804</ele>
        <time>2010-07-17T10:14:53Z</time>
      </trkpt>
      <trkpt lat="44.53089" lon="6.03408">
        <ele>806</ele>
        <time>2010-07-17T10:15:00Z</time>
      </trkpt>
      <trkpt lat="44.53105" lon="6.03413">
        <ele>808</ele>
        <time>2010-07-17T10:15:08Z</time>
      </trkpt>
      <trkpt lat="44.53119" lon="6.03413">
        <ele>810</ele>
        <time>2010-07-17T10:15:15Z</time>
      </trkpt>
      <trkpt lat="44.53129" lon="6.03403">
        <ele>811</ele>
        <time>2010-07-17T10:15:23Z</time>
      </trkpt>
      <trkpt lat="44.53135" lon="6.0339">
        <ele>812</ele>
        <time>2010-07-17T10:15:30Z</time>
      </trkpt>
      <trkpt lat="44.53141" lon="6.03373">
        <ele>813</ele>
        <time>2010-07-17T10:15:38Z</time>
      </trkpt>
      <trkpt lat="44.53149" lon="6.03369">
        <ele>815</ele>
        <time>2010-07-17T10:15:45Z</time>
      </trkpt>
      <trkpt lat="44.53162" lon="6.03376">
        <ele>819</ele>
        <time>2010-07-17T10:15:57Z</time>
      </trkpt>
      <trkpt lat="44.53174" lon="6.03386">
        <ele>821</ele>
        <time>2010-07-17T10:16:06Z</time>
      </trkpt>
      <trkpt lat="44.53188" lon="6.03398">
        <ele>821</ele>
        <time>2010-07-17T10:16:18Z</time>
      </trkpt>
      <trkpt lat="44.53212" lon="6.03413">
        <ele>823</ele>
        <time>2010-07-17T10:16:27Z</time>
      </trkpt>
      <trkpt lat="44.53237" lon="6.03425">
        <ele>823</ele>
        <time>2010-07-17T10:16:38Z</time>
      </trkpt>
      <trkpt lat="44.53267" lon="6.03438">
        <ele>823</ele>
        <time>2010-07-17T10:16:45Z</time>
      </trkpt>
      <trkpt lat="44.53289" lon="6.0345">
        <ele>823</ele>
        <time>2010-07-17T10:16:53Z</time>
      </trkpt>
      <trkpt lat="44.53307" lon="6.03463">
        <ele>827</ele>
        <time>2010-07-17T10:17:00Z</time>
      </trkpt>
      <trkpt lat="44.53327" lon="6.03478">
        <ele>828</ele>
        <time>2010-07-17T10:17:08Z</time>
      </trkpt>
      <trkpt lat="44.53343" lon="6.03484">
        <ele>829</ele>
        <time>2010-07-17T10:17:15Z</time>
      </trkpt>
      <trkpt lat="44.53357" lon="6.03489">
        <ele>829</ele>
        <time>2010-07-17T10:17:22Z</time>
      </trkpt>
      <trkpt lat="44.53371" lon="6.03495">
        <ele>830</ele>
        <time>2010-07-17T10:17:29Z</time>
      </trkpt>
      <trkpt lat="44.53385" lon="6.03501">
        <ele>831</ele>
        <time>2010-07-17T10:17:37Z</time>
      </trkpt>
      <trkpt lat="44.53395" lon="6.03506">
        <ele>832</ele>
        <time>2010-07-17T10:17:44Z</time>
      </trkpt>
      <trkpt lat="44.53406" lon="6.03512">
        <ele>834</ele>
        <time>2010-07-17T10:17:51Z</time>
      </trkpt>
      <trkpt lat="44.53418" lon="6.03519">
        <ele>838</ele>
        <time>2010-07-17T10:17:59Z</time>
      </trkpt>
      <trkpt lat="44.5343" lon="6.03525">
        <ele>839</ele>
        <time>2010-07-17T10:18:07Z</time>
      </trkpt>
      <trkpt lat="44.53443" lon="6.03526">
        <ele>840</ele>
        <time>2010-07-17T10:18:15Z</time>
      </trkpt>
      <trkpt lat="44.53455" lon="6.03532">
        <ele>842</ele>
        <time>2010-07-17T10:18:23Z</time>
      </trkpt>
      <trkpt lat="44.53466" lon="6.03534">
        <ele>844</ele>
        <time>2010-07-17T10:18:30Z</time>
      </trkpt>
      <trkpt lat="44.53479" lon="6.03532">
        <ele>845</ele>
        <time>2010-07-17T10:18:42Z</time>
      </trkpt>
      <trkpt lat="44.53493" lon="6.03535">
        <ele>845</ele>
        <time>2010-07-17T10:18:50Z</time>
      </trkpt>
      <trkpt lat="44.53504" lon="6.03537">
        <ele>847</ele>
        <time>2010-07-17T10:19:01Z</time>
      </trkpt>
      <trkpt lat="44.53513" lon="6.03538">
        <ele>848</ele>
        <time>2010-07-17T10:19:11Z</time>
      </trkpt>
      <trkpt lat="44.53522" lon="6.03542">
        <ele>848</ele>
        <time>2010-07-17T10:19:19Z</time>
      </trkpt>
      <trkpt lat="44.53542" lon="6.03546">
        <ele>851</ele>
        <time>2010-07-17T10:19:31Z</time>
      </trkpt>
      <trkpt lat="44.53554" lon="6.03545">
        <ele>855</ele>
        <time>2010-07-17T10:19:41Z</time>
      </trkpt>
      <trkpt lat="44.5356" lon="6.03543">
        <ele>858</ele>
        <time>2010-07-17T10:19:50Z</time>
      </trkpt>
      <trkpt lat="44.53565" lon="6.03542">
        <ele>861</ele>
        <time>2010-07-17T10:19:58Z</time>
      </trkpt>
      <trkpt lat="44.5356" lon="6.03546">
        <ele>862</ele>
        <time>2010-07-17T10:20:07Z</time>
      </trkpt>
      <trkpt lat="44.53561" lon="6.0355">
        <ele>862</ele>
        <time>2010-07-17T10:20:15Z</time>
      </trkpt>
      <trkpt lat="44.53571" lon="6.03553">
        <ele>861</ele>
        <time>2010-07-17T10:20:24Z</time>
      </trkpt>
      <trkpt lat="44.53582" lon="6.03553">
        <ele>861</ele>
        <time>2010-07-17T10:20:31Z</time>
      </trkpt>
      <trkpt lat="44.53593" lon="6.03553">
        <ele>861</ele>
        <time>2010-07-17T10:20:38Z</time>
      </trkpt>
      <trkpt lat="44.53605" lon="6.03554">
        <ele>861</ele>
        <time>2010-07-17T10:20:45Z</time>
      </trkpt>
      <trkpt lat="44.53617" lon="6.03551">
        <ele>861</ele>
        <time>2010-07-17T10:20:53Z</time>
      </trkpt>
      <trkpt lat="44.53628" lon="6.0355">
        <ele>863</ele>
        <time>2010-07-17T10:21:00Z</time>
      </trkpt>
      <trkpt lat="44.53642" lon="6.03548">
        <ele>868</ele>
        <time>2010-07-17T10:21:08Z</time>
      </trkpt>
      <trkpt lat="44.53653" lon="6.03547">
        <ele>870</ele>
        <time>2010-07-17T10:21:15Z</time>
      </trkpt>
      <trkpt lat="44.53666" lon="6.03542">
        <ele>877</ele>
        <time>2010-07-17T10:21:23Z</time>
      </trkpt>
      <trkpt lat="44.5367" lon="6.03531">
        <ele>882</ele>
        <time>2010-07-17T10:21:30Z</time>
      </trkpt>
      <trkpt lat="44.53668" lon="6.03518">
        <ele>882</ele>
        <time>2010-07-17T10:21:38Z</time>
      </trkpt>
      <trkpt lat="44.53662" lon="6.03508">
        <ele>882</ele>
        <time>2010-07-17T10:21:45Z</time>
      </trkpt>
      <trkpt lat="44.53656" lon="6.03494">
        <ele>882</ele>
        <time>2010-07-17T10:21:53Z</time>
      </trkpt>
      <trkpt lat="44.53651" lon="6.03477">
        <ele>883</ele>
        <time>2010-07-17T10:22:00Z</time>
      </trkpt>
      <trkpt lat="44.53648" lon="6.03458">
        <ele>885</ele>
        <time>2010-07-17T10:22:08Z</time>
      </trkpt>
      <trkpt lat="44.53654" lon="6.03439">
        <ele>886</ele>
        <time>2010-07-17T10:22:15Z</time>
      </trkpt>
      <trkpt lat="44.53661" lon="6.03418">
        <ele>887</ele>
        <time>2010-07-17T10:22:23Z</time>
      </trkpt>
      <trkpt lat="44.53672" lon="6.03408">
        <ele>887</ele>
        <time>2010-07-17T10:22:30Z</time>
      </trkpt>
      <trkpt lat="44.53686" lon="6.03411">
        <ele>887</ele>
        <time>2010-07-17T10:22:38Z</time>
      </trkpt>
      <trkpt lat="44.537" lon="6.03406">
        <ele>887</ele>
        <time>2010-07-17T10:22:45Z</time>
      </trkpt>
      <trkpt lat="44.53714" lon="6.03397">
        <ele>887</ele>
        <time>2010-07-17T10:22:53Z</time>
      </trkpt>
      <trkpt lat="44.53724" lon="6.03385">
        <ele>889</ele>
        <time>2010-07-17T10:23:00Z</time>
      </trkpt>
      <trkpt lat="44.53737" lon="6.03369">
        <ele>891</ele>
        <time>2010-07-17T10:23:08Z</time>
      </trkpt>
      <trkpt lat="44.53748" lon="6.03362">
        <ele>895</ele>
        <time>2010-07-17T10:23:16Z</time>
      </trkpt>
      <trkpt lat="44.53759" lon="6.03355">
        <ele>897</ele>
        <time>2010-07-17T10:23:23Z</time>
      </trkpt>
      <trkpt lat="44.53769" lon="6.0335">
        <ele>898</ele>
        <time>2010-07-17T10:23:30Z</time>
      </trkpt>
      <trkpt lat="44.53783" lon="6.03344">
        <ele>900</ele>
        <time>2010-07-17T10:23:38Z</time>
      </trkpt>
      <trkpt lat="44.53793" lon="6.03341">
        <ele>903</ele>
        <time>2010-07-17T10:23:45Z</time>
      </trkpt>
      <trkpt lat="44.53805" lon="6.03332">
        <ele>907</ele>
        <time>2010-07-17T10:23:54Z</time>
      </trkpt>
      <trkpt lat="44.53809" lon="6.03321">
        <ele>908</ele>
        <time>2010-07-17T10:24:01Z</time>
      </trkpt>
      <trkpt lat="44.53812" lon="6.03305">
        <ele>908</ele>
        <time>2010-07-17T10:24:08Z</time>
      </trkpt>
      <trkpt lat="44.53817" lon="6.03292">
        <ele>908</ele>
        <time>2010-07-17T10:24:16Z</time>
      </trkpt>
      <trkpt lat="44.5382" lon="6.03276">
        <ele>908</ele>
        <time>2010-07-17T10:24:24Z</time>
      </trkpt>
      <trkpt lat="44.5382" lon="6.03262">
        <ele>908</ele>
        <time>2010-07-17T10:24:31Z</time>
      </trkpt>
      <trkpt lat="44.53815" lon="6.0325">
        <ele>909</ele>
        <time>2010-07-17T10:24:40Z</time>
      </trkpt>
      <trkpt lat="44.53804" lon="6.03238">
        <ele>909</ele>
        <time>2010-07-17T10:24:48Z</time>
      </trkpt>
      <trkpt lat="44.53797" lon="6.03233">
        <ele>909</ele>
        <time>2010-07-17T10:24:55Z</time>
      </trkpt>
      <trkpt lat="44.5379" lon="6.03225">
        <ele>909</ele>
        <time>2010-07-17T10:25:03Z</time>
      </trkpt>
      <trkpt lat="44.53781" lon="6.03217">
        <ele>910</ele>
        <time>2010-07-17T10:25:10Z</time>
      </trkpt>
      <trkpt lat="44.53771" lon="6.03209">
        <ele>910</ele>
        <time>2010-07-17T10:25:18Z</time>
      </trkpt>
      <trkpt lat="44.53763" lon="6.032">
        <ele>911</ele>
        <time>2010-07-17T10:25:26Z</time>
      </trkpt>
      <trkpt lat="44.53761" lon="6.03195">
        <ele>912</ele>
        <time>2010-07-17T10:25:38Z</time>
      </trkpt>
      <trkpt lat="44.53762" lon="6.03192">
        <ele>913</ele>
        <time>2010-07-17T10:25:46Z</time>
      </trkpt>
      <trkpt lat="44.53757" lon="6.03192">
        <ele>915</ele>
        <time>2010-07-17T10:26:11Z</time>
      </trkpt>
      <trkpt lat="44.53754" lon="6.03195">
        <ele>917</ele>
        <time>2010-07-17T10:26:19Z</time>
      </trkpt>
      <trkpt lat="44.53755" lon="6.03192">
        <ele>917</ele>
        <time>2010-07-17T10:26:27Z</time>
      </trkpt>
      <trkpt lat="44.53755" lon="6.0319">
        <ele>917</ele>
        <time>2010-07-17T10:26:43Z</time>
      </trkpt>
      <trkpt lat="44.53753" lon="6.0319">
        <ele>918</ele>
        <time>2010-07-17T10:27:09Z</time>
      </trkpt>
      <trkpt lat="44.53755" lon="6.03193">
        <ele>918</ele>
        <time>2010-07-17T10:27:18Z</time>
      </trkpt>
      <trkpt lat="44.53756" lon="6.03193">
        <ele>919</ele>
        <time>2010-07-17T10:27:26Z</time>
      </trkpt>
      <trkpt lat="44.53774" lon="6.03195">
        <ele>919</ele>
        <time>2010-07-17T10:27:33Z</time>
      </trkpt>
      <trkpt lat="44.53785" lon="6.03191">
        <ele>919</ele>
        <time>2010-07-17T10:27:40Z</time>
      </trkpt>
      <trkpt lat="44.53788" lon="6.03189">
        <ele>939</ele>
        <time>2010-07-17T10:27:53Z</time>
      </trkpt>
      <trkpt lat="44.53798" lon="6.03183">
        <ele>936</ele>
        <time>2010-07-17T10:28:00Z</time>
      </trkpt>
      <trkpt lat="44.53808" lon="6.03173">
        <ele>932</ele>
        <time>2010-07-17T10:28:07Z</time>
      </trkpt>
      <trkpt lat="44.53818" lon="6.03161">
        <ele>929</ele>
        <time>2010-07-17T10:28:14Z</time>
      </trkpt>
      <trkpt lat="44.53824" lon="6.03146">
        <ele>928</ele>
        <time>2010-07-17T10:28:21Z</time>
      </trkpt>
      <trkpt lat="44.53829" lon="6.03137">
        <ele>928</ele>
        <time>2010-07-17T10:28:29Z</time>
      </trkpt>
      <trkpt lat="44.53837" lon="6.0312">
        <ele>928</ele>
        <time>2010-07-17T10:28:36Z</time>
      </trkpt>
      <trkpt lat="44.53842" lon="6.03106">
        <ele>931</ele>
        <time>2010-07-17T10:28:44Z</time>
      </trkpt>
      <trkpt lat="44.53843" lon="6.03091">
        <ele>934</ele>
        <time>2010-07-17T10:28:51Z</time>
      </trkpt>
      <trkpt lat="44.53845" lon="6.03075">
        <ele>937</ele>
        <time>2010-07-17T10:28:59Z</time>
      </trkpt>
      <trkpt lat="44.53846" lon="6.03066">
        <ele>937</ele>
        <time>2010-07-17T10:29:06Z</time>
      </trkpt>
      <trkpt lat="44.5385" lon="6.03052">
        <ele>938</ele>
        <time>2010-07-17T10:29:15Z</time>
      </trkpt>
      <trkpt lat="44.5386" lon="6.03039">
        <ele>938</ele>
        <time>2010-07-17T10:29:22Z</time>
      </trkpt>
      <trkpt lat="44.53867" lon="6.03031">
        <ele>940</ele>
        <time>2010-07-17T10:29:29Z</time>
      </trkpt>
      <trkpt lat="44.53875" lon="6.03023">
        <ele>940</ele>
        <time>2010-07-17T10:29:36Z</time>
      </trkpt>
      <trkpt lat="44.53879" lon="6.03011">
        <ele>942</ele>
        <time>2010-07-17T10:29:44Z</time>
      </trkpt>
      <trkpt lat="44.5389" lon="6.02986">
        <ele>942</ele>
        <time>2010-07-17T10:29:53Z</time>
      </trkpt>
      <trkpt lat="44.53896" lon="6.02978">
        <ele>942</ele>
        <time>2010-07-17T10:30:00Z</time>
      </trkpt>
      <trkpt lat="44.53906" lon="6.02955">
        <ele>943</ele>
        <time>2010-07-17T10:30:08Z</time>
      </trkpt>
      <trkpt lat="44.53908" lon="6.02949">
        <ele>943</ele>
        <time>2010-07-17T10:30:15Z</time>
      </trkpt>
      <trkpt lat="44.53918" lon="6.0292">
        <ele>946</ele>
        <time>2010-07-17T10:30:27Z</time>
      </trkpt>
      <trkpt lat="44.5392" lon="6.02904">
        <ele>946</ele>
        <time>2010-07-17T10:30:34Z</time>
      </trkpt>
      <trkpt lat="44.53921" lon="6.02883">
        <ele>946</ele>
        <time>2010-07-17T10:30:42Z</time>
      </trkpt>
      <trkpt lat="44.53922" lon="6.02848">
        <ele>948</ele>
        <time>2010-07-17T10:30:50Z</time>
      </trkpt>
      <trkpt lat="44.53925" lon="6.02816">
        <ele>948</ele>
        <time>2010-07-17T10:30:57Z</time>
      </trkpt>
      <trkpt lat="44.53927" lon="6.02792">
        <ele>949</ele>
        <time>2010-07-17T10:31:04Z</time>
      </trkpt>
      <trkpt lat="44.53931" lon="6.02767">
        <ele>949</ele>
        <time>2010-07-17T10:31:12Z</time>
      </trkpt>
      <trkpt lat="44.5393" lon="6.02756">
        <ele>949</ele>
        <time>2010-07-17T10:31:19Z</time>
      </trkpt>
      <trkpt lat="44.5393" lon="6.02751">
        <ele>950</ele>
        <time>2010-07-17T10:31:26Z</time>
      </trkpt>
      <trkpt lat="44.53929" lon="6.02764">
        <ele>951</ele>
        <time>2010-07-17T10:31:34Z</time>
      </trkpt>
      <trkpt lat="44.53928" lon="6.02766">
        <ele>952</ele>
        <time>2010-07-17T10:31:42Z</time>
      </trkpt>
      <trkpt lat="44.53927" lon="6.02767">
        <ele>953</ele>
        <time>2010-07-17T10:31:51Z</time>
      </trkpt>
      <trkpt lat="44.53929" lon="6.02768">
        <ele>955</ele>
        <time>2010-07-17T10:32:06Z</time>
      </trkpt>
      <trkpt lat="44.53931" lon="6.02766">
        <ele>955</ele>
        <time>2010-07-17T10:32:13Z</time>
      </trkpt>
      <trkpt lat="44.53933" lon="6.02762">
        <ele>951</ele>
        <time>2010-07-17T10:32:25Z</time>
      </trkpt>
      <trkpt lat="44.53932" lon="6.0276">
        <ele>949</ele>
        <time>2010-07-17T10:32:39Z</time>
      </trkpt>
      <trkpt lat="44.53931" lon="6.0276">
        <ele>949</ele>
        <time>2010-07-17T10:32:48Z</time>
      </trkpt>
      <trkpt lat="44.5393" lon="6.02759">
        <ele>949</ele>
        <time>2010-07-17T10:32:59Z</time>
      </trkpt>
      <trkpt lat="44.53929" lon="6.0276">
        <ele>950</ele>
        <time>2010-07-17T10:33:16Z</time>
      </trkpt>
      <trkpt lat="44.53928" lon="6.0276">
        <ele>950</ele>
        <time>2010-07-17T10:33:26Z</time>
      </trkpt>
      <trkpt lat="44.53927" lon="6.02757">
        <ele>950</ele>
        <time>2010-07-17T10:33:33Z</time>
      </trkpt>
      <trkpt lat="44.53928" lon="6.0275">
        <ele>950</ele>
        <time>2010-07-17T10:33:40Z</time>
      </trkpt>
      <trkpt lat="44.53937" lon="6.02732">
        <ele>952</ele>
        <time>2010-07-17T10:33:49Z</time>
      </trkpt>
      <trkpt lat="44.53942" lon="6.02724">
        <ele>952</ele>
        <time>2010-07-17T10:33:58Z</time>
      </trkpt>
      <trkpt lat="44.53951" lon="6.02717">
        <ele>952</ele>
        <time>2010-07-17T10:34:05Z</time>
      </trkpt>
      <trkpt lat="44.53964" lon="6.02708">
        <ele>952</ele>
        <time>2010-07-17T10:34:12Z</time>
      </trkpt>
      <trkpt lat="44.53974" lon="6.02696">
        <ele>952</ele>
        <time>2010-07-17T10:34:20Z</time>
      </trkpt>
      <trkpt lat="44.53979" lon="6.02688">
        <ele>952</ele>
        <time>2010-07-17T10:34:32Z</time>
      </trkpt>
      <trkpt lat="44.53985" lon="6.02683">
        <ele>951</ele>
        <time>2010-07-17T10:34:41Z</time>
      </trkpt>
      <trkpt lat="44.53988" lon="6.02679">
        <ele>951</ele>
        <time>2010-07-17T10:34:49Z</time>
      </trkpt>
      <trkpt lat="44.53996" lon="6.02671">
        <ele>951</ele>
        <time>2010-07-17T10:34:57Z</time>
      </trkpt>
      <trkpt lat="44.54005" lon="6.02661">
        <ele>952</ele>
        <time>2010-07-17T10:35:09Z</time>
      </trkpt>
      <trkpt lat="44.54012" lon="6.02655">
        <ele>952</ele>
        <time>2010-07-17T10:35:18Z</time>
      </trkpt>
      <trkpt lat="44.54021" lon="6.02649">
        <ele>954</ele>
        <time>2010-07-17T10:35:25Z</time>
      </trkpt>
      <trkpt lat="44.54029" lon="6.02644">
        <ele>955</ele>
        <time>2010-07-17T10:35:33Z</time>
      </trkpt>
      <trkpt lat="44.54035" lon="6.02637">
        <ele>956</ele>
        <time>2010-07-17T10:35:40Z</time>
      </trkpt>
      <trkpt lat="44.54041" lon="6.02622">
        <ele>956</ele>
        <time>2010-07-17T10:35:48Z</time>
      </trkpt>
      <trkpt lat="44.5404" lon="6.02604">
        <ele>959</ele>
        <time>2010-07-17T10:36:01Z</time>
      </trkpt>
      <trkpt lat="44.54036" lon="6.02588">
        <ele>963</ele>
        <time>2010-07-17T10:36:09Z</time>
      </trkpt>
      <trkpt lat="44.54034" lon="6.02572">
        <ele>967</ele>
        <time>2010-07-17T10:36:20Z</time>
      </trkpt>
      <trkpt lat="44.54034" lon="6.02567">
        <ele>968</ele>
        <time>2010-07-17T10:36:30Z</time>
      </trkpt>
      <trkpt lat="44.54033" lon="6.02567">
        <ele>968</ele>
        <time>2010-07-17T10:36:39Z</time>
      </trkpt>
      <trkpt lat="44.54032" lon="6.02565">
        <ele>970</ele>
        <time>2010-07-17T10:36:57Z</time>
      </trkpt>
      <trkpt lat="44.54033" lon="6.02563">
        <ele>971</ele>
        <time>2010-07-17T10:37:13Z</time>
      </trkpt>
      <trkpt lat="44.54032" lon="6.02562">
        <ele>971</ele>
        <time>2010-07-17T10:37:29Z</time>
      </trkpt>
      <trkpt lat="44.54034" lon="6.02564">
        <ele>971</ele>
        <time>2010-07-17T10:37:46Z</time>
      </trkpt>
      <trkpt lat="44.54034" lon="6.02562">
        <ele>972</ele>
        <time>2010-07-17T10:38:03Z</time>
      </trkpt>
      <trkpt lat="44.54032" lon="6.02561">
        <ele>972</ele>
        <time>2010-07-17T10:38:19Z</time>
      </trkpt>
      <trkpt lat="44.54026" lon="6.02542">
        <ele>972</ele>
        <time>2010-07-17T10:38:28Z</time>
      </trkpt>
      <trkpt lat="44.54006" lon="6.02508">
        <ele>972</ele>
        <time>2010-07-17T10:38:36Z</time>
      </trkpt>
      <trkpt lat="44.53996" lon="6.02487">
        <ele>972</ele>
        <time>2010-07-17T10:38:43Z</time>
      </trkpt>
      <trkpt lat="44.53988" lon="6.02461">
        <ele>973</ele>
        <time>2010-07-17T10:38:54Z</time>
      </trkpt>
      <trkpt lat="44.53992" lon="6.02428">
        <ele>973</ele>
        <time>2010-07-17T10:39:02Z</time>
      </trkpt>
      <trkpt lat="44.53998" lon="6.02367">
        <ele>973</ele>
        <time>2010-07-17T10:39:10Z</time>
      </trkpt>
      <trkpt lat="44.54007" lon="6.02324">
        <ele>973</ele>
        <time>2010-07-17T10:39:17Z</time>
      </trkpt>
      <trkpt lat="44.54013" lon="6.02266">
        <ele>973</ele>
        <time>2010-07-17T10:39:28Z</time>
      </trkpt>
      <trkpt lat="44.5401" lon="6.02199">
        <ele>972</ele>
        <time>2010-07-17T10:39:36Z</time>
      </trkpt>
      <trkpt lat="44.54" lon="6.02153">
        <ele>971</ele>
        <time>2010-07-17T10:39:43Z</time>
      </trkpt>
      <trkpt lat="44.53981" lon="6.02105">
        <ele>971</ele>
        <time>2010-07-17T10:39:54Z</time>
      </trkpt>
      <trkpt lat="44.5396" lon="6.02033">
        <ele>971</ele>
        <time>2010-07-17T10:40:02Z</time>
      </trkpt>
      <trkpt lat="44.53959" lon="6.01984">
        <ele>971</ele>
        <time>2010-07-17T10:40:09Z</time>
      </trkpt>
      <trkpt lat="44.53971" lon="6.01929">
        <ele>971</ele>
        <time>2010-07-17T10:40:17Z</time>
      </trkpt>
      <trkpt lat="44.53988" lon="6.01868">
        <ele>971</ele>
        <time>2010-07-17T10:40:28Z</time>
      </trkpt>
      <trkpt lat="44.53989" lon="6.01826">
        <ele>970</ele>
        <time>2010-07-17T10:40:35Z</time>
      </trkpt>
      <trkpt lat="44.53975" lon="6.01787">
        <ele>970</ele>
        <time>2010-07-17T10:40:42Z</time>
      </trkpt>
      <trkpt lat="44.53941" lon="6.01755">
        <ele>969</ele>
        <time>2010-07-17T10:40:52Z</time>
      </trkpt>
      <trkpt lat="44.53902" lon="6.01702">
        <ele>966</ele>
        <time>2010-07-17T10:41:00Z</time>
      </trkpt>
      <trkpt lat="44.53862" lon="6.01674">
        <ele>965</ele>
        <time>2010-07-17T10:41:07Z</time>
      </trkpt>
      <trkpt lat="44.53808" lon="6.01644">
        <ele>962</ele>
        <time>2010-07-17T10:41:15Z</time>
      </trkpt>
      <trkpt lat="44.53789" lon="6.01589">
        <ele>961</ele>
        <time>2010-07-17T10:41:22Z</time>
      </trkpt>
      <trkpt lat="44.53774" lon="6.01544">
        <ele>961</ele>
        <time>2010-07-17T10:41:30Z</time>
      </trkpt>
      <trkpt lat="44.53748" lon="6.0151">
        <ele>961</ele>
        <time>2010-07-17T10:41:37Z</time>
      </trkpt>
      <trkpt lat="44.53698" lon="6.0147">
        <ele>961</ele>
        <time>2010-07-17T10:41:49Z</time>
      </trkpt>
      <trkpt lat="44.53635" lon="6.01389">
        <ele>959</ele>
        <time>2010-07-17T10:41:57Z</time>
      </trkpt>
      <trkpt lat="44.53618" lon="6.01346">
        <ele>956</ele>
        <time>2010-07-17T10:42:04Z</time>
      </trkpt>
      <trkpt lat="44.53604" lon="6.01315">
        <ele>956</ele>
        <time>2010-07-17T10:42:11Z</time>
      </trkpt>
      <trkpt lat="44.53598" lon="6.0128">
        <ele>956</ele>
        <time>2010-07-17T10:42:18Z</time>
      </trkpt>
      <trkpt lat="44.53597" lon="6.01233">
        <ele>956</ele>
        <time>2010-07-17T10:42:29Z</time>
      </trkpt>
      <trkpt lat="44.53597" lon="6.01175">
        <ele>956</ele>
        <time>2010-07-17T10:42:37Z</time>
      </trkpt>
      <trkpt lat="44.53589" lon="6.01124">
        <ele>956</ele>
        <time>2010-07-17T10:42:49Z</time>
      </trkpt>
      <trkpt lat="44.53563" lon="6.01071">
        <ele>956</ele>
        <time>2010-07-17T10:42:56Z</time>
      </trkpt>
      <trkpt lat="44.53534" lon="6.01044">
        <ele>956</ele>
        <time>2010-07-17T10:43:04Z</time>
      </trkpt>
      <trkpt lat="44.53521" lon="6.00999">
        <ele>956</ele>
        <time>2010-07-17T10:43:11Z</time>
      </trkpt>
      <trkpt lat="44.53477" lon="6.00948">
        <ele>956</ele>
        <time>2010-07-17T10:43:20Z</time>
      </trkpt>
      <trkpt lat="44.53436" lon="6.00907">
        <ele>952</ele>
        <time>2010-07-17T10:43:27Z</time>
      </trkpt>
      <trkpt lat="44.5345" lon="6.00879">
        <ele>952</ele>
        <time>2010-07-17T10:43:37Z</time>
      </trkpt>
      <trkpt lat="44.53461" lon="6.00863">
        <ele>952</ele>
        <time>2010-07-17T10:43:44Z</time>
      </trkpt>
      <trkpt lat="44.53462" lon="6.00861">
        <ele>952</ele>
        <time>2010-07-17T10:43:54Z</time>
      </trkpt>
      <trkpt lat="44.53463" lon="6.0086">
        <ele>952</ele>
        <time>2010-07-17T10:44:01Z</time>
      </trkpt>
      <trkpt lat="44.53457" lon="6.00856">
        <ele>953</ele>
        <time>2010-07-17T10:44:10Z</time>
      </trkpt>
      <trkpt lat="44.53473" lon="6.00852">
        <ele>956</ele>
        <time>2010-07-17T10:44:17Z</time>
      </trkpt>
      <trkpt lat="44.53487" lon="6.00843">
        <ele>957</ele>
        <time>2010-07-17T10:44:24Z</time>
      </trkpt>
      <trkpt lat="44.53502" lon="6.00833">
        <ele>957</ele>
        <time>2010-07-17T10:44:32Z</time>
      </trkpt>
      <trkpt lat="44.53518" lon="6.00819">
        <ele>957</ele>
        <time>2010-07-17T10:44:39Z</time>
      </trkpt>
      <trkpt lat="44.53532" lon="6.0081">
        <ele>959</ele>
        <time>2010-07-17T10:44:47Z</time>
      </trkpt>
      <trkpt lat="44.53556" lon="6.00795">
        <ele>960</ele>
        <time>2010-07-17T10:44:54Z</time>
      </trkpt>
      <trkpt lat="44.53577" lon="6.00782">
        <ele>960</ele>
        <time>2010-07-17T10:45:02Z</time>
      </trkpt>
      <trkpt lat="44.53588" lon="6.00749">
        <ele>960</ele>
        <time>2010-07-17T10:45:09Z</time>
      </trkpt>
      <trkpt lat="44.536" lon="6.00722">
        <ele>960</ele>
        <time>2010-07-17T10:45:17Z</time>
      </trkpt>
      <trkpt lat="44.53611" lon="6.00697">
        <ele>960</ele>
        <time>2010-07-17T10:45:24Z</time>
      </trkpt>
      <trkpt lat="44.53621" lon="6.00677">
        <ele>960</ele>
        <time>2010-07-17T10:45:32Z</time>
      </trkpt>
      <trkpt lat="44.53632" lon="6.00657">
        <ele>960</ele>
        <time>2010-07-17T10:45:39Z</time>
      </trkpt>
      <trkpt lat="44.5364" lon="6.00637">
        <ele>960</ele>
        <time>2010-07-17T10:45:47Z</time>
      </trkpt>
      <trkpt lat="44.53648" lon="6.0061">
        <ele>962</ele>
        <time>2010-07-17T10:45:54Z</time>
      </trkpt>
      <trkpt lat="44.53656" lon="6.00588">
        <ele>962</ele>
        <time>2010-07-17T10:46:02Z</time>
      </trkpt>
      <trkpt lat="44.53666" lon="6.00563">
        <ele>963</ele>
        <time>2010-07-17T10:46:09Z</time>
      </trkpt>
      <trkpt lat="44.53671" lon="6.00535">
        <ele>964</ele>
        <time>2010-07-17T10:46:17Z</time>
      </trkpt>
      <trkpt lat="44.53675" lon="6.00497">
        <ele>964</ele>
        <time>2010-07-17T10:46:24Z</time>
      </trkpt>
      <trkpt lat="44.53687" lon="6.00474">
        <ele>964</ele>
        <time>2010-07-17T10:46:32Z</time>
      </trkpt>
      <trkpt lat="44.53677" lon="6.00452">
        <ele>964</ele>
        <time>2010-07-17T10:46:39Z</time>
      </trkpt>
      <trkpt lat="44.53662" lon="6.00432">
        <ele>964</ele>
        <time>2010-07-17T10:46:47Z</time>
      </trkpt>
      <trkpt lat="44.53651" lon="6.00403">
        <ele>964</ele>
        <time>2010-07-17T10:46:54Z</time>
      </trkpt>
      <trkpt lat="44.53644" lon="6.00379">
        <ele>964</ele>
        <time>2010-07-17T10:47:02Z</time>
      </trkpt>
      <trkpt lat="44.53633" lon="6.00354">
        <ele>964</ele>
        <time>2010-07-17T10:47:09Z</time>
      </trkpt>
      <trkpt lat="44.53624" lon="6.00334">
        <ele>964</ele>
        <time>2010-07-17T10:47:17Z</time>
      </trkpt>
      <trkpt lat="44.53614" lon="6.00308">
        <ele>964</ele>
        <time>2010-07-17T10:47:24Z</time>
      </trkpt>
      <trkpt lat="44.53601" lon="6.00287">
        <ele>966</ele>
        <time>2010-07-17T10:47:32Z</time>
      </trkpt>
      <trkpt lat="44.53584" lon="6.00272">
        <ele>968</ele>
        <time>2010-07-17T10:47:39Z</time>
      </trkpt>
      <trkpt lat="44.5357" lon="6.00263">
        <ele>968</ele>
        <time>2010-07-17T10:47:47Z</time>
      </trkpt>
      <trkpt lat="44.53551" lon="6.0025">
        <ele>970</ele>
        <time>2010-07-17T10:47:54Z</time>
      </trkpt>
      <trkpt lat="44.53543" lon="6.00237">
        <ele>972</ele>
        <time>2010-07-17T10:48:02Z</time>
      </trkpt>
      <trkpt lat="44.53544" lon="6.00219">
        <ele>973</ele>
        <time>2010-07-17T10:48:09Z</time>
      </trkpt>
      <trkpt lat="44.53542" lon="6.00204">
        <ele>976</ele>
        <time>2010-07-17T10:48:17Z</time>
      </trkpt>
      <trkpt lat="44.53531" lon="6.00187">
        <ele>976</ele>
        <time>2010-07-17T10:48:24Z</time>
      </trkpt>
      <trkpt lat="44.53521" lon="6.00176">
        <ele>977</ele>
        <time>2010-07-17T10:48:32Z</time>
      </trkpt>
      <trkpt lat="44.53509" lon="6.00165">
        <ele>978</ele>
        <time>2010-07-17T10:48:39Z</time>
      </trkpt>
      <trkpt lat="44.535" lon="6.00152">
        <ele>980</ele>
        <time>2010-07-17T10:48:47Z</time>
      </trkpt>
      <trkpt lat="44.53487" lon="6.0014">
        <ele>981</ele>
        <time>2010-07-17T10:48:54Z</time>
      </trkpt>
      <trkpt lat="44.53477" lon="6.00127">
        <ele>982</ele>
        <time>2010-07-17T10:49:02Z</time>
      </trkpt>
      <trkpt lat="44.53469" lon="6.00109">
        <ele>983</ele>
        <time>2010-07-17T10:49:09Z</time>
      </trkpt>
      <trkpt lat="44.53461" lon="6.00094">
        <ele>983</ele>
        <time>2010-07-17T10:49:17Z</time>
      </trkpt>
      <trkpt lat="44.5345" lon="6.00079">
        <ele>983</ele>
        <time>2010-07-17T10:49:24Z</time>
      </trkpt>
      <trkpt lat="44.53439" lon="6.00066">
        <ele>984</ele>
        <time>2010-07-17T10:49:32Z</time>
      </trkpt>
      <trkpt lat="44.53428" lon="6.00051">
        <ele>985</ele>
        <time>2010-07-17T10:49:39Z</time>
      </trkpt>
      <trkpt lat="44.53421" lon="6.00038">
        <ele>989</ele>
        <time>2010-07-17T10:49:47Z</time>
      </trkpt>
      <trkpt lat="44.53412" lon="6.00024">
        <ele>992</ele>
        <time>2010-07-17T10:49:54Z</time>
      </trkpt>
      <trkpt lat="44.53403" lon="6.00012">
        <ele>993</ele>
        <time>2010-07-17T10:50:02Z</time>
      </trkpt>
      <trkpt lat="44.53392" lon="6.00001">
        <ele>993</ele>
        <time>2010-07-17T10:50:10Z</time>
      </trkpt>
      <trkpt lat="44.53385" lon="5.99994">
        <ele>993</ele>
        <time>2010-07-17T10:50:17Z</time>
      </trkpt>
      <trkpt lat="44.53379" lon="5.99983">
        <ele>994</ele>
        <time>2010-07-17T10:50:24Z</time>
      </trkpt>
      <trkpt lat="44.53377" lon="5.9997">
        <ele>999</ele>
        <time>2010-07-17T10:50:32Z</time>
      </trkpt>
      <trkpt lat="44.53381" lon="5.99954">
        <ele>1002</ele>
        <time>2010-07-17T10:50:40Z</time>
      </trkpt>
      <trkpt lat="44.53384" lon="5.99942">
        <ele>1002</ele>
        <time>2010-07-17T10:50:47Z</time>
      </trkpt>
      <trkpt lat="44.53386" lon="5.9993">
        <ele>1004</ele>
        <time>2010-07-17T10:50:54Z</time>
      </trkpt>
      <trkpt lat="44.53387" lon="5.99917">
        <ele>1005</ele>
        <time>2010-07-17T10:51:02Z</time>
      </trkpt>
      <trkpt lat="44.53389" lon="5.99902">
        <ele>1006</ele>
        <time>2010-07-17T10:51:09Z</time>
      </trkpt>
      <trkpt lat="44.53387" lon="5.99888">
        <ele>1007</ele>
        <time>2010-07-17T10:51:17Z</time>
      </trkpt>
      <trkpt lat="44.53386" lon="5.9987">
        <ele>1008</ele>
        <time>2010-07-17T10:51:24Z</time>
      </trkpt>
      <trkpt lat="44.53385" lon="5.99856">
        <ele>1008</ele>
        <time>2010-07-17T10:51:32Z</time>
      </trkpt>
      <trkpt lat="44.53387" lon="5.99837">
        <ele>1010</ele>
        <time>2010-07-17T10:51:39Z</time>
      </trkpt>
      <trkpt lat="44.53391" lon="5.99822">
        <ele>1011</ele>
        <time>2010-07-17T10:51:47Z</time>
      </trkpt>
      <trkpt lat="44.5339" lon="5.99804">
        <ele>1013</ele>
        <time>2010-07-17T10:51:54Z</time>
      </trkpt>
      <trkpt lat="44.53381" lon="5.99812">
        <ele>1014</ele>
        <time>2010-07-17T10:52:02Z</time>
      </trkpt>
      <trkpt lat="44.5337" lon="5.99844">
        <ele>1014</ele>
        <time>2010-07-17T10:52:09Z</time>
      </trkpt>
      <trkpt lat="44.53364" lon="5.99872">
        <ele>1014</ele>
        <time>2010-07-17T10:52:17Z</time>
      </trkpt>
      <trkpt lat="44.53355" lon="5.999">
        <ele>1014</ele>
        <time>2010-07-17T10:52:24Z</time>
      </trkpt>
      <trkpt lat="44.53344" lon="5.99919">
        <ele>1014</ele>
        <time>2010-07-17T10:52:32Z</time>
      </trkpt>
      <trkpt lat="44.53332" lon="5.99925">
        <ele>1016</ele>
        <time>2010-07-17T10:52:39Z</time>
      </trkpt>
      <trkpt lat="44.53322" lon="5.99924">
        <ele>1017</ele>
        <time>2010-07-17T10:52:47Z</time>
      </trkpt>
      <trkpt lat="44.53306" lon="5.9992">
        <ele>1018</ele>
        <time>2010-07-17T10:52:54Z</time>
      </trkpt>
      <trkpt lat="44.53287" lon="5.99917">
        <ele>1018</ele>
        <time>2010-07-17T10:53:02Z</time>
      </trkpt>
      <trkpt lat="44.53268" lon="5.9991">
        <ele>1020</ele>
        <time>2010-07-17T10:53:09Z</time>
      </trkpt>
      <trkpt lat="44.53254" lon="5.99902">
        <ele>1022</ele>
        <time>2010-07-17T10:53:17Z</time>
      </trkpt>
      <trkpt lat="44.53238" lon="5.99894">
        <ele>1023</ele>
        <time>2010-07-17T10:53:24Z</time>
      </trkpt>
      <trkpt lat="44.53223" lon="5.99886">
        <ele>1024</ele>
        <time>2010-07-17T10:53:32Z</time>
      </trkpt>
      <trkpt lat="44.53209" lon="5.99879">
        <ele>1027</ele>
        <time>2010-07-17T10:53:39Z</time>
      </trkpt>
      <trkpt lat="44.53191" lon="5.99873">
        <ele>1029</ele>
        <time>2010-07-17T10:53:47Z</time>
      </trkpt>
      <trkpt lat="44.5317" lon="5.99866">
        <ele>1029</ele>
        <time>2010-07-17T10:53:54Z</time>
      </trkpt>
      <trkpt lat="44.53151" lon="5.99864">
        <ele>1029</ele>
        <time>2010-07-17T10:54:02Z</time>
      </trkpt>
      <trkpt lat="44.5313" lon="5.99865">
        <ele>1029</ele>
        <time>2010-07-17T10:54:09Z</time>
      </trkpt>
      <trkpt lat="44.53112" lon="5.9987">
        <ele>1029</ele>
        <time>2010-07-17T10:54:17Z</time>
      </trkpt>
      <trkpt lat="44.53094" lon="5.99878">
        <ele>1032</ele>
        <time>2010-07-17T10:54:24Z</time>
      </trkpt>
      <trkpt lat="44.53082" lon="5.99885">
        <ele>1034</ele>
        <time>2010-07-17T10:54:32Z</time>
      </trkpt>
      <trkpt lat="44.53067" lon="5.99893">
        <ele>1036</ele>
        <time>2010-07-17T10:54:39Z</time>
      </trkpt>
      <trkpt lat="44.53053" lon="5.99903">
        <ele>1038</ele>
        <time>2010-07-17T10:54:47Z</time>
      </trkpt>
      <trkpt lat="44.53036" lon="5.99913">
        <ele>1039</ele>
        <time>2010-07-17T10:54:54Z</time>
      </trkpt>
      <trkpt lat="44.53019" lon="5.99923">
        <ele>1040</ele>
        <time>2010-07-17T10:55:01Z</time>
      </trkpt>
      <trkpt lat="44.53007" lon="5.99939">
        <ele>1040</ele>
        <time>2010-07-17T10:55:08Z</time>
      </trkpt>
      <trkpt lat="44.52991" lon="5.99948">
        <ele>1042</ele>
        <time>2010-07-17T10:55:15Z</time>
      </trkpt>
      <trkpt lat="44.52969" lon="5.99956">
        <ele>1044</ele>
        <time>2010-07-17T10:55:22Z</time>
      </trkpt>
      <trkpt lat="44.52945" lon="5.99974">
        <ele>1044</ele>
        <time>2010-07-17T10:55:29Z</time>
      </trkpt>
      <trkpt lat="44.52925" lon="5.99999">
        <ele>1044</ele>
        <time>2010-07-17T10:55:36Z</time>
      </trkpt>
      <trkpt lat="44.52905" lon="6.00016">
        <ele>1046</ele>
        <time>2010-07-17T10:55:43Z</time>
      </trkpt>
      <trkpt lat="44.52885" lon="6.00036">
        <ele>1046</ele>
        <time>2010-07-17T10:55:50Z</time>
      </trkpt>
      <trkpt lat="44.52864" lon="6.0006">
        <ele>1046</ele>
        <time>2010-07-17T10:55:57Z</time>
      </trkpt>
      <trkpt lat="44.52841" lon="6.00093">
        <ele>1047</ele>
        <time>2010-07-17T10:56:04Z</time>
      </trkpt>
      <trkpt lat="44.52824" lon="6.00132">
        <ele>1047</ele>
        <time>2010-07-17T10:56:12Z</time>
      </trkpt>
      <trkpt lat="44.52816" lon="6.00181">
        <ele>1047</ele>
        <time>2010-07-17T10:56:19Z</time>
      </trkpt>
      <trkpt lat="44.52799" lon="6.00216">
        <ele>1047</ele>
        <time>2010-07-17T10:56:26Z</time>
      </trkpt>
      <trkpt lat="44.52781" lon="6.0024">
        <ele>1047</ele>
        <time>2010-07-17T10:56:33Z</time>
      </trkpt>
      <trkpt lat="44.52752" lon="6.00288">
        <ele>1047</ele>
        <time>2010-07-17T10:56:40Z</time>
      </trkpt>
      <trkpt lat="44.52701" lon="6.00308">
        <ele>1046</ele>
        <time>2010-07-17T10:56:47Z</time>
      </trkpt>
      <trkpt lat="44.5264" lon="6.00317">
        <ele>1042</ele>
        <time>2010-07-17T10:56:54Z</time>
      </trkpt>
      <trkpt lat="44.52588" lon="6.00288">
        <ele>1039</ele>
        <time>2010-07-17T10:57:02Z</time>
      </trkpt>
      <trkpt lat="44.52533" lon="6.00262">
        <ele>1038</ele>
        <time>2010-07-17T10:57:09Z</time>
      </trkpt>
      <trkpt lat="44.52494" lon="6.00267">
        <ele>1037</ele>
        <time>2010-07-17T10:57:16Z</time>
      </trkpt>
      <trkpt lat="44.52453" lon="6.00258">
        <ele>1035</ele>
        <time>2010-07-17T10:57:23Z</time>
      </trkpt>
      <trkpt lat="44.52402" lon="6.00234">
        <ele>1032</ele>
        <time>2010-07-17T10:57:30Z</time>
      </trkpt>
      <trkpt lat="44.52354" lon="6.00193">
        <ele>1031</ele>
        <time>2010-07-17T10:57:39Z</time>
      </trkpt>
      <trkpt lat="44.52318" lon="6.00161">
        <ele>1030</ele>
        <time>2010-07-17T10:57:46Z</time>
      </trkpt>
      <trkpt lat="44.5229" lon="6.00126">
        <ele>1029</ele>
        <time>2010-07-17T10:57:53Z</time>
      </trkpt>
      <trkpt lat="44.52275" lon="6.00104">
        <ele>1029</ele>
        <time>2010-07-17T10:58:00Z</time>
      </trkpt>
      <trkpt lat="44.52275" lon="6.00104">
        <ele>1026</ele>
        <time>2010-07-17T10:58:13Z</time>
      </trkpt>
      <trkpt lat="44.52275" lon="6.00107">
        <ele>1026</ele>
        <time>2010-07-17T10:58:42Z</time>
      </trkpt>
      <trkpt lat="44.52272" lon="6.00106">
        <ele>1026</ele>
        <time>2010-07-17T10:58:57Z</time>
      </trkpt>
      <trkpt lat="44.52247" lon="6.00081">
        <ele>1026</ele>
        <time>2010-07-17T10:59:04Z</time>
      </trkpt>
      <trkpt lat="44.52223" lon="6.00056">
        <ele>1025</ele>
        <time>2010-07-17T10:59:12Z</time>
      </trkpt>
      <trkpt lat="44.5219" lon="6.00027">
        <ele>1023</ele>
        <time>2010-07-17T10:59:24Z</time>
      </trkpt>
      <trkpt lat="44.52177" lon="6.00019">
        <ele>1023</ele>
        <time>2010-07-17T10:59:32Z</time>
      </trkpt>
      <trkpt lat="44.52176" lon="6.00016">
        <ele>1023</ele>
        <time>2010-07-17T10:59:42Z</time>
      </trkpt>
      <trkpt lat="44.52177" lon="6.00019">
        <ele>1023</ele>
        <time>2010-07-17T11:00:10Z</time>
      </trkpt>
      <trkpt lat="44.52181" lon="6.00021">
        <ele>1023</ele>
        <time>2010-07-17T11:00:18Z</time>
      </trkpt>
      <trkpt lat="44.522" lon="6.00036">
        <ele>1023</ele>
        <time>2010-07-17T11:00:26Z</time>
      </trkpt>
      <trkpt lat="44.52232" lon="6.00065">
        <ele>1024</ele>
        <time>2010-07-17T11:00:33Z</time>
      </trkpt>
      <trkpt lat="44.52251" lon="6.00084">
        <ele>1026</ele>
        <time>2010-07-17T11:00:40Z</time>
      </trkpt>
      <trkpt lat="44.52268" lon="6.00086">
        <ele>1026</ele>
        <time>2010-07-17T11:00:47Z</time>
      </trkpt>
      <trkpt lat="44.52275" lon="6.00072">
        <ele>1026</ele>
        <time>2010-07-17T11:00:55Z</time>
      </trkpt>
      <trkpt lat="44.52281" lon="6.00054">
        <ele>1026</ele>
        <time>2010-07-17T11:01:02Z</time>
      </trkpt>
      <trkpt lat="44.52287" lon="6.00038">
        <ele>1026</ele>
        <time>2010-07-17T11:01:12Z</time>
      </trkpt>
      <trkpt lat="44.52293" lon="6.00018">
        <ele>1026</ele>
        <time>2010-07-17T11:01:24Z</time>
      </trkpt>
      <trkpt lat="44.52292" lon="6.00018">
        <ele>1026</ele>
        <time>2010-07-17T11:01:37Z</time>
      </trkpt>
      <trkpt lat="44.52284" lon="6.00039">
        <ele>1026</ele>
        <time>2010-07-17T11:01:45Z</time>
      </trkpt>
      <trkpt lat="44.52272" lon="6.00075">
        <ele>1026</ele>
        <time>2010-07-17T11:01:56Z</time>
      </trkpt>
      <trkpt lat="44.52267" lon="6.00088">
        <ele>1026</ele>
        <time>2010-07-17T11:02:06Z</time>
      </trkpt>
      <trkpt lat="44.52269" lon="6.00089">
        <ele>1026</ele>
        <time>2010-07-17T11:02:22Z</time>
      </trkpt>
      <trkpt lat="44.5227" lon="6.00089">
        <ele>1025</ele>
        <time>2010-07-17T11:02:30Z</time>
      </trkpt>
      <trkpt lat="44.52272" lon="6.00088">
        <ele>1023</ele>
        <time>2010-07-17T11:03:05Z</time>
      </trkpt>
      <trkpt lat="44.52272" lon="6.00084">
        <ele>1022</ele>
        <time>2010-07-17T11:03:14Z</time>
      </trkpt>
      <trkpt lat="44.52272" lon="6.00086">
        <ele>1022</ele>
        <time>2010-07-17T11:03:22Z</time>
      </trkpt>
      <trkpt lat="44.52272" lon="6.00089">
        <ele>1022</ele>
        <time>2010-07-17T11:03:31Z</time>
      </trkpt>
      <trkpt lat="44.52273" lon="6.00087">
        <ele>1022</ele>
        <time>2010-07-17T11:03:39Z</time>
      </trkpt>
      <trkpt lat="44.52273" lon="6.00086">
        <ele>1022</ele>
        <time>2010-07-17T11:03:49Z</time>
      </trkpt>
      <trkpt lat="44.52272" lon="6.00082">
        <ele>1024</ele>
        <time>2010-07-17T11:04:06Z</time>
      </trkpt>
      <trkpt lat="44.52271" lon="6.0008">
        <ele>1027</ele>
        <time>2010-07-17T11:04:14Z</time>
      </trkpt>
      <trkpt lat="44.52271" lon="6.00076">
        <ele>1029</ele>
        <time>2010-07-17T11:04:27Z</time>
      </trkpt>
      <trkpt lat="44.52272" lon="6.00078">
        <ele>1030</ele>
        <time>2010-07-17T11:04:49Z</time>
      </trkpt>
      <trkpt lat="44.52273" lon="6.0008">
        <ele>1030</ele>
        <time>2010-07-17T11:04:59Z</time>
      </trkpt>
      <trkpt lat="44.52273" lon="6.00077">
        <ele>1030</ele>
        <time>2010-07-17T11:05:13Z</time>
      </trkpt>
      <trkpt lat="44.52279" lon="6.00063">
        <ele>1030</ele>
        <time>2010-07-17T11:05:21Z</time>
      </trkpt>
      <trkpt lat="44.52289" lon="6.0003">
        <ele>1030</ele>
        <time>2010-07-17T11:05:28Z</time>
      </trkpt>
      <trkpt lat="44.52297" lon="6.00007">
        <ele>1030</ele>
        <time>2010-07-17T11:05:35Z</time>
      </trkpt>
      <trkpt lat="44.52306" lon="5.99985">
        <ele>1030</ele>
        <time>2010-07-17T11:05:42Z</time>
      </trkpt>
      <trkpt lat="44.52318" lon="5.99972">
        <ele>1030</ele>
        <time>2010-07-17T11:05:49Z</time>
      </trkpt>
      <trkpt lat="44.5233" lon="5.99965">
        <ele>1030</ele>
        <time>2010-07-17T11:05:56Z</time>
      </trkpt>
      <trkpt lat="44.52341" lon="5.99958">
        <ele>1031</ele>
        <time>2010-07-17T11:06:03Z</time>
      </trkpt>
      <trkpt lat="44.52351" lon="5.99948">
        <ele>1033</ele>
        <time>2010-07-17T11:06:10Z</time>
      </trkpt>
      <trkpt lat="44.52357" lon="5.99939">
        <ele>1035</ele>
        <time>2010-07-17T11:06:17Z</time>
      </trkpt>
      <trkpt lat="44.52365" lon="5.99929">
        <ele>1037</ele>
        <time>2010-07-17T11:06:24Z</time>
      </trkpt>
      <trkpt lat="44.52372" lon="5.99922">
        <ele>1038</ele>
        <time>2010-07-17T11:06:31Z</time>
      </trkpt>
      <trkpt lat="44.52381" lon="5.9991">
        <ele>1039</ele>
        <time>2010-07-17T11:06:38Z</time>
      </trkpt>
      <trkpt lat="44.52389" lon="5.99898">
        <ele>1039</ele>
        <time>2010-07-17T11:06:45Z</time>
      </trkpt>
      <trkpt lat="44.52396" lon="5.99881">
        <ele>1040</ele>
        <time>2010-07-17T11:06:52Z</time>
      </trkpt>
      <trkpt lat="44.52404" lon="5.99864">
        <ele>1041</ele>
        <time>2010-07-17T11:06:59Z</time>
      </trkpt>
      <trkpt lat="44.52412" lon="5.99848">
        <ele>1042</ele>
        <time>2010-07-17T11:07:06Z</time>
      </trkpt>
      <trkpt lat="44.5242" lon="5.9983">
        <ele>1043</ele>
        <time>2010-07-17T11:07:13Z</time>
      </trkpt>
      <trkpt lat="44.5243" lon="5.99813">
        <ele>1044</ele>
        <time>2010-07-17T11:07:20Z</time>
      </trkpt>
      <trkpt lat="44.52444" lon="5.99793">
        <ele>1044</ele>
        <time>2010-07-17T11:07:27Z</time>
      </trkpt>
      <trkpt lat="44.52458" lon="5.99774">
        <ele>1045</ele>
        <time>2010-07-17T11:07:34Z</time>
      </trkpt>
      <trkpt lat="44.52468" lon="5.99757">
        <ele>1046</ele>
        <time>2010-07-17T11:07:43Z</time>
      </trkpt>
      <trkpt lat="44.52495" lon="5.9971">
        <ele>1046</ele>
        <time>2010-07-17T11:07:53Z</time>
      </trkpt>
      <trkpt lat="44.52538" lon="5.99641">
        <ele>1046</ele>
        <time>2010-07-17T11:08:06Z</time>
      </trkpt>
      <trkpt lat="44.52568" lon="5.99601">
        <ele>1046</ele>
        <time>2010-07-17T11:08:13Z</time>
      </trkpt>
      <trkpt lat="44.52604" lon="5.9958">
        <ele>1046</ele>
        <time>2010-07-17T11:08:20Z</time>
      </trkpt>
      <trkpt lat="44.52629" lon="5.99544">
        <ele>1046</ele>
        <time>2010-07-17T11:08:27Z</time>
      </trkpt>
      <trkpt lat="44.52649" lon="5.99506">
        <ele>1046</ele>
        <time>2010-07-17T11:08:34Z</time>
      </trkpt>
      <trkpt lat="44.52674" lon="5.99465">
        <ele>1046</ele>
        <time>2010-07-17T11:08:41Z</time>
      </trkpt>
      <trkpt lat="44.52695" lon="5.99429">
        <ele>1046</ele>
        <time>2010-07-17T11:08:48Z</time>
      </trkpt>
      <trkpt lat="44.52708" lon="5.99406">
        <ele>1046</ele>
        <time>2010-07-17T11:08:55Z</time>
      </trkpt>
      <trkpt lat="44.52718" lon="5.9939">
        <ele>1046</ele>
        <time>2010-07-17T11:09:02Z</time>
      </trkpt>
      <trkpt lat="44.52729" lon="5.99374">
        <ele>1047</ele>
        <time>2010-07-17T11:09:09Z</time>
      </trkpt>
      <trkpt lat="44.52745" lon="5.99353">
        <ele>1047</ele>
        <time>2010-07-17T11:09:16Z</time>
      </trkpt>
      <trkpt lat="44.52763" lon="5.99328">
        <ele>1047</ele>
        <time>2010-07-17T11:09:23Z</time>
      </trkpt>
      <trkpt lat="44.52781" lon="5.99299">
        <ele>1047</ele>
        <time>2010-07-17T11:09:30Z</time>
      </trkpt>
      <trkpt lat="44.52796" lon="5.99269">
        <ele>1048</ele>
        <time>2010-07-17T11:09:37Z</time>
      </trkpt>
      <trkpt lat="44.52815" lon="5.99239">
        <ele>1049</ele>
        <time>2010-07-17T11:09:44Z</time>
      </trkpt>
      <trkpt lat="44.52837" lon="5.99208">
        <ele>1049</ele>
        <time>2010-07-17T11:09:51Z</time>
      </trkpt>
      <trkpt lat="44.52859" lon="5.99176">
        <ele>1049</ele>
        <time>2010-07-17T11:09:58Z</time>
      </trkpt>
      <trkpt lat="44.52877" lon="5.99141">
        <ele>1049</ele>
        <time>2010-07-17T11:10:05Z</time>
      </trkpt>
      <trkpt lat="44.5289" lon="5.99071">
        <ele>1049</ele>
        <time>2010-07-17T11:10:17Z</time>
      </trkpt>
      <trkpt lat="44.52913" lon="5.99014">
        <ele>1049</ele>
        <time>2010-07-17T11:10:24Z</time>
      </trkpt>
      <trkpt lat="44.52958" lon="5.99001">
        <ele>1049</ele>
        <time>2010-07-17T11:10:32Z</time>
      </trkpt>
      <trkpt lat="44.52988" lon="5.98979">
        <ele>1049</ele>
        <time>2010-07-17T11:10:39Z</time>
      </trkpt>
      <trkpt lat="44.53011" lon="5.98961">
        <ele>1049</ele>
        <time>2010-07-17T11:10:46Z</time>
      </trkpt>
      <trkpt lat="44.53025" lon="5.98949">
        <ele>1049</ele>
        <time>2010-07-17T11:10:54Z</time>
      </trkpt>
      <trkpt lat="44.53036" lon="5.98932">
        <ele>1052</ele>
        <time>2010-07-17T11:11:01Z</time>
      </trkpt>
      <trkpt lat="44.53043" lon="5.98923">
        <ele>1053</ele>
        <time>2010-07-17T11:11:11Z</time>
      </trkpt>
      <trkpt lat="44.53048" lon="5.98915">
        <ele>1054</ele>
        <time>2010-07-17T11:11:19Z</time>
      </trkpt>
      <trkpt lat="44.5305" lon="5.98914">
        <ele>1058</ele>
        <time>2010-07-17T11:11:29Z</time>
      </trkpt>
      <trkpt lat="44.53053" lon="5.98913">
        <ele>1061</ele>
        <time>2010-07-17T11:11:36Z</time>
      </trkpt>
      <trkpt lat="44.53056" lon="5.98909">
        <ele>1061</ele>
        <time>2010-07-17T11:11:44Z</time>
      </trkpt>
      <trkpt lat="44.53062" lon="5.98894">
        <ele>1061</ele>
        <time>2010-07-17T11:11:51Z</time>
      </trkpt>
      <trkpt lat="44.53073" lon="5.98874">
        <ele>1061</ele>
        <time>2010-07-17T11:11:58Z</time>
      </trkpt>
      <trkpt lat="44.53084" lon="5.98853">
        <ele>1061</ele>
        <time>2010-07-17T11:12:06Z</time>
      </trkpt>
      <trkpt lat="44.53088" lon="5.98826">
        <ele>1061</ele>
        <time>2010-07-17T11:12:13Z</time>
      </trkpt>
      <trkpt lat="44.53092" lon="5.98794">
        <ele>1061</ele>
        <time>2010-07-17T11:12:20Z</time>
      </trkpt>
      <trkpt lat="44.53097" lon="5.98755">
        <ele>1061</ele>
        <time>2010-07-17T11:12:27Z</time>
      </trkpt>
      <trkpt lat="44.53096" lon="5.98696">
        <ele>1056</ele>
        <time>2010-07-17T11:12:35Z</time>
      </trkpt>
      <trkpt lat="44.53104" lon="5.98642">
        <ele>1051</ele>
        <time>2010-07-17T11:12:42Z</time>
      </trkpt>
      <trkpt lat="44.53125" lon="5.98603">
        <ele>1049</ele>
        <time>2010-07-17T11:12:49Z</time>
      </trkpt>
      <trkpt lat="44.53138" lon="5.98578">
        <ele>1049</ele>
        <time>2010-07-17T11:12:56Z</time>
      </trkpt>
      <trkpt lat="44.53141" lon="5.98557">
        <ele>1050</ele>
        <time>2010-07-17T11:13:04Z</time>
      </trkpt>
      <trkpt lat="44.53146" lon="5.98534">
        <ele>1053</ele>
        <time>2010-07-17T11:13:11Z</time>
      </trkpt>
      <trkpt lat="44.53154" lon="5.98511">
        <ele>1054</ele>
        <time>2010-07-17T11:13:19Z</time>
      </trkpt>
      <trkpt lat="44.53163" lon="5.98492">
        <ele>1054</ele>
        <time>2010-07-17T11:13:26Z</time>
      </trkpt>
      <trkpt lat="44.53167" lon="5.98469">
        <ele>1054</ele>
        <time>2010-07-17T11:13:34Z</time>
      </trkpt>
      <trkpt lat="44.53173" lon="5.98451">
        <ele>1055</ele>
        <time>2010-07-17T11:13:41Z</time>
      </trkpt>
      <trkpt lat="44.53179" lon="5.98432">
        <ele>1058</ele>
        <time>2010-07-17T11:13:49Z</time>
      </trkpt>
      <trkpt lat="44.53184" lon="5.98414">
        <ele>1063</ele>
        <time>2010-07-17T11:13:56Z</time>
      </trkpt>
      <trkpt lat="44.53185" lon="5.98396">
        <ele>1063</ele>
        <time>2010-07-17T11:14:05Z</time>
      </trkpt>
      <trkpt lat="44.53189" lon="5.98387">
        <ele>1063</ele>
        <time>2010-07-17T11:14:16Z</time>
      </trkpt>
      <trkpt lat="44.53193" lon="5.98361">
        <ele>1064</ele>
        <time>2010-07-17T11:14:24Z</time>
      </trkpt>
      <trkpt lat="44.53191" lon="5.98317">
        <ele>1065</ele>
        <time>2010-07-17T11:14:31Z</time>
      </trkpt>
      <trkpt lat="44.5319" lon="5.98279">
        <ele>1065</ele>
        <time>2010-07-17T11:14:39Z</time>
      </trkpt>
      <trkpt lat="44.53196" lon="5.98231">
        <ele>1066</ele>
        <time>2010-07-17T11:14:51Z</time>
      </trkpt>
      <trkpt lat="44.53196" lon="5.98181">
        <ele>1066</ele>
        <time>2010-07-17T11:14:59Z</time>
      </trkpt>
      <trkpt lat="44.53188" lon="5.98151">
        <ele>1066</ele>
        <time>2010-07-17T11:15:06Z</time>
      </trkpt>
      <trkpt lat="44.53168" lon="5.98125">
        <ele>1067</ele>
        <time>2010-07-17T11:15:21Z</time>
      </trkpt>
      <trkpt lat="44.53159" lon="5.98109">
        <ele>1068</ele>
        <time>2010-07-17T11:15:28Z</time>
      </trkpt>
      <trkpt lat="44.53153" lon="5.98092">
        <ele>1070</ele>
        <time>2010-07-17T11:15:35Z</time>
      </trkpt>
      <trkpt lat="44.53145" lon="5.98073">
        <ele>1071</ele>
        <time>2010-07-17T11:15:42Z</time>
      </trkpt>
      <trkpt lat="44.53132" lon="5.98062">
        <ele>1072</ele>
        <time>2010-07-17T11:15:49Z</time>
      </trkpt>
      <trkpt lat="44.53118" lon="5.98055">
        <ele>1073</ele>
        <time>2010-07-17T11:15:56Z</time>
      </trkpt>
      <trkpt lat="44.5311" lon="5.98041">
        <ele>1076</ele>
        <time>2010-07-17T11:16:04Z</time>
      </trkpt>
      <trkpt lat="44.53103" lon="5.98032">
        <ele>1077</ele>
        <time>2010-07-17T11:16:11Z</time>
      </trkpt>
      <trkpt lat="44.53091" lon="5.98032">
        <ele>1078</ele>
        <time>2010-07-17T11:16:19Z</time>
      </trkpt>
      <trkpt lat="44.53082" lon="5.98035">
        <ele>1079</ele>
        <time>2010-07-17T11:16:26Z</time>
      </trkpt>
      <trkpt lat="44.53073" lon="5.9804">
        <ele>1081</ele>
        <time>2010-07-17T11:16:34Z</time>
      </trkpt>
      <trkpt lat="44.53064" lon="5.98045">
        <ele>1083</ele>
        <time>2010-07-17T11:16:41Z</time>
      </trkpt>
      <trkpt lat="44.53054" lon="5.98041">
        <ele>1084</ele>
        <time>2010-07-17T11:16:49Z</time>
      </trkpt>
      <trkpt lat="44.53056" lon="5.98031">
        <ele>1086</ele>
        <time>2010-07-17T11:16:56Z</time>
      </trkpt>
      <trkpt lat="44.5305" lon="5.98023">
        <ele>1088</ele>
        <time>2010-07-17T11:17:04Z</time>
      </trkpt>
      <trkpt lat="44.53045" lon="5.98015">
        <ele>1090</ele>
        <time>2010-07-17T11:17:11Z</time>
      </trkpt>
      <trkpt lat="44.53035" lon="5.98016">
        <ele>1091</ele>
        <time>2010-07-17T11:17:19Z</time>
      </trkpt>
      <trkpt lat="44.53025" lon="5.98018">
        <ele>1091</ele>
        <time>2010-07-17T11:17:26Z</time>
      </trkpt>
      <trkpt lat="44.53016" lon="5.9802">
        <ele>1094</ele>
        <time>2010-07-17T11:17:34Z</time>
      </trkpt>
      <trkpt lat="44.53006" lon="5.98024">
        <ele>1095</ele>
        <time>2010-07-17T11:17:42Z</time>
      </trkpt>
      <trkpt lat="44.52998" lon="5.98027">
        <ele>1097</ele>
        <time>2010-07-17T11:17:49Z</time>
      </trkpt>
      <trkpt lat="44.5299" lon="5.98029">
        <ele>1100</ele>
        <time>2010-07-17T11:17:56Z</time>
      </trkpt>
      <trkpt lat="44.5298" lon="5.98032">
        <ele>1102</ele>
        <time>2010-07-17T11:18:04Z</time>
      </trkpt>
      <trkpt lat="44.5297" lon="5.98035">
        <ele>1104</ele>
        <time>2010-07-17T11:18:11Z</time>
      </trkpt>
      <trkpt lat="44.5296" lon="5.98042">
        <ele>1108</ele>
        <time>2010-07-17T11:18:19Z</time>
      </trkpt>
      <trkpt lat="44.52951" lon="5.98047">
        <ele>1112</ele>
        <time>2010-07-17T11:18:26Z</time>
      </trkpt>
      <trkpt lat="44.52941" lon="5.98044">
        <ele>1115</ele>
        <time>2010-07-17T11:18:34Z</time>
      </trkpt>
      <trkpt lat="44.52937" lon="5.9803">
        <ele>1115</ele>
        <time>2010-07-17T11:18:41Z</time>
      </trkpt>
      <trkpt lat="44.5293" lon="5.98017">
        <ele>1116</ele>
        <time>2010-07-17T11:18:49Z</time>
      </trkpt>
      <trkpt lat="44.52927" lon="5.98001">
        <ele>1117</ele>
        <time>2010-07-17T11:18:56Z</time>
      </trkpt>
      <trkpt lat="44.52917" lon="5.97986">
        <ele>1118</ele>
        <time>2010-07-17T11:19:04Z</time>
      </trkpt>
      <trkpt lat="44.52904" lon="5.97974">
        <ele>1118</ele>
        <time>2010-07-17T11:19:11Z</time>
      </trkpt>
      <trkpt lat="44.52888" lon="5.97963">
        <ele>1119</ele>
        <time>2010-07-17T11:19:19Z</time>
      </trkpt>
      <trkpt lat="44.52873" lon="5.97953">
        <ele>1119</ele>
        <time>2010-07-17T11:19:26Z</time>
      </trkpt>
      <trkpt lat="44.52863" lon="5.97944">
        <ele>1119</ele>
        <time>2010-07-17T11:19:34Z</time>
      </trkpt>
      <trkpt lat="44.52854" lon="5.97936">
        <ele>1119</ele>
        <time>2010-07-17T11:19:41Z</time>
      </trkpt>
      <trkpt lat="44.52843" lon="5.97933">
        <ele>1120</ele>
        <time>2010-07-17T11:19:49Z</time>
      </trkpt>
      <trkpt lat="44.52835" lon="5.97928">
        <ele>1122</ele>
        <time>2010-07-17T11:19:56Z</time>
      </trkpt>
      <trkpt lat="44.52825" lon="5.97924">
        <ele>1126</ele>
        <time>2010-07-17T11:20:04Z</time>
      </trkpt>
      <trkpt lat="44.52814" lon="5.9792">
        <ele>1127</ele>
        <time>2010-07-17T11:20:11Z</time>
      </trkpt>
      <trkpt lat="44.52802" lon="5.9792">
        <ele>1128</ele>
        <time>2010-07-17T11:20:19Z</time>
      </trkpt>
      <trkpt lat="44.52792" lon="5.97921">
        <ele>1129</ele>
        <time>2010-07-17T11:20:26Z</time>
      </trkpt>
      <trkpt lat="44.52781" lon="5.97922">
        <ele>1131</ele>
        <time>2010-07-17T11:20:34Z</time>
      </trkpt>
      <trkpt lat="44.52775" lon="5.97915">
        <ele>1133</ele>
        <time>2010-07-17T11:20:41Z</time>
      </trkpt>
      <trkpt lat="44.52773" lon="5.97902">
        <ele>1134</ele>
        <time>2010-07-17T11:20:49Z</time>
      </trkpt>
      <trkpt lat="44.5277" lon="5.9789">
        <ele>1135</ele>
        <time>2010-07-17T11:20:57Z</time>
      </trkpt>
      <trkpt lat="44.52762" lon="5.97883">
        <ele>1138</ele>
        <time>2010-07-17T11:21:05Z</time>
      </trkpt>
      <trkpt lat="44.52758" lon="5.97875">
        <ele>1140</ele>
        <time>2010-07-17T11:21:12Z</time>
      </trkpt>
      <trkpt lat="44.52753" lon="5.97867">
        <ele>1142</ele>
        <time>2010-07-17T11:21:19Z</time>
      </trkpt>
      <trkpt lat="44.52743" lon="5.97858">
        <ele>1143</ele>
        <time>2010-07-17T11:21:26Z</time>
      </trkpt>
      <trkpt lat="44.52727" lon="5.97858">
        <ele>1144</ele>
        <time>2010-07-17T11:21:34Z</time>
      </trkpt>
      <trkpt lat="44.52717" lon="5.97856">
        <ele>1144</ele>
        <time>2010-07-17T11:21:41Z</time>
      </trkpt>
      <trkpt lat="44.52707" lon="5.97847">
        <ele>1144</ele>
        <time>2010-07-17T11:21:49Z</time>
      </trkpt>
      <trkpt lat="44.52697" lon="5.97846">
        <ele>1146</ele>
        <time>2010-07-17T11:21:56Z</time>
      </trkpt>
      <trkpt lat="44.52686" lon="5.97851">
        <ele>1150</ele>
        <time>2010-07-17T11:22:04Z</time>
      </trkpt>
      <trkpt lat="44.52676" lon="5.97857">
        <ele>1154</ele>
        <time>2010-07-17T11:22:11Z</time>
      </trkpt>
      <trkpt lat="44.52667" lon="5.97859">
        <ele>1157</ele>
        <time>2010-07-17T11:22:19Z</time>
      </trkpt>
      <trkpt lat="44.52655" lon="5.97859">
        <ele>1158</ele>
        <time>2010-07-17T11:22:26Z</time>
      </trkpt>
      <trkpt lat="44.52642" lon="5.97857">
        <ele>1158</ele>
        <time>2010-07-17T11:22:34Z</time>
      </trkpt>
      <trkpt lat="44.52631" lon="5.97857">
        <ele>1159</ele>
        <time>2010-07-17T11:22:41Z</time>
      </trkpt>
      <trkpt lat="44.5262" lon="5.97855">
        <ele>1163</ele>
        <time>2010-07-17T11:22:50Z</time>
      </trkpt>
      <trkpt lat="44.52618" lon="5.97856">
        <ele>1166</ele>
        <time>2010-07-17T11:23:00Z</time>
      </trkpt>
      <trkpt lat="44.52613" lon="5.97853">
        <ele>1167</ele>
        <time>2010-07-17T11:23:07Z</time>
      </trkpt>
      <trkpt lat="44.5261" lon="5.97854">
        <ele>1169</ele>
        <time>2010-07-17T11:23:14Z</time>
      </trkpt>
      <trkpt lat="44.52604" lon="5.97852">
        <ele>1171</ele>
        <time>2010-07-17T11:23:21Z</time>
      </trkpt>
      <trkpt lat="44.52601" lon="5.97852">
        <ele>1172</ele>
        <time>2010-07-17T11:23:35Z</time>
      </trkpt>
      <trkpt lat="44.52602" lon="5.97851">
        <ele>1174</ele>
        <time>2010-07-17T11:23:46Z</time>
      </trkpt>
      <trkpt lat="44.52599" lon="5.97847">
        <ele>1174</ele>
        <time>2010-07-17T11:23:55Z</time>
      </trkpt>
      <trkpt lat="44.52594" lon="5.97842">
        <ele>1174</ele>
        <time>2010-07-17T11:24:04Z</time>
      </trkpt>
      <trkpt lat="44.52586" lon="5.9784">
        <ele>1174</ele>
        <time>2010-07-17T11:24:11Z</time>
      </trkpt>
      <trkpt lat="44.52578" lon="5.97837">
        <ele>1174</ele>
        <time>2010-07-17T11:24:20Z</time>
      </trkpt>
      <trkpt lat="44.5257" lon="5.97838">
        <ele>1176</ele>
        <time>2010-07-17T11:24:27Z</time>
      </trkpt>
      <trkpt lat="44.52565" lon="5.97839">
        <ele>1181</ele>
        <time>2010-07-17T11:24:36Z</time>
      </trkpt>
      <trkpt lat="44.52559" lon="5.97838">
        <ele>1185</ele>
        <time>2010-07-17T11:24:44Z</time>
      </trkpt>
      <trkpt lat="44.52552" lon="5.9784">
        <ele>1185</ele>
        <time>2010-07-17T11:24:51Z</time>
      </trkpt>
      <trkpt lat="44.52543" lon="5.97842">
        <ele>1187</ele>
        <time>2010-07-17T11:24:59Z</time>
      </trkpt>
      <trkpt lat="44.52534" lon="5.97842">
        <ele>1187</ele>
        <time>2010-07-17T11:25:06Z</time>
      </trkpt>
      <trkpt lat="44.52523" lon="5.97846">
        <ele>1187</ele>
        <time>2010-07-17T11:25:14Z</time>
      </trkpt>
      <trkpt lat="44.52515" lon="5.97847">
        <ele>1189</ele>
        <time>2010-07-17T11:25:21Z</time>
      </trkpt>
      <trkpt lat="44.52513" lon="5.9784">
        <ele>1191</ele>
        <time>2010-07-17T11:25:29Z</time>
      </trkpt>
      <trkpt lat="44.5251" lon="5.9783">
        <ele>1192</ele>
        <time>2010-07-17T11:25:36Z</time>
      </trkpt>
      <trkpt lat="44.52501" lon="5.97823">
        <ele>1193</ele>
        <time>2010-07-17T11:25:44Z</time>
      </trkpt>
      <trkpt lat="44.52494" lon="5.97826">
        <ele>1193</ele>
        <time>2010-07-17T11:25:51Z</time>
      </trkpt>
      <trkpt lat="44.52485" lon="5.97832">
        <ele>1193</ele>
        <time>2010-07-17T11:25:59Z</time>
      </trkpt>
      <trkpt lat="44.52478" lon="5.97836">
        <ele>1193</ele>
        <time>2010-07-17T11:26:06Z</time>
      </trkpt>
      <trkpt lat="44.5247" lon="5.9784">
        <ele>1194</ele>
        <time>2010-07-17T11:26:14Z</time>
      </trkpt>
      <trkpt lat="44.52462" lon="5.9784">
        <ele>1197</ele>
        <time>2010-07-17T11:26:22Z</time>
      </trkpt>
      <trkpt lat="44.52451" lon="5.9784">
        <ele>1199</ele>
        <time>2010-07-17T11:26:30Z</time>
      </trkpt>
      <trkpt lat="44.52443" lon="5.97842">
        <ele>1199</ele>
        <time>2010-07-17T11:26:37Z</time>
      </trkpt>
      <trkpt lat="44.52434" lon="5.97845">
        <ele>1199</ele>
        <time>2010-07-17T11:26:44Z</time>
      </trkpt>
      <trkpt lat="44.52426" lon="5.97848">
        <ele>1201</ele>
        <time>2010-07-17T11:26:51Z</time>
      </trkpt>
      <trkpt lat="44.5242" lon="5.97857">
        <ele>1204</ele>
        <time>2010-07-17T11:27:00Z</time>
      </trkpt>
      <trkpt lat="44.52414" lon="5.97866">
        <ele>1207</ele>
        <time>2010-07-17T11:27:08Z</time>
      </trkpt>
      <trkpt lat="44.52411" lon="5.97874">
        <ele>1209</ele>
        <time>2010-07-17T11:27:16Z</time>
      </trkpt>
      <trkpt lat="44.52401" lon="5.97877">
        <ele>1210</ele>
        <time>2010-07-17T11:27:24Z</time>
      </trkpt>
      <trkpt lat="44.52392" lon="5.97878">
        <ele>1212</ele>
        <time>2010-07-17T11:27:31Z</time>
      </trkpt>
      <trkpt lat="44.52383" lon="5.97878">
        <ele>1214</ele>
        <time>2010-07-17T11:27:39Z</time>
      </trkpt>
      <trkpt lat="44.52375" lon="5.97878">
        <ele>1215</ele>
        <time>2010-07-17T11:27:46Z</time>
      </trkpt>
      <trkpt lat="44.52366" lon="5.97877">
        <ele>1216</ele>
        <time>2010-07-17T11:27:55Z</time>
      </trkpt>
      <trkpt lat="44.5236" lon="5.97879">
        <ele>1218</ele>
        <time>2010-07-17T11:28:03Z</time>
      </trkpt>
      <trkpt lat="44.52353" lon="5.97881">
        <ele>1220</ele>
        <time>2010-07-17T11:28:10Z</time>
      </trkpt>
      <trkpt lat="44.52345" lon="5.97887">
        <ele>1222</ele>
        <time>2010-07-17T11:28:18Z</time>
      </trkpt>
      <trkpt lat="44.52335" lon="5.97887">
        <ele>1223</ele>
        <time>2010-07-17T11:28:25Z</time>
      </trkpt>
      <trkpt lat="44.52326" lon="5.97887">
        <ele>1225</ele>
        <time>2010-07-17T11:28:32Z</time>
      </trkpt>
      <trkpt lat="44.52317" lon="5.97886">
        <ele>1227</ele>
        <time>2010-07-17T11:28:40Z</time>
      </trkpt>
      <trkpt lat="44.52312" lon="5.97883">
        <ele>1227</ele>
        <time>2010-07-17T11:28:48Z</time>
      </trkpt>
      <trkpt lat="44.52304" lon="5.97878">
        <ele>1229</ele>
        <time>2010-07-17T11:28:56Z</time>
      </trkpt>
      <trkpt lat="44.52294" lon="5.97874">
        <ele>1229</ele>
        <time>2010-07-17T11:29:04Z</time>
      </trkpt>
      <trkpt lat="44.52285" lon="5.97865">
        <ele>1229</ele>
        <time>2010-07-17T11:29:12Z</time>
      </trkpt>
      <trkpt lat="44.52277" lon="5.97862">
        <ele>1231</ele>
        <time>2010-07-17T11:29:20Z</time>
      </trkpt>
      <trkpt lat="44.52267" lon="5.97861">
        <ele>1232</ele>
        <time>2010-07-17T11:29:27Z</time>
      </trkpt>
      <trkpt lat="44.52258" lon="5.9786">
        <ele>1234</ele>
        <time>2010-07-17T11:29:34Z</time>
      </trkpt>
      <trkpt lat="44.52253" lon="5.97865">
        <ele>1234</ele>
        <time>2010-07-17T11:29:41Z</time>
      </trkpt>
      <trkpt lat="44.52243" lon="5.97864">
        <ele>1235</ele>
        <time>2010-07-17T11:29:49Z</time>
      </trkpt>
      <trkpt lat="44.52235" lon="5.97863">
        <ele>1238</ele>
        <time>2010-07-17T11:29:56Z</time>
      </trkpt>
      <trkpt lat="44.52228" lon="5.97875">
        <ele>1238</ele>
        <time>2010-07-17T11:30:04Z</time>
      </trkpt>
      <trkpt lat="44.52221" lon="5.97874">
        <ele>1240</ele>
        <time>2010-07-17T11:30:11Z</time>
      </trkpt>
      <trkpt lat="44.52224" lon="5.97861">
        <ele>1243</ele>
        <time>2010-07-17T11:30:19Z</time>
      </trkpt>
      <trkpt lat="44.52228" lon="5.97847">
        <ele>1243</ele>
        <time>2010-07-17T11:30:26Z</time>
      </trkpt>
      <trkpt lat="44.52233" lon="5.97831">
        <ele>1243</ele>
        <time>2010-07-17T11:30:34Z</time>
      </trkpt>
      <trkpt lat="44.52243" lon="5.97823">
        <ele>1243</ele>
        <time>2010-07-17T11:30:41Z</time>
      </trkpt>
      <trkpt lat="44.52246" lon="5.9781">
        <ele>1243</ele>
        <time>2010-07-17T11:30:49Z</time>
      </trkpt>
      <trkpt lat="44.52244" lon="5.97798">
        <ele>1243</ele>
        <time>2010-07-17T11:30:56Z</time>
      </trkpt>
      <trkpt lat="44.52241" lon="5.97784">
        <ele>1243</ele>
        <time>2010-07-17T11:31:04Z</time>
      </trkpt>
      <trkpt lat="44.5224" lon="5.9777">
        <ele>1244</ele>
        <time>2010-07-17T11:31:11Z</time>
      </trkpt>
      <trkpt lat="44.52242" lon="5.97771">
        <ele>1249</ele>
        <time>2010-07-17T11:31:19Z</time>
      </trkpt>
      <trkpt lat="44.52247" lon="5.97775">
        <ele>1256</ele>
        <time>2010-07-17T11:31:26Z</time>
      </trkpt>
      <trkpt lat="44.52247" lon="5.97772">
        <ele>1269</ele>
        <time>2010-07-17T11:31:39Z</time>
      </trkpt>
      <trkpt lat="44.52248" lon="5.97772">
        <ele>1271</ele>
        <time>2010-07-17T11:31:49Z</time>
      </trkpt>
      <trkpt lat="44.52241" lon="5.97775">
        <ele>1271</ele>
        <time>2010-07-17T11:31:57Z</time>
      </trkpt>
      <trkpt lat="44.52231" lon="5.97782">
        <ele>1271</ele>
        <time>2010-07-17T11:32:04Z</time>
      </trkpt>
      <trkpt lat="44.5222" lon="5.97789">
        <ele>1270</ele>
        <time>2010-07-17T11:32:11Z</time>
      </trkpt>
      <trkpt lat="44.52197" lon="5.978">
        <ele>1270</ele>
        <time>2010-07-17T11:32:23Z</time>
      </trkpt>
      <trkpt lat="44.52191" lon="5.978">
        <ele>1270</ele>
        <time>2010-07-17T11:32:31Z</time>
      </trkpt>
      <trkpt lat="44.52167" lon="5.97804">
        <ele>1267</ele>
        <time>2010-07-17T11:32:38Z</time>
      </trkpt>
      <trkpt lat="44.52151" lon="5.97809">
        <ele>1265</ele>
        <time>2010-07-17T11:32:45Z</time>
      </trkpt>
      <trkpt lat="44.52132" lon="5.97807">
        <ele>1265</ele>
        <time>2010-07-17T11:32:52Z</time>
      </trkpt>
      <trkpt lat="44.52114" lon="5.97807">
        <ele>1265</ele>
        <time>2010-07-17T11:32:59Z</time>
      </trkpt>
      <trkpt lat="44.52094" lon="5.97807">
        <ele>1267</ele>
        <time>2010-07-17T11:33:06Z</time>
      </trkpt>
      <trkpt lat="44.52074" lon="5.97804">
        <ele>1268</ele>
        <time>2010-07-17T11:33:14Z</time>
      </trkpt>
      <trkpt lat="44.52056" lon="5.97794">
        <ele>1269</ele>
        <time>2010-07-17T11:33:35Z</time>
      </trkpt>
      <trkpt lat="44.52038" lon="5.97792">
        <ele>1269</ele>
        <time>2010-07-17T11:33:42Z</time>
      </trkpt>
      <trkpt lat="44.52021" lon="5.9779">
        <ele>1269</ele>
        <time>2010-07-17T11:33:49Z</time>
      </trkpt>
      <trkpt lat="44.52007" lon="5.97784">
        <ele>1270</ele>
        <time>2010-07-17T11:33:56Z</time>
      </trkpt>
      <trkpt lat="44.51985" lon="5.97788">
        <ele>1271</ele>
        <time>2010-07-17T11:34:04Z</time>
      </trkpt>
      <trkpt lat="44.51964" lon="5.97794">
        <ele>1272</ele>
        <time>2010-07-17T11:34:11Z</time>
      </trkpt>
      <trkpt lat="44.51951" lon="5.97789">
        <ele>1275</ele>
        <time>2010-07-17T11:34:19Z</time>
      </trkpt>
      <trkpt lat="44.51932" lon="5.9778">
        <ele>1275</ele>
        <time>2010-07-17T11:34:26Z</time>
      </trkpt>
      <trkpt lat="44.51912" lon="5.97783">
        <ele>1276</ele>
        <time>2010-07-17T11:34:34Z</time>
      </trkpt>
      <trkpt lat="44.51896" lon="5.97774">
        <ele>1278</ele>
        <time>2010-07-17T11:34:41Z</time>
      </trkpt>
      <trkpt lat="44.51886" lon="5.97749">
        <ele>1279</ele>
        <time>2010-07-17T11:34:49Z</time>
      </trkpt>
      <trkpt lat="44.51871" lon="5.97741">
        <ele>1279</ele>
        <time>2010-07-17T11:34:56Z</time>
      </trkpt>
      <trkpt lat="44.51854" lon="5.97738">
        <ele>1279</ele>
        <time>2010-07-17T11:35:04Z</time>
      </trkpt>
      <trkpt lat="44.51838" lon="5.97733">
        <ele>1281</ele>
        <time>2010-07-17T11:35:11Z</time>
      </trkpt>
      <trkpt lat="44.51822" lon="5.97731">
        <ele>1283</ele>
        <time>2010-07-17T11:35:19Z</time>
      </trkpt>
      <trkpt lat="44.51812" lon="5.97729">
        <ele>1287</ele>
        <time>2010-07-17T11:35:26Z</time>
      </trkpt>
      <trkpt lat="44.51797" lon="5.97719">
        <ele>1287</ele>
        <time>2010-07-17T11:35:34Z</time>
      </trkpt>
      <trkpt lat="44.51788" lon="5.97703">
        <ele>1287</ele>
        <time>2010-07-17T11:35:41Z</time>
      </trkpt>
      <trkpt lat="44.51788" lon="5.97681">
        <ele>1287</ele>
        <time>2010-07-17T11:35:49Z</time>
      </trkpt>
      <trkpt lat="44.51794" lon="5.97661">
        <ele>1287</ele>
        <time>2010-07-17T11:35:56Z</time>
      </trkpt>
      <trkpt lat="44.51801" lon="5.97632">
        <ele>1287</ele>
        <time>2010-07-17T11:36:04Z</time>
      </trkpt>
      <trkpt lat="44.51814" lon="5.97609">
        <ele>1287</ele>
        <time>2010-07-17T11:36:11Z</time>
      </trkpt>
      <trkpt lat="44.51831" lon="5.97576">
        <ele>1287</ele>
        <time>2010-07-17T11:36:19Z</time>
      </trkpt>
      <trkpt lat="44.51831" lon="5.97539">
        <ele>1287</ele>
        <time>2010-07-17T11:36:26Z</time>
      </trkpt>
      <trkpt lat="44.51819" lon="5.97503">
        <ele>1287</ele>
        <time>2010-07-17T11:36:34Z</time>
      </trkpt>
      <trkpt lat="44.51801" lon="5.97478">
        <ele>1287</ele>
        <time>2010-07-17T11:36:41Z</time>
      </trkpt>
      <trkpt lat="44.5178" lon="5.97458">
        <ele>1288</ele>
        <time>2010-07-17T11:36:49Z</time>
      </trkpt>
      <trkpt lat="44.51759" lon="5.9744">
        <ele>1289</ele>
        <time>2010-07-17T11:36:56Z</time>
      </trkpt>
      <trkpt lat="44.51743" lon="5.9743">
        <ele>1290</ele>
        <time>2010-07-17T11:37:03Z</time>
      </trkpt>
      <trkpt lat="44.51722" lon="5.97451">
        <ele>1291</ele>
        <time>2010-07-17T11:37:10Z</time>
      </trkpt>
      <trkpt lat="44.51706" lon="5.97476">
        <ele>1295</ele>
        <time>2010-07-17T11:37:17Z</time>
      </trkpt>
      <trkpt lat="44.51681" lon="5.9749">
        <ele>1301</ele>
        <time>2010-07-17T11:37:24Z</time>
      </trkpt>
      <trkpt lat="44.51651" lon="5.97467">
        <ele>1302</ele>
        <time>2010-07-17T11:37:31Z</time>
      </trkpt>
      <trkpt lat="44.51616" lon="5.97465">
        <ele>1302</ele>
        <time>2010-07-17T11:37:39Z</time>
      </trkpt>
      <trkpt lat="44.51581" lon="5.97466">
        <ele>1302</ele>
        <time>2010-07-17T11:37:46Z</time>
      </trkpt>
      <trkpt lat="44.51546" lon="5.9747">
        <ele>1302</ele>
        <time>2010-07-17T11:37:54Z</time>
      </trkpt>
      <trkpt lat="44.51513" lon="5.9747">
        <ele>1302</ele>
        <time>2010-07-17T11:38:01Z</time>
      </trkpt>
      <trkpt lat="44.51479" lon="5.97483">
        <ele>1302</ele>
        <time>2010-07-17T11:38:09Z</time>
      </trkpt>
      <trkpt lat="44.51441" lon="5.97499">
        <ele>1302</ele>
        <time>2010-07-17T11:38:16Z</time>
      </trkpt>
      <trkpt lat="44.51405" lon="5.975">
        <ele>1302</ele>
        <time>2010-07-17T11:38:23Z</time>
      </trkpt>
      <trkpt lat="44.51373" lon="5.97507">
        <ele>1301</ele>
        <time>2010-07-17T11:38:30Z</time>
      </trkpt>
      <trkpt lat="44.51345" lon="5.97525">
        <ele>1301</ele>
        <time>2010-07-17T11:38:37Z</time>
      </trkpt>
      <trkpt lat="44.51313" lon="5.97544">
        <ele>1301</ele>
        <time>2010-07-17T11:38:44Z</time>
      </trkpt>
      <trkpt lat="44.51281" lon="5.97565">
        <ele>1301</ele>
        <time>2010-07-17T11:38:51Z</time>
      </trkpt>
      <trkpt lat="44.5124" lon="5.97581">
        <ele>1302</ele>
        <time>2010-07-17T11:38:59Z</time>
      </trkpt>
      <trkpt lat="44.51204" lon="5.97595">
        <ele>1302</ele>
        <time>2010-07-17T11:39:06Z</time>
      </trkpt>
      <trkpt lat="44.51164" lon="5.97587">
        <ele>1304</ele>
        <time>2010-07-17T11:39:14Z</time>
      </trkpt>
      <trkpt lat="44.51147" lon="5.97551">
        <ele>1304</ele>
        <time>2010-07-17T11:39:21Z</time>
      </trkpt>
      <trkpt lat="44.51126" lon="5.97529">
        <ele>1304</ele>
        <time>2010-07-17T11:39:28Z</time>
      </trkpt>
      <trkpt lat="44.51102" lon="5.97523">
        <ele>1304</ele>
        <time>2010-07-17T11:39:35Z</time>
      </trkpt>
      <trkpt lat="44.51078" lon="5.97521">
        <ele>1305</ele>
        <time>2010-07-17T11:39:42Z</time>
      </trkpt>
      <trkpt lat="44.51043" lon="5.97524">
        <ele>1306</ele>
        <time>2010-07-17T11:39:49Z</time>
      </trkpt>
      <trkpt lat="44.51009" lon="5.97526">
        <ele>1306</ele>
        <time>2010-07-17T11:39:56Z</time>
      </trkpt>
      <trkpt lat="44.50974" lon="5.97538">
        <ele>1306</ele>
        <time>2010-07-17T11:40:04Z</time>
      </trkpt>
      <trkpt lat="44.50938" lon="5.9756">
        <ele>1306</ele>
        <time>2010-07-17T11:40:11Z</time>
      </trkpt>
      <trkpt lat="44.50906" lon="5.97597">
        <ele>1305</ele>
        <time>2010-07-17T11:40:18Z</time>
      </trkpt>
      <trkpt lat="44.50861" lon="5.97608">
        <ele>1305</ele>
        <time>2010-07-17T11:40:25Z</time>
      </trkpt>
      <trkpt lat="44.5083" lon="5.97582">
        <ele>1305</ele>
        <time>2010-07-17T11:40:32Z</time>
      </trkpt>
      <trkpt lat="44.50794" lon="5.97558">
        <ele>1305</ele>
        <time>2010-07-17T11:40:39Z</time>
      </trkpt>
      <trkpt lat="44.50756" lon="5.9755">
        <ele>1305</ele>
        <time>2010-07-17T11:40:46Z</time>
      </trkpt>
      <trkpt lat="44.50724" lon="5.97552">
        <ele>1305</ele>
        <time>2010-07-17T11:40:53Z</time>
      </trkpt>
      <trkpt lat="44.50697" lon="5.97536">
        <ele>1305</ele>
        <time>2010-07-17T11:41:00Z</time>
      </trkpt>
      <trkpt lat="44.5066" lon="5.97533">
        <ele>1305</ele>
        <time>2010-07-17T11:41:07Z</time>
      </trkpt>
      <trkpt lat="44.50625" lon="5.97545">
        <ele>1305</ele>
        <time>2010-07-17T11:41:14Z</time>
      </trkpt>
      <trkpt lat="44.50599" lon="5.97552">
        <ele>1308</ele>
        <time>2010-07-17T11:41:21Z</time>
      </trkpt>
      <trkpt lat="44.50563" lon="5.97546">
        <ele>1309</ele>
        <time>2010-07-17T11:41:28Z</time>
      </trkpt>
      <trkpt lat="44.50527" lon="5.97528">
        <ele>1309</ele>
        <time>2010-07-17T11:41:35Z</time>
      </trkpt>
      <trkpt lat="44.50502" lon="5.97488">
        <ele>1309</ele>
        <time>2010-07-17T11:41:42Z</time>
      </trkpt>
      <trkpt lat="44.50476" lon="5.97451">
        <ele>1309</ele>
        <time>2010-07-17T11:41:49Z</time>
      </trkpt>
      <trkpt lat="44.50445" lon="5.97413">
        <ele>1309</ele>
        <time>2010-07-17T11:41:56Z</time>
      </trkpt>
      <trkpt lat="44.5041" lon="5.97375">
        <ele>1307</ele>
        <time>2010-07-17T11:42:03Z</time>
      </trkpt>
      <trkpt lat="44.50377" lon="5.97356">
        <ele>1307</ele>
        <time>2010-07-17T11:42:10Z</time>
      </trkpt>
      <trkpt lat="44.50343" lon="5.97341">
        <ele>1307</ele>
        <time>2010-07-17T11:42:17Z</time>
      </trkpt>
      <trkpt lat="44.50312" lon="5.97333">
        <ele>1307</ele>
        <time>2010-07-17T11:42:24Z</time>
      </trkpt>
      <trkpt lat="44.50278" lon="5.97329">
        <ele>1307</ele>
        <time>2010-07-17T11:42:31Z</time>
      </trkpt>
      <trkpt lat="44.50246" lon="5.97325">
        <ele>1307</ele>
        <time>2010-07-17T11:42:38Z</time>
      </trkpt>
      <trkpt lat="44.50218" lon="5.97324">
        <ele>1307</ele>
        <time>2010-07-17T11:42:45Z</time>
      </trkpt>
      <trkpt lat="44.50185" lon="5.97331">
        <ele>1311</ele>
        <time>2010-07-17T11:42:52Z</time>
      </trkpt>
      <trkpt lat="44.50152" lon="5.97325">
        <ele>1311</ele>
        <time>2010-07-17T11:42:59Z</time>
      </trkpt>
      <trkpt lat="44.5013" lon="5.97294">
        <ele>1311</ele>
        <time>2010-07-17T11:43:06Z</time>
      </trkpt>
      <trkpt lat="44.50107" lon="5.97264">
        <ele>1311</ele>
        <time>2010-07-17T11:43:13Z</time>
      </trkpt>
      <trkpt lat="44.50079" lon="5.97241">
        <ele>1311</ele>
        <time>2010-07-17T11:43:20Z</time>
      </trkpt>
      <trkpt lat="44.50052" lon="5.97222">
        <ele>1311</ele>
        <time>2010-07-17T11:43:27Z</time>
      </trkpt>
      <trkpt lat="44.50021" lon="5.97201">
        <ele>1310</ele>
        <time>2010-07-17T11:43:34Z</time>
      </trkpt>
      <trkpt lat="44.49983" lon="5.97182">
        <ele>1308</ele>
        <time>2010-07-17T11:43:41Z</time>
      </trkpt>
      <trkpt lat="44.49946" lon="5.97166">
        <ele>1308</ele>
        <time>2010-07-17T11:43:48Z</time>
      </trkpt>
      <trkpt lat="44.4991" lon="5.97149">
        <ele>1308</ele>
        <time>2010-07-17T11:43:55Z</time>
      </trkpt>
      <trkpt lat="44.49873" lon="5.97128">
        <ele>1307</ele>
        <time>2010-07-17T11:44:02Z</time>
      </trkpt>
      <trkpt lat="44.49849" lon="5.971">
        <ele>1305</ele>
        <time>2010-07-17T11:44:09Z</time>
      </trkpt>
      <trkpt lat="44.49836" lon="5.97067">
        <ele>1305</ele>
        <time>2010-07-17T11:44:16Z</time>
      </trkpt>
      <trkpt lat="44.49828" lon="5.97029">
        <ele>1305</ele>
        <time>2010-07-17T11:44:23Z</time>
      </trkpt>
      <trkpt lat="44.49823" lon="5.97006">
        <ele>1305</ele>
        <time>2010-07-17T11:44:30Z</time>
      </trkpt>
      <trkpt lat="44.49815" lon="5.9698">
        <ele>1305</ele>
        <time>2010-07-17T11:44:37Z</time>
      </trkpt>
      <trkpt lat="44.49804" lon="5.96957">
        <ele>1305</ele>
        <time>2010-07-17T11:44:44Z</time>
      </trkpt>
      <trkpt lat="44.49797" lon="5.96938">
        <ele>1306</ele>
        <time>2010-07-17T11:44:51Z</time>
      </trkpt>
      <trkpt lat="44.49789" lon="5.96917">
        <ele>1309</ele>
        <time>2010-07-17T11:44:58Z</time>
      </trkpt>
      <trkpt lat="44.49778" lon="5.96897">
        <ele>1310</ele>
        <time>2010-07-17T11:45:05Z</time>
      </trkpt>
      <trkpt lat="44.49768" lon="5.96878">
        <ele>1311</ele>
        <time>2010-07-17T11:45:12Z</time>
      </trkpt>
      <trkpt lat="44.49756" lon="5.96858">
        <ele>1311</ele>
        <time>2010-07-17T11:45:19Z</time>
      </trkpt>
      <trkpt lat="44.49742" lon="5.96844">
        <ele>1312</ele>
        <time>2010-07-17T11:45:26Z</time>
      </trkpt>
      <trkpt lat="44.49722" lon="5.96835">
        <ele>1312</ele>
        <time>2010-07-17T11:45:33Z</time>
      </trkpt>
      <trkpt lat="44.49699" lon="5.96832">
        <ele>1312</ele>
        <time>2010-07-17T11:45:40Z</time>
      </trkpt>
      <trkpt lat="44.49673" lon="5.96829">
        <ele>1317</ele>
        <time>2010-07-17T11:45:47Z</time>
      </trkpt>
      <trkpt lat="44.49642" lon="5.96813">
        <ele>1317</ele>
        <time>2010-07-17T11:45:54Z</time>
      </trkpt>
      <trkpt lat="44.49613" lon="5.96787">
        <ele>1317</ele>
        <time>2010-07-17T11:46:01Z</time>
      </trkpt>
      <trkpt lat="44.49576" lon="5.96761">
        <ele>1317</ele>
        <time>2010-07-17T11:46:08Z</time>
      </trkpt>
      <trkpt lat="44.49543" lon="5.96752">
        <ele>1318</ele>
        <time>2010-07-17T11:46:15Z</time>
      </trkpt>
      <trkpt lat="44.49516" lon="5.96735">
        <ele>1325</ele>
        <time>2010-07-17T11:46:22Z</time>
      </trkpt>
      <trkpt lat="44.49507" lon="5.9672">
        <ele>1327</ele>
        <time>2010-07-17T11:46:30Z</time>
      </trkpt>
      <trkpt lat="44.49491" lon="5.96706">
        <ele>1328</ele>
        <time>2010-07-17T11:46:37Z</time>
      </trkpt>
      <trkpt lat="44.49477" lon="5.96696">
        <ele>1331</ele>
        <time>2010-07-17T11:46:44Z</time>
      </trkpt>
      <trkpt lat="44.49467" lon="5.96685">
        <ele>1331</ele>
        <time>2010-07-17T11:46:51Z</time>
      </trkpt>
      <trkpt lat="44.49454" lon="5.96668">
        <ele>1331</ele>
        <time>2010-07-17T11:46:58Z</time>
      </trkpt>
      <trkpt lat="44.49447" lon="5.96652">
        <ele>1330</ele>
        <time>2010-07-17T11:47:05Z</time>
      </trkpt>
      <trkpt lat="44.49438" lon="5.9664">
        <ele>1330</ele>
        <time>2010-07-17T11:47:12Z</time>
      </trkpt>
      <trkpt lat="44.49433" lon="5.96628">
        <ele>1330</ele>
        <time>2010-07-17T11:47:19Z</time>
      </trkpt>
      <trkpt lat="44.49426" lon="5.96613">
        <ele>1330</ele>
        <time>2010-07-17T11:47:26Z</time>
      </trkpt>
      <trkpt lat="44.49424" lon="5.96601">
        <ele>1330</ele>
        <time>2010-07-17T11:47:35Z</time>
      </trkpt>
      <trkpt lat="44.49423" lon="5.96598">
        <ele>1328</ele>
        <time>2010-07-17T11:47:47Z</time>
      </trkpt>
      <trkpt lat="44.49422" lon="5.96597">
        <ele>1327</ele>
        <time>2010-07-17T11:47:56Z</time>
      </trkpt>
      <trkpt lat="44.49421" lon="5.96595">
        <ele>1327</ele>
        <time>2010-07-17T11:48:08Z</time>
      </trkpt>
      <trkpt lat="44.4942" lon="5.96594">
        <ele>1325</ele>
        <time>2010-07-17T11:48:27Z</time>
      </trkpt>
      <trkpt lat="44.49421" lon="5.96594">
        <ele>1323</ele>
        <time>2010-07-17T11:49:04Z</time>
      </trkpt>
      <trkpt lat="44.4942" lon="5.96593">
        <ele>1323</ele>
        <time>2010-07-17T11:49:11Z</time>
      </trkpt>
      <trkpt lat="44.49421" lon="5.96591">
        <ele>1322</ele>
        <time>2010-07-17T11:49:33Z</time>
      </trkpt>
      <trkpt lat="44.4942" lon="5.96587">
        <ele>1322</ele>
        <time>2010-07-17T11:49:41Z</time>
      </trkpt>
      <trkpt lat="44.49416" lon="5.96577">
        <ele>1322</ele>
        <time>2010-07-17T11:49:49Z</time>
      </trkpt>
      <trkpt lat="44.4941" lon="5.96562">
        <ele>1323</ele>
        <time>2010-07-17T11:49:56Z</time>
      </trkpt>
      <trkpt lat="44.49407" lon="5.96547">
        <ele>1324</ele>
        <time>2010-07-17T11:50:04Z</time>
      </trkpt>
      <trkpt lat="44.49401" lon="5.96531">
        <ele>1325</ele>
        <time>2010-07-17T11:50:11Z</time>
      </trkpt>
      <trkpt lat="44.49394" lon="5.96515">
        <ele>1328</ele>
        <time>2010-07-17T11:50:18Z</time>
      </trkpt>
      <trkpt lat="44.49387" lon="5.96495">
        <ele>1329</ele>
        <time>2010-07-17T11:50:25Z</time>
      </trkpt>
      <trkpt lat="44.49382" lon="5.96471">
        <ele>1330</ele>
        <time>2010-07-17T11:50:32Z</time>
      </trkpt>
      <trkpt lat="44.49374" lon="5.96455">
        <ele>1330</ele>
        <time>2010-07-17T11:50:39Z</time>
      </trkpt>
      <trkpt lat="44.49364" lon="5.96444">
        <ele>1330</ele>
        <time>2010-07-17T11:50:46Z</time>
      </trkpt>
      <trkpt lat="44.4936" lon="5.96441">
        <ele>1331</ele>
        <time>2010-07-17T11:50:54Z</time>
      </trkpt>
      <trkpt lat="44.49358" lon="5.96437">
        <ele>1332</ele>
        <time>2010-07-17T11:51:01Z</time>
      </trkpt>
      <trkpt lat="44.49357" lon="5.96438">
        <ele>1331</ele>
        <time>2010-07-17T11:51:08Z</time>
      </trkpt>
      <trkpt lat="44.49357" lon="5.96438">
        <ele>1325</ele>
        <time>2010-07-17T11:51:19Z</time>
      </trkpt>
      <trkpt lat="44.49356" lon="5.96439">
        <ele>1325</ele>
        <time>2010-07-17T11:51:26Z</time>
      </trkpt>
      <trkpt lat="44.49336" lon="5.96444">
        <ele>1325</ele>
        <time>2010-07-17T11:51:33Z</time>
      </trkpt>
      <trkpt lat="44.49302" lon="5.96429">
        <ele>1326</ele>
        <time>2010-07-17T11:51:40Z</time>
      </trkpt>
      <trkpt lat="44.49306" lon="5.96424">
        <ele>1328</ele>
        <time>2010-07-17T11:51:47Z</time>
      </trkpt>
      <trkpt lat="44.49304" lon="5.96425">
        <ele>1335</ele>
        <time>2010-07-17T11:52:05Z</time>
      </trkpt>
      <trkpt lat="44.493" lon="5.96425">
        <ele>1335</ele>
        <time>2010-07-17T11:52:13Z</time>
      </trkpt>
      <trkpt lat="44.49268" lon="5.96402">
        <ele>1335</ele>
        <time>2010-07-17T11:52:20Z</time>
      </trkpt>
      <trkpt lat="44.49229" lon="5.96355">
        <ele>1331</ele>
        <time>2010-07-17T11:52:27Z</time>
      </trkpt>
      <trkpt lat="44.49183" lon="5.96309">
        <ele>1326</ele>
        <time>2010-07-17T11:52:34Z</time>
      </trkpt>
      <trkpt lat="44.49137" lon="5.96263">
        <ele>1321</ele>
        <time>2010-07-17T11:52:41Z</time>
      </trkpt>
      <trkpt lat="44.49134" lon="5.96185">
        <ele>1316</ele>
        <time>2010-07-17T11:52:48Z</time>
      </trkpt>
      <trkpt lat="44.49108" lon="5.9612">
        <ele>1314</ele>
        <time>2010-07-17T11:52:55Z</time>
      </trkpt>
      <trkpt lat="44.49063" lon="5.96075">
        <ele>1310</ele>
        <time>2010-07-17T11:53:02Z</time>
      </trkpt>
      <trkpt lat="44.49029" lon="5.96009">
        <ele>1304</ele>
        <time>2010-07-17T11:53:09Z</time>
      </trkpt>
      <trkpt lat="44.4902" lon="5.95927">
        <ele>1300</ele>
        <time>2010-07-17T11:53:16Z</time>
      </trkpt>
      <trkpt lat="44.4903" lon="5.95822">
        <ele>1295</ele>
        <time>2010-07-17T11:53:27Z</time>
      </trkpt>
      <trkpt lat="44.49032" lon="5.95747">
        <ele>1292</ele>
        <time>2010-07-17T11:53:34Z</time>
      </trkpt>
      <trkpt lat="44.49025" lon="5.95694">
        <ele>1287</ele>
        <time>2010-07-17T11:53:41Z</time>
      </trkpt>
      <trkpt lat="44.49002" lon="5.9563">
        <ele>1280</ele>
        <time>2010-07-17T11:53:48Z</time>
      </trkpt>
      <trkpt lat="44.48951" lon="5.95566">
        <ele>1273</ele>
        <time>2010-07-17T11:53:55Z</time>
      </trkpt>
      <trkpt lat="44.48912" lon="5.95488">
        <ele>1266</ele>
        <time>2010-07-17T11:54:02Z</time>
      </trkpt>
      <trkpt lat="44.48858" lon="5.95453">
        <ele>1259</ele>
        <time>2010-07-17T11:54:09Z</time>
      </trkpt>
      <trkpt lat="44.48846" lon="5.9554">
        <ele>1254</ele>
        <time>2010-07-17T11:54:20Z</time>
      </trkpt>
      <trkpt lat="44.48786" lon="5.95547">
        <ele>1251</ele>
        <time>2010-07-17T11:54:28Z</time>
      </trkpt>
      <trkpt lat="44.48688" lon="5.95528">
        <ele>1244</ele>
        <time>2010-07-17T11:54:35Z</time>
      </trkpt>
      <trkpt lat="44.48674" lon="5.95523">
        <ele>1239</ele>
        <time>2010-07-17T11:54:44Z</time>
      </trkpt>
      <trkpt lat="44.48675" lon="5.95513">
        <ele>1232</ele>
        <time>2010-07-17T11:54:51Z</time>
      </trkpt>
      <trkpt lat="44.48676" lon="5.95488">
        <ele>1229</ele>
        <time>2010-07-17T11:54:58Z</time>
      </trkpt>
      <trkpt lat="44.48671" lon="5.95456">
        <ele>1229</ele>
        <time>2010-07-17T11:55:05Z</time>
      </trkpt>
      <trkpt lat="44.48666" lon="5.95441">
        <ele>1228</ele>
        <time>2010-07-17T11:55:15Z</time>
      </trkpt>
      <trkpt lat="44.48656" lon="5.95412">
        <ele>1228</ele>
        <time>2010-07-17T11:55:22Z</time>
      </trkpt>
      <trkpt lat="44.48637" lon="5.9539">
        <ele>1228</ele>
        <time>2010-07-17T11:55:29Z</time>
      </trkpt>
      <trkpt lat="44.48619" lon="5.95368">
        <ele>1228</ele>
        <time>2010-07-17T11:55:36Z</time>
      </trkpt>
      <trkpt lat="44.48601" lon="5.95345">
        <ele>1228</ele>
        <time>2010-07-17T11:55:43Z</time>
      </trkpt>
      <trkpt lat="44.4859" lon="5.95316">
        <ele>1228</ele>
        <time>2010-07-17T11:55:50Z</time>
      </trkpt>
      <trkpt lat="44.48584" lon="5.95286">
        <ele>1228</ele>
        <time>2010-07-17T11:55:57Z</time>
      </trkpt>
      <trkpt lat="44.48578" lon="5.95258">
        <ele>1228</ele>
        <time>2010-07-17T11:56:04Z</time>
      </trkpt>
      <trkpt lat="44.4857" lon="5.95228">
        <ele>1228</ele>
        <time>2010-07-17T11:56:11Z</time>
      </trkpt>
      <trkpt lat="44.48564" lon="5.95202">
        <ele>1228</ele>
        <time>2010-07-17T11:56:18Z</time>
      </trkpt>
      <trkpt lat="44.48558" lon="5.95177">
        <ele>1229</ele>
        <time>2010-07-17T11:56:25Z</time>
      </trkpt>
      <trkpt lat="44.48553" lon="5.95149">
        <ele>1230</ele>
        <time>2010-07-17T11:56:32Z</time>
      </trkpt>
      <trkpt lat="44.4855" lon="5.95123">
        <ele>1231</ele>
        <time>2010-07-17T11:56:39Z</time>
      </trkpt>
      <trkpt lat="44.48548" lon="5.95097">
        <ele>1231</ele>
        <time>2010-07-17T11:56:46Z</time>
      </trkpt>
      <trkpt lat="44.48546" lon="5.95068">
        <ele>1232</ele>
        <time>2010-07-17T11:56:53Z</time>
      </trkpt>
      <trkpt lat="44.48542" lon="5.95041">
        <ele>1234</ele>
        <time>2010-07-17T11:57:00Z</time>
      </trkpt>
      <trkpt lat="44.48539" lon="5.95017">
        <ele>1235</ele>
        <time>2010-07-17T11:57:07Z</time>
      </trkpt>
      <trkpt lat="44.48535" lon="5.94998">
        <ele>1235</ele>
        <time>2010-07-17T11:57:14Z</time>
      </trkpt>
      <trkpt lat="44.48533" lon="5.94992">
        <ele>1235</ele>
        <time>2010-07-17T11:57:21Z</time>
      </trkpt>
      <trkpt lat="44.48528" lon="5.94968">
        <ele>1235</ele>
        <time>2010-07-17T11:57:28Z</time>
      </trkpt>
      <trkpt lat="44.48522" lon="5.9494">
        <ele>1235</ele>
        <time>2010-07-17T11:57:35Z</time>
      </trkpt>
      <trkpt lat="44.48515" lon="5.94913">
        <ele>1235</ele>
        <time>2010-07-17T11:57:42Z</time>
      </trkpt>
      <trkpt lat="44.48511" lon="5.94886">
        <ele>1235</ele>
        <time>2010-07-17T11:57:49Z</time>
      </trkpt>
      <trkpt lat="44.48506" lon="5.9486">
        <ele>1235</ele>
        <time>2010-07-17T11:57:56Z</time>
      </trkpt>
      <trkpt lat="44.48504" lon="5.94834">
        <ele>1235</ele>
        <time>2010-07-17T11:58:03Z</time>
      </trkpt>
      <trkpt lat="44.485" lon="5.94807">
        <ele>1237</ele>
        <time>2010-07-17T11:58:10Z</time>
      </trkpt>
      <trkpt lat="44.48494" lon="5.94781">
        <ele>1237</ele>
        <time>2010-07-17T11:58:17Z</time>
      </trkpt>
      <trkpt lat="44.48487" lon="5.94756">
        <ele>1237</ele>
        <time>2010-07-17T11:58:24Z</time>
      </trkpt>
      <trkpt lat="44.48479" lon="5.94732">
        <ele>1238</ele>
        <time>2010-07-17T11:58:31Z</time>
      </trkpt>
      <trkpt lat="44.48475" lon="5.94705">
        <ele>1238</ele>
        <time>2010-07-17T11:58:38Z</time>
      </trkpt>
      <trkpt lat="44.4847" lon="5.94679">
        <ele>1239</ele>
        <time>2010-07-17T11:58:45Z</time>
      </trkpt>
      <trkpt lat="44.48466" lon="5.94651">
        <ele>1239</ele>
        <time>2010-07-17T11:58:52Z</time>
      </trkpt>
      <trkpt lat="44.48466" lon="5.94625">
        <ele>1239</ele>
        <time>2010-07-17T11:58:59Z</time>
      </trkpt>
      <trkpt lat="44.48465" lon="5.94599">
        <ele>1240</ele>
        <time>2010-07-17T11:59:06Z</time>
      </trkpt>
      <trkpt lat="44.48465" lon="5.94572">
        <ele>1242</ele>
        <time>2010-07-17T11:59:13Z</time>
      </trkpt>
      <trkpt lat="44.48465" lon="5.94549">
        <ele>1244</ele>
        <time>2010-07-17T11:59:20Z</time>
      </trkpt>
      <trkpt lat="44.48469" lon="5.94528">
        <ele>1246</ele>
        <time>2010-07-17T11:59:27Z</time>
      </trkpt>
      <trkpt lat="44.48475" lon="5.94509">
        <ele>1249</ele>
        <time>2010-07-17T11:59:34Z</time>
      </trkpt>
      <trkpt lat="44.48483" lon="5.94493">
        <ele>1252</ele>
        <time>2010-07-17T11:59:41Z</time>
      </trkpt>
      <trkpt lat="44.48492" lon="5.94479">
        <ele>1255</ele>
        <time>2010-07-17T11:59:48Z</time>
      </trkpt>
      <trkpt lat="44.48499" lon="5.94462">
        <ele>1256</ele>
        <time>2010-07-17T11:59:55Z</time>
      </trkpt>
      <trkpt lat="44.48506" lon="5.94447">
        <ele>1258</ele>
        <time>2010-07-17T12:00:02Z</time>
      </trkpt>
      <trkpt lat="44.4851" lon="5.94432">
        <ele>1259</ele>
        <time>2010-07-17T12:00:09Z</time>
      </trkpt>
      <trkpt lat="44.48515" lon="5.94417">
        <ele>1260</ele>
        <time>2010-07-17T12:00:16Z</time>
      </trkpt>
      <trkpt lat="44.4852" lon="5.94402">
        <ele>1261</ele>
        <time>2010-07-17T12:00:23Z</time>
      </trkpt>
      <trkpt lat="44.48525" lon="5.94387">
        <ele>1263</ele>
        <time>2010-07-17T12:00:30Z</time>
      </trkpt>
      <trkpt lat="44.48528" lon="5.94373">
        <ele>1264</ele>
        <time>2010-07-17T12:00:37Z</time>
      </trkpt>
      <trkpt lat="44.48531" lon="5.94358">
        <ele>1266</ele>
        <time>2010-07-17T12:00:44Z</time>
      </trkpt>
      <trkpt lat="44.48535" lon="5.94345">
        <ele>1266</ele>
        <time>2010-07-17T12:00:51Z</time>
      </trkpt>
      <trkpt lat="44.48538" lon="5.94331">
        <ele>1268</ele>
        <time>2010-07-17T12:00:58Z</time>
      </trkpt>
      <trkpt lat="44.48543" lon="5.94316">
        <ele>1269</ele>
        <time>2010-07-17T12:01:05Z</time>
      </trkpt>
      <trkpt lat="44.48548" lon="5.943">
        <ele>1270</ele>
        <time>2010-07-17T12:01:12Z</time>
      </trkpt>
      <trkpt lat="44.48553" lon="5.94285">
        <ele>1271</ele>
        <time>2010-07-17T12:01:19Z</time>
      </trkpt>
      <trkpt lat="44.4856" lon="5.94269">
        <ele>1272</ele>
        <time>2010-07-17T12:01:26Z</time>
      </trkpt>
      <trkpt lat="44.48565" lon="5.94254">
        <ele>1273</ele>
        <time>2010-07-17T12:01:33Z</time>
      </trkpt>
      <trkpt lat="44.48571" lon="5.9424">
        <ele>1275</ele>
        <time>2010-07-17T12:01:40Z</time>
      </trkpt>
      <trkpt lat="44.48577" lon="5.94226">
        <ele>1275</ele>
        <time>2010-07-17T12:01:48Z</time>
      </trkpt>
      <trkpt lat="44.48584" lon="5.94208">
        <ele>1276</ele>
        <time>2010-07-17T12:01:55Z</time>
      </trkpt>
      <trkpt lat="44.48591" lon="5.94193">
        <ele>1278</ele>
        <time>2010-07-17T12:02:02Z</time>
      </trkpt>
      <trkpt lat="44.48598" lon="5.94178">
        <ele>1279</ele>
        <time>2010-07-17T12:02:09Z</time>
      </trkpt>
      <trkpt lat="44.48603" lon="5.94163">
        <ele>1282</ele>
        <time>2010-07-17T12:02:16Z</time>
      </trkpt>
      <trkpt lat="44.4861" lon="5.94148">
        <ele>1283</ele>
        <time>2010-07-17T12:02:23Z</time>
      </trkpt>
      <trkpt lat="44.48616" lon="5.94133">
        <ele>1283</ele>
        <time>2010-07-17T12:02:30Z</time>
      </trkpt>
      <trkpt lat="44.48623" lon="5.94118">
        <ele>1284</ele>
        <time>2010-07-17T12:02:37Z</time>
      </trkpt>
      <trkpt lat="44.48631" lon="5.94101">
        <ele>1284</ele>
        <time>2010-07-17T12:02:44Z</time>
      </trkpt>
      <trkpt lat="44.48634" lon="5.94084">
        <ele>1286</ele>
        <time>2010-07-17T12:02:51Z</time>
      </trkpt>
      <trkpt lat="44.48633" lon="5.94066">
        <ele>1286</ele>
        <time>2010-07-17T12:02:58Z</time>
      </trkpt>
      <trkpt lat="44.48623" lon="5.94054">
        <ele>1287</ele>
        <time>2010-07-17T12:03:05Z</time>
      </trkpt>
      <trkpt lat="44.4861" lon="5.94045">
        <ele>1287</ele>
        <time>2010-07-17T12:03:12Z</time>
      </trkpt>
      <trkpt lat="44.48596" lon="5.94038">
        <ele>1288</ele>
        <time>2010-07-17T12:03:19Z</time>
      </trkpt>
      <trkpt lat="44.48583" lon="5.94032">
        <ele>1289</ele>
        <time>2010-07-17T12:03:26Z</time>
      </trkpt>
      <trkpt lat="44.48571" lon="5.94022">
        <ele>1290</ele>
        <time>2010-07-17T12:03:33Z</time>
      </trkpt>
      <trkpt lat="44.48561" lon="5.94009">
        <ele>1290</ele>
        <time>2010-07-17T12:03:40Z</time>
      </trkpt>
      <trkpt lat="44.48553" lon="5.93993">
        <ele>1291</ele>
        <time>2010-07-17T12:03:47Z</time>
      </trkpt>
      <trkpt lat="44.48543" lon="5.93978">
        <ele>1292</ele>
        <time>2010-07-17T12:03:54Z</time>
      </trkpt>
      <trkpt lat="44.48536" lon="5.93962">
        <ele>1293</ele>
        <time>2010-07-17T12:04:01Z</time>
      </trkpt>
      <trkpt lat="44.48529" lon="5.93946">
        <ele>1294</ele>
        <time>2010-07-17T12:04:08Z</time>
      </trkpt>
      <trkpt lat="44.48523" lon="5.93929">
        <ele>1294</ele>
        <time>2010-07-17T12:04:15Z</time>
      </trkpt>
      <trkpt lat="44.48517" lon="5.93912">
        <ele>1294</ele>
        <time>2010-07-17T12:04:22Z</time>
      </trkpt>
      <trkpt lat="44.48511" lon="5.93895">
        <ele>1295</ele>
        <time>2010-07-17T12:04:29Z</time>
      </trkpt>
      <trkpt lat="44.48506" lon="5.93878">
        <ele>1295</ele>
        <time>2010-07-17T12:04:36Z</time>
      </trkpt>
      <trkpt lat="44.48502" lon="5.9386">
        <ele>1296</ele>
        <time>2010-07-17T12:04:43Z</time>
      </trkpt>
      <trkpt lat="44.485" lon="5.93841">
        <ele>1297</ele>
        <time>2010-07-17T12:04:50Z</time>
      </trkpt>
      <trkpt lat="44.48498" lon="5.93823">
        <ele>1299</ele>
        <time>2010-07-17T12:04:57Z</time>
      </trkpt>
      <trkpt lat="44.48498" lon="5.93805">
        <ele>1302</ele>
        <time>2010-07-17T12:05:04Z</time>
      </trkpt>
      <trkpt lat="44.48498" lon="5.93788">
        <ele>1305</ele>
        <time>2010-07-17T12:05:11Z</time>
      </trkpt>
      <trkpt lat="44.48501" lon="5.93771">
        <ele>1308</ele>
        <time>2010-07-17T12:05:18Z</time>
      </trkpt>
      <trkpt lat="44.48505" lon="5.93754">
        <ele>1311</ele>
        <time>2010-07-17T12:05:25Z</time>
      </trkpt>
      <trkpt lat="44.48509" lon="5.93738">
        <ele>1313</ele>
        <time>2010-07-17T12:05:32Z</time>
      </trkpt>
      <trkpt lat="44.48512" lon="5.93728">
        <ele>1314</ele>
        <time>2010-07-17T12:05:39Z</time>
      </trkpt>
      <trkpt lat="44.48512" lon="5.93724">
        <ele>1314</ele>
        <time>2010-07-17T12:05:52Z</time>
      </trkpt>
      <trkpt lat="44.48512" lon="5.93719">
        <ele>1314</ele>
        <time>2010-07-17T12:05:59Z</time>
      </trkpt>
      <trkpt lat="44.48504" lon="5.93723">
        <ele>1313</ele>
        <time>2010-07-17T12:06:11Z</time>
      </trkpt>
      <trkpt lat="44.48497" lon="5.93717">
        <ele>1313</ele>
        <time>2010-07-17T12:06:19Z</time>
      </trkpt>
      <trkpt lat="44.48489" lon="5.9371">
        <ele>1316</ele>
        <time>2010-07-17T12:06:26Z</time>
      </trkpt>
      <trkpt lat="44.48481" lon="5.93704">
        <ele>1317</ele>
        <time>2010-07-17T12:06:35Z</time>
      </trkpt>
      <trkpt lat="44.48475" lon="5.93703">
        <ele>1318</ele>
        <time>2010-07-17T12:06:43Z</time>
      </trkpt>
      <trkpt lat="44.48465" lon="5.93707">
        <ele>1318</ele>
        <time>2010-07-17T12:06:52Z</time>
      </trkpt>
      <trkpt lat="44.48457" lon="5.93712">
        <ele>1320</ele>
        <time>2010-07-17T12:07:00Z</time>
      </trkpt>
      <trkpt lat="44.48449" lon="5.93717">
        <ele>1320</ele>
        <time>2010-07-17T12:07:08Z</time>
      </trkpt>
      <trkpt lat="44.48441" lon="5.93724">
        <ele>1320</ele>
        <time>2010-07-17T12:07:16Z</time>
      </trkpt>
      <trkpt lat="44.48431" lon="5.9373">
        <ele>1320</ele>
        <time>2010-07-17T12:07:23Z</time>
      </trkpt>
      <trkpt lat="44.48426" lon="5.93735">
        <ele>1320</ele>
        <time>2010-07-17T12:07:30Z</time>
      </trkpt>
      <trkpt lat="44.48418" lon="5.93739">
        <ele>1322</ele>
        <time>2010-07-17T12:07:37Z</time>
      </trkpt>
      <trkpt lat="44.4841" lon="5.93744">
        <ele>1323</ele>
        <time>2010-07-17T12:07:44Z</time>
      </trkpt>
      <trkpt lat="44.48402" lon="5.9375">
        <ele>1326</ele>
        <time>2010-07-17T12:07:52Z</time>
      </trkpt>
      <trkpt lat="44.48395" lon="5.93756">
        <ele>1327</ele>
        <time>2010-07-17T12:07:59Z</time>
      </trkpt>
      <trkpt lat="44.48387" lon="5.93761">
        <ele>1328</ele>
        <time>2010-07-17T12:08:06Z</time>
      </trkpt>
      <trkpt lat="44.48378" lon="5.93765">
        <ele>1330</ele>
        <time>2010-07-17T12:08:13Z</time>
      </trkpt>
      <trkpt lat="44.4837" lon="5.93769">
        <ele>1331</ele>
        <time>2010-07-17T12:08:20Z</time>
      </trkpt>
      <trkpt lat="44.48362" lon="5.93773">
        <ele>1334</ele>
        <time>2010-07-17T12:08:27Z</time>
      </trkpt>
      <trkpt lat="44.48355" lon="5.9378">
        <ele>1335</ele>
        <time>2010-07-17T12:08:35Z</time>
      </trkpt>
      <trkpt lat="44.48349" lon="5.93787">
        <ele>1335</ele>
        <time>2010-07-17T12:08:43Z</time>
      </trkpt>
      <trkpt lat="44.48341" lon="5.93794">
        <ele>1336</ele>
        <time>2010-07-17T12:08:52Z</time>
      </trkpt>
      <trkpt lat="44.48332" lon="5.938">
        <ele>1338</ele>
        <time>2010-07-17T12:09:00Z</time>
      </trkpt>
      <trkpt lat="44.48324" lon="5.93806">
        <ele>1340</ele>
        <time>2010-07-17T12:09:07Z</time>
      </trkpt>
      <trkpt lat="44.48314" lon="5.9381">
        <ele>1342</ele>
        <time>2010-07-17T12:09:15Z</time>
      </trkpt>
      <trkpt lat="44.48305" lon="5.93814">
        <ele>1346</ele>
        <time>2010-07-17T12:09:22Z</time>
      </trkpt>
      <trkpt lat="44.48297" lon="5.93817">
        <ele>1346</ele>
        <time>2010-07-17T12:09:29Z</time>
      </trkpt>
      <trkpt lat="44.48288" lon="5.93821">
        <ele>1347</ele>
        <time>2010-07-17T12:09:36Z</time>
      </trkpt>
      <trkpt lat="44.4828" lon="5.93826">
        <ele>1348</ele>
        <time>2010-07-17T12:09:43Z</time>
      </trkpt>
      <trkpt lat="44.48274" lon="5.93834">
        <ele>1349</ele>
        <time>2010-07-17T12:09:50Z</time>
      </trkpt>
      <trkpt lat="44.48265" lon="5.93844">
        <ele>1350</ele>
        <time>2010-07-17T12:09:57Z</time>
      </trkpt>
      <trkpt lat="44.48257" lon="5.93853">
        <ele>1352</ele>
        <time>2010-07-17T12:10:04Z</time>
      </trkpt>
      <trkpt lat="44.48249" lon="5.93861">
        <ele>1352</ele>
        <time>2010-07-17T12:10:11Z</time>
      </trkpt>
      <trkpt lat="44.4824" lon="5.93869">
        <ele>1352</ele>
        <time>2010-07-17T12:10:18Z</time>
      </trkpt>
      <trkpt lat="44.48233" lon="5.93877">
        <ele>1352</ele>
        <time>2010-07-17T12:10:25Z</time>
      </trkpt>
      <trkpt lat="44.48228" lon="5.9389">
        <ele>1352</ele>
        <time>2010-07-17T12:10:32Z</time>
      </trkpt>
      <trkpt lat="44.48222" lon="5.939">
        <ele>1352</ele>
        <time>2010-07-17T12:10:39Z</time>
      </trkpt>
      <trkpt lat="44.48213" lon="5.93911">
        <ele>1352</ele>
        <time>2010-07-17T12:10:46Z</time>
      </trkpt>
      <trkpt lat="44.48202" lon="5.93921">
        <ele>1357</ele>
        <time>2010-07-17T12:10:53Z</time>
      </trkpt>
      <trkpt lat="44.48195" lon="5.93931">
        <ele>1359</ele>
        <time>2010-07-17T12:11:01Z</time>
      </trkpt>
      <trkpt lat="44.48187" lon="5.93941">
        <ele>1361</ele>
        <time>2010-07-17T12:11:09Z</time>
      </trkpt>
      <trkpt lat="44.48181" lon="5.93955">
        <ele>1364</ele>
        <time>2010-07-17T12:11:17Z</time>
      </trkpt>
      <trkpt lat="44.48173" lon="5.93968">
        <ele>1370</ele>
        <time>2010-07-17T12:11:24Z</time>
      </trkpt>
      <trkpt lat="44.48169" lon="5.93982">
        <ele>1372</ele>
        <time>2010-07-17T12:11:31Z</time>
      </trkpt>
      <trkpt lat="44.4816" lon="5.93988">
        <ele>1373</ele>
        <time>2010-07-17T12:11:38Z</time>
      </trkpt>
      <trkpt lat="44.4815" lon="5.93993">
        <ele>1373</ele>
        <time>2010-07-17T12:11:45Z</time>
      </trkpt>
      <trkpt lat="44.4814" lon="5.94">
        <ele>1373</ele>
        <time>2010-07-17T12:11:52Z</time>
      </trkpt>
      <trkpt lat="44.4813" lon="5.9401">
        <ele>1373</ele>
        <time>2010-07-17T12:12:00Z</time>
      </trkpt>
      <trkpt lat="44.48127" lon="5.94021">
        <ele>1373</ele>
        <time>2010-07-17T12:12:07Z</time>
      </trkpt>
      <trkpt lat="44.48121" lon="5.9403">
        <ele>1373</ele>
        <time>2010-07-17T12:12:14Z</time>
      </trkpt>
      <trkpt lat="44.48115" lon="5.9404">
        <ele>1373</ele>
        <time>2010-07-17T12:12:21Z</time>
      </trkpt>
      <trkpt lat="44.48109" lon="5.94049">
        <ele>1373</ele>
        <time>2010-07-17T12:12:28Z</time>
      </trkpt>
      <trkpt lat="44.48101" lon="5.94061">
        <ele>1374</ele>
        <time>2010-07-17T12:12:36Z</time>
      </trkpt>
      <trkpt lat="44.48093" lon="5.94072">
        <ele>1378</ele>
        <time>2010-07-17T12:12:43Z</time>
      </trkpt>
      <trkpt lat="44.48086" lon="5.94082">
        <ele>1379</ele>
        <time>2010-07-17T12:12:50Z</time>
      </trkpt>
      <trkpt lat="44.48081" lon="5.94094">
        <ele>1380</ele>
        <time>2010-07-17T12:12:57Z</time>
      </trkpt>
      <trkpt lat="44.48077" lon="5.941">
        <ele>1380</ele>
        <time>2010-07-17T12:13:05Z</time>
      </trkpt>
      <trkpt lat="44.48073" lon="5.94111">
        <ele>1381</ele>
        <time>2010-07-17T12:13:12Z</time>
      </trkpt>
      <trkpt lat="44.48065" lon="5.94122">
        <ele>1381</ele>
        <time>2010-07-17T12:13:19Z</time>
      </trkpt>
      <trkpt lat="44.48053" lon="5.94128">
        <ele>1382</ele>
        <time>2010-07-17T12:13:26Z</time>
      </trkpt>
      <trkpt lat="44.48044" lon="5.94133">
        <ele>1385</ele>
        <time>2010-07-17T12:13:33Z</time>
      </trkpt>
      <trkpt lat="44.48035" lon="5.94137">
        <ele>1388</ele>
        <time>2010-07-17T12:13:40Z</time>
      </trkpt>
      <trkpt lat="44.48025" lon="5.9414">
        <ele>1389</ele>
        <time>2010-07-17T12:13:47Z</time>
      </trkpt>
      <trkpt lat="44.48015" lon="5.94145">
        <ele>1389</ele>
        <time>2010-07-17T12:13:55Z</time>
      </trkpt>
      <trkpt lat="44.48006" lon="5.94148">
        <ele>1389</ele>
        <time>2010-07-17T12:14:02Z</time>
      </trkpt>
      <trkpt lat="44.47996" lon="5.94153">
        <ele>1389</ele>
        <time>2010-07-17T12:14:09Z</time>
      </trkpt>
      <trkpt lat="44.47988" lon="5.94158">
        <ele>1389</ele>
        <time>2010-07-17T12:14:16Z</time>
      </trkpt>
      <trkpt lat="44.47978" lon="5.94164">
        <ele>1391</ele>
        <time>2010-07-17T12:14:24Z</time>
      </trkpt>
      <trkpt lat="44.47969" lon="5.9417">
        <ele>1393</ele>
        <time>2010-07-17T12:14:31Z</time>
      </trkpt>
      <trkpt lat="44.47957" lon="5.94175">
        <ele>1395</ele>
        <time>2010-07-17T12:14:38Z</time>
      </trkpt>
      <trkpt lat="44.47946" lon="5.94182">
        <ele>1395</ele>
        <time>2010-07-17T12:14:46Z</time>
      </trkpt>
      <trkpt lat="44.47937" lon="5.94191">
        <ele>1395</ele>
        <time>2010-07-17T12:14:54Z</time>
      </trkpt>
      <trkpt lat="44.47929" lon="5.942">
        <ele>1395</ele>
        <time>2010-07-17T12:15:01Z</time>
      </trkpt>
      <trkpt lat="44.47922" lon="5.94211">
        <ele>1397</ele>
        <time>2010-07-17T12:15:08Z</time>
      </trkpt>
      <trkpt lat="44.47915" lon="5.94223">
        <ele>1401</ele>
        <time>2010-07-17T12:15:16Z</time>
      </trkpt>
      <trkpt lat="44.47909" lon="5.94232">
        <ele>1401</ele>
        <time>2010-07-17T12:15:23Z</time>
      </trkpt>
      <trkpt lat="44.47902" lon="5.94242">
        <ele>1403</ele>
        <time>2010-07-17T12:15:32Z</time>
      </trkpt>
      <trkpt lat="44.47895" lon="5.94251">
        <ele>1403</ele>
        <time>2010-07-17T12:15:40Z</time>
      </trkpt>
      <trkpt lat="44.47891" lon="5.94261">
        <ele>1403</ele>
        <time>2010-07-17T12:15:48Z</time>
      </trkpt>
      <trkpt lat="44.47884" lon="5.94276">
        <ele>1404</ele>
        <time>2010-07-17T12:15:56Z</time>
      </trkpt>
      <trkpt lat="44.47882" lon="5.94288">
        <ele>1409</ele>
        <time>2010-07-17T12:16:03Z</time>
      </trkpt>
      <trkpt lat="44.47881" lon="5.94306">
        <ele>1411</ele>
        <time>2010-07-17T12:16:11Z</time>
      </trkpt>
      <trkpt lat="44.47879" lon="5.94321">
        <ele>1411</ele>
        <time>2010-07-17T12:16:18Z</time>
      </trkpt>
      <trkpt lat="44.47873" lon="5.94339">
        <ele>1413</ele>
        <time>2010-07-17T12:16:26Z</time>
      </trkpt>
      <trkpt lat="44.47869" lon="5.9435">
        <ele>1414</ele>
        <time>2010-07-17T12:16:33Z</time>
      </trkpt>
      <trkpt lat="44.47869" lon="5.94349">
        <ele>1414</ele>
        <time>2010-07-17T12:16:41Z</time>
      </trkpt>
      <trkpt lat="44.47868" lon="5.94351">
        <ele>1414</ele>
        <time>2010-07-17T12:16:50Z</time>
      </trkpt>
      <trkpt lat="44.47866" lon="5.94352">
        <ele>1415</ele>
        <time>2010-07-17T12:17:11Z</time>
      </trkpt>
      <trkpt lat="44.47864" lon="5.94353">
        <ele>1418</ele>
        <time>2010-07-17T12:17:26Z</time>
      </trkpt>
      <trkpt lat="44.47858" lon="5.94366">
        <ele>1418</ele>
        <time>2010-07-17T12:17:33Z</time>
      </trkpt>
      <trkpt lat="44.47849" lon="5.94376">
        <ele>1418</ele>
        <time>2010-07-17T12:17:40Z</time>
      </trkpt>
      <trkpt lat="44.47839" lon="5.94379">
        <ele>1419</ele>
        <time>2010-07-17T12:17:47Z</time>
      </trkpt>
      <trkpt lat="44.47828" lon="5.94382">
        <ele>1420</ele>
        <time>2010-07-17T12:17:54Z</time>
      </trkpt>
      <trkpt lat="44.47818" lon="5.94385">
        <ele>1420</ele>
        <time>2010-07-17T12:18:01Z</time>
      </trkpt>
      <trkpt lat="44.47809" lon="5.94388">
        <ele>1421</ele>
        <time>2010-07-17T12:18:08Z</time>
      </trkpt>
      <trkpt lat="44.47797" lon="5.94389">
        <ele>1422</ele>
        <time>2010-07-17T12:18:15Z</time>
      </trkpt>
      <trkpt lat="44.47787" lon="5.94389">
        <ele>1423</ele>
        <time>2010-07-17T12:18:22Z</time>
      </trkpt>
      <trkpt lat="44.47776" lon="5.94387">
        <ele>1423</ele>
        <time>2010-07-17T12:18:29Z</time>
      </trkpt>
      <trkpt lat="44.47766" lon="5.94385">
        <ele>1424</ele>
        <time>2010-07-17T12:18:36Z</time>
      </trkpt>
      <trkpt lat="44.47756" lon="5.94384">
        <ele>1424</ele>
        <time>2010-07-17T12:18:43Z</time>
      </trkpt>
      <trkpt lat="44.47746" lon="5.94383">
        <ele>1426</ele>
        <time>2010-07-17T12:18:51Z</time>
      </trkpt>
      <trkpt lat="44.47736" lon="5.9438">
        <ele>1426</ele>
        <time>2010-07-17T12:18:58Z</time>
      </trkpt>
      <trkpt lat="44.47725" lon="5.94383">
        <ele>1427</ele>
        <time>2010-07-17T12:19:05Z</time>
      </trkpt>
      <trkpt lat="44.47716" lon="5.94389">
        <ele>1427</ele>
        <time>2010-07-17T12:19:12Z</time>
      </trkpt>
      <trkpt lat="44.47706" lon="5.94392">
        <ele>1429</ele>
        <time>2010-07-17T12:19:19Z</time>
      </trkpt>
      <trkpt lat="44.47701" lon="5.94396">
        <ele>1431</ele>
        <time>2010-07-17T12:19:28Z</time>
      </trkpt>
      <trkpt lat="44.47693" lon="5.94398">
        <ele>1433</ele>
        <time>2010-07-17T12:19:36Z</time>
      </trkpt>
      <trkpt lat="44.47683" lon="5.94407">
        <ele>1434</ele>
        <time>2010-07-17T12:19:43Z</time>
      </trkpt>
      <trkpt lat="44.47674" lon="5.94415">
        <ele>1435</ele>
        <time>2010-07-17T12:19:50Z</time>
      </trkpt>
      <trkpt lat="44.47664" lon="5.94423">
        <ele>1436</ele>
        <time>2010-07-17T12:19:57Z</time>
      </trkpt>
      <trkpt lat="44.47654" lon="5.94429">
        <ele>1438</ele>
        <time>2010-07-17T12:20:04Z</time>
      </trkpt>
      <trkpt lat="44.47644" lon="5.94437">
        <ele>1439</ele>
        <time>2010-07-17T12:20:11Z</time>
      </trkpt>
      <trkpt lat="44.47636" lon="5.94445">
        <ele>1440</ele>
        <time>2010-07-17T12:20:18Z</time>
      </trkpt>
      <trkpt lat="44.47629" lon="5.94452">
        <ele>1441</ele>
        <time>2010-07-17T12:20:25Z</time>
      </trkpt>
      <trkpt lat="44.47619" lon="5.94458">
        <ele>1442</ele>
        <time>2010-07-17T12:20:32Z</time>
      </trkpt>
      <trkpt lat="44.47609" lon="5.94462">
        <ele>1445</ele>
        <time>2010-07-17T12:20:39Z</time>
      </trkpt>
      <trkpt lat="44.476" lon="5.94468">
        <ele>1446</ele>
        <time>2010-07-17T12:20:46Z</time>
      </trkpt>
      <trkpt lat="44.4759" lon="5.94473">
        <ele>1448</ele>
        <time>2010-07-17T12:20:53Z</time>
      </trkpt>
      <trkpt lat="44.4758" lon="5.9448">
        <ele>1449</ele>
        <time>2010-07-17T12:21:00Z</time>
      </trkpt>
      <trkpt lat="44.47571" lon="5.94486">
        <ele>1451</ele>
        <time>2010-07-17T12:21:07Z</time>
      </trkpt>
      <trkpt lat="44.4756" lon="5.94493">
        <ele>1452</ele>
        <time>2010-07-17T12:21:14Z</time>
      </trkpt>
      <trkpt lat="44.47551" lon="5.94501">
        <ele>1453</ele>
        <time>2010-07-17T12:21:21Z</time>
      </trkpt>
      <trkpt lat="44.47541" lon="5.9451">
        <ele>1454</ele>
        <time>2010-07-17T12:21:28Z</time>
      </trkpt>
      <trkpt lat="44.47533" lon="5.9452">
        <ele>1455</ele>
        <time>2010-07-17T12:21:35Z</time>
      </trkpt>
      <trkpt lat="44.47524" lon="5.9453">
        <ele>1456</ele>
        <time>2010-07-17T12:21:42Z</time>
      </trkpt>
      <trkpt lat="44.47515" lon="5.94539">
        <ele>1456</ele>
        <time>2010-07-17T12:21:49Z</time>
      </trkpt>
      <trkpt lat="44.47506" lon="5.94549">
        <ele>1456</ele>
        <time>2010-07-17T12:21:56Z</time>
      </trkpt>
      <trkpt lat="44.47497" lon="5.94558">
        <ele>1458</ele>
        <time>2010-07-17T12:22:03Z</time>
      </trkpt>
      <trkpt lat="44.47488" lon="5.94569">
        <ele>1459</ele>
        <time>2010-07-17T12:22:10Z</time>
      </trkpt>
      <trkpt lat="44.47479" lon="5.94581">
        <ele>1460</ele>
        <time>2010-07-17T12:22:17Z</time>
      </trkpt>
      <trkpt lat="44.47469" lon="5.94588">
        <ele>1461</ele>
        <time>2010-07-17T12:22:24Z</time>
      </trkpt>
      <trkpt lat="44.47459" lon="5.94595">
        <ele>1462</ele>
        <time>2010-07-17T12:22:31Z</time>
      </trkpt>
      <trkpt lat="44.4745" lon="5.94604">
        <ele>1463</ele>
        <time>2010-07-17T12:22:38Z</time>
      </trkpt>
      <trkpt lat="44.47441" lon="5.94613">
        <ele>1464</ele>
        <time>2010-07-17T12:22:45Z</time>
      </trkpt>
      <trkpt lat="44.4743" lon="5.94623">
        <ele>1465</ele>
        <time>2010-07-17T12:22:52Z</time>
      </trkpt>
      <trkpt lat="44.47417" lon="5.94633">
        <ele>1467</ele>
        <time>2010-07-17T12:22:59Z</time>
      </trkpt>
      <trkpt lat="44.47407" lon="5.94645">
        <ele>1468</ele>
        <time>2010-07-17T12:23:06Z</time>
      </trkpt>
      <trkpt lat="44.47398" lon="5.94654">
        <ele>1470</ele>
        <time>2010-07-17T12:23:13Z</time>
      </trkpt>
      <trkpt lat="44.47388" lon="5.94656">
        <ele>1472</ele>
        <time>2010-07-17T12:23:20Z</time>
      </trkpt>
      <trkpt lat="44.47378" lon="5.9466">
        <ele>1472</ele>
        <time>2010-07-17T12:23:27Z</time>
      </trkpt>
      <trkpt lat="44.47377" lon="5.94661">
        <ele>1472</ele>
        <time>2010-07-17T12:24:02Z</time>
      </trkpt>
      <trkpt lat="44.47379" lon="5.94662">
        <ele>1472</ele>
        <time>2010-07-17T12:24:13Z</time>
      </trkpt>
      <trkpt lat="44.4738" lon="5.94661">
        <ele>1472</ele>
        <time>2010-07-17T12:24:27Z</time>
      </trkpt>
      <trkpt lat="44.47381" lon="5.9466">
        <ele>1472</ele>
        <time>2010-07-17T12:24:34Z</time>
      </trkpt>
      <trkpt lat="44.47385" lon="5.94656">
        <ele>1472</ele>
        <time>2010-07-17T12:24:44Z</time>
      </trkpt>
      <trkpt lat="44.47382" lon="5.94659">
        <ele>1474</ele>
        <time>2010-07-17T12:25:39Z</time>
      </trkpt>
      <trkpt lat="44.47383" lon="5.94658">
        <ele>1474</ele>
        <time>2010-07-17T12:26:16Z</time>
      </trkpt>
      <trkpt lat="44.47385" lon="5.94657">
        <ele>1474</ele>
        <time>2010-07-17T12:26:29Z</time>
      </trkpt>
      <trkpt lat="44.47385" lon="5.94655">
        <ele>1474</ele>
        <time>2010-07-17T12:26:47Z</time>
      </trkpt>
      <trkpt lat="44.47383" lon="5.94656">
        <ele>1471</ele>
        <time>2010-07-17T12:27:18Z</time>
      </trkpt>
      <trkpt lat="44.47382" lon="5.94657">
        <ele>1470</ele>
        <time>2010-07-17T12:28:00Z</time>
      </trkpt>
      <trkpt lat="44.47381" lon="5.94657">
        <ele>1470</ele>
        <time>2010-07-17T12:28:31Z</time>
      </trkpt>
      <trkpt lat="44.4738" lon="5.94656">
        <ele>1470</ele>
        <time>2010-07-17T12:28:53Z</time>
      </trkpt>
      <trkpt lat="44.47385" lon="5.94644">
        <ele>1470</ele>
        <time>2010-07-17T12:29:00Z</time>
      </trkpt>
      <trkpt lat="44.47391" lon="5.94629">
        <ele>1470</ele>
        <time>2010-07-17T12:29:07Z</time>
      </trkpt>
      <trkpt lat="44.474" lon="5.94619">
        <ele>1470</ele>
        <time>2010-07-17T12:29:14Z</time>
      </trkpt>
      <trkpt lat="44.47408" lon="5.94608">
        <ele>1470</ele>
        <time>2010-07-17T12:29:21Z</time>
      </trkpt>
      <trkpt lat="44.47414" lon="5.94598">
        <ele>1472</ele>
        <time>2010-07-17T12:29:28Z</time>
      </trkpt>
      <trkpt lat="44.47417" lon="5.94587">
        <ele>1475</ele>
        <time>2010-07-17T12:29:36Z</time>
      </trkpt>
      <trkpt lat="44.47421" lon="5.94577">
        <ele>1477</ele>
        <time>2010-07-17T12:29:43Z</time>
      </trkpt>
      <trkpt lat="44.47426" lon="5.94567">
        <ele>1478</ele>
        <time>2010-07-17T12:29:50Z</time>
      </trkpt>
      <trkpt lat="44.4743" lon="5.94555">
        <ele>1480</ele>
        <time>2010-07-17T12:29:58Z</time>
      </trkpt>
      <trkpt lat="44.47435" lon="5.94545">
        <ele>1482</ele>
        <time>2010-07-17T12:30:05Z</time>
      </trkpt>
      <trkpt lat="44.4744" lon="5.94533">
        <ele>1483</ele>
        <time>2010-07-17T12:30:13Z</time>
      </trkpt>
      <trkpt lat="44.47445" lon="5.94523">
        <ele>1484</ele>
        <time>2010-07-17T12:30:20Z</time>
      </trkpt>
      <trkpt lat="44.4745" lon="5.94512">
        <ele>1485</ele>
        <time>2010-07-17T12:30:28Z</time>
      </trkpt>
      <trkpt lat="44.47456" lon="5.945">
        <ele>1485</ele>
        <time>2010-07-17T12:30:36Z</time>
      </trkpt>
      <trkpt lat="44.4746" lon="5.94489">
        <ele>1485</ele>
        <time>2010-07-17T12:30:43Z</time>
      </trkpt>
      <trkpt lat="44.47463" lon="5.94478">
        <ele>1486</ele>
        <time>2010-07-17T12:30:50Z</time>
      </trkpt>
      <trkpt lat="44.47466" lon="5.94466">
        <ele>1487</ele>
        <time>2010-07-17T12:30:57Z</time>
      </trkpt>
      <trkpt lat="44.47469" lon="5.94454">
        <ele>1489</ele>
        <time>2010-07-17T12:31:04Z</time>
      </trkpt>
      <trkpt lat="44.47472" lon="5.94442">
        <ele>1491</ele>
        <time>2010-07-17T12:31:11Z</time>
      </trkpt>
      <trkpt lat="44.47475" lon="5.9443">
        <ele>1492</ele>
        <time>2010-07-17T12:31:18Z</time>
      </trkpt>
      <trkpt lat="44.47478" lon="5.94417">
        <ele>1493</ele>
        <time>2010-07-17T12:31:25Z</time>
      </trkpt>
      <trkpt lat="44.47483" lon="5.94404">
        <ele>1494</ele>
        <time>2010-07-17T12:31:32Z</time>
      </trkpt>
      <trkpt lat="44.47489" lon="5.94391">
        <ele>1495</ele>
        <time>2010-07-17T12:31:39Z</time>
      </trkpt>
      <trkpt lat="44.47496" lon="5.94378">
        <ele>1497</ele>
        <time>2010-07-17T12:31:46Z</time>
      </trkpt>
      <trkpt lat="44.47503" lon="5.94366">
        <ele>1498</ele>
        <time>2010-07-17T12:31:53Z</time>
      </trkpt>
      <trkpt lat="44.47511" lon="5.94354">
        <ele>1499</ele>
        <time>2010-07-17T12:32:00Z</time>
      </trkpt>
      <trkpt lat="44.4752" lon="5.94345">
        <ele>1501</ele>
        <time>2010-07-17T12:32:07Z</time>
      </trkpt>
      <trkpt lat="44.4753" lon="5.94335">
        <ele>1503</ele>
        <time>2010-07-17T12:32:14Z</time>
      </trkpt>
      <trkpt lat="44.4754" lon="5.94327">
        <ele>1505</ele>
        <time>2010-07-17T12:32:21Z</time>
      </trkpt>
      <trkpt lat="44.47548" lon="5.94318">
        <ele>1507</ele>
        <time>2010-07-17T12:32:28Z</time>
      </trkpt>
      <trkpt lat="44.47557" lon="5.94308">
        <ele>1507</ele>
        <time>2010-07-17T12:32:35Z</time>
      </trkpt>
      <trkpt lat="44.47565" lon="5.94297">
        <ele>1508</ele>
        <time>2010-07-17T12:32:42Z</time>
      </trkpt>
      <trkpt lat="44.47572" lon="5.94286">
        <ele>1509</ele>
        <time>2010-07-17T12:32:49Z</time>
      </trkpt>
      <trkpt lat="44.47579" lon="5.94274">
        <ele>1510</ele>
        <time>2010-07-17T12:32:56Z</time>
      </trkpt>
      <trkpt lat="44.47586" lon="5.94262">
        <ele>1511</ele>
        <time>2010-07-17T12:33:03Z</time>
      </trkpt>
      <trkpt lat="44.47593" lon="5.94248">
        <ele>1511</ele>
        <time>2010-07-17T12:33:10Z</time>
      </trkpt>
      <trkpt lat="44.47598" lon="5.94236">
        <ele>1512</ele>
        <time>2010-07-17T12:33:17Z</time>
      </trkpt>
      <trkpt lat="44.47603" lon="5.94223">
        <ele>1513</ele>
        <time>2010-07-17T12:33:24Z</time>
      </trkpt>
      <trkpt lat="44.47607" lon="5.9421">
        <ele>1515</ele>
        <time>2010-07-17T12:33:31Z</time>
      </trkpt>
      <trkpt lat="44.4761" lon="5.94197">
        <ele>1516</ele>
        <time>2010-07-17T12:33:38Z</time>
      </trkpt>
      <trkpt lat="44.47614" lon="5.94184">
        <ele>1517</ele>
        <time>2010-07-17T12:33:45Z</time>
      </trkpt>
      <trkpt lat="44.47617" lon="5.9417">
        <ele>1519</ele>
        <time>2010-07-17T12:33:52Z</time>
      </trkpt>
      <trkpt lat="44.47621" lon="5.94157">
        <ele>1520</ele>
        <time>2010-07-17T12:33:59Z</time>
      </trkpt>
      <trkpt lat="44.47627" lon="5.94145">
        <ele>1521</ele>
        <time>2010-07-17T12:34:06Z</time>
      </trkpt>
      <trkpt lat="44.47635" lon="5.94135">
        <ele>1523</ele>
        <time>2010-07-17T12:34:13Z</time>
      </trkpt>
      <trkpt lat="44.47643" lon="5.94124">
        <ele>1524</ele>
        <time>2010-07-17T12:34:20Z</time>
      </trkpt>
      <trkpt lat="44.47651" lon="5.94113">
        <ele>1524</ele>
        <time>2010-07-17T12:34:27Z</time>
      </trkpt>
      <trkpt lat="44.47658" lon="5.94101">
        <ele>1526</ele>
        <time>2010-07-17T12:34:34Z</time>
      </trkpt>
      <trkpt lat="44.47667" lon="5.94091">
        <ele>1527</ele>
        <time>2010-07-17T12:34:41Z</time>
      </trkpt>
      <trkpt lat="44.47673" lon="5.9408">
        <ele>1529</ele>
        <time>2010-07-17T12:34:48Z</time>
      </trkpt>
      <trkpt lat="44.47679" lon="5.94069">
        <ele>1531</ele>
        <time>2010-07-17T12:34:55Z</time>
      </trkpt>
      <trkpt lat="44.47685" lon="5.9406">
        <ele>1532</ele>
        <time>2010-07-17T12:35:02Z</time>
      </trkpt>
      <trkpt lat="44.47689" lon="5.94046">
        <ele>1533</ele>
        <time>2010-07-17T12:35:09Z</time>
      </trkpt>
      <trkpt lat="44.4769" lon="5.94031">
        <ele>1533</ele>
        <time>2010-07-17T12:35:16Z</time>
      </trkpt>
      <trkpt lat="44.47692" lon="5.94019">
        <ele>1533</ele>
        <time>2010-07-17T12:35:23Z</time>
      </trkpt>
      <trkpt lat="44.47691" lon="5.94007">
        <ele>1535</ele>
        <time>2010-07-17T12:35:30Z</time>
      </trkpt>
      <trkpt lat="44.47694" lon="5.93992">
        <ele>1535</ele>
        <time>2010-07-17T12:35:37Z</time>
      </trkpt>
      <trkpt lat="44.47695" lon="5.93977">
        <ele>1535</ele>
        <time>2010-07-17T12:35:44Z</time>
      </trkpt>
      <trkpt lat="44.47698" lon="5.93964">
        <ele>1537</ele>
        <time>2010-07-17T12:35:51Z</time>
      </trkpt>
      <trkpt lat="44.47701" lon="5.93953">
        <ele>1538</ele>
        <time>2010-07-17T12:35:58Z</time>
      </trkpt>
      <trkpt lat="44.47702" lon="5.93938">
        <ele>1540</ele>
        <time>2010-07-17T12:36:05Z</time>
      </trkpt>
      <trkpt lat="44.47702" lon="5.93925">
        <ele>1540</ele>
        <time>2010-07-17T12:36:12Z</time>
      </trkpt>
      <trkpt lat="44.47704" lon="5.93909">
        <ele>1541</ele>
        <time>2010-07-17T12:36:19Z</time>
      </trkpt>
      <trkpt lat="44.47706" lon="5.93894">
        <ele>1543</ele>
        <time>2010-07-17T12:36:26Z</time>
      </trkpt>
      <trkpt lat="44.47709" lon="5.93879">
        <ele>1544</ele>
        <time>2010-07-17T12:36:33Z</time>
      </trkpt>
      <trkpt lat="44.47716" lon="5.93865">
        <ele>1546</ele>
        <time>2010-07-17T12:36:40Z</time>
      </trkpt>
      <trkpt lat="44.47725" lon="5.93855">
        <ele>1546</ele>
        <time>2010-07-17T12:36:47Z</time>
      </trkpt>
      <trkpt lat="44.47732" lon="5.93846">
        <ele>1549</ele>
        <time>2010-07-17T12:36:54Z</time>
      </trkpt>
      <trkpt lat="44.47736" lon="5.93833">
        <ele>1551</ele>
        <time>2010-07-17T12:37:01Z</time>
      </trkpt>
      <trkpt lat="44.47741" lon="5.93822">
        <ele>1552</ele>
        <time>2010-07-17T12:37:08Z</time>
      </trkpt>
      <trkpt lat="44.47746" lon="5.9381">
        <ele>1552</ele>
        <time>2010-07-17T12:37:15Z</time>
      </trkpt>
      <trkpt lat="44.47749" lon="5.93794">
        <ele>1553</ele>
        <time>2010-07-17T12:37:22Z</time>
      </trkpt>
      <trkpt lat="44.47748" lon="5.93779">
        <ele>1555</ele>
        <time>2010-07-17T12:37:29Z</time>
      </trkpt>
      <trkpt lat="44.47748" lon="5.93767">
        <ele>1555</ele>
        <time>2010-07-17T12:37:45Z</time>
      </trkpt>
      <trkpt lat="44.47748" lon="5.93766">
        <ele>1558</ele>
        <time>2010-07-17T12:38:04Z</time>
      </trkpt>
      <trkpt lat="44.47747" lon="5.93755">
        <ele>1558</ele>
        <time>2010-07-17T12:38:11Z</time>
      </trkpt>
      <trkpt lat="44.47748" lon="5.93742">
        <ele>1558</ele>
        <time>2010-07-17T12:38:18Z</time>
      </trkpt>
      <trkpt lat="44.47747" lon="5.93731">
        <ele>1558</ele>
        <time>2010-07-17T12:38:25Z</time>
      </trkpt>
      <trkpt lat="44.47747" lon="5.93728">
        <ele>1558</ele>
        <time>2010-07-17T12:38:34Z</time>
      </trkpt>
      <trkpt lat="44.47746" lon="5.93721">
        <ele>1558</ele>
        <time>2010-07-17T12:38:41Z</time>
      </trkpt>
      <trkpt lat="44.47744" lon="5.93722">
        <ele>1558</ele>
        <time>2010-07-17T12:38:48Z</time>
      </trkpt>
      <trkpt lat="44.47744" lon="5.93722">
        <ele>1558</ele>
        <time>2010-07-17T12:38:59Z</time>
      </trkpt>
      <trkpt lat="44.47745" lon="5.9372">
        <ele>1559</ele>
        <time>2010-07-17T12:39:17Z</time>
      </trkpt>
      <trkpt lat="44.47747" lon="5.93721">
        <ele>1559</ele>
        <time>2010-07-17T12:39:29Z</time>
      </trkpt>
      <trkpt lat="44.47749" lon="5.93719">
        <ele>1559</ele>
        <time>2010-07-17T12:39:36Z</time>
      </trkpt>
      <trkpt lat="44.47748" lon="5.93718">
        <ele>1558</ele>
        <time>2010-07-17T12:39:46Z</time>
      </trkpt>
      <trkpt lat="44.47746" lon="5.93717">
        <ele>1557</ele>
        <time>2010-07-17T12:39:55Z</time>
      </trkpt>
      <trkpt lat="44.47744" lon="5.93719">
        <ele>1557</ele>
        <time>2010-07-17T12:40:02Z</time>
      </trkpt>
      <trkpt lat="44.47744" lon="5.93721">
        <ele>1557</ele>
        <time>2010-07-17T12:40:11Z</time>
      </trkpt>
      <trkpt lat="44.47745" lon="5.93724">
        <ele>1563</ele>
        <time>2010-07-17T12:40:24Z</time>
      </trkpt>
      <trkpt lat="44.47744" lon="5.93722">
        <ele>1565</ele>
        <time>2010-07-17T12:40:32Z</time>
      </trkpt>
      <trkpt lat="44.47747" lon="5.93713">
        <ele>1565</ele>
        <time>2010-07-17T12:40:39Z</time>
      </trkpt>
      <trkpt lat="44.47754" lon="5.93694">
        <ele>1565</ele>
        <time>2010-07-17T12:40:46Z</time>
      </trkpt>
      <trkpt lat="44.47758" lon="5.93675">
        <ele>1565</ele>
        <time>2010-07-17T12:40:53Z</time>
      </trkpt>
      <trkpt lat="44.47766" lon="5.93659">
        <ele>1565</ele>
        <time>2010-07-17T12:41:00Z</time>
      </trkpt>
      <trkpt lat="44.47772" lon="5.93643">
        <ele>1565</ele>
        <time>2010-07-17T12:41:07Z</time>
      </trkpt>
      <trkpt lat="44.47776" lon="5.93626">
        <ele>1565</ele>
        <time>2010-07-17T12:41:14Z</time>
      </trkpt>
      <trkpt lat="44.47776" lon="5.93611">
        <ele>1565</ele>
        <time>2010-07-17T12:41:21Z</time>
      </trkpt>
      <trkpt lat="44.47776" lon="5.93595">
        <ele>1565</ele>
        <time>2010-07-17T12:41:28Z</time>
      </trkpt>
      <trkpt lat="44.47773" lon="5.93583">
        <ele>1565</ele>
        <time>2010-07-17T12:41:35Z</time>
      </trkpt>
      <trkpt lat="44.47768" lon="5.93569">
        <ele>1567</ele>
        <time>2010-07-17T12:41:42Z</time>
      </trkpt>
      <trkpt lat="44.47764" lon="5.93556">
        <ele>1569</ele>
        <time>2010-07-17T12:41:49Z</time>
      </trkpt>
      <trkpt lat="44.47765" lon="5.93541">
        <ele>1570</ele>
        <time>2010-07-17T12:41:56Z</time>
      </trkpt>
      <trkpt lat="44.47766" lon="5.93526">
        <ele>1570</ele>
        <time>2010-07-17T12:42:03Z</time>
      </trkpt>
      <trkpt lat="44.4777" lon="5.93513">
        <ele>1572</ele>
        <time>2010-07-17T12:42:10Z</time>
      </trkpt>
      <trkpt lat="44.47775" lon="5.93498">
        <ele>1574</ele>
        <time>2010-07-17T12:42:17Z</time>
      </trkpt>
      <trkpt lat="44.4778" lon="5.93484">
        <ele>1575</ele>
        <time>2010-07-17T12:42:24Z</time>
      </trkpt>
      <trkpt lat="44.47785" lon="5.9347">
        <ele>1577</ele>
        <time>2010-07-17T12:42:31Z</time>
      </trkpt>
      <trkpt lat="44.47788" lon="5.93456">
        <ele>1577</ele>
        <time>2010-07-17T12:42:38Z</time>
      </trkpt>
      <trkpt lat="44.47784" lon="5.93443">
        <ele>1577</ele>
        <time>2010-07-17T12:42:45Z</time>
      </trkpt>
      <trkpt lat="44.47773" lon="5.93447">
        <ele>1577</ele>
        <time>2010-07-17T12:42:52Z</time>
      </trkpt>
      <trkpt lat="44.47765" lon="5.93459">
        <ele>1578</ele>
        <time>2010-07-17T12:42:59Z</time>
      </trkpt>
      <trkpt lat="44.47758" lon="5.93469">
        <ele>1579</ele>
        <time>2010-07-17T12:43:06Z</time>
      </trkpt>
      <trkpt lat="44.47749" lon="5.9347">
        <ele>1580</ele>
        <time>2010-07-17T12:43:13Z</time>
      </trkpt>
      <trkpt lat="44.47742" lon="5.9346">
        <ele>1581</ele>
        <time>2010-07-17T12:43:20Z</time>
      </trkpt>
      <trkpt lat="44.47739" lon="5.93448">
        <ele>1582</ele>
        <time>2010-07-17T12:43:27Z</time>
      </trkpt>
      <trkpt lat="44.47737" lon="5.93435">
        <ele>1584</ele>
        <time>2010-07-17T12:43:34Z</time>
      </trkpt>
      <trkpt lat="44.47734" lon="5.93428">
        <ele>1584</ele>
        <time>2010-07-17T12:44:08Z</time>
      </trkpt>
      <trkpt lat="44.47736" lon="5.93427">
        <ele>1584</ele>
        <time>2010-07-17T12:44:22Z</time>
      </trkpt>
      <trkpt lat="44.47737" lon="5.93426">
        <ele>1584</ele>
        <time>2010-07-17T12:44:31Z</time>
      </trkpt>
      <trkpt lat="44.47736" lon="5.93424">
        <ele>1584</ele>
        <time>2010-07-17T12:44:50Z</time>
      </trkpt>
      <trkpt lat="44.47737" lon="5.93424">
        <ele>1584</ele>
        <time>2010-07-17T12:44:57Z</time>
      </trkpt>
      <trkpt lat="44.47739" lon="5.93423">
        <ele>1583</ele>
        <time>2010-07-17T12:45:18Z</time>
      </trkpt>
      <trkpt lat="44.47737" lon="5.93424">
        <ele>1582</ele>
        <time>2010-07-17T12:45:25Z</time>
      </trkpt>
      <trkpt lat="44.47739" lon="5.93423">
        <ele>1582</ele>
        <time>2010-07-17T12:45:35Z</time>
      </trkpt>
      <trkpt lat="44.4774" lon="5.93423">
        <ele>1582</ele>
        <time>2010-07-17T12:45:43Z</time>
      </trkpt>
      <trkpt lat="44.47734" lon="5.93422">
        <ele>1585</ele>
        <time>2010-07-17T12:46:03Z</time>
      </trkpt>
      <trkpt lat="44.47731" lon="5.93423">
        <ele>1586</ele>
        <time>2010-07-17T12:46:12Z</time>
      </trkpt>
      <trkpt lat="44.47729" lon="5.93424">
        <ele>1586</ele>
        <time>2010-07-17T12:46:20Z</time>
      </trkpt>
      <trkpt lat="44.47726" lon="5.93424">
        <ele>1586</ele>
        <time>2010-07-17T12:46:30Z</time>
      </trkpt>
      <trkpt lat="44.47725" lon="5.93422">
        <ele>1584</ele>
        <time>2010-07-17T12:46:39Z</time>
      </trkpt>
      <trkpt lat="44.47726" lon="5.93421">
        <ele>1582</ele>
        <time>2010-07-17T12:46:59Z</time>
      </trkpt>
      <trkpt lat="44.47726" lon="5.93419">
        <ele>1586</ele>
        <time>2010-07-17T12:47:16Z</time>
      </trkpt>
      <trkpt lat="44.47726" lon="5.93421">
        <ele>1586</ele>
        <time>2010-07-17T12:47:23Z</time>
      </trkpt>
      <trkpt lat="44.47726" lon="5.93423">
        <ele>1587</ele>
        <time>2010-07-17T12:47:34Z</time>
      </trkpt>
      <trkpt lat="44.47725" lon="5.93427">
        <ele>1588</ele>
        <time>2010-07-17T12:47:44Z</time>
      </trkpt>
      <trkpt lat="44.4771" lon="5.93434">
        <ele>1588</ele>
        <time>2010-07-17T12:47:52Z</time>
      </trkpt>
      <trkpt lat="44.47677" lon="5.93445">
        <ele>1588</ele>
        <time>2010-07-17T12:47:59Z</time>
      </trkpt>
      <trkpt lat="44.47654" lon="5.93451">
        <ele>1588</ele>
        <time>2010-07-17T12:48:06Z</time>
      </trkpt>
      <trkpt lat="44.47627" lon="5.93452">
        <ele>1588</ele>
        <time>2010-07-17T12:48:14Z</time>
      </trkpt>
      <trkpt lat="44.47596" lon="5.93448">
        <ele>1587</ele>
        <time>2010-07-17T12:48:21Z</time>
      </trkpt>
      <trkpt lat="44.47547" lon="5.93448">
        <ele>1585</ele>
        <time>2010-07-17T12:48:29Z</time>
      </trkpt>
      <trkpt lat="44.47526" lon="5.93449">
        <ele>1584</ele>
        <time>2010-07-17T12:48:37Z</time>
      </trkpt>
      <trkpt lat="44.47518" lon="5.93443">
        <ele>1580</ele>
        <time>2010-07-17T12:48:48Z</time>
      </trkpt>
      <trkpt lat="44.47517" lon="5.93442">
        <ele>1579</ele>
        <time>2010-07-17T12:49:05Z</time>
      </trkpt>
      <trkpt lat="44.47514" lon="5.93439">
        <ele>1575</ele>
        <time>2010-07-17T12:49:25Z</time>
      </trkpt>
      <trkpt lat="44.47512" lon="5.93432">
        <ele>1575</ele>
        <time>2010-07-17T12:49:32Z</time>
      </trkpt>
      <trkpt lat="44.47509" lon="5.93393">
        <ele>1571</ele>
        <time>2010-07-17T12:49:40Z</time>
      </trkpt>
      <trkpt lat="44.47518" lon="5.93372">
        <ele>1565</ele>
        <time>2010-07-17T12:49:48Z</time>
      </trkpt>
      <trkpt lat="44.47532" lon="5.93365">
        <ele>1564</ele>
        <time>2010-07-17T12:49:55Z</time>
      </trkpt>
      <trkpt lat="44.47525" lon="5.93351">
        <ele>1561</ele>
        <time>2010-07-17T12:50:03Z</time>
      </trkpt>
      <trkpt lat="44.47493" lon="5.93341">
        <ele>1554</ele>
        <time>2010-07-17T12:50:10Z</time>
      </trkpt>
      <trkpt lat="44.47482" lon="5.9334">
        <ele>1550</ele>
        <time>2010-07-17T12:50:18Z</time>
      </trkpt>
      <trkpt lat="44.47496" lon="5.93324">
        <ele>1543</ele>
        <time>2010-07-17T12:50:26Z</time>
      </trkpt>
      <trkpt lat="44.47495" lon="5.93321">
        <ele>1541</ele>
        <time>2010-07-17T12:50:33Z</time>
      </trkpt>
      <trkpt lat="44.47476" lon="5.9331">
        <ele>1536</ele>
        <time>2010-07-17T12:50:40Z</time>
      </trkpt>
      <trkpt lat="44.47453" lon="5.93309">
        <ele>1531</ele>
        <time>2010-07-17T12:50:48Z</time>
      </trkpt>
      <trkpt lat="44.47424" lon="5.9333">
        <ele>1527</ele>
        <time>2010-07-17T12:50:55Z</time>
      </trkpt>
      <trkpt lat="44.47407" lon="5.93345">
        <ele>1521</ele>
        <time>2010-07-17T12:51:03Z</time>
      </trkpt>
      <trkpt lat="44.47404" lon="5.9334">
        <ele>1513</ele>
        <time>2010-07-17T12:51:11Z</time>
      </trkpt>
      <trkpt lat="44.47402" lon="5.93337">
        <ele>1511</ele>
        <time>2010-07-17T12:51:19Z</time>
      </trkpt>
      <trkpt lat="44.474" lon="5.9334">
        <ele>1511</ele>
        <time>2010-07-17T12:51:32Z</time>
      </trkpt>
      <trkpt lat="44.47399" lon="5.93336">
        <ele>1511</ele>
        <time>2010-07-17T12:51:43Z</time>
      </trkpt>
      <trkpt lat="44.47397" lon="5.93311">
        <ele>1507</ele>
        <time>2010-07-17T12:51:50Z</time>
      </trkpt>
      <trkpt lat="44.47406" lon="5.93284">
        <ele>1502</ele>
        <time>2010-07-17T12:51:58Z</time>
      </trkpt>
      <trkpt lat="44.47413" lon="5.93247">
        <ele>1494</ele>
        <time>2010-07-17T12:52:05Z</time>
      </trkpt>
      <trkpt lat="44.47397" lon="5.93244">
        <ele>1487</ele>
        <time>2010-07-17T12:52:13Z</time>
      </trkpt>
      <trkpt lat="44.47369" lon="5.93256">
        <ele>1481</ele>
        <time>2010-07-17T12:52:20Z</time>
      </trkpt>
      <trkpt lat="44.47339" lon="5.93267">
        <ele>1478</ele>
        <time>2010-07-17T12:52:28Z</time>
      </trkpt>
      <trkpt lat="44.4729" lon="5.93289">
        <ele>1475</ele>
        <time>2010-07-17T12:52:35Z</time>
      </trkpt>
      <trkpt lat="44.47276" lon="5.93285">
        <ele>1469</ele>
        <time>2010-07-17T12:52:43Z</time>
      </trkpt>
      <trkpt lat="44.47264" lon="5.93263">
        <ele>1461</ele>
        <time>2010-07-17T12:52:50Z</time>
      </trkpt>
      <trkpt lat="44.4725" lon="5.93236">
        <ele>1459</ele>
        <time>2010-07-17T12:52:58Z</time>
      </trkpt>
      <trkpt lat="44.47242" lon="5.93213">
        <ele>1458</ele>
        <time>2010-07-17T12:53:05Z</time>
      </trkpt>
      <trkpt lat="44.47246" lon="5.93188">
        <ele>1457</ele>
        <time>2010-07-17T12:53:13Z</time>
      </trkpt>
      <trkpt lat="44.47243" lon="5.93164">
        <ele>1456</ele>
        <time>2010-07-17T12:53:21Z</time>
      </trkpt>
      <trkpt lat="44.47237" lon="5.93137">
        <ele>1456</ele>
        <time>2010-07-17T12:53:28Z</time>
      </trkpt>
      <trkpt lat="44.47239" lon="5.93109">
        <ele>1456</ele>
        <time>2010-07-17T12:53:35Z</time>
      </trkpt>
      <trkpt lat="44.47241" lon="5.93067">
        <ele>1456</ele>
        <time>2010-07-17T12:53:43Z</time>
      </trkpt>
      <trkpt lat="44.47247" lon="5.93015">
        <ele>1455</ele>
        <time>2010-07-17T12:53:50Z</time>
      </trkpt>
      <trkpt lat="44.47249" lon="5.92982">
        <ele>1455</ele>
        <time>2010-07-17T12:53:58Z</time>
      </trkpt>
      <trkpt lat="44.47256" lon="5.92953">
        <ele>1455</ele>
        <time>2010-07-17T12:54:05Z</time>
      </trkpt>
      <trkpt lat="44.47256" lon="5.92927">
        <ele>1456</ele>
        <time>2010-07-17T12:54:13Z</time>
      </trkpt>
      <trkpt lat="44.47248" lon="5.92892">
        <ele>1456</ele>
        <time>2010-07-17T12:54:20Z</time>
      </trkpt>
      <trkpt lat="44.47244" lon="5.9287">
        <ele>1457</ele>
        <time>2010-07-17T12:54:28Z</time>
      </trkpt>
      <trkpt lat="44.47228" lon="5.92843">
        <ele>1457</ele>
        <time>2010-07-17T12:54:35Z</time>
      </trkpt>
      <trkpt lat="44.47223" lon="5.92824">
        <ele>1457</ele>
        <time>2010-07-17T12:54:43Z</time>
      </trkpt>
      <trkpt lat="44.47218" lon="5.92786">
        <ele>1457</ele>
        <time>2010-07-17T12:54:50Z</time>
      </trkpt>
      <trkpt lat="44.47215" lon="5.92763">
        <ele>1457</ele>
        <time>2010-07-17T12:54:58Z</time>
      </trkpt>
      <trkpt lat="44.47216" lon="5.92731">
        <ele>1457</ele>
        <time>2010-07-17T12:55:05Z</time>
      </trkpt>
      <trkpt lat="44.47213" lon="5.92707">
        <ele>1459</ele>
        <time>2010-07-17T12:55:13Z</time>
      </trkpt>
      <trkpt lat="44.4721" lon="5.92672">
        <ele>1460</ele>
        <time>2010-07-17T12:55:20Z</time>
      </trkpt>
      <trkpt lat="44.47207" lon="5.92647">
        <ele>1461</ele>
        <time>2010-07-17T12:55:28Z</time>
      </trkpt>
      <trkpt lat="44.47197" lon="5.92614">
        <ele>1460</ele>
        <time>2010-07-17T12:55:35Z</time>
      </trkpt>
      <trkpt lat="44.47184" lon="5.92582">
        <ele>1453</ele>
        <time>2010-07-17T12:55:43Z</time>
      </trkpt>
      <trkpt lat="44.47174" lon="5.92539">
        <ele>1447</ele>
        <time>2010-07-17T12:55:50Z</time>
      </trkpt>
      <trkpt lat="44.47169" lon="5.92512">
        <ele>1442</ele>
        <time>2010-07-17T12:55:58Z</time>
      </trkpt>
      <trkpt lat="44.47156" lon="5.92477">
        <ele>1435</ele>
        <time>2010-07-17T12:56:05Z</time>
      </trkpt>
      <trkpt lat="44.47147" lon="5.92453">
        <ele>1431</ele>
        <time>2010-07-17T12:56:13Z</time>
      </trkpt>
      <trkpt lat="44.47136" lon="5.92438">
        <ele>1429</ele>
        <time>2010-07-17T12:56:20Z</time>
      </trkpt>
      <trkpt lat="44.47131" lon="5.92434">
        <ele>1429</ele>
        <time>2010-07-17T12:56:28Z</time>
      </trkpt>
      <trkpt lat="44.47127" lon="5.92434">
        <ele>1432</ele>
        <time>2010-07-17T12:56:36Z</time>
      </trkpt>
      <trkpt lat="44.47128" lon="5.9243">
        <ele>1433</ele>
        <time>2010-07-17T12:56:48Z</time>
      </trkpt>
      <trkpt lat="44.47124" lon="5.92423">
        <ele>1433</ele>
        <time>2010-07-17T12:56:55Z</time>
      </trkpt>
      <trkpt lat="44.47115" lon="5.9241">
        <ele>1433</ele>
        <time>2010-07-17T12:57:03Z</time>
      </trkpt>
      <trkpt lat="44.47103" lon="5.92405">
        <ele>1433</ele>
        <time>2010-07-17T12:57:10Z</time>
      </trkpt>
      <trkpt lat="44.47089" lon="5.92408">
        <ele>1433</ele>
        <time>2010-07-17T12:57:18Z</time>
      </trkpt>
      <trkpt lat="44.47086" lon="5.92407">
        <ele>1439</ele>
        <time>2010-07-17T12:57:29Z</time>
      </trkpt>
      <trkpt lat="44.47072" lon="5.92415">
        <ele>1441</ele>
        <time>2010-07-17T12:57:36Z</time>
      </trkpt>
      <trkpt lat="44.47051" lon="5.92432">
        <ele>1441</ele>
        <time>2010-07-17T12:57:43Z</time>
      </trkpt>
      <trkpt lat="44.47029" lon="5.92462">
        <ele>1441</ele>
        <time>2010-07-17T12:57:50Z</time>
      </trkpt>
      <trkpt lat="44.47002" lon="5.92485">
        <ele>1441</ele>
        <time>2010-07-17T12:57:58Z</time>
      </trkpt>
      <trkpt lat="44.46975" lon="5.92512">
        <ele>1441</ele>
        <time>2010-07-17T12:58:05Z</time>
      </trkpt>
      <trkpt lat="44.46945" lon="5.92525">
        <ele>1440</ele>
        <time>2010-07-17T12:58:13Z</time>
      </trkpt>
      <trkpt lat="44.46925" lon="5.92485">
        <ele>1433</ele>
        <time>2010-07-17T12:58:20Z</time>
      </trkpt>
      <trkpt lat="44.46913" lon="5.92431">
        <ele>1425</ele>
        <time>2010-07-17T12:58:28Z</time>
      </trkpt>
      <trkpt lat="44.46899" lon="5.92388">
        <ele>1421</ele>
        <time>2010-07-17T12:58:35Z</time>
      </trkpt>
      <trkpt lat="44.46883" lon="5.9234">
        <ele>1416</ele>
        <time>2010-07-17T12:58:43Z</time>
      </trkpt>
      <trkpt lat="44.4688" lon="5.92278">
        <ele>1416</ele>
        <time>2010-07-17T12:58:50Z</time>
      </trkpt>
      <trkpt lat="44.46887" lon="5.92245">
        <ele>1416</ele>
        <time>2010-07-17T12:58:58Z</time>
      </trkpt>
      <trkpt lat="44.46895" lon="5.9222">
        <ele>1423</ele>
        <time>2010-07-17T12:59:05Z</time>
      </trkpt>
      <trkpt lat="44.46891" lon="5.92193">
        <ele>1423</ele>
        <time>2010-07-17T12:59:13Z</time>
      </trkpt>
      <trkpt lat="44.46879" lon="5.92167">
        <ele>1423</ele>
        <time>2010-07-17T12:59:20Z</time>
      </trkpt>
      <trkpt lat="44.46856" lon="5.92147">
        <ele>1422</ele>
        <time>2010-07-17T12:59:28Z</time>
      </trkpt>
      <trkpt lat="44.46828" lon="5.92121">
        <ele>1420</ele>
        <time>2010-07-17T12:59:35Z</time>
      </trkpt>
      <trkpt lat="44.46798" lon="5.92099">
        <ele>1416</ele>
        <time>2010-07-17T12:59:43Z</time>
      </trkpt>
      <trkpt lat="44.46764" lon="5.92057">
        <ele>1412</ele>
        <time>2010-07-17T12:59:50Z</time>
      </trkpt>
      <trkpt lat="44.46726" lon="5.92024">
        <ele>1407</ele>
        <time>2010-07-17T12:59:58Z</time>
      </trkpt>
      <trkpt lat="44.4669" lon="5.91999">
        <ele>1403</ele>
        <time>2010-07-17T13:00:05Z</time>
      </trkpt>
      <trkpt lat="44.46686" lon="5.91952">
        <ele>1398</ele>
        <time>2010-07-17T13:00:13Z</time>
      </trkpt>
      <trkpt lat="44.46688" lon="5.91949">
        <ele>1396</ele>
        <time>2010-07-17T13:00:23Z</time>
      </trkpt>
      <trkpt lat="44.46683" lon="5.9195">
        <ele>1396</ele>
        <time>2010-07-17T13:00:30Z</time>
      </trkpt>
      <trkpt lat="44.46691" lon="5.91946">
        <ele>1396</ele>
        <time>2010-07-17T13:00:38Z</time>
      </trkpt>
      <trkpt lat="44.46703" lon="5.91926">
        <ele>1396</ele>
        <time>2010-07-17T13:00:45Z</time>
      </trkpt>
      <trkpt lat="44.46729" lon="5.91904">
        <ele>1393</ele>
        <time>2010-07-17T13:00:53Z</time>
      </trkpt>
      <trkpt lat="44.46767" lon="5.91862">
        <ele>1385</ele>
        <time>2010-07-17T13:01:00Z</time>
      </trkpt>
      <trkpt lat="44.4679" lon="5.91833">
        <ele>1378</ele>
        <time>2010-07-17T13:01:08Z</time>
      </trkpt>
      <trkpt lat="44.46794" lon="5.91825">
        <ele>1377</ele>
        <time>2010-07-17T13:01:16Z</time>
      </trkpt>
      <trkpt lat="44.46797" lon="5.91819">
        <ele>1375</ele>
        <time>2010-07-17T13:01:23Z</time>
      </trkpt>
      <trkpt lat="44.46798" lon="5.91821">
        <ele>1375</ele>
        <time>2010-07-17T13:01:38Z</time>
      </trkpt>
      <trkpt lat="44.46799" lon="5.9182">
        <ele>1378</ele>
        <time>2010-07-17T13:01:56Z</time>
      </trkpt>
      <trkpt lat="44.46799" lon="5.91822">
        <ele>1381</ele>
        <time>2010-07-17T13:02:08Z</time>
      </trkpt>
      <trkpt lat="44.46799" lon="5.91823">
        <ele>1386</ele>
        <time>2010-07-17T13:02:25Z</time>
      </trkpt>
      <trkpt lat="44.468" lon="5.91822">
        <ele>1386</ele>
        <time>2010-07-17T13:02:33Z</time>
      </trkpt>
      <trkpt lat="44.46803" lon="5.91825">
        <ele>1386</ele>
        <time>2010-07-17T13:02:40Z</time>
      </trkpt>
      <trkpt lat="44.46803" lon="5.91822">
        <ele>1382</ele>
        <time>2010-07-17T13:03:03Z</time>
      </trkpt>
      <trkpt lat="44.46814" lon="5.91805">
        <ele>1380</ele>
        <time>2010-07-17T13:03:10Z</time>
      </trkpt>
      <trkpt lat="44.46838" lon="5.91785">
        <ele>1377</ele>
        <time>2010-07-17T13:03:18Z</time>
      </trkpt>
      <trkpt lat="44.46871" lon="5.91768">
        <ele>1371</ele>
        <time>2010-07-17T13:03:25Z</time>
      </trkpt>
      <trkpt lat="44.46886" lon="5.9176">
        <ele>1366</ele>
        <time>2010-07-17T13:03:33Z</time>
      </trkpt>
      <trkpt lat="44.46887" lon="5.91757">
        <ele>1365</ele>
        <time>2010-07-17T13:03:44Z</time>
      </trkpt>
      <trkpt lat="44.46886" lon="5.91754">
        <ele>1364</ele>
        <time>2010-07-17T13:03:51Z</time>
      </trkpt>
      <trkpt lat="44.46879" lon="5.91741">
        <ele>1362</ele>
        <time>2010-07-17T13:03:58Z</time>
      </trkpt>
      <trkpt lat="44.46855" lon="5.91719">
        <ele>1358</ele>
        <time>2010-07-17T13:04:05Z</time>
      </trkpt>
      <trkpt lat="44.46824" lon="5.91689">
        <ele>1354</ele>
        <time>2010-07-17T13:04:13Z</time>
      </trkpt>
      <trkpt lat="44.46804" lon="5.91637">
        <ele>1349</ele>
        <time>2010-07-17T13:04:20Z</time>
      </trkpt>
      <trkpt lat="44.46807" lon="5.916">
        <ele>1342</ele>
        <time>2010-07-17T13:04:28Z</time>
      </trkpt>
      <trkpt lat="44.46809" lon="5.91596">
        <ele>1339</ele>
        <time>2010-07-17T13:04:38Z</time>
      </trkpt>
      <trkpt lat="44.46806" lon="5.9159">
        <ele>1338</ele>
        <time>2010-07-17T13:04:48Z</time>
      </trkpt>
      <trkpt lat="44.46804" lon="5.91584">
        <ele>1336</ele>
        <time>2010-07-17T13:04:55Z</time>
      </trkpt>
      <trkpt lat="44.46802" lon="5.91581">
        <ele>1334</ele>
        <time>2010-07-17T13:05:03Z</time>
      </trkpt>
      <trkpt lat="44.46802" lon="5.91582">
        <ele>1334</ele>
        <time>2010-07-17T13:05:40Z</time>
      </trkpt>
      <trkpt lat="44.46802" lon="5.9158">
        <ele>1334</ele>
        <time>2010-07-17T13:05:59Z</time>
      </trkpt>
      <trkpt lat="44.46791" lon="5.91585">
        <ele>1334</ele>
        <time>2010-07-17T13:06:06Z</time>
      </trkpt>
      <trkpt lat="44.46781" lon="5.91584">
        <ele>1333</ele>
        <time>2010-07-17T13:06:13Z</time>
      </trkpt>
      <trkpt lat="44.4678" lon="5.91567">
        <ele>1326</ele>
        <time>2010-07-17T13:06:23Z</time>
      </trkpt>
      <trkpt lat="44.46777" lon="5.91572">
        <ele>1325</ele>
        <time>2010-07-17T13:06:31Z</time>
      </trkpt>
      <trkpt lat="44.4676" lon="5.91588">
        <ele>1325</ele>
        <time>2010-07-17T13:06:38Z</time>
      </trkpt>
      <trkpt lat="44.46753" lon="5.91586">
        <ele>1323</ele>
        <time>2010-07-17T13:06:45Z</time>
      </trkpt>
      <trkpt lat="44.46754" lon="5.91566">
        <ele>1318</ele>
        <time>2010-07-17T13:06:53Z</time>
      </trkpt>
      <trkpt lat="44.46752" lon="5.91544">
        <ele>1314</ele>
        <time>2010-07-17T13:07:01Z</time>
      </trkpt>
      <trkpt lat="44.46738" lon="5.91563">
        <ele>1310</ele>
        <time>2010-07-17T13:07:08Z</time>
      </trkpt>
      <trkpt lat="44.46719" lon="5.91578">
        <ele>1306</ele>
        <time>2010-07-17T13:07:15Z</time>
      </trkpt>
      <trkpt lat="44.46705" lon="5.91592">
        <ele>1302</ele>
        <time>2010-07-17T13:07:23Z</time>
      </trkpt>
      <trkpt lat="44.46704" lon="5.91585">
        <ele>1299</ele>
        <time>2010-07-17T13:07:31Z</time>
      </trkpt>
      <trkpt lat="44.46702" lon="5.91582">
        <ele>1299</ele>
        <time>2010-07-17T13:07:38Z</time>
      </trkpt>
      <trkpt lat="44.46701" lon="5.91583">
        <ele>1297</ele>
        <time>2010-07-17T13:07:49Z</time>
      </trkpt>
      <trkpt lat="44.46702" lon="5.91585">
        <ele>1295</ele>
        <time>2010-07-17T13:08:03Z</time>
      </trkpt>
      <trkpt lat="44.46702" lon="5.91583">
        <ele>1293</ele>
        <time>2010-07-17T13:08:13Z</time>
      </trkpt>
      <trkpt lat="44.46703" lon="5.91581">
        <ele>1292</ele>
        <time>2010-07-17T13:08:21Z</time>
      </trkpt>
      <trkpt lat="44.46702" lon="5.9158">
        <ele>1292</ele>
        <time>2010-07-17T13:08:34Z</time>
      </trkpt>
      <trkpt lat="44.46701" lon="5.91578">
        <ele>1292</ele>
        <time>2010-07-17T13:08:49Z</time>
      </trkpt>
      <trkpt lat="44.46699" lon="5.91578">
        <ele>1292</ele>
        <time>2010-07-17T13:08:59Z</time>
      </trkpt>
      <trkpt lat="44.46698" lon="5.91578">
        <ele>1292</ele>
        <time>2010-07-17T13:09:06Z</time>
      </trkpt>
      <trkpt lat="44.467" lon="5.91581">
        <ele>1292</ele>
        <time>2010-07-17T13:09:13Z</time>
      </trkpt>
      <trkpt lat="44.467" lon="5.91577">
        <ele>1288</ele>
        <time>2010-07-17T13:09:33Z</time>
      </trkpt>
      <trkpt lat="44.467" lon="5.91581">
        <ele>1288</ele>
        <time>2010-07-17T13:09:49Z</time>
      </trkpt>
      <trkpt lat="44.46695" lon="5.91585">
        <ele>1288</ele>
        <time>2010-07-17T13:09:56Z</time>
      </trkpt>
      <trkpt lat="44.46682" lon="5.91593">
        <ele>1287</ele>
        <time>2010-07-17T13:10:03Z</time>
      </trkpt>
      <trkpt lat="44.46666" lon="5.91612">
        <ele>1286</ele>
        <time>2010-07-17T13:10:10Z</time>
      </trkpt>
      <trkpt lat="44.46645" lon="5.91627">
        <ele>1283</ele>
        <time>2010-07-17T13:10:17Z</time>
      </trkpt>
      <trkpt lat="44.46635" lon="5.9163">
        <ele>1278</ele>
        <time>2010-07-17T13:10:24Z</time>
      </trkpt>
      <trkpt lat="44.46637" lon="5.91603">
        <ele>1272</ele>
        <time>2010-07-17T13:10:31Z</time>
      </trkpt>
      <trkpt lat="44.46645" lon="5.91573">
        <ele>1267</ele>
        <time>2010-07-17T13:10:38Z</time>
      </trkpt>
      <trkpt lat="44.46652" lon="5.91543">
        <ele>1262</ele>
        <time>2010-07-17T13:10:45Z</time>
      </trkpt>
      <trkpt lat="44.46658" lon="5.91505">
        <ele>1255</ele>
        <time>2010-07-17T13:10:53Z</time>
      </trkpt>
      <trkpt lat="44.46665" lon="5.91471">
        <ele>1247</ele>
        <time>2010-07-17T13:11:00Z</time>
      </trkpt>
      <trkpt lat="44.4666" lon="5.91445">
        <ele>1241</ele>
        <time>2010-07-17T13:11:08Z</time>
      </trkpt>
      <trkpt lat="44.46657" lon="5.91421">
        <ele>1235</ele>
        <time>2010-07-17T13:11:15Z</time>
      </trkpt>
      <trkpt lat="44.46655" lon="5.91391">
        <ele>1230</ele>
        <time>2010-07-17T13:11:22Z</time>
      </trkpt>
      <trkpt lat="44.46653" lon="5.91356">
        <ele>1225</ele>
        <time>2010-07-17T13:11:29Z</time>
      </trkpt>
      <trkpt lat="44.46637" lon="5.91366">
        <ele>1220</ele>
        <time>2010-07-17T13:11:36Z</time>
      </trkpt>
      <trkpt lat="44.46622" lon="5.91383">
        <ele>1214</ele>
        <time>2010-07-17T13:11:43Z</time>
      </trkpt>
      <trkpt lat="44.46607" lon="5.91393">
        <ele>1210</ele>
        <time>2010-07-17T13:11:50Z</time>
      </trkpt>
      <trkpt lat="44.46594" lon="5.91405">
        <ele>1206</ele>
        <time>2010-07-17T13:11:57Z</time>
      </trkpt>
      <trkpt lat="44.46573" lon="5.91407">
        <ele>1201</ele>
        <time>2010-07-17T13:12:04Z</time>
      </trkpt>
      <trkpt lat="44.46557" lon="5.91413">
        <ele>1194</ele>
        <time>2010-07-17T13:12:11Z</time>
      </trkpt>
      <trkpt lat="44.46551" lon="5.91394">
        <ele>1187</ele>
        <time>2010-07-17T13:12:18Z</time>
      </trkpt>
      <trkpt lat="44.46539" lon="5.91384">
        <ele>1181</ele>
        <time>2010-07-17T13:12:25Z</time>
      </trkpt>
      <trkpt lat="44.46537" lon="5.91363">
        <ele>1175</ele>
        <time>2010-07-17T13:12:32Z</time>
      </trkpt>
      <trkpt lat="44.46524" lon="5.91362">
        <ele>1173</ele>
        <time>2010-07-17T13:12:39Z</time>
      </trkpt>
      <trkpt lat="44.46502" lon="5.91376">
        <ele>1172</ele>
        <time>2010-07-17T13:12:46Z</time>
      </trkpt>
      <trkpt lat="44.46492" lon="5.91367">
        <ele>1169</ele>
        <time>2010-07-17T13:12:53Z</time>
      </trkpt>
      <trkpt lat="44.46478" lon="5.91365">
        <ele>1162</ele>
        <time>2010-07-17T13:13:00Z</time>
      </trkpt>
      <trkpt lat="44.46477" lon="5.91351">
        <ele>1155</ele>
        <time>2010-07-17T13:13:07Z</time>
      </trkpt>
      <trkpt lat="44.46473" lon="5.91332">
        <ele>1149</ele>
        <time>2010-07-17T13:13:14Z</time>
      </trkpt>
      <trkpt lat="44.46451" lon="5.91327">
        <ele>1146</ele>
        <time>2010-07-17T13:13:21Z</time>
      </trkpt>
      <trkpt lat="44.46467" lon="5.91298">
        <ele>1142</ele>
        <time>2010-07-17T13:13:28Z</time>
      </trkpt>
      <trkpt lat="44.46468" lon="5.91283">
        <ele>1139</ele>
        <time>2010-07-17T13:13:35Z</time>
      </trkpt>
      <trkpt lat="44.46465" lon="5.91283">
        <ele>1141</ele>
        <time>2010-07-17T13:13:42Z</time>
      </trkpt>
      <trkpt lat="44.4646" lon="5.91285">
        <ele>1143</ele>
        <time>2010-07-17T13:13:50Z</time>
      </trkpt>
      <trkpt lat="44.4644" lon="5.91279">
        <ele>1143</ele>
        <time>2010-07-17T13:13:57Z</time>
      </trkpt>
      <trkpt lat="44.46406" lon="5.91278">
        <ele>1141</ele>
        <time>2010-07-17T13:14:04Z</time>
      </trkpt>
      <trkpt lat="44.46384" lon="5.9129">
        <ele>1134</ele>
        <time>2010-07-17T13:14:11Z</time>
      </trkpt>
      <trkpt lat="44.46362" lon="5.91286">
        <ele>1127</ele>
        <time>2010-07-17T13:14:18Z</time>
      </trkpt>
      <trkpt lat="44.46331" lon="5.91293">
        <ele>1120</ele>
        <time>2010-07-17T13:14:25Z</time>
      </trkpt>
      <trkpt lat="44.46299" lon="5.91267">
        <ele>1113</ele>
        <time>2010-07-17T13:14:32Z</time>
      </trkpt>
      <trkpt lat="44.46275" lon="5.91241">
        <ele>1105</ele>
        <time>2010-07-17T13:14:39Z</time>
      </trkpt>
      <trkpt lat="44.46246" lon="5.91221">
        <ele>1098</ele>
        <time>2010-07-17T13:14:46Z</time>
      </trkpt>
      <trkpt lat="44.46226" lon="5.91184">
        <ele>1096</ele>
        <time>2010-07-17T13:14:53Z</time>
      </trkpt>
      <trkpt lat="44.46191" lon="5.91154">
        <ele>1093</ele>
        <time>2010-07-17T13:15:00Z</time>
      </trkpt>
      <trkpt lat="44.46161" lon="5.91135">
        <ele>1087</ele>
        <time>2010-07-17T13:15:07Z</time>
      </trkpt>
      <trkpt lat="44.46144" lon="5.91125">
        <ele>1079</ele>
        <time>2010-07-17T13:15:17Z</time>
      </trkpt>
      <trkpt lat="44.46143" lon="5.91124">
        <ele>1079</ele>
        <time>2010-07-17T13:15:31Z</time>
      </trkpt>
      <trkpt lat="44.46141" lon="5.91125">
        <ele>1077</ele>
        <time>2010-07-17T13:15:48Z</time>
      </trkpt>
      <trkpt lat="44.46127" lon="5.91138">
        <ele>1075</ele>
        <time>2010-07-17T13:15:55Z</time>
      </trkpt>
      <trkpt lat="44.46108" lon="5.91152">
        <ele>1072</ele>
        <time>2010-07-17T13:16:02Z</time>
      </trkpt>
      <trkpt lat="44.46091" lon="5.91155">
        <ele>1068</ele>
        <time>2010-07-17T13:16:09Z</time>
      </trkpt>
      <trkpt lat="44.46073" lon="5.91147">
        <ele>1063</ele>
        <time>2010-07-17T13:16:16Z</time>
      </trkpt>
      <trkpt lat="44.46069" lon="5.91137">
        <ele>1058</ele>
        <time>2010-07-17T13:16:24Z</time>
      </trkpt>
      <trkpt lat="44.46058" lon="5.91125">
        <ele>1053</ele>
        <time>2010-07-17T13:16:31Z</time>
      </trkpt>
      <trkpt lat="44.46044" lon="5.91114">
        <ele>1049</ele>
        <time>2010-07-17T13:16:38Z</time>
      </trkpt>
      <trkpt lat="44.4602" lon="5.91118">
        <ele>1043</ele>
        <time>2010-07-17T13:16:45Z</time>
      </trkpt>
      <trkpt lat="44.46004" lon="5.91116">
        <ele>1036</ele>
        <time>2010-07-17T13:17:03Z</time>
      </trkpt>
      <trkpt lat="44.45985" lon="5.91113">
        <ele>1032</ele>
        <time>2010-07-17T13:17:10Z</time>
      </trkpt>
      <trkpt lat="44.45987" lon="5.91121">
        <ele>1029</ele>
        <time>2010-07-17T13:17:18Z</time>
      </trkpt>
      <trkpt lat="44.45969" lon="5.91127">
        <ele>1025</ele>
        <time>2010-07-17T13:17:25Z</time>
      </trkpt>
      <trkpt lat="44.45958" lon="5.91114">
        <ele>1020</ele>
        <time>2010-07-17T13:17:33Z</time>
      </trkpt>
      <trkpt lat="44.45951" lon="5.91101">
        <ele>1017</ele>
        <time>2010-07-17T13:17:40Z</time>
      </trkpt>
      <trkpt lat="44.45946" lon="5.91094">
        <ele>1013</ele>
        <time>2010-07-17T13:17:47Z</time>
      </trkpt>
      <trkpt lat="44.45938" lon="5.91086">
        <ele>1008</ele>
        <time>2010-07-17T13:18:05Z</time>
      </trkpt>
      <trkpt lat="44.4594" lon="5.91077">
        <ele>1005</ele>
        <time>2010-07-17T13:18:23Z</time>
      </trkpt>
      <trkpt lat="44.4594" lon="5.9105">
        <ele>1000</ele>
        <time>2010-07-17T13:18:30Z</time>
      </trkpt>
      <trkpt lat="44.45955" lon="5.91027">
        <ele>995</ele>
        <time>2010-07-17T13:18:37Z</time>
      </trkpt>
      <trkpt lat="44.45945" lon="5.91022">
        <ele>992</ele>
        <time>2010-07-17T13:18:44Z</time>
      </trkpt>
      <trkpt lat="44.45953" lon="5.91001">
        <ele>987</ele>
        <time>2010-07-17T13:18:51Z</time>
      </trkpt>
      <trkpt lat="44.4594" lon="5.9098">
        <ele>981</ele>
        <time>2010-07-17T13:18:58Z</time>
      </trkpt>
      <trkpt lat="44.45924" lon="5.90988">
        <ele>975</ele>
        <time>2010-07-17T13:19:05Z</time>
      </trkpt>
      <trkpt lat="44.45904" lon="5.90984">
        <ele>972</ele>
        <time>2010-07-17T13:19:12Z</time>
      </trkpt>
      <trkpt lat="44.45903" lon="5.90983">
        <ele>971</ele>
        <time>2010-07-17T13:19:20Z</time>
      </trkpt>
      <trkpt lat="44.45901" lon="5.90983">
        <ele>971</ele>
        <time>2010-07-17T13:19:28Z</time>
      </trkpt>
      <trkpt lat="44.45899" lon="5.90981">
        <ele>971</ele>
        <time>2010-07-17T13:19:39Z</time>
      </trkpt>
      <trkpt lat="44.45898" lon="5.90983">
        <ele>971</ele>
        <time>2010-07-17T13:19:46Z</time>
      </trkpt>
      <trkpt lat="44.45898" lon="5.90983">
        <ele>971</ele>
        <time>2010-07-17T13:19:58Z</time>
      </trkpt>
      <trkpt lat="44.459" lon="5.90983">
        <ele>970</ele>
        <time>2010-07-17T13:20:06Z</time>
      </trkpt>
      <trkpt lat="44.45899" lon="5.90984">
        <ele>965</ele>
        <time>2010-07-17T13:20:18Z</time>
      </trkpt>
      <trkpt lat="44.45898" lon="5.90983">
        <ele>964</ele>
        <time>2010-07-17T13:20:33Z</time>
      </trkpt>
      <trkpt lat="44.45897" lon="5.90981">
        <ele>965</ele>
        <time>2010-07-17T13:20:40Z</time>
      </trkpt>
      <trkpt lat="44.45901" lon="5.90953">
        <ele>965</ele>
        <time>2010-07-17T13:20:47Z</time>
      </trkpt>
      <trkpt lat="44.45914" lon="5.90912">
        <ele>962</ele>
        <time>2010-07-17T13:20:54Z</time>
      </trkpt>
      <trkpt lat="44.45913" lon="5.90887">
        <ele>960</ele>
        <time>2010-07-17T13:21:02Z</time>
      </trkpt>
      <trkpt lat="44.45879" lon="5.90881">
        <ele>958</ele>
        <time>2010-07-17T13:21:09Z</time>
      </trkpt>
      <trkpt lat="44.45823" lon="5.90875">
        <ele>954</ele>
        <time>2010-07-17T13:21:16Z</time>
      </trkpt>
      <trkpt lat="44.45744" lon="5.90867">
        <ele>947</ele>
        <time>2010-07-17T13:21:24Z</time>
      </trkpt>
      <trkpt lat="44.45684" lon="5.90878">
        <ele>940</ele>
        <time>2010-07-17T13:21:31Z</time>
      </trkpt>
      <trkpt lat="44.45618" lon="5.90902">
        <ele>933</ele>
        <time>2010-07-17T13:21:38Z</time>
      </trkpt>
      <trkpt lat="44.45566" lon="5.90989">
        <ele>924</ele>
        <time>2010-07-17T13:21:46Z</time>
      </trkpt>
      <trkpt lat="44.4554" lon="5.90975">
        <ele>915</ele>
        <time>2010-07-17T13:21:53Z</time>
      </trkpt>
      <trkpt lat="44.45533" lon="5.90906">
        <ele>908</ele>
        <time>2010-07-17T13:22:00Z</time>
      </trkpt>
      <trkpt lat="44.4554" lon="5.90848">
        <ele>906</ele>
        <time>2010-07-17T13:22:07Z</time>
      </trkpt>
      <trkpt lat="44.45584" lon="5.90815">
        <ele>902</ele>
        <time>2010-07-17T13:22:14Z</time>
      </trkpt>
      <trkpt lat="44.45585" lon="5.90768">
        <ele>902</ele>
        <time>2010-07-17T13:22:21Z</time>
      </trkpt>
      <trkpt lat="44.45583" lon="5.90746">
        <ele>902</ele>
        <time>2010-07-17T13:22:28Z</time>
      </trkpt>
      <trkpt lat="44.45583" lon="5.9073">
        <ele>902</ele>
        <time>2010-07-17T13:22:35Z</time>
      </trkpt>
      <trkpt lat="44.45586" lon="5.90718">
        <ele>902</ele>
        <time>2010-07-17T13:22:43Z</time>
      </trkpt>
      <trkpt lat="44.4559" lon="5.90707">
        <ele>902</ele>
        <time>2010-07-17T13:22:50Z</time>
      </trkpt>
      <trkpt lat="44.45595" lon="5.90696">
        <ele>902</ele>
        <time>2010-07-17T13:22:57Z</time>
      </trkpt>
      <trkpt lat="44.45597" lon="5.90686">
        <ele>902</ele>
        <time>2010-07-17T13:23:04Z</time>
      </trkpt>
      <trkpt lat="44.45599" lon="5.90676">
        <ele>905</ele>
        <time>2010-07-17T13:23:12Z</time>
      </trkpt>
      <trkpt lat="44.45601" lon="5.90667">
        <ele>907</ele>
        <time>2010-07-17T13:23:19Z</time>
      </trkpt>
      <trkpt lat="44.45602" lon="5.90657">
        <ele>909</ele>
        <time>2010-07-17T13:23:26Z</time>
      </trkpt>
      <trkpt lat="44.45603" lon="5.90647">
        <ele>911</ele>
        <time>2010-07-17T13:23:33Z</time>
      </trkpt>
      <trkpt lat="44.45605" lon="5.90636">
        <ele>913</ele>
        <time>2010-07-17T13:23:40Z</time>
      </trkpt>
      <trkpt lat="44.45607" lon="5.90625">
        <ele>914</ele>
        <time>2010-07-17T13:23:47Z</time>
      </trkpt>
      <trkpt lat="44.45609" lon="5.90613">
        <ele>916</ele>
        <time>2010-07-17T13:23:54Z</time>
      </trkpt>
      <trkpt lat="44.45608" lon="5.90602">
        <ele>918</ele>
        <time>2010-07-17T13:24:01Z</time>
      </trkpt>
      <trkpt lat="44.45604" lon="5.9059">
        <ele>919</ele>
        <time>2010-07-17T13:24:08Z</time>
      </trkpt>
      <trkpt lat="44.45597" lon="5.9058">
        <ele>919</ele>
        <time>2010-07-17T13:24:15Z</time>
      </trkpt>
      <trkpt lat="44.4559" lon="5.90571">
        <ele>920</ele>
        <time>2010-07-17T13:24:22Z</time>
      </trkpt>
      <trkpt lat="44.4558" lon="5.90563">
        <ele>921</ele>
        <time>2010-07-17T13:24:29Z</time>
      </trkpt>
      <trkpt lat="44.45569" lon="5.90556">
        <ele>921</ele>
        <time>2010-07-17T13:24:36Z</time>
      </trkpt>
      <trkpt lat="44.45556" lon="5.90552">
        <ele>922</ele>
        <time>2010-07-17T13:24:43Z</time>
      </trkpt>
      <trkpt lat="44.45544" lon="5.90549">
        <ele>923</ele>
        <time>2010-07-17T13:24:50Z</time>
      </trkpt>
      <trkpt lat="44.45533" lon="5.90548">
        <ele>925</ele>
        <time>2010-07-17T13:24:57Z</time>
      </trkpt>
      <trkpt lat="44.45521" lon="5.90546">
        <ele>927</ele>
        <time>2010-07-17T13:25:04Z</time>
      </trkpt>
      <trkpt lat="44.45511" lon="5.90546">
        <ele>930</ele>
        <time>2010-07-17T13:25:11Z</time>
      </trkpt>
      <trkpt lat="44.455" lon="5.90549">
        <ele>932</ele>
        <time>2010-07-17T13:25:18Z</time>
      </trkpt>
      <trkpt lat="44.45491" lon="5.90554">
        <ele>935</ele>
        <time>2010-07-17T13:25:25Z</time>
      </trkpt>
      <trkpt lat="44.45481" lon="5.9056">
        <ele>937</ele>
        <time>2010-07-17T13:25:33Z</time>
      </trkpt>
      <trkpt lat="44.4547" lon="5.90565">
        <ele>937</ele>
        <time>2010-07-17T13:25:40Z</time>
      </trkpt>
      <trkpt lat="44.45458" lon="5.90573">
        <ele>937</ele>
        <time>2010-07-17T13:25:47Z</time>
      </trkpt>
      <trkpt lat="44.45444" lon="5.90577">
        <ele>938</ele>
        <time>2010-07-17T13:25:54Z</time>
      </trkpt>
      <trkpt lat="44.45432" lon="5.90579">
        <ele>938</ele>
        <time>2010-07-17T13:26:01Z</time>
      </trkpt>
      <trkpt lat="44.45419" lon="5.9058">
        <ele>938</ele>
        <time>2010-07-17T13:26:08Z</time>
      </trkpt>
      <trkpt lat="44.45405" lon="5.90582">
        <ele>938</ele>
        <time>2010-07-17T13:26:15Z</time>
      </trkpt>
      <trkpt lat="44.45387" lon="5.90583">
        <ele>938</ele>
        <time>2010-07-17T13:26:22Z</time>
      </trkpt>
      <trkpt lat="44.45367" lon="5.90581">
        <ele>938</ele>
        <time>2010-07-17T13:26:29Z</time>
      </trkpt>
      <trkpt lat="44.45348" lon="5.90576">
        <ele>938</ele>
        <time>2010-07-17T13:26:36Z</time>
      </trkpt>
      <trkpt lat="44.45328" lon="5.90569">
        <ele>938</ele>
        <time>2010-07-17T13:26:43Z</time>
      </trkpt>
      <trkpt lat="44.45315" lon="5.90555">
        <ele>939</ele>
        <time>2010-07-17T13:26:50Z</time>
      </trkpt>
      <trkpt lat="44.45314" lon="5.90541">
        <ele>943</ele>
        <time>2010-07-17T13:26:57Z</time>
      </trkpt>
      <trkpt lat="44.45312" lon="5.90528">
        <ele>943</ele>
        <time>2010-07-17T13:27:08Z</time>
      </trkpt>
      <trkpt lat="44.45315" lon="5.905">
        <ele>943</ele>
        <time>2010-07-17T13:27:16Z</time>
      </trkpt>
      <trkpt lat="44.45311" lon="5.9048">
        <ele>946</ele>
        <time>2010-07-17T13:27:23Z</time>
      </trkpt>
      <trkpt lat="44.45306" lon="5.90465">
        <ele>946</ele>
        <time>2010-07-17T13:27:30Z</time>
      </trkpt>
      <trkpt lat="44.453" lon="5.90451">
        <ele>946</ele>
        <time>2010-07-17T13:27:37Z</time>
      </trkpt>
      <trkpt lat="44.45292" lon="5.9044">
        <ele>949</ele>
        <time>2010-07-17T13:27:44Z</time>
      </trkpt>
      <trkpt lat="44.45283" lon="5.90435">
        <ele>952</ele>
        <time>2010-07-17T13:27:51Z</time>
      </trkpt>
      <trkpt lat="44.45275" lon="5.90429">
        <ele>955</ele>
        <time>2010-07-17T13:27:58Z</time>
      </trkpt>
      <trkpt lat="44.45269" lon="5.90417">
        <ele>956</ele>
        <time>2010-07-17T13:28:05Z</time>
      </trkpt>
      <trkpt lat="44.45268" lon="5.90402">
        <ele>957</ele>
        <time>2010-07-17T13:28:12Z</time>
      </trkpt>
      <trkpt lat="44.45265" lon="5.90386">
        <ele>958</ele>
        <time>2010-07-17T13:28:19Z</time>
      </trkpt>
      <trkpt lat="44.45261" lon="5.90371">
        <ele>960</ele>
        <time>2010-07-17T13:28:26Z</time>
      </trkpt>
      <trkpt lat="44.45254" lon="5.9036">
        <ele>960</ele>
        <time>2010-07-17T13:28:33Z</time>
      </trkpt>
      <trkpt lat="44.45248" lon="5.90346">
        <ele>960</ele>
        <time>2010-07-17T13:28:40Z</time>
      </trkpt>
      <trkpt lat="44.45245" lon="5.90332">
        <ele>961</ele>
        <time>2010-07-17T13:28:47Z</time>
      </trkpt>
      <trkpt lat="44.45244" lon="5.90318">
        <ele>962</ele>
        <time>2010-07-17T13:28:54Z</time>
      </trkpt>
      <trkpt lat="44.4524" lon="5.90306">
        <ele>962</ele>
        <time>2010-07-17T13:29:01Z</time>
      </trkpt>
      <trkpt lat="44.45235" lon="5.90299">
        <ele>963</ele>
        <time>2010-07-17T13:29:16Z</time>
      </trkpt>
      <trkpt lat="44.45239" lon="5.90298">
        <ele>963</ele>
        <time>2010-07-17T13:29:23Z</time>
      </trkpt>
      <trkpt lat="44.45239" lon="5.90297">
        <ele>963</ele>
        <time>2010-07-17T13:29:31Z</time>
      </trkpt>
      <trkpt lat="44.45234" lon="5.90298">
        <ele>955</ele>
        <time>2010-07-17T13:29:40Z</time>
      </trkpt>
      <trkpt lat="44.45234" lon="5.90301">
        <ele>952</ele>
        <time>2010-07-17T13:29:51Z</time>
      </trkpt>
      <trkpt lat="44.45235" lon="5.90299">
        <ele>953</ele>
        <time>2010-07-17T13:30:04Z</time>
      </trkpt>
      <trkpt lat="44.45233" lon="5.90299">
        <ele>959</ele>
        <time>2010-07-17T13:30:13Z</time>
      </trkpt>
      <trkpt lat="44.45215" lon="5.90301">
        <ele>963</ele>
        <time>2010-07-17T13:30:20Z</time>
      </trkpt>
      <trkpt lat="44.45194" lon="5.90326">
        <ele>967</ele>
        <time>2010-07-17T13:30:27Z</time>
      </trkpt>
      <trkpt lat="44.45174" lon="5.90373">
        <ele>967</ele>
        <time>2010-07-17T13:30:34Z</time>
      </trkpt>
      <trkpt lat="44.45149" lon="5.9043">
        <ele>967</ele>
        <time>2010-07-17T13:30:41Z</time>
      </trkpt>
      <trkpt lat="44.45102" lon="5.90482">
        <ele>962</ele>
        <time>2010-07-17T13:30:48Z</time>
      </trkpt>
      <trkpt lat="44.45028" lon="5.90528">
        <ele>958</ele>
        <time>2010-07-17T13:30:56Z</time>
      </trkpt>
      <trkpt lat="44.44944" lon="5.90659">
        <ele>952</ele>
        <time>2010-07-17T13:31:08Z</time>
      </trkpt>
      <trkpt lat="44.44895" lon="5.90734">
        <ele>946</ele>
        <time>2010-07-17T13:31:15Z</time>
      </trkpt>
      <trkpt lat="44.44834" lon="5.90726">
        <ele>945</ele>
        <time>2010-07-17T13:31:22Z</time>
      </trkpt>
      <trkpt lat="44.4478" lon="5.90743">
        <ele>940</ele>
        <time>2010-07-17T13:31:29Z</time>
      </trkpt>
      <trkpt lat="44.44818" lon="5.90811">
        <ele>940</ele>
        <time>2010-07-17T13:31:36Z</time>
      </trkpt>
      <trkpt lat="44.44839" lon="5.90896">
        <ele>940</ele>
        <time>2010-07-17T13:31:43Z</time>
      </trkpt>
      <trkpt lat="44.44815" lon="5.91007">
        <ele>937</ele>
        <time>2010-07-17T13:31:51Z</time>
      </trkpt>
      <trkpt lat="44.44778" lon="5.91098">
        <ele>930</ele>
        <time>2010-07-17T13:31:58Z</time>
      </trkpt>
      <trkpt lat="44.44775" lon="5.91116">
        <ele>923</ele>
        <time>2010-07-17T13:32:07Z</time>
      </trkpt>
      <trkpt lat="44.44777" lon="5.91114">
        <ele>922</ele>
        <time>2010-07-17T13:32:18Z</time>
      </trkpt>
      <trkpt lat="44.44776" lon="5.91112">
        <ele>921</ele>
        <time>2010-07-17T13:32:25Z</time>
      </trkpt>
      <trkpt lat="44.44774" lon="5.91111">
        <ele>920</ele>
        <time>2010-07-17T13:32:36Z</time>
      </trkpt>
      <trkpt lat="44.44773" lon="5.9111">
        <ele>919</ele>
        <time>2010-07-17T13:32:53Z</time>
      </trkpt>
      <trkpt lat="44.44774" lon="5.91108">
        <ele>919</ele>
        <time>2010-07-17T13:33:01Z</time>
      </trkpt>
      <trkpt lat="44.44771" lon="5.91111">
        <ele>919</ele>
        <time>2010-07-17T13:33:08Z</time>
      </trkpt>
      <trkpt lat="44.44755" lon="5.91155">
        <ele>919</ele>
        <time>2010-07-17T13:33:15Z</time>
      </trkpt>
      <trkpt lat="44.44729" lon="5.91227">
        <ele>915</ele>
        <time>2010-07-17T13:33:22Z</time>
      </trkpt>
      <trkpt lat="44.44681" lon="5.91325">
        <ele>911</ele>
        <time>2010-07-17T13:33:30Z</time>
      </trkpt>
      <trkpt lat="44.44597" lon="5.91365">
        <ele>906</ele>
        <time>2010-07-17T13:33:37Z</time>
      </trkpt>
      <trkpt lat="44.44489" lon="5.91406">
        <ele>898</ele>
        <time>2010-07-17T13:33:45Z</time>
      </trkpt>
      <trkpt lat="44.44397" lon="5.91419">
        <ele>891</ele>
        <time>2010-07-17T13:33:52Z</time>
      </trkpt>
      <trkpt lat="44.44301" lon="5.91386">
        <ele>885</ele>
        <time>2010-07-17T13:34:00Z</time>
      </trkpt>
      <trkpt lat="44.44217" lon="5.91359">
        <ele>879</ele>
        <time>2010-07-17T13:34:07Z</time>
      </trkpt>
      <trkpt lat="44.44122" lon="5.91341">
        <ele>876</ele>
        <time>2010-07-17T13:34:16Z</time>
      </trkpt>
      <trkpt lat="44.4405" lon="5.91384">
        <ele>869</ele>
        <time>2010-07-17T13:34:23Z</time>
      </trkpt>
      <trkpt lat="44.43991" lon="5.91461">
        <ele>866</ele>
        <time>2010-07-17T13:34:31Z</time>
      </trkpt>
      <trkpt lat="44.43947" lon="5.91552">
        <ele>863</ele>
        <time>2010-07-17T13:34:38Z</time>
      </trkpt>
      <trkpt lat="44.43895" lon="5.91641">
        <ele>860</ele>
        <time>2010-07-17T13:34:45Z</time>
      </trkpt>
      <trkpt lat="44.43819" lon="5.91711">
        <ele>855</ele>
        <time>2010-07-17T13:34:52Z</time>
      </trkpt>
      <trkpt lat="44.43732" lon="5.91768">
        <ele>848</ele>
        <time>2010-07-17T13:35:00Z</time>
      </trkpt>
      <trkpt lat="44.43706" lon="5.91719">
        <ele>845</ele>
        <time>2010-07-17T13:35:08Z</time>
      </trkpt>
      <trkpt lat="44.43668" lon="5.91742">
        <ele>844</ele>
        <time>2010-07-17T13:35:16Z</time>
      </trkpt>
      <trkpt lat="44.43642" lon="5.91806">
        <ele>843</ele>
        <time>2010-07-17T13:35:23Z</time>
      </trkpt>
      <trkpt lat="44.43606" lon="5.91825">
        <ele>843</ele>
        <time>2010-07-17T13:35:30Z</time>
      </trkpt>
      <trkpt lat="44.43608" lon="5.91822">
        <ele>846</ele>
        <time>2010-07-17T13:35:38Z</time>
      </trkpt>
      <trkpt lat="44.43612" lon="5.91822">
        <ele>850</ele>
        <time>2010-07-17T13:35:47Z</time>
      </trkpt>
      <trkpt lat="44.436" lon="5.91821">
        <ele>857</ele>
        <time>2010-07-17T13:35:57Z</time>
      </trkpt>
      <trkpt lat="44.43586" lon="5.91819">
        <ele>857</ele>
        <time>2010-07-17T13:36:04Z</time>
      </trkpt>
      <trkpt lat="44.43562" lon="5.91801">
        <ele>854</ele>
        <time>2010-07-17T13:36:11Z</time>
      </trkpt>
      <trkpt lat="44.43528" lon="5.91796">
        <ele>848</ele>
        <time>2010-07-17T13:36:18Z</time>
      </trkpt>
      <trkpt lat="44.43523" lon="5.91817">
        <ele>845</ele>
        <time>2010-07-17T13:36:26Z</time>
      </trkpt>
      <trkpt lat="44.43526" lon="5.91852">
        <ele>845</ele>
        <time>2010-07-17T13:36:33Z</time>
      </trkpt>
      <trkpt lat="44.4351" lon="5.91861">
        <ele>845</ele>
        <time>2010-07-17T13:36:41Z</time>
      </trkpt>
      <trkpt lat="44.43478" lon="5.91868">
        <ele>845</ele>
        <time>2010-07-17T13:36:48Z</time>
      </trkpt>
      <trkpt lat="44.43452" lon="5.91894">
        <ele>842</ele>
        <time>2010-07-17T13:36:59Z</time>
      </trkpt>
      <trkpt lat="44.43446" lon="5.91931">
        <ele>837</ele>
        <time>2010-07-17T13:37:06Z</time>
      </trkpt>
      <trkpt lat="44.43402" lon="5.91959">
        <ele>831</ele>
        <time>2010-07-17T13:37:14Z</time>
      </trkpt>
      <trkpt lat="44.43361" lon="5.91973">
        <ele>824</ele>
        <time>2010-07-17T13:37:21Z</time>
      </trkpt>
      <trkpt lat="44.43332" lon="5.91936">
        <ele>823</ele>
        <time>2010-07-17T13:37:28Z</time>
      </trkpt>
      <trkpt lat="44.43319" lon="5.9192">
        <ele>823</ele>
        <time>2010-07-17T13:37:36Z</time>
      </trkpt>
      <trkpt lat="44.43314" lon="5.91916">
        <ele>823</ele>
        <time>2010-07-17T13:37:43Z</time>
      </trkpt>
      <trkpt lat="44.43308" lon="5.91914">
        <ele>823</ele>
        <time>2010-07-17T13:37:50Z</time>
      </trkpt>
      <trkpt lat="44.433" lon="5.91912">
        <ele>823</ele>
        <time>2010-07-17T13:37:57Z</time>
      </trkpt>
      <trkpt lat="44.4329" lon="5.91914">
        <ele>822</ele>
        <time>2010-07-17T13:38:04Z</time>
      </trkpt>
      <trkpt lat="44.43279" lon="5.91915">
        <ele>819</ele>
        <time>2010-07-17T13:38:12Z</time>
      </trkpt>
      <trkpt lat="44.43272" lon="5.91921">
        <ele>817</ele>
        <time>2010-07-17T13:38:20Z</time>
      </trkpt>
      <trkpt lat="44.43272" lon="5.91931">
        <ele>822</ele>
        <time>2010-07-17T13:38:28Z</time>
      </trkpt>
      <trkpt lat="44.43268" lon="5.91939">
        <ele>829</ele>
        <time>2010-07-17T13:38:35Z</time>
      </trkpt>
      <trkpt lat="44.43256" lon="5.91945">
        <ele>832</ele>
        <time>2010-07-17T13:38:43Z</time>
      </trkpt>
      <trkpt lat="44.43246" lon="5.91952">
        <ele>832</ele>
        <time>2010-07-17T13:38:50Z</time>
      </trkpt>
      <trkpt lat="44.43234" lon="5.91962">
        <ele>832</ele>
        <time>2010-07-17T13:38:59Z</time>
      </trkpt>
      <trkpt lat="44.4322" lon="5.91968">
        <ele>832</ele>
        <time>2010-07-17T13:39:06Z</time>
      </trkpt>
      <trkpt lat="44.43205" lon="5.91978">
        <ele>832</ele>
        <time>2010-07-17T13:39:13Z</time>
      </trkpt>
      <trkpt lat="44.43197" lon="5.91983">
        <ele>831</ele>
        <time>2010-07-17T13:39:21Z</time>
      </trkpt>
      <trkpt lat="44.43187" lon="5.91985">
        <ele>831</ele>
        <time>2010-07-17T13:39:28Z</time>
      </trkpt>
      <trkpt lat="44.43178" lon="5.91985">
        <ele>835</ele>
        <time>2010-07-17T13:39:35Z</time>
      </trkpt>
      <trkpt lat="44.43165" lon="5.9198">
        <ele>836</ele>
        <time>2010-07-17T13:39:43Z</time>
      </trkpt>
      <trkpt lat="44.43151" lon="5.91969">
        <ele>836</ele>
        <time>2010-07-17T13:39:51Z</time>
      </trkpt>
      <trkpt lat="44.4314" lon="5.91954">
        <ele>836</ele>
        <time>2010-07-17T13:39:58Z</time>
      </trkpt>
      <trkpt lat="44.43118" lon="5.91936">
        <ele>836</ele>
        <time>2010-07-17T13:40:06Z</time>
      </trkpt>
      <trkpt lat="44.43088" lon="5.91918">
        <ele>836</ele>
        <time>2010-07-17T13:40:13Z</time>
      </trkpt>
      <trkpt lat="44.43048" lon="5.91901">
        <ele>836</ele>
        <time>2010-07-17T13:40:21Z</time>
      </trkpt>
      <trkpt lat="44.43018" lon="5.91882">
        <ele>836</ele>
        <time>2010-07-17T13:40:28Z</time>
      </trkpt>
      <trkpt lat="44.43" lon="5.91861">
        <ele>835</ele>
        <time>2010-07-17T13:40:36Z</time>
      </trkpt>
      <trkpt lat="44.42984" lon="5.91892">
        <ele>834</ele>
        <time>2010-07-17T13:40:43Z</time>
      </trkpt>
      <trkpt lat="44.42958" lon="5.91927">
        <ele>833</ele>
        <time>2010-07-17T13:40:51Z</time>
      </trkpt>
      <trkpt lat="44.42933" lon="5.91932">
        <ele>833</ele>
        <time>2010-07-17T13:40:58Z</time>
      </trkpt>
      <trkpt lat="44.42914" lon="5.91938">
        <ele>835</ele>
        <time>2010-07-17T13:41:06Z</time>
      </trkpt>
      <trkpt lat="44.42899" lon="5.91946">
        <ele>836</ele>
        <time>2010-07-17T13:41:13Z</time>
      </trkpt>
      <trkpt lat="44.42882" lon="5.91967">
        <ele>839</ele>
        <time>2010-07-17T13:41:21Z</time>
      </trkpt>
      <trkpt lat="44.42868" lon="5.91987">
        <ele>841</ele>
        <time>2010-07-17T13:41:28Z</time>
      </trkpt>
      <trkpt lat="44.42847" lon="5.9201">
        <ele>841</ele>
        <time>2010-07-17T13:41:36Z</time>
      </trkpt>
      <trkpt lat="44.42831" lon="5.92027">
        <ele>842</ele>
        <time>2010-07-17T13:41:43Z</time>
      </trkpt>
      <trkpt lat="44.42812" lon="5.92049">
        <ele>842</ele>
        <time>2010-07-17T13:41:51Z</time>
      </trkpt>
      <trkpt lat="44.42797" lon="5.92067">
        <ele>846</ele>
        <time>2010-07-17T13:41:58Z</time>
      </trkpt>
      <trkpt lat="44.42775" lon="5.92078">
        <ele>846</ele>
        <time>2010-07-17T13:42:06Z</time>
      </trkpt>
      <trkpt lat="44.42762" lon="5.92085">
        <ele>846</ele>
        <time>2010-07-17T13:42:13Z</time>
      </trkpt>
      <trkpt lat="44.4276" lon="5.92076">
        <ele>846</ele>
        <time>2010-07-17T13:42:21Z</time>
      </trkpt>
      <trkpt lat="44.42768" lon="5.92066">
        <ele>851</ele>
        <time>2010-07-17T13:42:28Z</time>
      </trkpt>
      <trkpt lat="44.42781" lon="5.92055">
        <ele>855</ele>
        <time>2010-07-17T13:42:36Z</time>
      </trkpt>
      <trkpt lat="44.42789" lon="5.92041">
        <ele>859</ele>
        <time>2010-07-17T13:42:43Z</time>
      </trkpt>
      <trkpt lat="44.42798" lon="5.92026">
        <ele>862</ele>
        <time>2010-07-17T13:42:51Z</time>
      </trkpt>
      <trkpt lat="44.42804" lon="5.92008">
        <ele>863</ele>
        <time>2010-07-17T13:42:58Z</time>
      </trkpt>
      <trkpt lat="44.42812" lon="5.91989">
        <ele>864</ele>
        <time>2010-07-17T13:43:06Z</time>
      </trkpt>
      <trkpt lat="44.42818" lon="5.91973">
        <ele>865</ele>
        <time>2010-07-17T13:43:13Z</time>
      </trkpt>
      <trkpt lat="44.42812" lon="5.91961">
        <ele>866</ele>
        <time>2010-07-17T13:43:22Z</time>
      </trkpt>
      <trkpt lat="44.42802" lon="5.91971">
        <ele>866</ele>
        <time>2010-07-17T13:43:29Z</time>
      </trkpt>
      <trkpt lat="44.42792" lon="5.91983">
        <ele>866</ele>
        <time>2010-07-17T13:43:37Z</time>
      </trkpt>
      <trkpt lat="44.42785" lon="5.91992">
        <ele>867</ele>
        <time>2010-07-17T13:43:44Z</time>
      </trkpt>
      <trkpt lat="44.42776" lon="5.92">
        <ele>869</ele>
        <time>2010-07-17T13:43:51Z</time>
      </trkpt>
      <trkpt lat="44.42766" lon="5.92009">
        <ele>872</ele>
        <time>2010-07-17T13:43:58Z</time>
      </trkpt>
      <trkpt lat="44.42753" lon="5.92016">
        <ele>872</ele>
        <time>2010-07-17T13:44:05Z</time>
      </trkpt>
      <trkpt lat="44.42739" lon="5.92026">
        <ele>872</ele>
        <time>2010-07-17T13:44:13Z</time>
      </trkpt>
      <trkpt lat="44.42726" lon="5.92035">
        <ele>873</ele>
        <time>2010-07-17T13:44:21Z</time>
      </trkpt>
      <trkpt lat="44.42717" lon="5.92045">
        <ele>873</ele>
        <time>2010-07-17T13:44:28Z</time>
      </trkpt>
      <trkpt lat="44.42707" lon="5.92058">
        <ele>874</ele>
        <time>2010-07-17T13:44:36Z</time>
      </trkpt>
      <trkpt lat="44.42698" lon="5.92069">
        <ele>876</ele>
        <time>2010-07-17T13:44:43Z</time>
      </trkpt>
      <trkpt lat="44.42693" lon="5.92082">
        <ele>879</ele>
        <time>2010-07-17T13:44:51Z</time>
      </trkpt>
      <trkpt lat="44.42685" lon="5.92094">
        <ele>881</ele>
        <time>2010-07-17T13:44:58Z</time>
      </trkpt>
      <trkpt lat="44.42676" lon="5.92105">
        <ele>885</ele>
        <time>2010-07-17T13:45:06Z</time>
      </trkpt>
      <trkpt lat="44.42667" lon="5.92116">
        <ele>885</ele>
        <time>2010-07-17T13:45:14Z</time>
      </trkpt>
      <trkpt lat="44.42657" lon="5.92127">
        <ele>885</ele>
        <time>2010-07-17T13:45:21Z</time>
      </trkpt>
      <trkpt lat="44.42647" lon="5.92137">
        <ele>887</ele>
        <time>2010-07-17T13:45:28Z</time>
      </trkpt>
      <trkpt lat="44.42634" lon="5.92147">
        <ele>887</ele>
        <time>2010-07-17T13:45:36Z</time>
      </trkpt>
      <trkpt lat="44.42626" lon="5.92157">
        <ele>887</ele>
        <time>2010-07-17T13:45:43Z</time>
      </trkpt>
      <trkpt lat="44.42617" lon="5.9217">
        <ele>889</ele>
        <time>2010-07-17T13:45:52Z</time>
      </trkpt>
      <trkpt lat="44.42609" lon="5.92182">
        <ele>892</ele>
        <time>2010-07-17T13:46:00Z</time>
      </trkpt>
      <trkpt lat="44.42598" lon="5.92191">
        <ele>896</ele>
        <time>2010-07-17T13:46:07Z</time>
      </trkpt>
      <trkpt lat="44.42587" lon="5.92188">
        <ele>896</ele>
        <time>2010-07-17T13:46:14Z</time>
      </trkpt>
      <trkpt lat="44.42584" lon="5.92176">
        <ele>896</ele>
        <time>2010-07-17T13:46:21Z</time>
      </trkpt>
      <trkpt lat="44.42591" lon="5.92166">
        <ele>896</ele>
        <time>2010-07-17T13:46:29Z</time>
      </trkpt>
      <trkpt lat="44.426" lon="5.9216">
        <ele>896</ele>
        <time>2010-07-17T13:46:37Z</time>
      </trkpt>
      <trkpt lat="44.42609" lon="5.92152">
        <ele>900</ele>
        <time>2010-07-17T13:46:45Z</time>
      </trkpt>
      <trkpt lat="44.42614" lon="5.92138">
        <ele>902</ele>
        <time>2010-07-17T13:46:52Z</time>
      </trkpt>
      <trkpt lat="44.4262" lon="5.92126">
        <ele>902</ele>
        <time>2010-07-17T13:46:59Z</time>
      </trkpt>
      <trkpt lat="44.42626" lon="5.92109">
        <ele>902</ele>
        <time>2010-07-17T13:47:07Z</time>
      </trkpt>
      <trkpt lat="44.42632" lon="5.92096">
        <ele>903</ele>
        <time>2010-07-17T13:47:14Z</time>
      </trkpt>
      <trkpt lat="44.42637" lon="5.9208">
        <ele>905</ele>
        <time>2010-07-17T13:47:22Z</time>
      </trkpt>
      <trkpt lat="44.42643" lon="5.92067">
        <ele>905</ele>
        <time>2010-07-17T13:47:29Z</time>
      </trkpt>
      <trkpt lat="44.42649" lon="5.92053">
        <ele>906</ele>
        <time>2010-07-17T13:47:36Z</time>
      </trkpt>
      <trkpt lat="44.42652" lon="5.92039">
        <ele>908</ele>
        <time>2010-07-17T13:47:43Z</time>
      </trkpt>
      <trkpt lat="44.42656" lon="5.92023">
        <ele>910</ele>
        <time>2010-07-17T13:47:51Z</time>
      </trkpt>
      <trkpt lat="44.42659" lon="5.92009">
        <ele>911</ele>
        <time>2010-07-17T13:47:58Z</time>
      </trkpt>
      <trkpt lat="44.42664" lon="5.91992">
        <ele>914</ele>
        <time>2010-07-17T13:48:06Z</time>
      </trkpt>
      <trkpt lat="44.4267" lon="5.9198">
        <ele>916</ele>
        <time>2010-07-17T13:48:13Z</time>
      </trkpt>
      <trkpt lat="44.42675" lon="5.91964">
        <ele>917</ele>
        <time>2010-07-17T13:48:21Z</time>
      </trkpt>
      <trkpt lat="44.42682" lon="5.9195">
        <ele>918</ele>
        <time>2010-07-17T13:48:28Z</time>
      </trkpt>
      <trkpt lat="44.42688" lon="5.91935">
        <ele>920</ele>
        <time>2010-07-17T13:48:36Z</time>
      </trkpt>
      <trkpt lat="44.42693" lon="5.91922">
        <ele>922</ele>
        <time>2010-07-17T13:48:43Z</time>
      </trkpt>
      <trkpt lat="44.427" lon="5.91907">
        <ele>923</ele>
        <time>2010-07-17T13:48:51Z</time>
      </trkpt>
      <trkpt lat="44.42705" lon="5.91892">
        <ele>923</ele>
        <time>2010-07-17T13:48:58Z</time>
      </trkpt>
      <trkpt lat="44.42704" lon="5.91875">
        <ele>924</ele>
        <time>2010-07-17T13:49:07Z</time>
      </trkpt>
      <trkpt lat="44.427" lon="5.9188">
        <ele>926</ele>
        <time>2010-07-17T13:49:14Z</time>
      </trkpt>
      <trkpt lat="44.42694" lon="5.91889">
        <ele>928</ele>
        <time>2010-07-17T13:49:21Z</time>
      </trkpt>
      <trkpt lat="44.42686" lon="5.91898">
        <ele>928</ele>
        <time>2010-07-17T13:49:29Z</time>
      </trkpt>
      <trkpt lat="44.4268" lon="5.91908">
        <ele>929</ele>
        <time>2010-07-17T13:49:36Z</time>
      </trkpt>
      <trkpt lat="44.42673" lon="5.91917">
        <ele>931</ele>
        <time>2010-07-17T13:49:43Z</time>
      </trkpt>
      <trkpt lat="44.42664" lon="5.91931">
        <ele>935</ele>
        <time>2010-07-17T13:49:51Z</time>
      </trkpt>
      <trkpt lat="44.42654" lon="5.91944">
        <ele>938</ele>
        <time>2010-07-17T13:49:58Z</time>
      </trkpt>
      <trkpt lat="44.42643" lon="5.91957">
        <ele>941</ele>
        <time>2010-07-17T13:50:06Z</time>
      </trkpt>
      <trkpt lat="44.42633" lon="5.91969">
        <ele>942</ele>
        <time>2010-07-17T13:50:13Z</time>
      </trkpt>
      <trkpt lat="44.42627" lon="5.91982">
        <ele>942</ele>
        <time>2010-07-17T13:50:20Z</time>
      </trkpt>
      <trkpt lat="44.42619" lon="5.91994">
        <ele>946</ele>
        <time>2010-07-17T13:50:28Z</time>
      </trkpt>
      <trkpt lat="44.42612" lon="5.92008">
        <ele>949</ele>
        <time>2010-07-17T13:50:36Z</time>
      </trkpt>
      <trkpt lat="44.42603" lon="5.9202">
        <ele>951</ele>
        <time>2010-07-17T13:50:43Z</time>
      </trkpt>
      <trkpt lat="44.42592" lon="5.92034">
        <ele>953</ele>
        <time>2010-07-17T13:50:51Z</time>
      </trkpt>
      <trkpt lat="44.42586" lon="5.92045">
        <ele>955</ele>
        <time>2010-07-17T13:50:58Z</time>
      </trkpt>
      <trkpt lat="44.42573" lon="5.92058">
        <ele>956</ele>
        <time>2010-07-17T13:51:06Z</time>
      </trkpt>
      <trkpt lat="44.42562" lon="5.9207">
        <ele>956</ele>
        <time>2010-07-17T13:51:14Z</time>
      </trkpt>
      <trkpt lat="44.42555" lon="5.92081">
        <ele>957</ele>
        <time>2010-07-17T13:51:21Z</time>
      </trkpt>
      <trkpt lat="44.42548" lon="5.92092">
        <ele>958</ele>
        <time>2010-07-17T13:51:28Z</time>
      </trkpt>
      <trkpt lat="44.42537" lon="5.92104">
        <ele>959</ele>
        <time>2010-07-17T13:51:36Z</time>
      </trkpt>
      <trkpt lat="44.42528" lon="5.92113">
        <ele>961</ele>
        <time>2010-07-17T13:51:43Z</time>
      </trkpt>
      <trkpt lat="44.42516" lon="5.92125">
        <ele>961</ele>
        <time>2010-07-17T13:51:51Z</time>
      </trkpt>
      <trkpt lat="44.42507" lon="5.92134">
        <ele>961</ele>
        <time>2010-07-17T13:51:58Z</time>
      </trkpt>
      <trkpt lat="44.42495" lon="5.92147">
        <ele>962</ele>
        <time>2010-07-17T13:52:07Z</time>
      </trkpt>
      <trkpt lat="44.42487" lon="5.92158">
        <ele>964</ele>
        <time>2010-07-17T13:52:14Z</time>
      </trkpt>
      <trkpt lat="44.42476" lon="5.9217">
        <ele>967</ele>
        <time>2010-07-17T13:52:21Z</time>
      </trkpt>
      <trkpt lat="44.42468" lon="5.92182">
        <ele>969</ele>
        <time>2010-07-17T13:52:28Z</time>
      </trkpt>
      <trkpt lat="44.42456" lon="5.92196">
        <ele>971</ele>
        <time>2010-07-17T13:52:36Z</time>
      </trkpt>
      <trkpt lat="44.42449" lon="5.92206">
        <ele>972</ele>
        <time>2010-07-17T13:52:43Z</time>
      </trkpt>
      <trkpt lat="44.42439" lon="5.92217">
        <ele>972</ele>
        <time>2010-07-17T13:52:51Z</time>
      </trkpt>
      <trkpt lat="44.42427" lon="5.92223">
        <ele>972</ele>
        <time>2010-07-17T13:52:59Z</time>
      </trkpt>
      <trkpt lat="44.42423" lon="5.92225">
        <ele>972</ele>
        <time>2010-07-17T13:53:06Z</time>
      </trkpt>
      <trkpt lat="44.42417" lon="5.92227">
        <ele>972</ele>
        <time>2010-07-17T13:53:14Z</time>
      </trkpt>
      <trkpt lat="44.42418" lon="5.92227">
        <ele>972</ele>
        <time>2010-07-17T13:53:21Z</time>
      </trkpt>
      <trkpt lat="44.42419" lon="5.92226">
        <ele>972</ele>
        <time>2010-07-17T13:53:30Z</time>
      </trkpt>
      <trkpt lat="44.42421" lon="5.92226">
        <ele>971</ele>
        <time>2010-07-17T13:53:41Z</time>
      </trkpt>
      <trkpt lat="44.42419" lon="5.92225">
        <ele>971</ele>
        <time>2010-07-17T13:54:03Z</time>
      </trkpt>
      <trkpt lat="44.42419" lon="5.92227">
        <ele>971</ele>
        <time>2010-07-17T13:54:11Z</time>
      </trkpt>
      <trkpt lat="44.42421" lon="5.9223">
        <ele>971</ele>
        <time>2010-07-17T13:54:20Z</time>
      </trkpt>
      <trkpt lat="44.42418" lon="5.9223">
        <ele>971</ele>
        <time>2010-07-17T13:54:28Z</time>
      </trkpt>
      <trkpt lat="44.42419" lon="5.9223">
        <ele>971</ele>
        <time>2010-07-17T13:54:43Z</time>
      </trkpt>
      <trkpt lat="44.4242" lon="5.92228">
        <ele>971</ele>
        <time>2010-07-17T13:55:14Z</time>
      </trkpt>
      <trkpt lat="44.42421" lon="5.92227">
        <ele>971</ele>
        <time>2010-07-17T13:55:22Z</time>
      </trkpt>
      <trkpt lat="44.42418" lon="5.92224">
        <ele>971</ele>
        <time>2010-07-17T13:55:31Z</time>
      </trkpt>
      <trkpt lat="44.42416" lon="5.92212">
        <ele>971</ele>
        <time>2010-07-17T13:55:39Z</time>
      </trkpt>
      <trkpt lat="44.42417" lon="5.92199">
        <ele>973</ele>
        <time>2010-07-17T13:55:46Z</time>
      </trkpt>
      <trkpt lat="44.42418" lon="5.92186">
        <ele>975</ele>
        <time>2010-07-17T13:55:53Z</time>
      </trkpt>
      <trkpt lat="44.42419" lon="5.92171">
        <ele>977</ele>
        <time>2010-07-17T13:56:01Z</time>
      </trkpt>
      <trkpt lat="44.4242" lon="5.92155">
        <ele>978</ele>
        <time>2010-07-17T13:56:08Z</time>
      </trkpt>
      <trkpt lat="44.42423" lon="5.92135">
        <ele>978</ele>
        <time>2010-07-17T13:56:16Z</time>
      </trkpt>
      <trkpt lat="44.42423" lon="5.9212">
        <ele>978</ele>
        <time>2010-07-17T13:56:23Z</time>
      </trkpt>
      <trkpt lat="44.42423" lon="5.92105">
        <ele>980</ele>
        <time>2010-07-17T13:56:31Z</time>
      </trkpt>
      <trkpt lat="44.42424" lon="5.9209">
        <ele>981</ele>
        <time>2010-07-17T13:56:38Z</time>
      </trkpt>
      <trkpt lat="44.42421" lon="5.92072">
        <ele>983</ele>
        <time>2010-07-17T13:56:46Z</time>
      </trkpt>
      <trkpt lat="44.4242" lon="5.92057">
        <ele>983</ele>
        <time>2010-07-17T13:56:53Z</time>
      </trkpt>
      <trkpt lat="44.42418" lon="5.92039">
        <ele>983</ele>
        <time>2010-07-17T13:57:01Z</time>
      </trkpt>
      <trkpt lat="44.42416" lon="5.92025">
        <ele>985</ele>
        <time>2010-07-17T13:57:08Z</time>
      </trkpt>
      <trkpt lat="44.42416" lon="5.92008">
        <ele>987</ele>
        <time>2010-07-17T13:57:16Z</time>
      </trkpt>
      <trkpt lat="44.42414" lon="5.91992">
        <ele>989</ele>
        <time>2010-07-17T13:57:23Z</time>
      </trkpt>
      <trkpt lat="44.42411" lon="5.91975">
        <ele>991</ele>
        <time>2010-07-17T13:57:31Z</time>
      </trkpt>
      <trkpt lat="44.42408" lon="5.91959">
        <ele>991</ele>
        <time>2010-07-17T13:57:38Z</time>
      </trkpt>
      <trkpt lat="44.42402" lon="5.91943">
        <ele>992</ele>
        <time>2010-07-17T13:57:46Z</time>
      </trkpt>
      <trkpt lat="44.42397" lon="5.91928">
        <ele>993</ele>
        <time>2010-07-17T13:57:53Z</time>
      </trkpt>
      <trkpt lat="44.42393" lon="5.91912">
        <ele>995</ele>
        <time>2010-07-17T13:58:01Z</time>
      </trkpt>
      <trkpt lat="44.42392" lon="5.91898">
        <ele>996</ele>
        <time>2010-07-17T13:58:08Z</time>
      </trkpt>
      <trkpt lat="44.42387" lon="5.91883">
        <ele>998</ele>
        <time>2010-07-17T13:58:16Z</time>
      </trkpt>
      <trkpt lat="44.42383" lon="5.91868">
        <ele>1000</ele>
        <time>2010-07-17T13:58:23Z</time>
      </trkpt>
      <trkpt lat="44.42378" lon="5.91851">
        <ele>1001</ele>
        <time>2010-07-17T13:58:31Z</time>
      </trkpt>
      <trkpt lat="44.42376" lon="5.91836">
        <ele>1002</ele>
        <time>2010-07-17T13:58:38Z</time>
      </trkpt>
      <trkpt lat="44.42374" lon="5.91819">
        <ele>1004</ele>
        <time>2010-07-17T13:58:46Z</time>
      </trkpt>
      <trkpt lat="44.42371" lon="5.91804">
        <ele>1004</ele>
        <time>2010-07-17T13:58:53Z</time>
      </trkpt>
      <trkpt lat="44.42367" lon="5.91788">
        <ele>1007</ele>
        <time>2010-07-17T13:59:01Z</time>
      </trkpt>
      <trkpt lat="44.42364" lon="5.91773">
        <ele>1009</ele>
        <time>2010-07-17T13:59:08Z</time>
      </trkpt>
      <trkpt lat="44.42363" lon="5.91755">
        <ele>1010</ele>
        <time>2010-07-17T13:59:16Z</time>
      </trkpt>
      <trkpt lat="44.4236" lon="5.91739">
        <ele>1011</ele>
        <time>2010-07-17T13:59:24Z</time>
      </trkpt>
      <trkpt lat="44.4236" lon="5.91716">
        <ele>1013</ele>
        <time>2010-07-17T13:59:32Z</time>
      </trkpt>
      <trkpt lat="44.42361" lon="5.91695">
        <ele>1013</ele>
        <time>2010-07-17T13:59:39Z</time>
      </trkpt>
      <trkpt lat="44.42354" lon="5.91677">
        <ele>1013</ele>
        <time>2010-07-17T13:59:46Z</time>
      </trkpt>
      <trkpt lat="44.42345" lon="5.91662">
        <ele>1013</ele>
        <time>2010-07-17T13:59:53Z</time>
      </trkpt>
      <trkpt lat="44.42338" lon="5.91647">
        <ele>1015</ele>
        <time>2010-07-17T14:00:01Z</time>
      </trkpt>
      <trkpt lat="44.42337" lon="5.91634">
        <ele>1017</ele>
        <time>2010-07-17T14:00:08Z</time>
      </trkpt>
      <trkpt lat="44.42331" lon="5.91622">
        <ele>1020</ele>
        <time>2010-07-17T14:00:16Z</time>
      </trkpt>
      <trkpt lat="44.42317" lon="5.91617">
        <ele>1022</ele>
        <time>2010-07-17T14:00:23Z</time>
      </trkpt>
      <trkpt lat="44.42301" lon="5.91595">
        <ele>1023</ele>
        <time>2010-07-17T14:00:31Z</time>
      </trkpt>
      <trkpt lat="44.42287" lon="5.91575">
        <ele>1023</ele>
        <time>2010-07-17T14:00:38Z</time>
      </trkpt>
      <trkpt lat="44.42266" lon="5.91569">
        <ele>1024</ele>
        <time>2010-07-17T14:00:46Z</time>
      </trkpt>
      <trkpt lat="44.42249" lon="5.91555">
        <ele>1024</ele>
        <time>2010-07-17T14:00:53Z</time>
      </trkpt>
      <trkpt lat="44.42249" lon="5.91528">
        <ele>1024</ele>
        <time>2010-07-17T14:01:01Z</time>
      </trkpt>
      <trkpt lat="44.42256" lon="5.91508">
        <ele>1027</ele>
        <time>2010-07-17T14:01:08Z</time>
      </trkpt>
      <trkpt lat="44.42262" lon="5.91483">
        <ele>1029</ele>
        <time>2010-07-17T14:01:16Z</time>
      </trkpt>
      <trkpt lat="44.42254" lon="5.91468">
        <ele>1031</ele>
        <time>2010-07-17T14:01:23Z</time>
      </trkpt>
      <trkpt lat="44.42244" lon="5.91458">
        <ele>1032</ele>
        <time>2010-07-17T14:01:31Z</time>
      </trkpt>
      <trkpt lat="44.42234" lon="5.91444">
        <ele>1032</ele>
        <time>2010-07-17T14:01:38Z</time>
      </trkpt>
      <trkpt lat="44.42222" lon="5.9143">
        <ele>1033</ele>
        <time>2010-07-17T14:01:46Z</time>
      </trkpt>
      <trkpt lat="44.42214" lon="5.91417">
        <ele>1033</ele>
        <time>2010-07-17T14:01:53Z</time>
      </trkpt>
      <trkpt lat="44.42205" lon="5.91403">
        <ele>1035</ele>
        <time>2010-07-17T14:02:02Z</time>
      </trkpt>
      <trkpt lat="44.42199" lon="5.91396">
        <ele>1037</ele>
        <time>2010-07-17T14:02:09Z</time>
      </trkpt>
      <trkpt lat="44.42192" lon="5.91386">
        <ele>1039</ele>
        <time>2010-07-17T14:02:16Z</time>
      </trkpt>
      <trkpt lat="44.42184" lon="5.91372">
        <ele>1041</ele>
        <time>2010-07-17T14:02:23Z</time>
      </trkpt>
      <trkpt lat="44.42179" lon="5.91356">
        <ele>1041</ele>
        <time>2010-07-17T14:02:31Z</time>
      </trkpt>
      <trkpt lat="44.4217" lon="5.91348">
        <ele>1041</ele>
        <time>2010-07-17T14:02:38Z</time>
      </trkpt>
      <trkpt lat="44.42158" lon="5.91342">
        <ele>1042</ele>
        <time>2010-07-17T14:02:46Z</time>
      </trkpt>
      <trkpt lat="44.42151" lon="5.9133">
        <ele>1043</ele>
        <time>2010-07-17T14:02:53Z</time>
      </trkpt>
      <trkpt lat="44.42149" lon="5.91315">
        <ele>1045</ele>
        <time>2010-07-17T14:03:01Z</time>
      </trkpt>
      <trkpt lat="44.42146" lon="5.91299">
        <ele>1046</ele>
        <time>2010-07-17T14:03:08Z</time>
      </trkpt>
      <trkpt lat="44.42137" lon="5.91289">
        <ele>1048</ele>
        <time>2010-07-17T14:03:16Z</time>
      </trkpt>
      <trkpt lat="44.42127" lon="5.9129">
        <ele>1050</ele>
        <time>2010-07-17T14:03:23Z</time>
      </trkpt>
      <trkpt lat="44.42109" lon="5.91296">
        <ele>1052</ele>
        <time>2010-07-17T14:03:31Z</time>
      </trkpt>
      <trkpt lat="44.42094" lon="5.91282">
        <ele>1054</ele>
        <time>2010-07-17T14:03:38Z</time>
      </trkpt>
      <trkpt lat="44.42079" lon="5.91269">
        <ele>1054</ele>
        <time>2010-07-17T14:03:46Z</time>
      </trkpt>
      <trkpt lat="44.42067" lon="5.91257">
        <ele>1054</ele>
        <time>2010-07-17T14:03:53Z</time>
      </trkpt>
      <trkpt lat="44.42051" lon="5.91253">
        <ele>1054</ele>
        <time>2010-07-17T14:04:01Z</time>
      </trkpt>
      <trkpt lat="44.42044" lon="5.91281">
        <ele>1056</ele>
        <time>2010-07-17T14:04:08Z</time>
      </trkpt>
      <trkpt lat="44.42035" lon="5.91312">
        <ele>1059</ele>
        <time>2010-07-17T14:04:16Z</time>
      </trkpt>
      <trkpt lat="44.42024" lon="5.91334">
        <ele>1061</ele>
        <time>2010-07-17T14:04:23Z</time>
      </trkpt>
      <trkpt lat="44.4201" lon="5.91355">
        <ele>1062</ele>
        <time>2010-07-17T14:04:31Z</time>
      </trkpt>
      <trkpt lat="44.42003" lon="5.91371">
        <ele>1062</ele>
        <time>2010-07-17T14:04:38Z</time>
      </trkpt>
      <trkpt lat="44.41993" lon="5.91393">
        <ele>1062</ele>
        <time>2010-07-17T14:04:46Z</time>
      </trkpt>
      <trkpt lat="44.41986" lon="5.91412">
        <ele>1064</ele>
        <time>2010-07-17T14:04:53Z</time>
      </trkpt>
      <trkpt lat="44.41978" lon="5.91431">
        <ele>1064</ele>
        <time>2010-07-17T14:05:01Z</time>
      </trkpt>
      <trkpt lat="44.41973" lon="5.91444">
        <ele>1064</ele>
        <time>2010-07-17T14:05:08Z</time>
      </trkpt>
      <trkpt lat="44.41969" lon="5.91462">
        <ele>1067</ele>
        <time>2010-07-17T14:05:16Z</time>
      </trkpt>
      <trkpt lat="44.41964" lon="5.91479">
        <ele>1070</ele>
        <time>2010-07-17T14:05:24Z</time>
      </trkpt>
      <trkpt lat="44.41958" lon="5.91495">
        <ele>1070</ele>
        <time>2010-07-17T14:05:31Z</time>
      </trkpt>
      <trkpt lat="44.41952" lon="5.91509">
        <ele>1072</ele>
        <time>2010-07-17T14:05:38Z</time>
      </trkpt>
      <trkpt lat="44.41945" lon="5.91523">
        <ele>1072</ele>
        <time>2010-07-17T14:05:46Z</time>
      </trkpt>
      <trkpt lat="44.41939" lon="5.91536">
        <ele>1073</ele>
        <time>2010-07-17T14:05:53Z</time>
      </trkpt>
      <trkpt lat="44.41933" lon="5.91549">
        <ele>1075</ele>
        <time>2010-07-17T14:06:01Z</time>
      </trkpt>
      <trkpt lat="44.41926" lon="5.9156">
        <ele>1079</ele>
        <time>2010-07-17T14:06:08Z</time>
      </trkpt>
      <trkpt lat="44.41915" lon="5.91572">
        <ele>1082</ele>
        <time>2010-07-17T14:06:16Z</time>
      </trkpt>
      <trkpt lat="44.41905" lon="5.91581">
        <ele>1085</ele>
        <time>2010-07-17T14:06:23Z</time>
      </trkpt>
      <trkpt lat="44.41894" lon="5.91589">
        <ele>1086</ele>
        <time>2010-07-17T14:06:31Z</time>
      </trkpt>
      <trkpt lat="44.41884" lon="5.91594">
        <ele>1086</ele>
        <time>2010-07-17T14:06:38Z</time>
      </trkpt>
      <trkpt lat="44.41873" lon="5.91601">
        <ele>1090</ele>
        <time>2010-07-17T14:06:46Z</time>
      </trkpt>
      <trkpt lat="44.41863" lon="5.91604">
        <ele>1090</ele>
        <time>2010-07-17T14:06:53Z</time>
      </trkpt>
      <trkpt lat="44.41851" lon="5.91609">
        <ele>1093</ele>
        <time>2010-07-17T14:07:01Z</time>
      </trkpt>
      <trkpt lat="44.4184" lon="5.9161">
        <ele>1094</ele>
        <time>2010-07-17T14:07:08Z</time>
      </trkpt>
      <trkpt lat="44.41828" lon="5.91609">
        <ele>1094</ele>
        <time>2010-07-17T14:07:16Z</time>
      </trkpt>
      <trkpt lat="44.41818" lon="5.91607">
        <ele>1095</ele>
        <time>2010-07-17T14:07:23Z</time>
      </trkpt>
      <trkpt lat="44.41801" lon="5.91603">
        <ele>1095</ele>
        <time>2010-07-17T14:07:31Z</time>
      </trkpt>
      <trkpt lat="44.41788" lon="5.91596">
        <ele>1095</ele>
        <time>2010-07-17T14:07:38Z</time>
      </trkpt>
      <trkpt lat="44.41776" lon="5.91584">
        <ele>1095</ele>
        <time>2010-07-17T14:07:46Z</time>
      </trkpt>
      <trkpt lat="44.41767" lon="5.9157">
        <ele>1095</ele>
        <time>2010-07-17T14:07:53Z</time>
      </trkpt>
      <trkpt lat="44.41763" lon="5.91554">
        <ele>1097</ele>
        <time>2010-07-17T14:08:01Z</time>
      </trkpt>
      <trkpt lat="44.41758" lon="5.9154">
        <ele>1099</ele>
        <time>2010-07-17T14:08:08Z</time>
      </trkpt>
      <trkpt lat="44.41751" lon="5.91525">
        <ele>1102</ele>
        <time>2010-07-17T14:08:16Z</time>
      </trkpt>
      <trkpt lat="44.41743" lon="5.91517">
        <ele>1106</ele>
        <time>2010-07-17T14:08:23Z</time>
      </trkpt>
      <trkpt lat="44.41733" lon="5.91515">
        <ele>1109</ele>
        <time>2010-07-17T14:08:31Z</time>
      </trkpt>
      <trkpt lat="44.41726" lon="5.91518">
        <ele>1110</ele>
        <time>2010-07-17T14:08:38Z</time>
      </trkpt>
      <trkpt lat="44.41715" lon="5.91523">
        <ele>1113</ele>
        <time>2010-07-17T14:08:46Z</time>
      </trkpt>
      <trkpt lat="44.41705" lon="5.91522">
        <ele>1114</ele>
        <time>2010-07-17T14:08:53Z</time>
      </trkpt>
      <trkpt lat="44.41693" lon="5.91515">
        <ele>1114</ele>
        <time>2010-07-17T14:09:02Z</time>
      </trkpt>
      <trkpt lat="44.41685" lon="5.91502">
        <ele>1114</ele>
        <time>2010-07-17T14:09:09Z</time>
      </trkpt>
      <trkpt lat="44.4168" lon="5.91491">
        <ele>1115</ele>
        <time>2010-07-17T14:09:16Z</time>
      </trkpt>
      <trkpt lat="44.41671" lon="5.9148">
        <ele>1116</ele>
        <time>2010-07-17T14:09:24Z</time>
      </trkpt>
      <trkpt lat="44.41664" lon="5.91471">
        <ele>1116</ele>
        <time>2010-07-17T14:09:31Z</time>
      </trkpt>
      <trkpt lat="44.41655" lon="5.91465">
        <ele>1117</ele>
        <time>2010-07-17T14:09:38Z</time>
      </trkpt>
      <trkpt lat="44.41645" lon="5.91457">
        <ele>1119</ele>
        <time>2010-07-17T14:09:46Z</time>
      </trkpt>
      <trkpt lat="44.41636" lon="5.91448">
        <ele>1119</ele>
        <time>2010-07-17T14:09:53Z</time>
      </trkpt>
      <trkpt lat="44.41626" lon="5.91435">
        <ele>1119</ele>
        <time>2010-07-17T14:10:01Z</time>
      </trkpt>
      <trkpt lat="44.41619" lon="5.91422">
        <ele>1121</ele>
        <time>2010-07-17T14:10:08Z</time>
      </trkpt>
      <trkpt lat="44.41613" lon="5.91406">
        <ele>1122</ele>
        <time>2010-07-17T14:10:16Z</time>
      </trkpt>
      <trkpt lat="44.41608" lon="5.91393">
        <ele>1123</ele>
        <time>2010-07-17T14:10:23Z</time>
      </trkpt>
      <trkpt lat="44.41606" lon="5.91378">
        <ele>1125</ele>
        <time>2010-07-17T14:10:31Z</time>
      </trkpt>
      <trkpt lat="44.41605" lon="5.91365">
        <ele>1127</ele>
        <time>2010-07-17T14:10:38Z</time>
      </trkpt>
      <trkpt lat="44.41603" lon="5.91349">
        <ele>1129</ele>
        <time>2010-07-17T14:10:46Z</time>
      </trkpt>
      <trkpt lat="44.41599" lon="5.91335">
        <ele>1133</ele>
        <time>2010-07-17T14:10:53Z</time>
      </trkpt>
      <trkpt lat="44.41598" lon="5.91318">
        <ele>1137</ele>
        <time>2010-07-17T14:11:01Z</time>
      </trkpt>
      <trkpt lat="44.41598" lon="5.91304">
        <ele>1141</ele>
        <time>2010-07-17T14:11:08Z</time>
      </trkpt>
      <trkpt lat="44.41597" lon="5.91288">
        <ele>1145</ele>
        <time>2010-07-17T14:11:16Z</time>
      </trkpt>
      <trkpt lat="44.41592" lon="5.91272">
        <ele>1148</ele>
        <time>2010-07-17T14:11:23Z</time>
      </trkpt>
      <trkpt lat="44.41587" lon="5.91255">
        <ele>1150</ele>
        <time>2010-07-17T14:11:31Z</time>
      </trkpt>
      <trkpt lat="44.41587" lon="5.9124">
        <ele>1150</ele>
        <time>2010-07-17T14:11:38Z</time>
      </trkpt>
      <trkpt lat="44.41586" lon="5.91222">
        <ele>1150</ele>
        <time>2010-07-17T14:11:46Z</time>
      </trkpt>
      <trkpt lat="44.41583" lon="5.91209">
        <ele>1150</ele>
        <time>2010-07-17T14:11:53Z</time>
      </trkpt>
      <trkpt lat="44.4158" lon="5.91192">
        <ele>1150</ele>
        <time>2010-07-17T14:12:01Z</time>
      </trkpt>
      <trkpt lat="44.41575" lon="5.91182">
        <ele>1150</ele>
        <time>2010-07-17T14:12:08Z</time>
      </trkpt>
      <trkpt lat="44.41571" lon="5.91167">
        <ele>1151</ele>
        <time>2010-07-17T14:12:16Z</time>
      </trkpt>
      <trkpt lat="44.41566" lon="5.91153">
        <ele>1151</ele>
        <time>2010-07-17T14:12:23Z</time>
      </trkpt>
      <trkpt lat="44.4156" lon="5.9114">
        <ele>1154</ele>
        <time>2010-07-17T14:12:32Z</time>
      </trkpt>
      <trkpt lat="44.41558" lon="5.91127">
        <ele>1155</ele>
        <time>2010-07-17T14:12:39Z</time>
      </trkpt>
      <trkpt lat="44.41562" lon="5.91114">
        <ele>1155</ele>
        <time>2010-07-17T14:12:46Z</time>
      </trkpt>
      <trkpt lat="44.41565" lon="5.91103">
        <ele>1155</ele>
        <time>2010-07-17T14:12:53Z</time>
      </trkpt>
      <trkpt lat="44.41566" lon="5.91093">
        <ele>1155</ele>
        <time>2010-07-17T14:13:00Z</time>
      </trkpt>
      <trkpt lat="44.41569" lon="5.9108">
        <ele>1157</ele>
        <time>2010-07-17T14:13:07Z</time>
      </trkpt>
      <trkpt lat="44.41573" lon="5.9107">
        <ele>1158</ele>
        <time>2010-07-17T14:13:14Z</time>
      </trkpt>
      <trkpt lat="44.41578" lon="5.9106">
        <ele>1158</ele>
        <time>2010-07-17T14:13:21Z</time>
      </trkpt>
      <trkpt lat="44.41583" lon="5.91048">
        <ele>1161</ele>
        <time>2010-07-17T14:13:29Z</time>
      </trkpt>
      <trkpt lat="44.41587" lon="5.91034">
        <ele>1161</ele>
        <time>2010-07-17T14:13:36Z</time>
      </trkpt>
      <trkpt lat="44.41589" lon="5.91022">
        <ele>1161</ele>
        <time>2010-07-17T14:13:43Z</time>
      </trkpt>
      <trkpt lat="44.41587" lon="5.91009">
        <ele>1164</ele>
        <time>2010-07-17T14:13:51Z</time>
      </trkpt>
      <trkpt lat="44.4159" lon="5.90994">
        <ele>1165</ele>
        <time>2010-07-17T14:13:58Z</time>
      </trkpt>
      <trkpt lat="44.41592" lon="5.90974">
        <ele>1166</ele>
        <time>2010-07-17T14:14:06Z</time>
      </trkpt>
      <trkpt lat="44.41591" lon="5.9096">
        <ele>1166</ele>
        <time>2010-07-17T14:14:13Z</time>
      </trkpt>
      <trkpt lat="44.41591" lon="5.90948">
        <ele>1166</ele>
        <time>2010-07-17T14:14:21Z</time>
      </trkpt>
      <trkpt lat="44.4159" lon="5.90935">
        <ele>1167</ele>
        <time>2010-07-17T14:14:28Z</time>
      </trkpt>
      <trkpt lat="44.4159" lon="5.9092">
        <ele>1167</ele>
        <time>2010-07-17T14:14:36Z</time>
      </trkpt>
      <trkpt lat="44.4159" lon="5.90909">
        <ele>1167</ele>
        <time>2010-07-17T14:14:43Z</time>
      </trkpt>
      <trkpt lat="44.41593" lon="5.90896">
        <ele>1169</ele>
        <time>2010-07-17T14:14:50Z</time>
      </trkpt>
      <trkpt lat="44.41594" lon="5.90886">
        <ele>1175</ele>
        <time>2010-07-17T14:14:58Z</time>
      </trkpt>
      <trkpt lat="44.41595" lon="5.90874">
        <ele>1178</ele>
        <time>2010-07-17T14:15:05Z</time>
      </trkpt>
      <trkpt lat="44.41596" lon="5.90861">
        <ele>1179</ele>
        <time>2010-07-17T14:15:12Z</time>
      </trkpt>
      <trkpt lat="44.41594" lon="5.90851">
        <ele>1179</ele>
        <time>2010-07-17T14:15:19Z</time>
      </trkpt>
      <trkpt lat="44.41595" lon="5.90838">
        <ele>1180</ele>
        <time>2010-07-17T14:15:26Z</time>
      </trkpt>
      <trkpt lat="44.41597" lon="5.90834">
        <ele>1180</ele>
        <time>2010-07-17T14:15:33Z</time>
      </trkpt>
      <trkpt lat="44.41596" lon="5.90836">
        <ele>1180</ele>
        <time>2010-07-17T14:15:41Z</time>
      </trkpt>
      <trkpt lat="44.41594" lon="5.90839">
        <ele>1188</ele>
        <time>2010-07-17T14:15:49Z</time>
      </trkpt>
      <trkpt lat="44.41592" lon="5.90846">
        <ele>1201</ele>
        <time>2010-07-17T14:15:59Z</time>
      </trkpt>
      <trkpt lat="44.41588" lon="5.90849">
        <ele>1211</ele>
        <time>2010-07-17T14:16:06Z</time>
      </trkpt>
      <trkpt lat="44.41586" lon="5.90844">
        <ele>1215</ele>
        <time>2010-07-17T14:16:13Z</time>
      </trkpt>
      <trkpt lat="44.41585" lon="5.90838">
        <ele>1216</ele>
        <time>2010-07-17T14:16:22Z</time>
      </trkpt>
      <trkpt lat="44.41581" lon="5.90845">
        <ele>1217</ele>
        <time>2010-07-17T14:16:29Z</time>
      </trkpt>
      <trkpt lat="44.41578" lon="5.90852">
        <ele>1226</ele>
        <time>2010-07-17T14:16:38Z</time>
      </trkpt>
      <trkpt lat="44.41577" lon="5.90858">
        <ele>1232</ele>
        <time>2010-07-17T14:16:46Z</time>
      </trkpt>
      <trkpt lat="44.41578" lon="5.90857">
        <ele>1236</ele>
        <time>2010-07-17T14:16:56Z</time>
      </trkpt>
      <trkpt lat="44.41581" lon="5.90854">
        <ele>1231</ele>
        <time>2010-07-17T14:17:05Z</time>
      </trkpt>
      <trkpt lat="44.41583" lon="5.90851">
        <ele>1226</ele>
        <time>2010-07-17T14:17:17Z</time>
      </trkpt>
      <trkpt lat="44.41584" lon="5.90847">
        <ele>1221</ele>
        <time>2010-07-17T14:17:27Z</time>
      </trkpt>
      <trkpt lat="44.4159" lon="5.90835">
        <ele>1215</ele>
        <time>2010-07-17T14:17:34Z</time>
      </trkpt>
      <trkpt lat="44.41597" lon="5.9082">
        <ele>1208</ele>
        <time>2010-07-17T14:17:41Z</time>
      </trkpt>
      <trkpt lat="44.416" lon="5.90801">
        <ele>1200</ele>
        <time>2010-07-17T14:17:49Z</time>
      </trkpt>
      <trkpt lat="44.41605" lon="5.90788">
        <ele>1193</ele>
        <time>2010-07-17T14:17:56Z</time>
      </trkpt>
      <trkpt lat="44.41609" lon="5.90776">
        <ele>1190</ele>
        <time>2010-07-17T14:18:03Z</time>
      </trkpt>
      <trkpt lat="44.41614" lon="5.90761">
        <ele>1187</ele>
        <time>2010-07-17T14:18:11Z</time>
      </trkpt>
      <trkpt lat="44.41617" lon="5.90747">
        <ele>1186</ele>
        <time>2010-07-17T14:18:18Z</time>
      </trkpt>
      <trkpt lat="44.41616" lon="5.9073">
        <ele>1186</ele>
        <time>2010-07-17T14:18:26Z</time>
      </trkpt>
      <trkpt lat="44.41616" lon="5.90714">
        <ele>1187</ele>
        <time>2010-07-17T14:18:33Z</time>
      </trkpt>
      <trkpt lat="44.41616" lon="5.90698">
        <ele>1191</ele>
        <time>2010-07-17T14:18:41Z</time>
      </trkpt>
      <trkpt lat="44.41618" lon="5.90682">
        <ele>1193</ele>
        <time>2010-07-17T14:18:48Z</time>
      </trkpt>
      <trkpt lat="44.41621" lon="5.90667">
        <ele>1198</ele>
        <time>2010-07-17T14:18:55Z</time>
      </trkpt>
      <trkpt lat="44.41627" lon="5.90641">
        <ele>1198</ele>
        <time>2010-07-17T14:19:02Z</time>
      </trkpt>
      <trkpt lat="44.41619" lon="5.90622">
        <ele>1196</ele>
        <time>2010-07-17T14:19:09Z</time>
      </trkpt>
      <trkpt lat="44.41605" lon="5.90622">
        <ele>1199</ele>
        <time>2010-07-17T14:19:16Z</time>
      </trkpt>
      <trkpt lat="44.41597" lon="5.90627">
        <ele>1206</ele>
        <time>2010-07-17T14:19:23Z</time>
      </trkpt>
      <trkpt lat="44.41594" lon="5.90632">
        <ele>1213</ele>
        <time>2010-07-17T14:19:30Z</time>
      </trkpt>
      <trkpt lat="44.41592" lon="5.90642">
        <ele>1219</ele>
        <time>2010-07-17T14:19:37Z</time>
      </trkpt>
      <trkpt lat="44.41586" lon="5.90653">
        <ele>1220</ele>
        <time>2010-07-17T14:19:44Z</time>
      </trkpt>
      <trkpt lat="44.41578" lon="5.90667">
        <ele>1220</ele>
        <time>2010-07-17T14:19:51Z</time>
      </trkpt>
      <trkpt lat="44.4157" lon="5.90681">
        <ele>1221</ele>
        <time>2010-07-17T14:19:58Z</time>
      </trkpt>
      <trkpt lat="44.41563" lon="5.90691">
        <ele>1222</ele>
        <time>2010-07-17T14:20:05Z</time>
      </trkpt>
      <trkpt lat="44.41552" lon="5.90695">
        <ele>1222</ele>
        <time>2010-07-17T14:20:12Z</time>
      </trkpt>
      <trkpt lat="44.41543" lon="5.90703">
        <ele>1222</ele>
        <time>2010-07-17T14:20:19Z</time>
      </trkpt>
      <trkpt lat="44.41533" lon="5.90721">
        <ele>1222</ele>
        <time>2010-07-17T14:20:26Z</time>
      </trkpt>
      <trkpt lat="44.41529" lon="5.90729">
        <ele>1224</ele>
        <time>2010-07-17T14:20:33Z</time>
      </trkpt>
      <trkpt lat="44.4152" lon="5.90738">
        <ele>1224</ele>
        <time>2010-07-17T14:20:40Z</time>
      </trkpt>
      <trkpt lat="44.41511" lon="5.90748">
        <ele>1224</ele>
        <time>2010-07-17T14:20:47Z</time>
      </trkpt>
      <trkpt lat="44.41504" lon="5.90754">
        <ele>1224</ele>
        <time>2010-07-17T14:20:54Z</time>
      </trkpt>
      <trkpt lat="44.41498" lon="5.90759">
        <ele>1225</ele>
        <time>2010-07-17T14:21:01Z</time>
      </trkpt>
      <trkpt lat="44.41488" lon="5.90769">
        <ele>1229</ele>
        <time>2010-07-17T14:21:08Z</time>
      </trkpt>
      <trkpt lat="44.41482" lon="5.90774">
        <ele>1229</ele>
        <time>2010-07-17T14:21:16Z</time>
      </trkpt>
      <trkpt lat="44.41477" lon="5.90782">
        <ele>1229</ele>
        <time>2010-07-17T14:21:23Z</time>
      </trkpt>
      <trkpt lat="44.41471" lon="5.9079">
        <ele>1229</ele>
        <time>2010-07-17T14:21:30Z</time>
      </trkpt>
      <trkpt lat="44.41463" lon="5.90797">
        <ele>1230</ele>
        <time>2010-07-17T14:21:38Z</time>
      </trkpt>
      <trkpt lat="44.41454" lon="5.9081">
        <ele>1230</ele>
        <time>2010-07-17T14:21:46Z</time>
      </trkpt>
      <trkpt lat="44.41447" lon="5.90817">
        <ele>1231</ele>
        <time>2010-07-17T14:21:54Z</time>
      </trkpt>
      <trkpt lat="44.41443" lon="5.90822">
        <ele>1233</ele>
        <time>2010-07-17T14:22:01Z</time>
      </trkpt>
      <trkpt lat="44.41434" lon="5.90828">
        <ele>1236</ele>
        <time>2010-07-17T14:22:09Z</time>
      </trkpt>
      <trkpt lat="44.41421" lon="5.90834">
        <ele>1241</ele>
        <time>2010-07-17T14:22:16Z</time>
      </trkpt>
      <trkpt lat="44.41411" lon="5.90835">
        <ele>1245</ele>
        <time>2010-07-17T14:22:23Z</time>
      </trkpt>
      <trkpt lat="44.414" lon="5.90837">
        <ele>1245</ele>
        <time>2010-07-17T14:22:30Z</time>
      </trkpt>
      <trkpt lat="44.41387" lon="5.90839">
        <ele>1245</ele>
        <time>2010-07-17T14:22:37Z</time>
      </trkpt>
      <trkpt lat="44.41374" lon="5.90849">
        <ele>1245</ele>
        <time>2010-07-17T14:22:44Z</time>
      </trkpt>
      <trkpt lat="44.41364" lon="5.90865">
        <ele>1247</ele>
        <time>2010-07-17T14:22:51Z</time>
      </trkpt>
      <trkpt lat="44.41356" lon="5.90889">
        <ele>1251</ele>
        <time>2010-07-17T14:22:58Z</time>
      </trkpt>
      <trkpt lat="44.41345" lon="5.9091">
        <ele>1256</ele>
        <time>2010-07-17T14:23:05Z</time>
      </trkpt>
      <trkpt lat="44.41334" lon="5.90902">
        <ele>1257</ele>
        <time>2010-07-17T14:23:12Z</time>
      </trkpt>
      <trkpt lat="44.41342" lon="5.90883">
        <ele>1257</ele>
        <time>2010-07-17T14:23:19Z</time>
      </trkpt>
      <trkpt lat="44.41349" lon="5.90863">
        <ele>1254</ele>
        <time>2010-07-17T14:23:26Z</time>
      </trkpt>
      <trkpt lat="44.41355" lon="5.90849">
        <ele>1253</ele>
        <time>2010-07-17T14:23:33Z</time>
      </trkpt>
      <trkpt lat="44.41361" lon="5.90831">
        <ele>1252</ele>
        <time>2010-07-17T14:23:41Z</time>
      </trkpt>
      <trkpt lat="44.41367" lon="5.90817">
        <ele>1251</ele>
        <time>2010-07-17T14:23:48Z</time>
      </trkpt>
      <trkpt lat="44.41373" lon="5.90806">
        <ele>1251</ele>
        <time>2010-07-17T14:23:55Z</time>
      </trkpt>
      <trkpt lat="44.41382" lon="5.90799">
        <ele>1251</ele>
        <time>2010-07-17T14:24:02Z</time>
      </trkpt>
      <trkpt lat="44.41393" lon="5.9079">
        <ele>1251</ele>
        <time>2010-07-17T14:24:09Z</time>
      </trkpt>
      <trkpt lat="44.41401" lon="5.90779">
        <ele>1251</ele>
        <time>2010-07-17T14:24:16Z</time>
      </trkpt>
      <trkpt lat="44.41411" lon="5.90775">
        <ele>1251</ele>
        <time>2010-07-17T14:24:23Z</time>
      </trkpt>
      <trkpt lat="44.41422" lon="5.90765">
        <ele>1252</ele>
        <time>2010-07-17T14:24:31Z</time>
      </trkpt>
      <trkpt lat="44.41426" lon="5.9075">
        <ele>1252</ele>
        <time>2010-07-17T14:24:38Z</time>
      </trkpt>
      <trkpt lat="44.41427" lon="5.90733">
        <ele>1257</ele>
        <time>2010-07-17T14:24:45Z</time>
      </trkpt>
      <trkpt lat="44.4143" lon="5.90721">
        <ele>1261</ele>
        <time>2010-07-17T14:24:52Z</time>
      </trkpt>
      <trkpt lat="44.41436" lon="5.90708">
        <ele>1263</ele>
        <time>2010-07-17T14:24:59Z</time>
      </trkpt>
      <trkpt lat="44.41441" lon="5.90695">
        <ele>1265</ele>
        <time>2010-07-17T14:25:06Z</time>
      </trkpt>
      <trkpt lat="44.41449" lon="5.90683">
        <ele>1265</ele>
        <time>2010-07-17T14:25:13Z</time>
      </trkpt>
      <trkpt lat="44.41457" lon="5.90669">
        <ele>1266</ele>
        <time>2010-07-17T14:25:21Z</time>
      </trkpt>
      <trkpt lat="44.41463" lon="5.90657">
        <ele>1268</ele>
        <time>2010-07-17T14:25:28Z</time>
      </trkpt>
      <trkpt lat="44.41469" lon="5.90639">
        <ele>1268</ele>
        <time>2010-07-17T14:25:36Z</time>
      </trkpt>
      <trkpt lat="44.41477" lon="5.90622">
        <ele>1268</ele>
        <time>2010-07-17T14:25:43Z</time>
      </trkpt>
      <trkpt lat="44.41488" lon="5.90598">
        <ele>1268</ele>
        <time>2010-07-17T14:25:51Z</time>
      </trkpt>
      <trkpt lat="44.41499" lon="5.90584">
        <ele>1268</ele>
        <time>2010-07-17T14:25:58Z</time>
      </trkpt>
      <trkpt lat="44.41509" lon="5.90571">
        <ele>1268</ele>
        <time>2010-07-17T14:26:05Z</time>
      </trkpt>
      <trkpt lat="44.41519" lon="5.90553">
        <ele>1268</ele>
        <time>2010-07-17T14:26:12Z</time>
      </trkpt>
      <trkpt lat="44.41526" lon="5.90535">
        <ele>1269</ele>
        <time>2010-07-17T14:26:19Z</time>
      </trkpt>
      <trkpt lat="44.41531" lon="5.90513">
        <ele>1269</ele>
        <time>2010-07-17T14:26:26Z</time>
      </trkpt>
      <trkpt lat="44.41525" lon="5.90499">
        <ele>1272</ele>
        <time>2010-07-17T14:26:33Z</time>
      </trkpt>
      <trkpt lat="44.41517" lon="5.90492">
        <ele>1274</ele>
        <time>2010-07-17T14:26:40Z</time>
      </trkpt>
      <trkpt lat="44.41505" lon="5.90499">
        <ele>1276</ele>
        <time>2010-07-17T14:26:47Z</time>
      </trkpt>
      <trkpt lat="44.41497" lon="5.9051">
        <ele>1278</ele>
        <time>2010-07-17T14:26:54Z</time>
      </trkpt>
      <trkpt lat="44.41489" lon="5.90523">
        <ele>1278</ele>
        <time>2010-07-17T14:27:01Z</time>
      </trkpt>
      <trkpt lat="44.41478" lon="5.90535">
        <ele>1281</ele>
        <time>2010-07-17T14:27:08Z</time>
      </trkpt>
      <trkpt lat="44.41465" lon="5.90552">
        <ele>1288</ele>
        <time>2010-07-17T14:27:15Z</time>
      </trkpt>
      <trkpt lat="44.41452" lon="5.90567">
        <ele>1292</ele>
        <time>2010-07-17T14:27:22Z</time>
      </trkpt>
      <trkpt lat="44.4144" lon="5.90582">
        <ele>1297</ele>
        <time>2010-07-17T14:27:29Z</time>
      </trkpt>
      <trkpt lat="44.4143" lon="5.90601">
        <ele>1301</ele>
        <time>2010-07-17T14:27:37Z</time>
      </trkpt>
      <trkpt lat="44.41426" lon="5.9061">
        <ele>1300</ele>
        <time>2010-07-17T14:27:45Z</time>
      </trkpt>
      <trkpt lat="44.41416" lon="5.90617">
        <ele>1294</ele>
        <time>2010-07-17T14:27:52Z</time>
      </trkpt>
      <trkpt lat="44.41402" lon="5.90625">
        <ele>1294</ele>
        <time>2010-07-17T14:27:59Z</time>
      </trkpt>
      <trkpt lat="44.41391" lon="5.90627">
        <ele>1294</ele>
        <time>2010-07-17T14:28:06Z</time>
      </trkpt>
      <trkpt lat="44.41378" lon="5.90631">
        <ele>1294</ele>
        <time>2010-07-17T14:28:13Z</time>
      </trkpt>
      <trkpt lat="44.41359" lon="5.90646">
        <ele>1294</ele>
        <time>2010-07-17T14:28:20Z</time>
      </trkpt>
      <trkpt lat="44.41346" lon="5.90672">
        <ele>1298</ele>
        <time>2010-07-17T14:28:27Z</time>
      </trkpt>
      <trkpt lat="44.41336" lon="5.907">
        <ele>1302</ele>
        <time>2010-07-17T14:28:34Z</time>
      </trkpt>
      <trkpt lat="44.41329" lon="5.90723">
        <ele>1307</ele>
        <time>2010-07-17T14:28:41Z</time>
      </trkpt>
      <trkpt lat="44.4132" lon="5.9074">
        <ele>1310</ele>
        <time>2010-07-17T14:28:48Z</time>
      </trkpt>
      <trkpt lat="44.41315" lon="5.90756">
        <ele>1310</ele>
        <time>2010-07-17T14:28:56Z</time>
      </trkpt>
      <trkpt lat="44.41304" lon="5.90764">
        <ele>1310</ele>
        <time>2010-07-17T14:29:04Z</time>
      </trkpt>
      <trkpt lat="44.41291" lon="5.90768">
        <ele>1310</ele>
        <time>2010-07-17T14:29:12Z</time>
      </trkpt>
      <trkpt lat="44.41281" lon="5.90765">
        <ele>1310</ele>
        <time>2010-07-17T14:29:19Z</time>
      </trkpt>
      <trkpt lat="44.41271" lon="5.90765">
        <ele>1310</ele>
        <time>2010-07-17T14:29:26Z</time>
      </trkpt>
      <trkpt lat="44.41262" lon="5.90766">
        <ele>1309</ele>
        <time>2010-07-17T14:29:33Z</time>
      </trkpt>
      <trkpt lat="44.41254" lon="5.90765">
        <ele>1309</ele>
        <time>2010-07-17T14:29:40Z</time>
      </trkpt>
      <trkpt lat="44.41246" lon="5.90766">
        <ele>1309</ele>
        <time>2010-07-17T14:29:47Z</time>
      </trkpt>
      <trkpt lat="44.41237" lon="5.90764">
        <ele>1309</ele>
        <time>2010-07-17T14:29:54Z</time>
      </trkpt>
      <trkpt lat="44.41227" lon="5.90761">
        <ele>1309</ele>
        <time>2010-07-17T14:30:01Z</time>
      </trkpt>
      <trkpt lat="44.41217" lon="5.90763">
        <ele>1309</ele>
        <time>2010-07-17T14:30:09Z</time>
      </trkpt>
      <trkpt lat="44.41206" lon="5.9077">
        <ele>1310</ele>
        <time>2010-07-17T14:30:16Z</time>
      </trkpt>
      <trkpt lat="44.41199" lon="5.90782">
        <ele>1314</ele>
        <time>2010-07-17T14:30:23Z</time>
      </trkpt>
      <trkpt lat="44.41192" lon="5.9079">
        <ele>1316</ele>
        <time>2010-07-17T14:30:30Z</time>
      </trkpt>
      <trkpt lat="44.41184" lon="5.908">
        <ele>1316</ele>
        <time>2010-07-17T14:30:37Z</time>
      </trkpt>
      <trkpt lat="44.41179" lon="5.9081">
        <ele>1317</ele>
        <time>2010-07-17T14:30:44Z</time>
      </trkpt>
      <trkpt lat="44.41172" lon="5.90824">
        <ele>1319</ele>
        <time>2010-07-17T14:30:51Z</time>
      </trkpt>
      <trkpt lat="44.41172" lon="5.90831">
        <ele>1320</ele>
        <time>2010-07-17T14:31:00Z</time>
      </trkpt>
      <trkpt lat="44.41172" lon="5.90832">
        <ele>1321</ele>
        <time>2010-07-17T14:31:07Z</time>
      </trkpt>
      <trkpt lat="44.41174" lon="5.90832">
        <ele>1323</ele>
        <time>2010-07-17T14:31:15Z</time>
      </trkpt>
      <trkpt lat="44.41174" lon="5.9083">
        <ele>1323</ele>
        <time>2010-07-17T14:31:28Z</time>
      </trkpt>
      <trkpt lat="44.41167" lon="5.90845">
        <ele>1325</ele>
        <time>2010-07-17T14:31:35Z</time>
      </trkpt>
      <trkpt lat="44.41158" lon="5.90858">
        <ele>1326</ele>
        <time>2010-07-17T14:31:43Z</time>
      </trkpt>
      <trkpt lat="44.41151" lon="5.9087">
        <ele>1326</ele>
        <time>2010-07-17T14:31:50Z</time>
      </trkpt>
      <trkpt lat="44.41145" lon="5.90878">
        <ele>1326</ele>
        <time>2010-07-17T14:31:57Z</time>
      </trkpt>
      <trkpt lat="44.4114" lon="5.90887">
        <ele>1326</ele>
        <time>2010-07-17T14:32:04Z</time>
      </trkpt>
      <trkpt lat="44.41134" lon="5.909">
        <ele>1326</ele>
        <time>2010-07-17T14:32:12Z</time>
      </trkpt>
      <trkpt lat="44.41128" lon="5.90911">
        <ele>1326</ele>
        <time>2010-07-17T14:32:20Z</time>
      </trkpt>
      <trkpt lat="44.41124" lon="5.90921">
        <ele>1328</ele>
        <time>2010-07-17T14:32:27Z</time>
      </trkpt>
      <trkpt lat="44.41119" lon="5.90931">
        <ele>1330</ele>
        <time>2010-07-17T14:32:34Z</time>
      </trkpt>
      <trkpt lat="44.41114" lon="5.90942">
        <ele>1335</ele>
        <time>2010-07-17T14:32:41Z</time>
      </trkpt>
      <trkpt lat="44.41108" lon="5.90955">
        <ele>1339</ele>
        <time>2010-07-17T14:32:48Z</time>
      </trkpt>
      <trkpt lat="44.41102" lon="5.90969">
        <ele>1340</ele>
        <time>2010-07-17T14:32:55Z</time>
      </trkpt>
      <trkpt lat="44.41095" lon="5.90982">
        <ele>1340</ele>
        <time>2010-07-17T14:33:02Z</time>
      </trkpt>
      <trkpt lat="44.41087" lon="5.90993">
        <ele>1343</ele>
        <time>2010-07-17T14:33:09Z</time>
      </trkpt>
      <trkpt lat="44.41081" lon="5.91004">
        <ele>1343</ele>
        <time>2010-07-17T14:33:16Z</time>
      </trkpt>
      <trkpt lat="44.41073" lon="5.91016">
        <ele>1343</ele>
        <time>2010-07-17T14:33:24Z</time>
      </trkpt>
      <trkpt lat="44.41067" lon="5.91029">
        <ele>1345</ele>
        <time>2010-07-17T14:33:31Z</time>
      </trkpt>
      <trkpt lat="44.4106" lon="5.91041">
        <ele>1345</ele>
        <time>2010-07-17T14:33:38Z</time>
      </trkpt>
      <trkpt lat="44.41053" lon="5.91053">
        <ele>1346</ele>
        <time>2010-07-17T14:33:45Z</time>
      </trkpt>
      <trkpt lat="44.41048" lon="5.91068">
        <ele>1350</ele>
        <time>2010-07-17T14:33:52Z</time>
      </trkpt>
      <trkpt lat="44.41041" lon="5.9108">
        <ele>1351</ele>
        <time>2010-07-17T14:33:59Z</time>
      </trkpt>
      <trkpt lat="44.41034" lon="5.91095">
        <ele>1351</ele>
        <time>2010-07-17T14:34:06Z</time>
      </trkpt>
      <trkpt lat="44.41028" lon="5.91109">
        <ele>1351</ele>
        <time>2010-07-17T14:34:13Z</time>
      </trkpt>
      <trkpt lat="44.41024" lon="5.91124">
        <ele>1351</ele>
        <time>2010-07-17T14:34:20Z</time>
      </trkpt>
      <trkpt lat="44.41021" lon="5.91142">
        <ele>1352</ele>
        <time>2010-07-17T14:34:27Z</time>
      </trkpt>
      <trkpt lat="44.41012" lon="5.91148">
        <ele>1353</ele>
        <time>2010-07-17T14:34:35Z</time>
      </trkpt>
      <trkpt lat="44.41008" lon="5.91151">
        <ele>1353</ele>
        <time>2010-07-17T14:34:46Z</time>
      </trkpt>
      <trkpt lat="44.4101" lon="5.91151">
        <ele>1353</ele>
        <time>2010-07-17T14:35:04Z</time>
      </trkpt>
      <trkpt lat="44.41011" lon="5.91149">
        <ele>1353</ele>
        <time>2010-07-17T14:35:17Z</time>
      </trkpt>
      <trkpt lat="44.41012" lon="5.91149">
        <ele>1359</ele>
        <time>2010-07-17T14:35:29Z</time>
      </trkpt>
      <trkpt lat="44.41013" lon="5.91152">
        <ele>1358</ele>
        <time>2010-07-17T14:35:37Z</time>
      </trkpt>
      <trkpt lat="44.41013" lon="5.91155">
        <ele>1353</ele>
        <time>2010-07-17T14:35:48Z</time>
      </trkpt>
      <trkpt lat="44.41013" lon="5.91155">
        <ele>1350</ele>
        <time>2010-07-17T14:36:03Z</time>
      </trkpt>
      <trkpt lat="44.41013" lon="5.91152">
        <ele>1353</ele>
        <time>2010-07-17T14:36:14Z</time>
      </trkpt>
      <trkpt lat="44.41013" lon="5.91151">
        <ele>1356</ele>
        <time>2010-07-17T14:36:21Z</time>
      </trkpt>
      <trkpt lat="44.41013" lon="5.91149">
        <ele>1360</ele>
        <time>2010-07-17T14:36:34Z</time>
      </trkpt>
      <trkpt lat="44.41013" lon="5.91146">
        <ele>1364</ele>
        <time>2010-07-17T14:36:58Z</time>
      </trkpt>
      <trkpt lat="44.41013" lon="5.91144">
        <ele>1367</ele>
        <time>2010-07-17T14:37:09Z</time>
      </trkpt>
      <trkpt lat="44.41013" lon="5.91149">
        <ele>1368</ele>
        <time>2010-07-17T14:37:17Z</time>
      </trkpt>
      <trkpt lat="44.41013" lon="5.91152">
        <ele>1357</ele>
        <time>2010-07-17T14:37:45Z</time>
      </trkpt>
      <trkpt lat="44.41014" lon="5.91154">
        <ele>1358</ele>
        <time>2010-07-17T14:38:43Z</time>
      </trkpt>
      <trkpt lat="44.41014" lon="5.91152">
        <ele>1358</ele>
        <time>2010-07-17T14:38:54Z</time>
      </trkpt>
      <trkpt lat="44.41015" lon="5.91147">
        <ele>1367</ele>
        <time>2010-07-17T14:39:03Z</time>
      </trkpt>
      <trkpt lat="44.41015" lon="5.91143">
        <ele>1374</ele>
        <time>2010-07-17T14:39:10Z</time>
      </trkpt>
      <trkpt lat="44.41015" lon="5.9114">
        <ele>1383</ele>
        <time>2010-07-17T14:39:19Z</time>
      </trkpt>
      <trkpt lat="44.41014" lon="5.91142">
        <ele>1390</ele>
        <time>2010-07-17T14:40:00Z</time>
      </trkpt>
      <trkpt lat="44.41014" lon="5.91145">
        <ele>1384</ele>
        <time>2010-07-17T14:40:12Z</time>
      </trkpt>
      <trkpt lat="44.41013" lon="5.91146">
        <ele>1374</ele>
        <time>2010-07-17T14:40:27Z</time>
      </trkpt>
      <trkpt lat="44.41012" lon="5.91145">
        <ele>1374</ele>
        <time>2010-07-17T14:40:34Z</time>
      </trkpt>
      <trkpt lat="44.41011" lon="5.91146">
        <ele>1369</ele>
        <time>2010-07-17T14:40:43Z</time>
      </trkpt>
      <trkpt lat="44.41011" lon="5.91148">
        <ele>1363</ele>
        <time>2010-07-17T14:40:58Z</time>
      </trkpt>
      <trkpt lat="44.41003" lon="5.91137">
        <ele>1358</ele>
        <time>2010-07-17T14:41:05Z</time>
      </trkpt>
      <trkpt lat="44.40987" lon="5.91086">
        <ele>1353</ele>
        <time>2010-07-17T14:41:12Z</time>
      </trkpt>
      <trkpt lat="44.40949" lon="5.91038">
        <ele>1350</ele>
        <time>2010-07-17T14:41:19Z</time>
      </trkpt>
      <trkpt lat="44.40909" lon="5.90998">
        <ele>1344</ele>
        <time>2010-07-17T14:41:26Z</time>
      </trkpt>
      <trkpt lat="44.40894" lon="5.9093">
        <ele>1336</ele>
        <time>2010-07-17T14:41:33Z</time>
      </trkpt>
      <trkpt lat="44.40861" lon="5.90869">
        <ele>1330</ele>
        <time>2010-07-17T14:41:40Z</time>
      </trkpt>
      <trkpt lat="44.40845" lon="5.90795">
        <ele>1333</ele>
        <time>2010-07-17T14:41:47Z</time>
      </trkpt>
      <trkpt lat="44.40838" lon="5.90707">
        <ele>1333</ele>
        <time>2010-07-17T14:41:54Z</time>
      </trkpt>
      <trkpt lat="44.4083" lon="5.90615">
        <ele>1323</ele>
        <time>2010-07-17T14:42:01Z</time>
      </trkpt>
      <trkpt lat="44.40822" lon="5.90532">
        <ele>1302</ele>
        <time>2010-07-17T14:42:08Z</time>
      </trkpt>
      <trkpt lat="44.4083" lon="5.90486">
        <ele>1285</ele>
        <time>2010-07-17T14:42:15Z</time>
      </trkpt>
      <trkpt lat="44.40864" lon="5.90458">
        <ele>1280</ele>
        <time>2010-07-17T14:42:22Z</time>
      </trkpt>
      <trkpt lat="44.40906" lon="5.90416">
        <ele>1280</ele>
        <time>2010-07-17T14:42:29Z</time>
      </trkpt>
      <trkpt lat="44.40955" lon="5.90399">
        <ele>1280</ele>
        <time>2010-07-17T14:42:36Z</time>
      </trkpt>
      <trkpt lat="44.40995" lon="5.90371">
        <ele>1276</ele>
        <time>2010-07-17T14:42:43Z</time>
      </trkpt>
      <trkpt lat="44.41036" lon="5.90339">
        <ele>1276</ele>
        <time>2010-07-17T14:42:50Z</time>
      </trkpt>
      <trkpt lat="44.41037" lon="5.90278">
        <ele>1277</ele>
        <time>2010-07-17T14:42:57Z</time>
      </trkpt>
      <trkpt lat="44.4103" lon="5.90206">
        <ele>1277</ele>
        <time>2010-07-17T14:43:04Z</time>
      </trkpt>
      <trkpt lat="44.41042" lon="5.90126">
        <ele>1272</ele>
        <time>2010-07-17T14:43:11Z</time>
      </trkpt>
      <trkpt lat="44.41076" lon="5.9006">
        <ele>1265</ele>
        <time>2010-07-17T14:43:18Z</time>
      </trkpt>
      <trkpt lat="44.41068" lon="5.89984">
        <ele>1262</ele>
        <time>2010-07-17T14:43:25Z</time>
      </trkpt>
      <trkpt lat="44.41053" lon="5.89931">
        <ele>1255</ele>
        <time>2010-07-17T14:43:32Z</time>
      </trkpt>
      <trkpt lat="44.41074" lon="5.89912">
        <ele>1254</ele>
        <time>2010-07-17T14:43:39Z</time>
      </trkpt>
      <trkpt lat="44.41093" lon="5.89899">
        <ele>1254</ele>
        <time>2010-07-17T14:43:46Z</time>
      </trkpt>
      <trkpt lat="44.41109" lon="5.89886">
        <ele>1256</ele>
        <time>2010-07-17T14:43:53Z</time>
      </trkpt>
      <trkpt lat="44.41124" lon="5.89875">
        <ele>1261</ele>
        <time>2010-07-17T14:44:00Z</time>
      </trkpt>
      <trkpt lat="44.41135" lon="5.89858">
        <ele>1264</ele>
        <time>2010-07-17T14:44:08Z</time>
      </trkpt>
      <trkpt lat="44.41167" lon="5.89833">
        <ele>1270</ele>
        <time>2010-07-17T14:44:20Z</time>
      </trkpt>
      <trkpt lat="44.41196" lon="5.89811">
        <ele>1276</ele>
        <time>2010-07-17T14:44:28Z</time>
      </trkpt>
      <trkpt lat="44.41219" lon="5.89797">
        <ele>1282</ele>
        <time>2010-07-17T14:44:36Z</time>
      </trkpt>
      <trkpt lat="44.41246" lon="5.89782">
        <ele>1286</ele>
        <time>2010-07-17T14:44:47Z</time>
      </trkpt>
      <trkpt lat="44.41283" lon="5.8977">
        <ele>1287</ele>
        <time>2010-07-17T14:44:55Z</time>
      </trkpt>
      <trkpt lat="44.41307" lon="5.89766">
        <ele>1285</ele>
        <time>2010-07-17T14:45:02Z</time>
      </trkpt>
      <trkpt lat="44.41338" lon="5.89772">
        <ele>1285</ele>
        <time>2010-07-17T14:45:14Z</time>
      </trkpt>
      <trkpt lat="44.41371" lon="5.89764">
        <ele>1287</ele>
        <time>2010-07-17T14:45:22Z</time>
      </trkpt>
      <trkpt lat="44.41383" lon="5.89734">
        <ele>1293</ele>
        <time>2010-07-17T14:45:31Z</time>
      </trkpt>
      <trkpt lat="44.41393" lon="5.897">
        <ele>1297</ele>
        <time>2010-07-17T14:45:38Z</time>
      </trkpt>
      <trkpt lat="44.41411" lon="5.89683">
        <ele>1289</ele>
        <time>2010-07-17T14:45:45Z</time>
      </trkpt>
      <trkpt lat="44.41434" lon="5.89675">
        <ele>1282</ele>
        <time>2010-07-17T14:45:57Z</time>
      </trkpt>
      <trkpt lat="44.41443" lon="5.89655">
        <ele>1285</ele>
        <time>2010-07-17T14:46:05Z</time>
      </trkpt>
      <trkpt lat="44.41449" lon="5.89604">
        <ele>1296</ele>
        <time>2010-07-17T14:46:14Z</time>
      </trkpt>
      <trkpt lat="44.41448" lon="5.89566">
        <ele>1300</ele>
        <time>2010-07-17T14:46:22Z</time>
      </trkpt>
      <trkpt lat="44.41441" lon="5.89539">
        <ele>1300</ele>
        <time>2010-07-17T14:46:29Z</time>
      </trkpt>
      <trkpt lat="44.41448" lon="5.89498">
        <ele>1292</ele>
        <time>2010-07-17T14:46:37Z</time>
      </trkpt>
      <trkpt lat="44.41457" lon="5.89488">
        <ele>1286</ele>
        <time>2010-07-17T14:46:44Z</time>
      </trkpt>
      <trkpt lat="44.41467" lon="5.89474">
        <ele>1278</ele>
        <time>2010-07-17T14:46:51Z</time>
      </trkpt>
      <trkpt lat="44.41494" lon="5.89462">
        <ele>1273</ele>
        <time>2010-07-17T14:46:59Z</time>
      </trkpt>
      <trkpt lat="44.41508" lon="5.8945">
        <ele>1276</ele>
        <time>2010-07-17T14:47:06Z</time>
      </trkpt>
      <trkpt lat="44.41534" lon="5.89435">
        <ele>1283</ele>
        <time>2010-07-17T14:47:14Z</time>
      </trkpt>
      <trkpt lat="44.41543" lon="5.89418">
        <ele>1296</ele>
        <time>2010-07-17T14:47:23Z</time>
      </trkpt>
      <trkpt lat="44.41546" lon="5.89376">
        <ele>1306</ele>
        <time>2010-07-17T14:47:31Z</time>
      </trkpt>
      <trkpt lat="44.41531" lon="5.89351">
        <ele>1310</ele>
        <time>2010-07-17T14:47:39Z</time>
      </trkpt>
      <trkpt lat="44.41519" lon="5.89325">
        <ele>1308</ele>
        <time>2010-07-17T14:47:47Z</time>
      </trkpt>
      <trkpt lat="44.41514" lon="5.89278">
        <ele>1301</ele>
        <time>2010-07-17T14:47:54Z</time>
      </trkpt>
      <trkpt lat="44.41526" lon="5.89235">
        <ele>1293</ele>
        <time>2010-07-17T14:48:01Z</time>
      </trkpt>
      <trkpt lat="44.41542" lon="5.89199">
        <ele>1285</ele>
        <time>2010-07-17T14:48:12Z</time>
      </trkpt>
      <trkpt lat="44.41571" lon="5.89172">
        <ele>1278</ele>
        <time>2010-07-17T14:48:20Z</time>
      </trkpt>
      <trkpt lat="44.41594" lon="5.89146">
        <ele>1281</ele>
        <time>2010-07-17T14:48:27Z</time>
      </trkpt>
      <trkpt lat="44.4159" lon="5.89123">
        <ele>1293</ele>
        <time>2010-07-17T14:48:35Z</time>
      </trkpt>
      <trkpt lat="44.41589" lon="5.89092">
        <ele>1313</ele>
        <time>2010-07-17T14:48:42Z</time>
      </trkpt>
      <trkpt lat="44.41594" lon="5.89074">
        <ele>1323</ele>
        <time>2010-07-17T14:48:49Z</time>
      </trkpt>
      <trkpt lat="44.41588" lon="5.89039">
        <ele>1329</ele>
        <time>2010-07-17T14:48:58Z</time>
      </trkpt>
      <trkpt lat="44.4158" lon="5.8898">
        <ele>1328</ele>
        <time>2010-07-17T14:49:05Z</time>
      </trkpt>
      <trkpt lat="44.41578" lon="5.88959">
        <ele>1324</ele>
        <time>2010-07-17T14:49:12Z</time>
      </trkpt>
      <trkpt lat="44.41569" lon="5.88899">
        <ele>1312</ele>
        <time>2010-07-17T14:49:20Z</time>
      </trkpt>
      <trkpt lat="44.41559" lon="5.88861">
        <ele>1306</ele>
        <time>2010-07-17T14:49:27Z</time>
      </trkpt>
      <trkpt lat="44.41568" lon="5.88822">
        <ele>1300</ele>
        <time>2010-07-17T14:49:34Z</time>
      </trkpt>
      <trkpt lat="44.41553" lon="5.88781">
        <ele>1293</ele>
        <time>2010-07-17T14:49:42Z</time>
      </trkpt>
      <trkpt lat="44.41537" lon="5.88762">
        <ele>1292</ele>
        <time>2010-07-17T14:49:49Z</time>
      </trkpt>
      <trkpt lat="44.41527" lon="5.88725">
        <ele>1290</ele>
        <time>2010-07-17T14:49:56Z</time>
      </trkpt>
      <trkpt lat="44.41532" lon="5.88708">
        <ele>1288</ele>
        <time>2010-07-17T14:50:03Z</time>
      </trkpt>
      <trkpt lat="44.41551" lon="5.88684">
        <ele>1288</ele>
        <time>2010-07-17T14:50:11Z</time>
      </trkpt>
      <trkpt lat="44.41603" lon="5.88635">
        <ele>1284</ele>
        <time>2010-07-17T14:50:18Z</time>
      </trkpt>
      <trkpt lat="44.41668" lon="5.88597">
        <ele>1280</ele>
        <time>2010-07-17T14:50:30Z</time>
      </trkpt>
      <trkpt lat="44.41733" lon="5.88562">
        <ele>1275</ele>
        <time>2010-07-17T14:50:37Z</time>
      </trkpt>
      <trkpt lat="44.41788" lon="5.88538">
        <ele>1267</ele>
        <time>2010-07-17T14:50:44Z</time>
      </trkpt>
      <trkpt lat="44.41823" lon="5.88491">
        <ele>1259</ele>
        <time>2010-07-17T14:50:52Z</time>
      </trkpt>
      <trkpt lat="44.41846" lon="5.88437">
        <ele>1252</ele>
        <time>2010-07-17T14:51:00Z</time>
      </trkpt>
      <trkpt lat="44.41903" lon="5.88423">
        <ele>1241</ele>
        <time>2010-07-17T14:51:08Z</time>
      </trkpt>
      <trkpt lat="44.41953" lon="5.88446">
        <ele>1236</ele>
        <time>2010-07-17T14:51:17Z</time>
      </trkpt>
      <trkpt lat="44.41971" lon="5.884">
        <ele>1233</ele>
        <time>2010-07-17T14:51:24Z</time>
      </trkpt>
      <trkpt lat="44.41969" lon="5.88334">
        <ele>1227</ele>
        <time>2010-07-17T14:51:31Z</time>
      </trkpt>
      <trkpt lat="44.42003" lon="5.88289">
        <ele>1219</ele>
        <time>2010-07-17T14:51:38Z</time>
      </trkpt>
      <trkpt lat="44.42058" lon="5.88254">
        <ele>1213</ele>
        <time>2010-07-17T14:51:47Z</time>
      </trkpt>
      <trkpt lat="44.42046" lon="5.88226">
        <ele>1215</ele>
        <time>2010-07-17T14:51:54Z</time>
      </trkpt>
      <trkpt lat="44.42005" lon="5.88195">
        <ele>1216</ele>
        <time>2010-07-17T14:52:02Z</time>
      </trkpt>
      <trkpt lat="44.41956" lon="5.88141">
        <ele>1209</ele>
        <time>2010-07-17T14:52:09Z</time>
      </trkpt>
      <trkpt lat="44.4192" lon="5.88072">
        <ele>1203</ele>
        <time>2010-07-17T14:52:16Z</time>
      </trkpt>
      <trkpt lat="44.419" lon="5.88036">
        <ele>1199</ele>
        <time>2010-07-17T14:52:24Z</time>
      </trkpt>
      <trkpt lat="44.41913" lon="5.88082">
        <ele>1187</ele>
        <time>2010-07-17T14:52:31Z</time>
      </trkpt>
      <trkpt lat="44.4194" lon="5.88122">
        <ele>1173</ele>
        <time>2010-07-17T14:52:38Z</time>
      </trkpt>
      <trkpt lat="44.41914" lon="5.88117">
        <ele>1160</ele>
        <time>2010-07-17T14:52:47Z</time>
      </trkpt>
      <trkpt lat="44.41896" lon="5.88095">
        <ele>1153</ele>
        <time>2010-07-17T14:52:54Z</time>
      </trkpt>
      <trkpt lat="44.41874" lon="5.8807">
        <ele>1150</ele>
        <time>2010-07-17T14:53:01Z</time>
      </trkpt>
      <trkpt lat="44.41843" lon="5.88049">
        <ele>1150</ele>
        <time>2010-07-17T14:53:08Z</time>
      </trkpt>
      <trkpt lat="44.41783" lon="5.88014">
        <ele>1150</ele>
        <time>2010-07-17T14:53:19Z</time>
      </trkpt>
      <trkpt lat="44.41785" lon="5.88">
        <ele>1150</ele>
        <time>2010-07-17T14:53:27Z</time>
      </trkpt>
      <trkpt lat="44.41786" lon="5.87997">
        <ele>1142</ele>
        <time>2010-07-17T14:53:35Z</time>
      </trkpt>
      <trkpt lat="44.41783" lon="5.87992">
        <ele>1134</ele>
        <time>2010-07-17T14:53:44Z</time>
      </trkpt>
      <trkpt lat="44.41789" lon="5.87985">
        <ele>1126</ele>
        <time>2010-07-17T14:53:52Z</time>
      </trkpt>
      <trkpt lat="44.41788" lon="5.87978">
        <ele>1125</ele>
        <time>2010-07-17T14:53:59Z</time>
      </trkpt>
      <trkpt lat="44.4178" lon="5.87976">
        <ele>1124</ele>
        <time>2010-07-17T14:54:24Z</time>
      </trkpt>
      <trkpt lat="44.41782" lon="5.87974">
        <ele>1124</ele>
        <time>2010-07-17T14:54:35Z</time>
      </trkpt>
      <trkpt lat="44.41793" lon="5.8796">
        <ele>1125</ele>
        <time>2010-07-17T14:54:43Z</time>
      </trkpt>
      <trkpt lat="44.41798" lon="5.87957">
        <ele>1125</ele>
        <time>2010-07-17T14:54:51Z</time>
      </trkpt>
      <trkpt lat="44.41796" lon="5.87959">
        <ele>1123</ele>
        <time>2010-07-17T14:55:02Z</time>
      </trkpt>
      <trkpt lat="44.41787" lon="5.87967">
        <ele>1116</ele>
        <time>2010-07-17T14:55:16Z</time>
      </trkpt>
      <trkpt lat="44.41791" lon="5.87964">
        <ele>1112</ele>
        <time>2010-07-17T14:55:27Z</time>
      </trkpt>
      <trkpt lat="44.4179" lon="5.87964">
        <ele>1116</ele>
        <time>2010-07-17T14:55:34Z</time>
      </trkpt>
      <trkpt lat="44.41797" lon="5.87957">
        <ele>1117</ele>
        <time>2010-07-17T14:55:41Z</time>
      </trkpt>
      <trkpt lat="44.41792" lon="5.87961">
        <ele>1124</ele>
        <time>2010-07-17T14:55:48Z</time>
      </trkpt>
      <trkpt lat="44.41773" lon="5.8782">
        <ele>1128</ele>
        <time>2010-07-17T14:56:32Z</time>
      </trkpt>
      <trkpt lat="44.41787" lon="5.8777">
        <ele>1119</ele>
        <time>2010-07-17T14:56:39Z</time>
      </trkpt>
      <trkpt lat="44.4179" lon="5.87714">
        <ele>1113</ele>
        <time>2010-07-17T14:56:48Z</time>
      </trkpt>
      <trkpt lat="44.41783" lon="5.87706">
        <ele>1109</ele>
        <time>2010-07-17T14:56:56Z</time>
      </trkpt>
      <trkpt lat="44.41774" lon="5.87734">
        <ele>1108</ele>
        <time>2010-07-17T14:57:03Z</time>
      </trkpt>
      <trkpt lat="44.41766" lon="5.87771">
        <ele>1107</ele>
        <time>2010-07-17T14:57:11Z</time>
      </trkpt>
      <trkpt lat="44.41747" lon="5.87795">
        <ele>1100</ele>
        <time>2010-07-17T14:57:18Z</time>
      </trkpt>
      <trkpt lat="44.4174" lon="5.87836">
        <ele>1088</ele>
        <time>2010-07-17T14:57:26Z</time>
      </trkpt>
      <trkpt lat="44.41725" lon="5.87879">
        <ele>1080</ele>
        <time>2010-07-17T14:57:33Z</time>
      </trkpt>
      <trkpt lat="44.41709" lon="5.87919">
        <ele>1072</ele>
        <time>2010-07-17T14:57:41Z</time>
      </trkpt>
      <trkpt lat="44.41702" lon="5.8795">
        <ele>1071</ele>
        <time>2010-07-17T14:57:48Z</time>
      </trkpt>
      <trkpt lat="44.41689" lon="5.87971">
        <ele>1071</ele>
        <time>2010-07-17T14:57:57Z</time>
      </trkpt>
      <trkpt lat="44.41693" lon="5.87948">
        <ele>1071</ele>
        <time>2010-07-17T14:58:04Z</time>
      </trkpt>
      <trkpt lat="44.41694" lon="5.87914">
        <ele>1071</ele>
        <time>2010-07-17T14:58:11Z</time>
      </trkpt>
      <trkpt lat="44.41697" lon="5.87874">
        <ele>1071</ele>
        <time>2010-07-17T14:58:18Z</time>
      </trkpt>
      <trkpt lat="44.41697" lon="5.8783">
        <ele>1061</ele>
        <time>2010-07-17T14:58:26Z</time>
      </trkpt>
      <trkpt lat="44.41697" lon="5.87787">
        <ele>1052</ele>
        <time>2010-07-17T14:58:33Z</time>
      </trkpt>
      <trkpt lat="44.41694" lon="5.87751">
        <ele>1042</ele>
        <time>2010-07-17T14:58:41Z</time>
      </trkpt>
      <trkpt lat="44.4169" lon="5.87721">
        <ele>1033</ele>
        <time>2010-07-17T14:58:48Z</time>
      </trkpt>
      <trkpt lat="44.4169" lon="5.87681">
        <ele>1026</ele>
        <time>2010-07-17T14:58:56Z</time>
      </trkpt>
      <trkpt lat="44.41691" lon="5.87673">
        <ele>1025</ele>
        <time>2010-07-17T14:59:05Z</time>
      </trkpt>
      <trkpt lat="44.41673" lon="5.87706">
        <ele>1025</ele>
        <time>2010-07-17T14:59:12Z</time>
      </trkpt>
      <trkpt lat="44.41667" lon="5.87737">
        <ele>1022</ele>
        <time>2010-07-17T14:59:19Z</time>
      </trkpt>
      <trkpt lat="44.41658" lon="5.87776">
        <ele>1021</ele>
        <time>2010-07-17T14:59:26Z</time>
      </trkpt>
      <trkpt lat="44.41642" lon="5.87822">
        <ele>1021</ele>
        <time>2010-07-17T14:59:33Z</time>
      </trkpt>
      <trkpt lat="44.41624" lon="5.87856">
        <ele>1018</ele>
        <time>2010-07-17T14:59:41Z</time>
      </trkpt>
      <trkpt lat="44.41623" lon="5.87829">
        <ele>1015</ele>
        <time>2010-07-17T14:59:48Z</time>
      </trkpt>
      <trkpt lat="44.41626" lon="5.87765">
        <ele>1005</ele>
        <time>2010-07-17T14:59:56Z</time>
      </trkpt>
      <trkpt lat="44.41628" lon="5.87723">
        <ele>998</ele>
        <time>2010-07-17T15:00:03Z</time>
      </trkpt>
      <trkpt lat="44.41626" lon="5.87692">
        <ele>987</ele>
        <time>2010-07-17T15:00:12Z</time>
      </trkpt>
      <trkpt lat="44.41629" lon="5.87677">
        <ele>983</ele>
        <time>2010-07-17T15:00:19Z</time>
      </trkpt>
      <trkpt lat="44.41629" lon="5.87666">
        <ele>983</ele>
        <time>2010-07-17T15:00:26Z</time>
      </trkpt>
      <trkpt lat="44.41629" lon="5.87661">
        <ele>983</ele>
        <time>2010-07-17T15:00:34Z</time>
      </trkpt>
      <trkpt lat="44.4163" lon="5.87657">
        <ele>988</ele>
        <time>2010-07-17T15:00:45Z</time>
      </trkpt>
      <trkpt lat="44.41629" lon="5.87659">
        <ele>988</ele>
        <time>2010-07-17T15:00:55Z</time>
      </trkpt>
      <trkpt lat="44.41629" lon="5.87662">
        <ele>977</ele>
        <time>2010-07-17T15:01:05Z</time>
      </trkpt>
      <trkpt lat="44.41629" lon="5.87663">
        <ele>977</ele>
        <time>2010-07-17T15:01:16Z</time>
      </trkpt>
      <trkpt lat="44.41626" lon="5.87663">
        <ele>977</ele>
        <time>2010-07-17T15:01:26Z</time>
      </trkpt>
      <trkpt lat="44.41627" lon="5.87662">
        <ele>980</ele>
        <time>2010-07-17T15:01:33Z</time>
      </trkpt>
      <trkpt lat="44.4163" lon="5.87661">
        <ele>983</ele>
        <time>2010-07-17T15:01:41Z</time>
      </trkpt>
      <trkpt lat="44.41631" lon="5.87659">
        <ele>983</ele>
        <time>2010-07-17T15:01:50Z</time>
      </trkpt>
      <trkpt lat="44.41631" lon="5.87656">
        <ele>982</ele>
        <time>2010-07-17T15:01:59Z</time>
      </trkpt>
      <trkpt lat="44.41628" lon="5.87655">
        <ele>980</ele>
        <time>2010-07-17T15:02:06Z</time>
      </trkpt>
      <trkpt lat="44.41618" lon="5.87677">
        <ele>980</ele>
        <time>2010-07-17T15:02:13Z</time>
      </trkpt>
      <trkpt lat="44.41612" lon="5.87684">
        <ele>978</ele>
        <time>2010-07-17T15:02:22Z</time>
      </trkpt>
      <trkpt lat="44.41611" lon="5.87681">
        <ele>977</ele>
        <time>2010-07-17T15:02:29Z</time>
      </trkpt>
      <trkpt lat="44.4161" lon="5.87661">
        <ele>977</ele>
        <time>2010-07-17T15:02:36Z</time>
      </trkpt>
      <trkpt lat="44.4161" lon="5.8764">
        <ele>977</ele>
        <time>2010-07-17T15:02:43Z</time>
      </trkpt>
      <trkpt lat="44.41605" lon="5.87637">
        <ele>968</ele>
        <time>2010-07-17T15:02:52Z</time>
      </trkpt>
      <trkpt lat="44.41603" lon="5.87632">
        <ele>964</ele>
        <time>2010-07-17T15:03:01Z</time>
      </trkpt>
      <trkpt lat="44.41602" lon="5.87634">
        <ele>964</ele>
        <time>2010-07-17T15:03:08Z</time>
      </trkpt>
      <trkpt lat="44.41594" lon="5.87648">
        <ele>964</ele>
        <time>2010-07-17T15:03:16Z</time>
      </trkpt>
      <trkpt lat="44.41585" lon="5.87634">
        <ele>957</ele>
        <time>2010-07-17T15:03:23Z</time>
      </trkpt>
      <trkpt lat="44.41576" lon="5.87642">
        <ele>949</ele>
        <time>2010-07-17T15:03:31Z</time>
      </trkpt>
      <trkpt lat="44.41569" lon="5.87676">
        <ele>943</ele>
        <time>2010-07-17T15:03:38Z</time>
      </trkpt>
      <trkpt lat="44.41565" lon="5.87681">
        <ele>940</ele>
        <time>2010-07-17T15:03:48Z</time>
      </trkpt>
      <trkpt lat="44.41552" lon="5.87703">
        <ele>939</ele>
        <time>2010-07-17T15:03:56Z</time>
      </trkpt>
      <trkpt lat="44.41542" lon="5.87718">
        <ele>935</ele>
        <time>2010-07-17T15:04:03Z</time>
      </trkpt>
      <trkpt lat="44.4154" lon="5.87726">
        <ele>937</ele>
        <time>2010-07-17T15:04:12Z</time>
      </trkpt>
      <trkpt lat="44.41537" lon="5.8773">
        <ele>941</ele>
        <time>2010-07-17T15:04:19Z</time>
      </trkpt>
      <trkpt lat="44.41526" lon="5.8773">
        <ele>942</ele>
        <time>2010-07-17T15:04:26Z</time>
      </trkpt>
      <trkpt lat="44.41504" lon="5.87738">
        <ele>942</ele>
        <time>2010-07-17T15:04:33Z</time>
      </trkpt>
      <trkpt lat="44.41488" lon="5.87753">
        <ele>942</ele>
        <time>2010-07-17T15:04:42Z</time>
      </trkpt>
      <trkpt lat="44.41463" lon="5.87753">
        <ele>935</ele>
        <time>2010-07-17T15:04:49Z</time>
      </trkpt>
      <trkpt lat="44.41435" lon="5.87752">
        <ele>928</ele>
        <time>2010-07-17T15:04:56Z</time>
      </trkpt>
      <trkpt lat="44.41414" lon="5.87757">
        <ele>921</ele>
        <time>2010-07-17T15:05:03Z</time>
      </trkpt>
      <trkpt lat="44.41395" lon="5.87757">
        <ele>913</ele>
        <time>2010-07-17T15:05:11Z</time>
      </trkpt>
      <trkpt lat="44.41366" lon="5.87765">
        <ele>910</ele>
        <time>2010-07-17T15:05:18Z</time>
      </trkpt>
      <trkpt lat="44.41377" lon="5.87744">
        <ele>910</ele>
        <time>2010-07-17T15:05:26Z</time>
      </trkpt>
      <trkpt lat="44.41407" lon="5.87719">
        <ele>910</ele>
        <time>2010-07-17T15:05:33Z</time>
      </trkpt>
      <trkpt lat="44.41392" lon="5.87692">
        <ele>910</ele>
        <time>2010-07-17T15:05:41Z</time>
      </trkpt>
      <trkpt lat="44.41393" lon="5.87646">
        <ele>910</ele>
        <time>2010-07-17T15:05:48Z</time>
      </trkpt>
      <trkpt lat="44.41423" lon="5.87576">
        <ele>903</ele>
        <time>2010-07-17T15:05:56Z</time>
      </trkpt>
      <trkpt lat="44.41443" lon="5.87583">
        <ele>896</ele>
        <time>2010-07-17T15:06:03Z</time>
      </trkpt>
      <trkpt lat="44.41436" lon="5.87553">
        <ele>893</ele>
        <time>2010-07-17T15:06:11Z</time>
      </trkpt>
      <trkpt lat="44.41417" lon="5.87532">
        <ele>896</ele>
        <time>2010-07-17T15:06:18Z</time>
      </trkpt>
      <trkpt lat="44.41409" lon="5.87532">
        <ele>890</ele>
        <time>2010-07-17T15:06:27Z</time>
      </trkpt>
      <trkpt lat="44.41404" lon="5.8753">
        <ele>887</ele>
        <time>2010-07-17T15:06:34Z</time>
      </trkpt>
      <trkpt lat="44.4139" lon="5.87499">
        <ele>884</ele>
        <time>2010-07-17T15:06:41Z</time>
      </trkpt>
      <trkpt lat="44.4138" lon="5.87431">
        <ele>875</ele>
        <time>2010-07-17T15:06:48Z</time>
      </trkpt>
      <trkpt lat="44.41343" lon="5.87403">
        <ele>867</ele>
        <time>2010-07-17T15:06:56Z</time>
      </trkpt>
      <trkpt lat="44.41305" lon="5.87392">
        <ele>853</ele>
        <time>2010-07-17T15:07:03Z</time>
      </trkpt>
      <trkpt lat="44.41266" lon="5.87359">
        <ele>844</ele>
        <time>2010-07-17T15:07:11Z</time>
      </trkpt>
      <trkpt lat="44.4122" lon="5.87347">
        <ele>833</ele>
        <time>2010-07-17T15:07:18Z</time>
      </trkpt>
      <trkpt lat="44.412" lon="5.87296">
        <ele>831</ele>
        <time>2010-07-17T15:07:26Z</time>
      </trkpt>
      <trkpt lat="44.41191" lon="5.87276">
        <ele>825</ele>
        <time>2010-07-17T15:07:33Z</time>
      </trkpt>
      <trkpt lat="44.41178" lon="5.87239">
        <ele>817</ele>
        <time>2010-07-17T15:07:41Z</time>
      </trkpt>
      <trkpt lat="44.41178" lon="5.87212">
        <ele>810</ele>
        <time>2010-07-17T15:07:48Z</time>
      </trkpt>
      <trkpt lat="44.41187" lon="5.87175">
        <ele>809</ele>
        <time>2010-07-17T15:07:56Z</time>
      </trkpt>
      <trkpt lat="44.41168" lon="5.8715">
        <ele>809</ele>
        <time>2010-07-17T15:08:03Z</time>
      </trkpt>
      <trkpt lat="44.41151" lon="5.87104">
        <ele>809</ele>
        <time>2010-07-17T15:08:11Z</time>
      </trkpt>
      <trkpt lat="44.41159" lon="5.87057">
        <ele>809</ele>
        <time>2010-07-17T15:08:18Z</time>
      </trkpt>
      <trkpt lat="44.4116" lon="5.87">
        <ele>809</ele>
        <time>2010-07-17T15:08:26Z</time>
      </trkpt>
      <trkpt lat="44.41166" lon="5.86954">
        <ele>809</ele>
        <time>2010-07-17T15:08:33Z</time>
      </trkpt>
      <trkpt lat="44.41186" lon="5.86914">
        <ele>809</ele>
        <time>2010-07-17T15:08:41Z</time>
      </trkpt>
      <trkpt lat="44.41212" lon="5.86895">
        <ele>809</ele>
        <time>2010-07-17T15:08:48Z</time>
      </trkpt>
      <trkpt lat="44.41245" lon="5.86877">
        <ele>809</ele>
        <time>2010-07-17T15:08:56Z</time>
      </trkpt>
      <trkpt lat="44.41271" lon="5.86865">
        <ele>808</ele>
        <time>2010-07-17T15:09:03Z</time>
      </trkpt>
      <trkpt lat="44.41296" lon="5.86861">
        <ele>806</ele>
        <time>2010-07-17T15:09:11Z</time>
      </trkpt>
      <trkpt lat="44.41304" lon="5.86841">
        <ele>805</ele>
        <time>2010-07-17T15:09:18Z</time>
      </trkpt>
      <trkpt lat="44.41297" lon="5.8682">
        <ele>805</ele>
        <time>2010-07-17T15:09:26Z</time>
      </trkpt>
      <trkpt lat="44.41287" lon="5.86804">
        <ele>805</ele>
        <time>2010-07-17T15:09:33Z</time>
      </trkpt>
      <trkpt lat="44.41289" lon="5.86784">
        <ele>805</ele>
        <time>2010-07-17T15:09:41Z</time>
      </trkpt>
      <trkpt lat="44.41302" lon="5.86782">
        <ele>806</ele>
        <time>2010-07-17T15:09:49Z</time>
      </trkpt>
      <trkpt lat="44.41309" lon="5.86782">
        <ele>807</ele>
        <time>2010-07-17T15:09:56Z</time>
      </trkpt>
      <trkpt lat="44.41322" lon="5.86781">
        <ele>807</ele>
        <time>2010-07-17T15:10:03Z</time>
      </trkpt>
      <trkpt lat="44.4133" lon="5.86781">
        <ele>808</ele>
        <time>2010-07-17T15:10:11Z</time>
      </trkpt>
      <trkpt lat="44.41331" lon="5.86784">
        <ele>814</ele>
        <time>2010-07-17T15:10:20Z</time>
      </trkpt>
      <trkpt lat="44.41329" lon="5.86786">
        <ele>822</ele>
        <time>2010-07-17T15:10:35Z</time>
      </trkpt>
      <trkpt lat="44.41327" lon="5.86786">
        <ele>826</ele>
        <time>2010-07-17T15:10:44Z</time>
      </trkpt>
      <trkpt lat="44.41327" lon="5.86791">
        <ele>830</ele>
        <time>2010-07-17T15:10:52Z</time>
      </trkpt>
      <trkpt lat="44.41335" lon="5.8679">
        <ele>829</ele>
        <time>2010-07-17T15:11:02Z</time>
      </trkpt>
      <trkpt lat="44.41333" lon="5.86782">
        <ele>825</ele>
        <time>2010-07-17T15:11:11Z</time>
      </trkpt>
      <trkpt lat="44.4133" lon="5.86778">
        <ele>816</ele>
        <time>2010-07-17T15:11:25Z</time>
      </trkpt>
      <trkpt lat="44.41335" lon="5.8678">
        <ele>812</ele>
        <time>2010-07-17T15:11:33Z</time>
      </trkpt>
      <trkpt lat="44.41351" lon="5.86781">
        <ele>812</ele>
        <time>2010-07-17T15:11:40Z</time>
      </trkpt>
      <trkpt lat="44.41368" lon="5.86778">
        <ele>815</ele>
        <time>2010-07-17T15:11:48Z</time>
      </trkpt>
      <trkpt lat="44.41383" lon="5.86777">
        <ele>818</ele>
        <time>2010-07-17T15:11:56Z</time>
      </trkpt>
      <trkpt lat="44.41393" lon="5.86779">
        <ele>820</ele>
        <time>2010-07-17T15:12:03Z</time>
      </trkpt>
      <trkpt lat="44.41405" lon="5.86778">
        <ele>821</ele>
        <time>2010-07-17T15:12:11Z</time>
      </trkpt>
      <trkpt lat="44.41416" lon="5.86779">
        <ele>824</ele>
        <time>2010-07-17T15:12:19Z</time>
      </trkpt>
      <trkpt lat="44.41426" lon="5.8678">
        <ele>826</ele>
        <time>2010-07-17T15:12:26Z</time>
      </trkpt>
      <trkpt lat="44.41438" lon="5.86779">
        <ele>826</ele>
        <time>2010-07-17T15:12:33Z</time>
      </trkpt>
      <trkpt lat="44.4145" lon="5.86779">
        <ele>827</ele>
        <time>2010-07-17T15:12:41Z</time>
      </trkpt>
      <trkpt lat="44.41461" lon="5.86778">
        <ele>828</ele>
        <time>2010-07-17T15:12:48Z</time>
      </trkpt>
      <trkpt lat="44.41474" lon="5.86779">
        <ele>828</ele>
        <time>2010-07-17T15:12:56Z</time>
      </trkpt>
      <trkpt lat="44.41486" lon="5.86779">
        <ele>830</ele>
        <time>2010-07-17T15:13:03Z</time>
      </trkpt>
      <trkpt lat="44.41499" lon="5.86779">
        <ele>831</ele>
        <time>2010-07-17T15:13:11Z</time>
      </trkpt>
      <trkpt lat="44.41511" lon="5.86778">
        <ele>833</ele>
        <time>2010-07-17T15:13:18Z</time>
      </trkpt>
      <trkpt lat="44.41526" lon="5.86777">
        <ele>834</ele>
        <time>2010-07-17T15:13:26Z</time>
      </trkpt>
      <trkpt lat="44.41535" lon="5.86775">
        <ele>835</ele>
        <time>2010-07-17T15:13:33Z</time>
      </trkpt>
      <trkpt lat="44.41549" lon="5.86775">
        <ele>837</ele>
        <time>2010-07-17T15:13:41Z</time>
      </trkpt>
      <trkpt lat="44.41559" lon="5.86776">
        <ele>839</ele>
        <time>2010-07-17T15:13:48Z</time>
      </trkpt>
      <trkpt lat="44.41571" lon="5.86776">
        <ele>840</ele>
        <time>2010-07-17T15:13:56Z</time>
      </trkpt>
      <trkpt lat="44.41583" lon="5.86776">
        <ele>841</ele>
        <time>2010-07-17T15:14:03Z</time>
      </trkpt>
      <trkpt lat="44.41594" lon="5.86778">
        <ele>845</ele>
        <time>2010-07-17T15:14:11Z</time>
      </trkpt>
      <trkpt lat="44.41604" lon="5.86775">
        <ele>847</ele>
        <time>2010-07-17T15:14:18Z</time>
      </trkpt>
      <trkpt lat="44.41613" lon="5.86773">
        <ele>848</ele>
        <time>2010-07-17T15:14:26Z</time>
      </trkpt>
      <trkpt lat="44.4162" lon="5.86764">
        <ele>848</ele>
        <time>2010-07-17T15:14:33Z</time>
      </trkpt>
      <trkpt lat="44.41617" lon="5.86743">
        <ele>852</ele>
        <time>2010-07-17T15:14:41Z</time>
      </trkpt>
      <trkpt lat="44.41606" lon="5.86726">
        <ele>856</ele>
        <time>2010-07-17T15:14:48Z</time>
      </trkpt>
      <trkpt lat="44.41593" lon="5.86702">
        <ele>856</ele>
        <time>2010-07-17T15:14:56Z</time>
      </trkpt>
      <trkpt lat="44.4159" lon="5.86676">
        <ele>851</ele>
        <time>2010-07-17T15:15:03Z</time>
      </trkpt>
      <trkpt lat="44.41588" lon="5.86662">
        <ele>850</ele>
        <time>2010-07-17T15:15:11Z</time>
      </trkpt>
      <trkpt lat="44.41581" lon="5.86671">
        <ele>850</ele>
        <time>2010-07-17T15:15:18Z</time>
      </trkpt>
      <trkpt lat="44.41588" lon="5.8668">
        <ele>849</ele>
        <time>2010-07-17T15:15:26Z</time>
      </trkpt>
      <trkpt lat="44.41592" lon="5.86679">
        <ele>848</ele>
        <time>2010-07-17T15:15:34Z</time>
      </trkpt>
    </trkseg>
  </trk>
</gpx>